<?xml version="1.0" encoding="UTF-8" standalone="no" ?>
<gpx xmlns="http://www.topografix.com/GPX/1/1" xmlns:xsi="http://www.w3.org/2001/XMLSchema-instance" xsi:schemaLocation="http://www.topografix.com/GPX/1/1 http://www.topografix.com/GPX/1/1/gpx.xsd" version="1.1" creator="VisuGPX - https://www.visugpx.com">
  <metadata>
    <name>SkiRando_Pic de Nérassol</name>
    <desc><![CDATA[Ski Rando
Ludo (raquettes)
Portage ski de la Porteilla du Sisca - Sommet - Porteilla du Sisca]]></desc>
  </metadata>
  <trk>
    <name><![CDATA[23-MARS-13 15:11:31]]></name>
    <trkseg>
      <trkpt lat="42.58829" lon="1.79896">
        <ele>1434.42</ele>
        <time>2013-03-23T06:12:55Z</time>
      </trkpt>
      <trkpt lat="42.58826" lon="1.79896">
        <ele>1433.46</ele>
        <time>2013-03-23T06:13:19Z</time>
      </trkpt>
      <trkpt lat="42.58826" lon="1.79899">
        <ele>1434.42</ele>
        <time>2013-03-23T06:13:43Z</time>
      </trkpt>
      <trkpt lat="42.58827" lon="1.79894">
        <ele>1433.94</ele>
        <time>2013-03-23T06:14:06Z</time>
      </trkpt>
      <trkpt lat="42.58828" lon="1.79895">
        <ele>1433.46</ele>
        <time>2013-03-23T06:14:21Z</time>
      </trkpt>
      <trkpt lat="42.58827" lon="1.79897">
        <ele>1432.5</ele>
        <time>2013-03-23T06:14:45Z</time>
      </trkpt>
      <trkpt lat="42.58826" lon="1.79896">
        <ele>1433.94</ele>
        <time>2013-03-23T06:14:59Z</time>
      </trkpt>
      <trkpt lat="42.58826" lon="1.79896">
        <ele>1433.94</ele>
        <time>2013-03-23T06:15:15Z</time>
      </trkpt>
      <trkpt lat="42.58828" lon="1.79897">
        <ele>1434.42</ele>
        <time>2013-03-23T06:15:17Z</time>
      </trkpt>
      <trkpt lat="42.58832" lon="1.79894">
        <ele>1434.42</ele>
        <time>2013-03-23T06:15:27Z</time>
      </trkpt>
      <trkpt lat="42.58831" lon="1.79888">
        <ele>1433.94</ele>
        <time>2013-03-23T06:15:31Z</time>
      </trkpt>
      <trkpt lat="42.58826" lon="1.79878">
        <ele>1434.42</ele>
        <time>2013-03-23T06:15:38Z</time>
      </trkpt>
      <trkpt lat="42.58819" lon="1.79867">
        <ele>1433.46</ele>
        <time>2013-03-23T06:15:46Z</time>
      </trkpt>
      <trkpt lat="42.58822" lon="1.79847">
        <ele>1432.02</ele>
        <time>2013-03-23T06:16:01Z</time>
      </trkpt>
      <trkpt lat="42.58819" lon="1.79844">
        <ele>1433.94</ele>
        <time>2013-03-23T06:16:21Z</time>
      </trkpt>
      <trkpt lat="42.58824" lon="1.7985">
        <ele>1433.46</ele>
        <time>2013-03-23T06:16:44Z</time>
      </trkpt>
      <trkpt lat="42.58825" lon="1.79843">
        <ele>1435.87</ele>
        <time>2013-03-23T06:17:04Z</time>
      </trkpt>
      <trkpt lat="42.58825" lon="1.79841">
        <ele>1435.87</ele>
        <time>2013-03-23T06:17:05Z</time>
      </trkpt>
      <trkpt lat="42.58829" lon="1.79825">
        <ele>1435.39</ele>
        <time>2013-03-23T06:17:14Z</time>
      </trkpt>
      <trkpt lat="42.58819" lon="1.79808">
        <ele>1435.87</ele>
        <time>2013-03-23T06:17:29Z</time>
      </trkpt>
      <trkpt lat="42.58808" lon="1.79788">
        <ele>1434.91</ele>
        <time>2013-03-23T06:17:43Z</time>
      </trkpt>
      <trkpt lat="42.58799" lon="1.79772">
        <ele>1432.98</ele>
        <time>2013-03-23T06:17:56Z</time>
      </trkpt>
      <trkpt lat="42.58796" lon="1.79767">
        <ele>1433.46</ele>
        <time>2013-03-23T06:18:00Z</time>
      </trkpt>
      <trkpt lat="42.58795" lon="1.79754">
        <ele>1434.42</ele>
        <time>2013-03-23T06:18:07Z</time>
      </trkpt>
      <trkpt lat="42.58785" lon="1.7973">
        <ele>1437.79</ele>
        <time>2013-03-23T06:18:23Z</time>
      </trkpt>
      <trkpt lat="42.58769" lon="1.79705">
        <ele>1440.67</ele>
        <time>2013-03-23T06:18:42Z</time>
      </trkpt>
      <trkpt lat="42.58752" lon="1.79686">
        <ele>1443.08</ele>
        <time>2013-03-23T06:18:59Z</time>
      </trkpt>
      <trkpt lat="42.58734" lon="1.79666">
        <ele>1443.56</ele>
        <time>2013-03-23T06:19:16Z</time>
      </trkpt>
      <trkpt lat="42.58722" lon="1.79649">
        <ele>1446.44</ele>
        <time>2013-03-23T06:19:31Z</time>
      </trkpt>
      <trkpt lat="42.58706" lon="1.79627">
        <ele>1445.96</ele>
        <time>2013-03-23T06:19:47Z</time>
      </trkpt>
      <trkpt lat="42.58691" lon="1.79606">
        <ele>1448.84</ele>
        <time>2013-03-23T06:20:05Z</time>
      </trkpt>
      <trkpt lat="42.58674" lon="1.79584">
        <ele>1452.21</ele>
        <time>2013-03-23T06:20:23Z</time>
      </trkpt>
      <trkpt lat="42.58657" lon="1.79574">
        <ele>1457.5</ele>
        <time>2013-03-23T06:20:37Z</time>
      </trkpt>
      <trkpt lat="42.58652" lon="1.7957">
        <ele>1459.9</ele>
        <time>2013-03-23T06:20:43Z</time>
      </trkpt>
      <trkpt lat="42.58633" lon="1.79564">
        <ele>1463.74</ele>
        <time>2013-03-23T06:20:59Z</time>
      </trkpt>
      <trkpt lat="42.58618" lon="1.79562">
        <ele>1461.82</ele>
        <time>2013-03-23T06:21:14Z</time>
      </trkpt>
      <trkpt lat="42.58617" lon="1.79562">
        <ele>1461.82</ele>
        <time>2013-03-23T06:21:15Z</time>
      </trkpt>
      <trkpt lat="42.58595" lon="1.79566">
        <ele>1457.5</ele>
        <time>2013-03-23T06:21:31Z</time>
      </trkpt>
      <trkpt lat="42.58593" lon="1.79566">
        <ele>1457.02</ele>
        <time>2013-03-23T06:21:32Z</time>
      </trkpt>
      <trkpt lat="42.58587" lon="1.79567">
        <ele>1455.57</ele>
        <time>2013-03-23T06:21:36Z</time>
      </trkpt>
      <trkpt lat="42.58563" lon="1.79575">
        <ele>1451.25</ele>
        <time>2013-03-23T06:21:53Z</time>
      </trkpt>
      <trkpt lat="42.58558" lon="1.79576">
        <ele>1452.21</ele>
        <time>2013-03-23T06:21:58Z</time>
      </trkpt>
      <trkpt lat="42.58555" lon="1.79573">
        <ele>1453.65</ele>
        <time>2013-03-23T06:22:08Z</time>
      </trkpt>
      <trkpt lat="42.58553" lon="1.79575">
        <ele>1453.17</ele>
        <time>2013-03-23T06:22:27Z</time>
      </trkpt>
      <trkpt lat="42.58554" lon="1.79575">
        <ele>1453.65</ele>
        <time>2013-03-23T06:22:43Z</time>
      </trkpt>
      <trkpt lat="42.58556" lon="1.79571">
        <ele>1451.25</ele>
        <time>2013-03-23T06:23:04Z</time>
      </trkpt>
      <trkpt lat="42.58557" lon="1.79569">
        <ele>1453.17</ele>
        <time>2013-03-23T06:23:16Z</time>
      </trkpt>
      <trkpt lat="42.58559" lon="1.79569">
        <ele>1452.69</ele>
        <time>2013-03-23T06:23:27Z</time>
      </trkpt>
      <trkpt lat="42.58555" lon="1.79567">
        <ele>1451.73</ele>
        <time>2013-03-23T06:23:51Z</time>
      </trkpt>
      <trkpt lat="42.58552" lon="1.79557">
        <ele>1453.65</ele>
        <time>2013-03-23T06:24:03Z</time>
      </trkpt>
      <trkpt lat="42.58552" lon="1.79556">
        <ele>1457.5</ele>
        <time>2013-03-23T06:24:14Z</time>
      </trkpt>
      <trkpt lat="42.58555" lon="1.79551">
        <ele>1459.42</ele>
        <time>2013-03-23T06:24:28Z</time>
      </trkpt>
      <trkpt lat="42.58561" lon="1.79546">
        <ele>1461.82</ele>
        <time>2013-03-23T06:24:39Z</time>
      </trkpt>
      <trkpt lat="42.58567" lon="1.79537">
        <ele>1463.74</ele>
        <time>2013-03-23T06:24:51Z</time>
      </trkpt>
      <trkpt lat="42.58572" lon="1.79531">
        <ele>1464.71</ele>
        <time>2013-03-23T06:25:04Z</time>
      </trkpt>
      <trkpt lat="42.58575" lon="1.79528">
        <ele>1468.55</ele>
        <time>2013-03-23T06:25:15Z</time>
      </trkpt>
      <trkpt lat="42.58574" lon="1.79528">
        <ele>1469.51</ele>
        <time>2013-03-23T06:25:26Z</time>
      </trkpt>
      <trkpt lat="42.58573" lon="1.79527">
        <ele>1468.55</ele>
        <time>2013-03-23T06:25:36Z</time>
      </trkpt>
      <trkpt lat="42.58573" lon="1.79525">
        <ele>1468.55</ele>
        <time>2013-03-23T06:25:48Z</time>
      </trkpt>
      <trkpt lat="42.58575" lon="1.79523">
        <ele>1469.99</ele>
        <time>2013-03-23T06:25:58Z</time>
      </trkpt>
      <trkpt lat="42.58575" lon="1.79524">
        <ele>1469.99</ele>
        <time>2013-03-23T06:26:03Z</time>
      </trkpt>
      <trkpt lat="42.58583" lon="1.79523">
        <ele>1471.44</ele>
        <time>2013-03-23T06:26:17Z</time>
      </trkpt>
      <trkpt lat="42.58585" lon="1.79523">
        <ele>1472.88</ele>
        <time>2013-03-23T06:26:31Z</time>
      </trkpt>
      <trkpt lat="42.58588" lon="1.79523">
        <ele>1475.28</ele>
        <time>2013-03-23T06:26:42Z</time>
      </trkpt>
      <trkpt lat="42.58591" lon="1.79523">
        <ele>1477.2</ele>
        <time>2013-03-23T06:26:54Z</time>
      </trkpt>
      <trkpt lat="42.58595" lon="1.79521">
        <ele>1480.09</ele>
        <time>2013-03-23T06:27:05Z</time>
      </trkpt>
      <trkpt lat="42.586" lon="1.79517">
        <ele>1483.45</ele>
        <time>2013-03-23T06:27:17Z</time>
      </trkpt>
      <trkpt lat="42.58612" lon="1.79512">
        <ele>1484.41</ele>
        <time>2013-03-23T06:27:34Z</time>
      </trkpt>
      <trkpt lat="42.58617" lon="1.79511">
        <ele>1485.85</ele>
        <time>2013-03-23T06:27:45Z</time>
      </trkpt>
      <trkpt lat="42.5862" lon="1.79506">
        <ele>1486.82</ele>
        <time>2013-03-23T06:27:56Z</time>
      </trkpt>
      <trkpt lat="42.5862" lon="1.79508">
        <ele>1484.89</ele>
        <time>2013-03-23T06:28:13Z</time>
      </trkpt>
      <trkpt lat="42.58622" lon="1.79506">
        <ele>1484.89</ele>
        <time>2013-03-23T06:28:25Z</time>
      </trkpt>
      <trkpt lat="42.58627" lon="1.79503">
        <ele>1486.34</ele>
        <time>2013-03-23T06:28:36Z</time>
      </trkpt>
      <trkpt lat="42.58638" lon="1.79498">
        <ele>1488.26</ele>
        <time>2013-03-23T06:28:48Z</time>
      </trkpt>
      <trkpt lat="42.58641" lon="1.79492">
        <ele>1490.18</ele>
        <time>2013-03-23T06:29:02Z</time>
      </trkpt>
      <trkpt lat="42.58644" lon="1.7949">
        <ele>1491.62</ele>
        <time>2013-03-23T06:29:12Z</time>
      </trkpt>
      <trkpt lat="42.58646" lon="1.79489">
        <ele>1493.06</ele>
        <time>2013-03-23T06:29:21Z</time>
      </trkpt>
      <trkpt lat="42.5865" lon="1.79484">
        <ele>1494.51</ele>
        <time>2013-03-23T06:29:33Z</time>
      </trkpt>
      <trkpt lat="42.58653" lon="1.79479">
        <ele>1494.99</ele>
        <time>2013-03-23T06:29:45Z</time>
      </trkpt>
      <trkpt lat="42.58656" lon="1.79475">
        <ele>1496.91</ele>
        <time>2013-03-23T06:29:56Z</time>
      </trkpt>
      <trkpt lat="42.58663" lon="1.79471">
        <ele>1498.35</ele>
        <time>2013-03-23T06:30:08Z</time>
      </trkpt>
      <trkpt lat="42.5867" lon="1.79464">
        <ele>1499.31</ele>
        <time>2013-03-23T06:30:19Z</time>
      </trkpt>
      <trkpt lat="42.58677" lon="1.79461">
        <ele>1502.2</ele>
        <time>2013-03-23T06:30:31Z</time>
      </trkpt>
      <trkpt lat="42.58684" lon="1.79456">
        <ele>1503.64</ele>
        <time>2013-03-23T06:30:43Z</time>
      </trkpt>
      <trkpt lat="42.58691" lon="1.79453">
        <ele>1504.6</ele>
        <time>2013-03-23T06:30:55Z</time>
      </trkpt>
      <trkpt lat="42.58696" lon="1.79451">
        <ele>1503.64</ele>
        <time>2013-03-23T06:31:09Z</time>
      </trkpt>
      <trkpt lat="42.58702" lon="1.79444">
        <ele>1505.08</ele>
        <time>2013-03-23T06:31:21Z</time>
      </trkpt>
      <trkpt lat="42.5871" lon="1.79437">
        <ele>1506.04</ele>
        <time>2013-03-23T06:31:35Z</time>
      </trkpt>
      <trkpt lat="42.58718" lon="1.79429">
        <ele>1507.97</ele>
        <time>2013-03-23T06:31:48Z</time>
      </trkpt>
      <trkpt lat="42.58726" lon="1.79423">
        <ele>1508.93</ele>
        <time>2013-03-23T06:31:59Z</time>
      </trkpt>
      <trkpt lat="42.58727" lon="1.79423">
        <ele>1508.93</ele>
        <time>2013-03-23T06:32:00Z</time>
      </trkpt>
      <trkpt lat="42.58735" lon="1.79417">
        <ele>1509.41</ele>
        <time>2013-03-23T06:32:13Z</time>
      </trkpt>
      <trkpt lat="42.58743" lon="1.79412">
        <ele>1510.85</ele>
        <time>2013-03-23T06:32:25Z</time>
      </trkpt>
      <trkpt lat="42.58749" lon="1.79408">
        <ele>1510.85</ele>
        <time>2013-03-23T06:32:36Z</time>
      </trkpt>
      <trkpt lat="42.58757" lon="1.79403">
        <ele>1512.29</ele>
        <time>2013-03-23T06:32:50Z</time>
      </trkpt>
      <trkpt lat="42.58761" lon="1.79401">
        <ele>1512.29</ele>
        <time>2013-03-23T06:33:02Z</time>
      </trkpt>
      <trkpt lat="42.58765" lon="1.794">
        <ele>1513.25</ele>
        <time>2013-03-23T06:33:15Z</time>
      </trkpt>
      <trkpt lat="42.58772" lon="1.79398">
        <ele>1514.21</ele>
        <time>2013-03-23T06:33:30Z</time>
      </trkpt>
      <trkpt lat="42.58782" lon="1.79397">
        <ele>1514.21</ele>
        <time>2013-03-23T06:33:44Z</time>
      </trkpt>
      <trkpt lat="42.58789" lon="1.79397">
        <ele>1514.69</ele>
        <time>2013-03-23T06:33:57Z</time>
      </trkpt>
      <trkpt lat="42.58792" lon="1.79397">
        <ele>1515.66</ele>
        <time>2013-03-23T06:34:04Z</time>
      </trkpt>
      <trkpt lat="42.588" lon="1.79394">
        <ele>1516.62</ele>
        <time>2013-03-23T06:34:19Z</time>
      </trkpt>
      <trkpt lat="42.58812" lon="1.79391">
        <ele>1517.1</ele>
        <time>2013-03-23T06:34:32Z</time>
      </trkpt>
      <trkpt lat="42.58819" lon="1.79387">
        <ele>1517.1</ele>
        <time>2013-03-23T06:34:43Z</time>
      </trkpt>
      <trkpt lat="42.5883" lon="1.79382">
        <ele>1520.46</ele>
        <time>2013-03-23T06:34:57Z</time>
      </trkpt>
      <trkpt lat="42.58841" lon="1.79376">
        <ele>1521.42</ele>
        <time>2013-03-23T06:35:10Z</time>
      </trkpt>
      <trkpt lat="42.58851" lon="1.79372">
        <ele>1521.42</ele>
        <time>2013-03-23T06:35:22Z</time>
      </trkpt>
      <trkpt lat="42.58861" lon="1.79364">
        <ele>1522.87</ele>
        <time>2013-03-23T06:35:34Z</time>
      </trkpt>
      <trkpt lat="42.5887" lon="1.7936">
        <ele>1523.35</ele>
        <time>2013-03-23T06:35:47Z</time>
      </trkpt>
      <trkpt lat="42.58876" lon="1.79353">
        <ele>1524.31</ele>
        <time>2013-03-23T06:35:58Z</time>
      </trkpt>
      <trkpt lat="42.58878" lon="1.7935">
        <ele>1524.31</ele>
        <time>2013-03-23T06:36:01Z</time>
      </trkpt>
      <trkpt lat="42.58883" lon="1.79346">
        <ele>1526.23</ele>
        <time>2013-03-23T06:36:11Z</time>
      </trkpt>
      <trkpt lat="42.58887" lon="1.79338">
        <ele>1529.11</ele>
        <time>2013-03-23T06:36:25Z</time>
      </trkpt>
      <trkpt lat="42.58891" lon="1.79328">
        <ele>1530.56</ele>
        <time>2013-03-23T06:36:38Z</time>
      </trkpt>
      <trkpt lat="42.58893" lon="1.79327">
        <ele>1530.56</ele>
        <time>2013-03-23T06:36:42Z</time>
      </trkpt>
      <trkpt lat="42.58896" lon="1.79322">
        <ele>1532.48</ele>
        <time>2013-03-23T06:36:53Z</time>
      </trkpt>
      <trkpt lat="42.58899" lon="1.79323">
        <ele>1531.52</ele>
        <time>2013-03-23T06:37:08Z</time>
      </trkpt>
      <trkpt lat="42.58898" lon="1.79321">
        <ele>1532.96</ele>
        <time>2013-03-23T06:37:29Z</time>
      </trkpt>
      <trkpt lat="42.589" lon="1.79324">
        <ele>1536.8</ele>
        <time>2013-03-23T06:38:01Z</time>
      </trkpt>
      <trkpt lat="42.58899" lon="1.79323">
        <ele>1533.92</ele>
        <time>2013-03-23T06:38:29Z</time>
      </trkpt>
      <trkpt lat="42.58898" lon="1.79322">
        <ele>1534.4</ele>
        <time>2013-03-23T06:38:48Z</time>
      </trkpt>
      <trkpt lat="42.58895" lon="1.79322">
        <ele>1533.92</ele>
        <time>2013-03-23T06:39:01Z</time>
      </trkpt>
      <trkpt lat="42.58899" lon="1.79324">
        <ele>1533.92</ele>
        <time>2013-03-23T06:39:27Z</time>
      </trkpt>
      <trkpt lat="42.58896" lon="1.79319">
        <ele>1532.48</ele>
        <time>2013-03-23T06:40:06Z</time>
      </trkpt>
      <trkpt lat="42.58896" lon="1.79319">
        <ele>1531.52</ele>
        <time>2013-03-23T06:40:35Z</time>
      </trkpt>
      <trkpt lat="42.58898" lon="1.79319">
        <ele>1532</ele>
        <time>2013-03-23T06:40:52Z</time>
      </trkpt>
      <trkpt lat="42.58899" lon="1.7932">
        <ele>1534.88</ele>
        <time>2013-03-23T06:41:04Z</time>
      </trkpt>
      <trkpt lat="42.58897" lon="1.7932">
        <ele>1533.92</ele>
        <time>2013-03-23T06:41:16Z</time>
      </trkpt>
      <trkpt lat="42.58899" lon="1.7932">
        <ele>1532.96</ele>
        <time>2013-03-23T06:41:30Z</time>
      </trkpt>
      <trkpt lat="42.58899" lon="1.7932">
        <ele>1532.96</ele>
        <time>2013-03-23T06:41:47Z</time>
      </trkpt>
      <trkpt lat="42.58898" lon="1.7932">
        <ele>1532.96</ele>
        <time>2013-03-23T06:42:01Z</time>
      </trkpt>
      <trkpt lat="42.58899" lon="1.79318">
        <ele>1534.4</ele>
        <time>2013-03-23T06:42:21Z</time>
      </trkpt>
      <trkpt lat="42.589" lon="1.79316">
        <ele>1534.88</ele>
        <time>2013-03-23T06:42:29Z</time>
      </trkpt>
      <trkpt lat="42.58903" lon="1.79312">
        <ele>1537.29</ele>
        <time>2013-03-23T06:42:38Z</time>
      </trkpt>
      <trkpt lat="42.5891" lon="1.7931">
        <ele>1540.65</ele>
        <time>2013-03-23T06:42:50Z</time>
      </trkpt>
      <trkpt lat="42.58912" lon="1.79303">
        <ele>1541.61</ele>
        <time>2013-03-23T06:43:00Z</time>
      </trkpt>
      <trkpt lat="42.58916" lon="1.79302">
        <ele>1542.09</ele>
        <time>2013-03-23T06:43:11Z</time>
      </trkpt>
      <trkpt lat="42.58917" lon="1.79291">
        <ele>1543.53</ele>
        <time>2013-03-23T06:43:22Z</time>
      </trkpt>
      <trkpt lat="42.58921" lon="1.79283">
        <ele>1547.86</ele>
        <time>2013-03-23T06:43:32Z</time>
      </trkpt>
      <trkpt lat="42.58923" lon="1.7928">
        <ele>1549.78</ele>
        <time>2013-03-23T06:43:39Z</time>
      </trkpt>
      <trkpt lat="42.58922" lon="1.79265">
        <ele>1552.19</ele>
        <time>2013-03-23T06:43:51Z</time>
      </trkpt>
      <trkpt lat="42.5893" lon="1.79254">
        <ele>1552.67</ele>
        <time>2013-03-23T06:44:05Z</time>
      </trkpt>
      <trkpt lat="42.58935" lon="1.79244">
        <ele>1556.03</ele>
        <time>2013-03-23T06:44:18Z</time>
      </trkpt>
      <trkpt lat="42.58937" lon="1.79231">
        <ele>1558.92</ele>
        <time>2013-03-23T06:44:31Z</time>
      </trkpt>
      <trkpt lat="42.58941" lon="1.7922">
        <ele>1560.84</ele>
        <time>2013-03-23T06:44:43Z</time>
      </trkpt>
      <trkpt lat="42.58942" lon="1.7922">
        <ele>1560.84</ele>
        <time>2013-03-23T06:44:44Z</time>
      </trkpt>
      <trkpt lat="42.58945" lon="1.79214">
        <ele>1560.84</ele>
        <time>2013-03-23T06:44:50Z</time>
      </trkpt>
      <trkpt lat="42.58951" lon="1.79207">
        <ele>1561.32</ele>
        <time>2013-03-23T06:45:03Z</time>
      </trkpt>
      <trkpt lat="42.58957" lon="1.79202">
        <ele>1565.16</ele>
        <time>2013-03-23T06:45:12Z</time>
      </trkpt>
      <trkpt lat="42.58965" lon="1.79196">
        <ele>1567.09</ele>
        <time>2013-03-23T06:45:24Z</time>
      </trkpt>
      <trkpt lat="42.58974" lon="1.79187">
        <ele>1569.01</ele>
        <time>2013-03-23T06:45:37Z</time>
      </trkpt>
      <trkpt lat="42.58981" lon="1.79179">
        <ele>1569.49</ele>
        <time>2013-03-23T06:45:48Z</time>
      </trkpt>
      <trkpt lat="42.58989" lon="1.79171">
        <ele>1572.85</ele>
        <time>2013-03-23T06:46:00Z</time>
      </trkpt>
      <trkpt lat="42.58998" lon="1.79165">
        <ele>1574.78</ele>
        <time>2013-03-23T06:46:13Z</time>
      </trkpt>
      <trkpt lat="42.59008" lon="1.79163">
        <ele>1576.22</ele>
        <time>2013-03-23T06:46:25Z</time>
      </trkpt>
      <trkpt lat="42.59014" lon="1.79155">
        <ele>1578.14</ele>
        <time>2013-03-23T06:46:38Z</time>
      </trkpt>
      <trkpt lat="42.5902" lon="1.79149">
        <ele>1579.1</ele>
        <time>2013-03-23T06:46:50Z</time>
      </trkpt>
      <trkpt lat="42.59028" lon="1.79149">
        <ele>1581.99</ele>
        <time>2013-03-23T06:47:03Z</time>
      </trkpt>
      <trkpt lat="42.59036" lon="1.7915">
        <ele>1583.91</ele>
        <time>2013-03-23T06:47:13Z</time>
      </trkpt>
      <trkpt lat="42.59042" lon="1.7915">
        <ele>1585.35</ele>
        <time>2013-03-23T06:47:24Z</time>
      </trkpt>
      <trkpt lat="42.5905" lon="1.79149">
        <ele>1588.72</ele>
        <time>2013-03-23T06:47:35Z</time>
      </trkpt>
      <trkpt lat="42.59055" lon="1.79146">
        <ele>1589.2</ele>
        <time>2013-03-23T06:47:47Z</time>
      </trkpt>
      <trkpt lat="42.5906" lon="1.79139">
        <ele>1590.64</ele>
        <time>2013-03-23T06:47:58Z</time>
      </trkpt>
      <trkpt lat="42.59062" lon="1.79137">
        <ele>1593.52</ele>
        <time>2013-03-23T06:48:08Z</time>
      </trkpt>
      <trkpt lat="42.59062" lon="1.79129">
        <ele>1593.52</ele>
        <time>2013-03-23T06:48:17Z</time>
      </trkpt>
      <trkpt lat="42.59064" lon="1.79131">
        <ele>1593.04</ele>
        <time>2013-03-23T06:48:27Z</time>
      </trkpt>
      <trkpt lat="42.59067" lon="1.79131">
        <ele>1592.56</ele>
        <time>2013-03-23T06:48:37Z</time>
      </trkpt>
      <trkpt lat="42.59068" lon="1.79132">
        <ele>1594</ele>
        <time>2013-03-23T06:48:49Z</time>
      </trkpt>
      <trkpt lat="42.59067" lon="1.79128">
        <ele>1594.96</ele>
        <time>2013-03-23T06:49:02Z</time>
      </trkpt>
      <trkpt lat="42.59069" lon="1.79121">
        <ele>1597.37</ele>
        <time>2013-03-23T06:49:12Z</time>
      </trkpt>
      <trkpt lat="42.59069" lon="1.79109">
        <ele>1598.33</ele>
        <time>2013-03-23T06:49:22Z</time>
      </trkpt>
      <trkpt lat="42.59068" lon="1.79108">
        <ele>1599.77</ele>
        <time>2013-03-23T06:49:24Z</time>
      </trkpt>
      <trkpt lat="42.59068" lon="1.79101">
        <ele>1605.54</ele>
        <time>2013-03-23T06:49:36Z</time>
      </trkpt>
      <trkpt lat="42.59067" lon="1.79093">
        <ele>1607.94</ele>
        <time>2013-03-23T06:49:46Z</time>
      </trkpt>
      <trkpt lat="42.59068" lon="1.79092">
        <ele>1609.38</ele>
        <time>2013-03-23T06:49:48Z</time>
      </trkpt>
      <trkpt lat="42.59073" lon="1.79081">
        <ele>1607.94</ele>
        <time>2013-03-23T06:50:01Z</time>
      </trkpt>
      <trkpt lat="42.59078" lon="1.79071">
        <ele>1610.35</ele>
        <time>2013-03-23T06:50:14Z</time>
      </trkpt>
      <trkpt lat="42.59081" lon="1.79063">
        <ele>1611.79</ele>
        <time>2013-03-23T06:50:25Z</time>
      </trkpt>
      <trkpt lat="42.59082" lon="1.79054">
        <ele>1614.67</ele>
        <time>2013-03-23T06:50:37Z</time>
      </trkpt>
      <trkpt lat="42.59084" lon="1.79049">
        <ele>1616.59</ele>
        <time>2013-03-23T06:50:48Z</time>
      </trkpt>
      <trkpt lat="42.59087" lon="1.79043">
        <ele>1618.52</ele>
        <time>2013-03-23T06:51:00Z</time>
      </trkpt>
      <trkpt lat="42.5909" lon="1.79031">
        <ele>1619</ele>
        <time>2013-03-23T06:51:13Z</time>
      </trkpt>
      <trkpt lat="42.5909" lon="1.79022">
        <ele>1622.36</ele>
        <time>2013-03-23T06:51:24Z</time>
      </trkpt>
      <trkpt lat="42.59093" lon="1.79016">
        <ele>1623.32</ele>
        <time>2013-03-23T06:51:31Z</time>
      </trkpt>
      <trkpt lat="42.59095" lon="1.79005">
        <ele>1624.28</ele>
        <time>2013-03-23T06:51:43Z</time>
      </trkpt>
      <trkpt lat="42.59096" lon="1.78995">
        <ele>1626.21</ele>
        <time>2013-03-23T06:51:55Z</time>
      </trkpt>
      <trkpt lat="42.59095" lon="1.78987">
        <ele>1627.65</ele>
        <time>2013-03-23T06:52:07Z</time>
      </trkpt>
      <trkpt lat="42.59093" lon="1.78976">
        <ele>1629.09</ele>
        <time>2013-03-23T06:52:21Z</time>
      </trkpt>
      <trkpt lat="42.59091" lon="1.78967">
        <ele>1632.46</ele>
        <time>2013-03-23T06:52:34Z</time>
      </trkpt>
      <trkpt lat="42.59091" lon="1.78959">
        <ele>1634.86</ele>
        <time>2013-03-23T06:52:46Z</time>
      </trkpt>
      <trkpt lat="42.59091" lon="1.78949">
        <ele>1638.22</ele>
        <time>2013-03-23T06:52:59Z</time>
      </trkpt>
      <trkpt lat="42.59091" lon="1.78942">
        <ele>1640.63</ele>
        <time>2013-03-23T06:53:11Z</time>
      </trkpt>
      <trkpt lat="42.59089" lon="1.78935">
        <ele>1644.95</ele>
        <time>2013-03-23T06:53:23Z</time>
      </trkpt>
      <trkpt lat="42.59089" lon="1.78931">
        <ele>1648.8</ele>
        <time>2013-03-23T06:53:33Z</time>
      </trkpt>
      <trkpt lat="42.59091" lon="1.7892">
        <ele>1650.72</ele>
        <time>2013-03-23T06:53:44Z</time>
      </trkpt>
      <trkpt lat="42.59091" lon="1.78911">
        <ele>1651.68</ele>
        <time>2013-03-23T06:53:57Z</time>
      </trkpt>
      <trkpt lat="42.59096" lon="1.78909">
        <ele>1648.8</ele>
        <time>2013-03-23T06:54:12Z</time>
      </trkpt>
      <trkpt lat="42.59093" lon="1.78911">
        <ele>1647.36</ele>
        <time>2013-03-23T06:54:30Z</time>
      </trkpt>
      <trkpt lat="42.59084" lon="1.78908">
        <ele>1650.72</ele>
        <time>2013-03-23T06:54:43Z</time>
      </trkpt>
      <trkpt lat="42.59079" lon="1.78903">
        <ele>1654.09</ele>
        <time>2013-03-23T06:54:55Z</time>
      </trkpt>
      <trkpt lat="42.59078" lon="1.78892">
        <ele>1655.05</ele>
        <time>2013-03-23T06:55:08Z</time>
      </trkpt>
      <trkpt lat="42.59076" lon="1.78887">
        <ele>1657.45</ele>
        <time>2013-03-23T06:55:19Z</time>
      </trkpt>
      <trkpt lat="42.59077" lon="1.78875">
        <ele>1661.3</ele>
        <time>2013-03-23T06:55:30Z</time>
      </trkpt>
      <trkpt lat="42.59079" lon="1.78869">
        <ele>1664.18</ele>
        <time>2013-03-23T06:55:42Z</time>
      </trkpt>
      <trkpt lat="42.59081" lon="1.7886">
        <ele>1667.06</ele>
        <time>2013-03-23T06:55:52Z</time>
      </trkpt>
      <trkpt lat="42.59079" lon="1.78847">
        <ele>1668.99</ele>
        <time>2013-03-23T06:56:06Z</time>
      </trkpt>
      <trkpt lat="42.59076" lon="1.78836">
        <ele>1669.47</ele>
        <time>2013-03-23T06:56:19Z</time>
      </trkpt>
      <trkpt lat="42.59069" lon="1.78835">
        <ele>1671.39</ele>
        <time>2013-03-23T06:56:31Z</time>
      </trkpt>
      <trkpt lat="42.59063" lon="1.78835">
        <ele>1673.79</ele>
        <time>2013-03-23T06:56:43Z</time>
      </trkpt>
      <trkpt lat="42.59054" lon="1.78831">
        <ele>1675.72</ele>
        <time>2013-03-23T06:56:56Z</time>
      </trkpt>
      <trkpt lat="42.59048" lon="1.78826">
        <ele>1680.04</ele>
        <time>2013-03-23T06:57:08Z</time>
      </trkpt>
      <trkpt lat="42.59043" lon="1.78821">
        <ele>1681.96</ele>
        <time>2013-03-23T06:57:20Z</time>
      </trkpt>
      <trkpt lat="42.59041" lon="1.7882">
        <ele>1683.89</ele>
        <time>2013-03-23T06:57:35Z</time>
      </trkpt>
      <trkpt lat="42.5904" lon="1.7882">
        <ele>1685.33</ele>
        <time>2013-03-23T06:57:51Z</time>
      </trkpt>
      <trkpt lat="42.59039" lon="1.78817">
        <ele>1687.25</ele>
        <time>2013-03-23T06:58:03Z</time>
      </trkpt>
      <trkpt lat="42.59036" lon="1.78806">
        <ele>1687.73</ele>
        <time>2013-03-23T06:58:15Z</time>
      </trkpt>
      <trkpt lat="42.59033" lon="1.78794">
        <ele>1689.65</ele>
        <time>2013-03-23T06:58:26Z</time>
      </trkpt>
      <trkpt lat="42.5903" lon="1.78785">
        <ele>1692.06</ele>
        <time>2013-03-23T06:58:39Z</time>
      </trkpt>
      <trkpt lat="42.59032" lon="1.78774">
        <ele>1695.42</ele>
        <time>2013-03-23T06:58:51Z</time>
      </trkpt>
      <trkpt lat="42.59035" lon="1.78763">
        <ele>1696.86</ele>
        <time>2013-03-23T06:59:05Z</time>
      </trkpt>
      <trkpt lat="42.59038" lon="1.78752">
        <ele>1699.27</ele>
        <time>2013-03-23T06:59:18Z</time>
      </trkpt>
      <trkpt lat="42.5904" lon="1.78748">
        <ele>1702.15</ele>
        <time>2013-03-23T06:59:36Z</time>
      </trkpt>
      <trkpt lat="42.59039" lon="1.78749">
        <ele>1702.15</ele>
        <time>2013-03-23T07:00:00Z</time>
      </trkpt>
      <trkpt lat="42.5904" lon="1.78747">
        <ele>1700.23</ele>
        <time>2013-03-23T07:00:15Z</time>
      </trkpt>
      <trkpt lat="42.59039" lon="1.78736">
        <ele>1701.67</ele>
        <time>2013-03-23T07:00:27Z</time>
      </trkpt>
      <trkpt lat="42.59036" lon="1.78729">
        <ele>1702.15</ele>
        <time>2013-03-23T07:00:42Z</time>
      </trkpt>
      <trkpt lat="42.59037" lon="1.78726">
        <ele>1704.07</ele>
        <time>2013-03-23T07:00:56Z</time>
      </trkpt>
      <trkpt lat="42.59036" lon="1.78715">
        <ele>1701.67</ele>
        <time>2013-03-23T07:01:11Z</time>
      </trkpt>
      <trkpt lat="42.59032" lon="1.78709">
        <ele>1702.63</ele>
        <time>2013-03-23T07:01:23Z</time>
      </trkpt>
      <trkpt lat="42.59031" lon="1.78707">
        <ele>1703.11</ele>
        <time>2013-03-23T07:01:25Z</time>
      </trkpt>
      <trkpt lat="42.5903" lon="1.78693">
        <ele>1704.55</ele>
        <time>2013-03-23T07:01:37Z</time>
      </trkpt>
      <trkpt lat="42.59029" lon="1.78685">
        <ele>1705.52</ele>
        <time>2013-03-23T07:01:50Z</time>
      </trkpt>
      <trkpt lat="42.59029" lon="1.78684">
        <ele>1706</ele>
        <time>2013-03-23T07:01:51Z</time>
      </trkpt>
      <trkpt lat="42.59026" lon="1.78672">
        <ele>1706.96</ele>
        <time>2013-03-23T07:02:03Z</time>
      </trkpt>
      <trkpt lat="42.59024" lon="1.78661">
        <ele>1709.36</ele>
        <time>2013-03-23T07:02:16Z</time>
      </trkpt>
      <trkpt lat="42.59019" lon="1.78649">
        <ele>1711.28</ele>
        <time>2013-03-23T07:02:28Z</time>
      </trkpt>
      <trkpt lat="42.59017" lon="1.78638">
        <ele>1712.73</ele>
        <time>2013-03-23T07:02:44Z</time>
      </trkpt>
      <trkpt lat="42.59017" lon="1.78638">
        <ele>1713.21</ele>
        <time>2013-03-23T07:03:09Z</time>
      </trkpt>
      <trkpt lat="42.59015" lon="1.78631">
        <ele>1715.13</ele>
        <time>2013-03-23T07:03:16Z</time>
      </trkpt>
      <trkpt lat="42.59012" lon="1.78621">
        <ele>1716.57</ele>
        <time>2013-03-23T07:03:31Z</time>
      </trkpt>
      <trkpt lat="42.59009" lon="1.78608">
        <ele>1717.53</ele>
        <time>2013-03-23T07:03:43Z</time>
      </trkpt>
      <trkpt lat="42.59004" lon="1.78596">
        <ele>1719.46</ele>
        <time>2013-03-23T07:03:53Z</time>
      </trkpt>
      <trkpt lat="42.59" lon="1.78589">
        <ele>1721.86</ele>
        <time>2013-03-23T07:04:04Z</time>
      </trkpt>
      <trkpt lat="42.58999" lon="1.7859">
        <ele>1722.34</ele>
        <time>2013-03-23T07:04:12Z</time>
      </trkpt>
      <trkpt lat="42.58998" lon="1.78579">
        <ele>1723.78</ele>
        <time>2013-03-23T07:04:23Z</time>
      </trkpt>
      <trkpt lat="42.58996" lon="1.78562">
        <ele>1724.26</ele>
        <time>2013-03-23T07:04:36Z</time>
      </trkpt>
      <trkpt lat="42.58992" lon="1.78542">
        <ele>1724.74</ele>
        <time>2013-03-23T07:04:52Z</time>
      </trkpt>
      <trkpt lat="42.58991" lon="1.78534">
        <ele>1725.22</ele>
        <time>2013-03-23T07:04:58Z</time>
      </trkpt>
      <trkpt lat="42.58989" lon="1.78522">
        <ele>1724.74</ele>
        <time>2013-03-23T07:05:06Z</time>
      </trkpt>
      <trkpt lat="42.58988" lon="1.78516">
        <ele>1725.22</ele>
        <time>2013-03-23T07:05:11Z</time>
      </trkpt>
      <trkpt lat="42.58988" lon="1.78514">
        <ele>1725.22</ele>
        <time>2013-03-23T07:05:13Z</time>
      </trkpt>
      <trkpt lat="42.58987" lon="1.785">
        <ele>1727.15</ele>
        <time>2013-03-23T07:05:25Z</time>
      </trkpt>
      <trkpt lat="42.58986" lon="1.78497">
        <ele>1727.63</ele>
        <time>2013-03-23T07:05:27Z</time>
      </trkpt>
      <trkpt lat="42.58983" lon="1.78488">
        <ele>1729.07</ele>
        <time>2013-03-23T07:05:35Z</time>
      </trkpt>
      <trkpt lat="42.58982" lon="1.78486">
        <ele>1729.55</ele>
        <time>2013-03-23T07:05:37Z</time>
      </trkpt>
      <trkpt lat="42.58979" lon="1.78476">
        <ele>1730.03</ele>
        <time>2013-03-23T07:05:45Z</time>
      </trkpt>
      <trkpt lat="42.58977" lon="1.78463">
        <ele>1732.91</ele>
        <time>2013-03-23T07:05:57Z</time>
      </trkpt>
      <trkpt lat="42.58974" lon="1.78452">
        <ele>1734.36</ele>
        <time>2013-03-23T07:06:09Z</time>
      </trkpt>
      <trkpt lat="42.58971" lon="1.78438">
        <ele>1741.08</ele>
        <time>2013-03-23T07:06:22Z</time>
      </trkpt>
      <trkpt lat="42.5897" lon="1.78432">
        <ele>1743.97</ele>
        <time>2013-03-23T07:06:30Z</time>
      </trkpt>
      <trkpt lat="42.58972" lon="1.78426">
        <ele>1744.45</ele>
        <time>2013-03-23T07:06:39Z</time>
      </trkpt>
      <trkpt lat="42.58969" lon="1.78409">
        <ele>1746.85</ele>
        <time>2013-03-23T07:06:53Z</time>
      </trkpt>
      <trkpt lat="42.58969" lon="1.78404">
        <ele>1745.89</ele>
        <time>2013-03-23T07:07:06Z</time>
      </trkpt>
      <trkpt lat="42.58969" lon="1.78407">
        <ele>1743.01</ele>
        <time>2013-03-23T07:07:29Z</time>
      </trkpt>
      <trkpt lat="42.58966" lon="1.78402">
        <ele>1740.6</ele>
        <time>2013-03-23T07:07:44Z</time>
      </trkpt>
      <trkpt lat="42.58968" lon="1.78395">
        <ele>1741.57</ele>
        <time>2013-03-23T07:07:54Z</time>
      </trkpt>
      <trkpt lat="42.58967" lon="1.78385">
        <ele>1740.6</ele>
        <time>2013-03-23T07:08:07Z</time>
      </trkpt>
      <trkpt lat="42.58967" lon="1.78383">
        <ele>1741.57</ele>
        <time>2013-03-23T07:08:22Z</time>
      </trkpt>
      <trkpt lat="42.58966" lon="1.7838">
        <ele>1742.05</ele>
        <time>2013-03-23T07:08:48Z</time>
      </trkpt>
      <trkpt lat="42.5897" lon="1.78378">
        <ele>1743.97</ele>
        <time>2013-03-23T07:09:03Z</time>
      </trkpt>
      <trkpt lat="42.58968" lon="1.78371">
        <ele>1744.45</ele>
        <time>2013-03-23T07:09:18Z</time>
      </trkpt>
      <trkpt lat="42.58968" lon="1.78371">
        <ele>1743.49</ele>
        <time>2013-03-23T07:09:32Z</time>
      </trkpt>
      <trkpt lat="42.58967" lon="1.78369">
        <ele>1743.49</ele>
        <time>2013-03-23T07:09:52Z</time>
      </trkpt>
      <trkpt lat="42.58966" lon="1.78368">
        <ele>1744.45</ele>
        <time>2013-03-23T07:09:58Z</time>
      </trkpt>
      <trkpt lat="42.58966" lon="1.78358">
        <ele>1745.89</ele>
        <time>2013-03-23T07:10:08Z</time>
      </trkpt>
      <trkpt lat="42.58967" lon="1.78352">
        <ele>1747.81</ele>
        <time>2013-03-23T07:10:21Z</time>
      </trkpt>
      <trkpt lat="42.58963" lon="1.78351">
        <ele>1749.26</ele>
        <time>2013-03-23T07:10:39Z</time>
      </trkpt>
      <trkpt lat="42.58964" lon="1.78349">
        <ele>1749.26</ele>
        <time>2013-03-23T07:10:53Z</time>
      </trkpt>
      <trkpt lat="42.58968" lon="1.78341">
        <ele>1749.74</ele>
        <time>2013-03-23T07:11:03Z</time>
      </trkpt>
      <trkpt lat="42.58971" lon="1.78333">
        <ele>1755.02</ele>
        <time>2013-03-23T07:11:15Z</time>
      </trkpt>
      <trkpt lat="42.58974" lon="1.78325">
        <ele>1760.31</ele>
        <time>2013-03-23T07:11:26Z</time>
      </trkpt>
      <trkpt lat="42.58975" lon="1.78323">
        <ele>1760.31</ele>
        <time>2013-03-23T07:11:38Z</time>
      </trkpt>
      <trkpt lat="42.58977" lon="1.78322">
        <ele>1761.27</ele>
        <time>2013-03-23T07:11:56Z</time>
      </trkpt>
      <trkpt lat="42.58977" lon="1.78319">
        <ele>1761.27</ele>
        <time>2013-03-23T07:11:58Z</time>
      </trkpt>
      <trkpt lat="42.58978" lon="1.7831">
        <ele>1765.12</ele>
        <time>2013-03-23T07:12:11Z</time>
      </trkpt>
      <trkpt lat="42.58975" lon="1.78301">
        <ele>1768</ele>
        <time>2013-03-23T07:12:22Z</time>
      </trkpt>
      <trkpt lat="42.58975" lon="1.78299">
        <ele>1768</ele>
        <time>2013-03-23T07:12:24Z</time>
      </trkpt>
      <trkpt lat="42.58973" lon="1.78291">
        <ele>1770.41</ele>
        <time>2013-03-23T07:12:36Z</time>
      </trkpt>
      <trkpt lat="42.5897" lon="1.78283">
        <ele>1772.81</ele>
        <time>2013-03-23T07:12:42Z</time>
      </trkpt>
      <trkpt lat="42.58967" lon="1.78273">
        <ele>1779.06</ele>
        <time>2013-03-23T07:12:54Z</time>
      </trkpt>
      <trkpt lat="42.58966" lon="1.78261">
        <ele>1783.86</ele>
        <time>2013-03-23T07:13:04Z</time>
      </trkpt>
      <trkpt lat="42.58962" lon="1.7825">
        <ele>1786.27</ele>
        <time>2013-03-23T07:13:15Z</time>
      </trkpt>
      <trkpt lat="42.5896" lon="1.78236">
        <ele>1786.27</ele>
        <time>2013-03-23T07:13:28Z</time>
      </trkpt>
      <trkpt lat="42.58956" lon="1.78222">
        <ele>1786.75</ele>
        <time>2013-03-23T07:13:41Z</time>
      </trkpt>
      <trkpt lat="42.58952" lon="1.78217">
        <ele>1786.75</ele>
        <time>2013-03-23T07:13:50Z</time>
      </trkpt>
      <trkpt lat="42.58949" lon="1.78208">
        <ele>1787.71</ele>
        <time>2013-03-23T07:14:00Z</time>
      </trkpt>
      <trkpt lat="42.58946" lon="1.78201">
        <ele>1786.75</ele>
        <time>2013-03-23T07:14:10Z</time>
      </trkpt>
      <trkpt lat="42.58948" lon="1.78198">
        <ele>1785.79</ele>
        <time>2013-03-23T07:14:19Z</time>
      </trkpt>
      <trkpt lat="42.5895" lon="1.78193">
        <ele>1787.23</ele>
        <time>2013-03-23T07:14:30Z</time>
      </trkpt>
      <trkpt lat="42.58951" lon="1.78185">
        <ele>1786.75</ele>
        <time>2013-03-23T07:14:40Z</time>
      </trkpt>
      <trkpt lat="42.58952" lon="1.78179">
        <ele>1786.27</ele>
        <time>2013-03-23T07:14:48Z</time>
      </trkpt>
      <trkpt lat="42.5895" lon="1.78175">
        <ele>1788.67</ele>
        <time>2013-03-23T07:14:59Z</time>
      </trkpt>
      <trkpt lat="42.58949" lon="1.78175">
        <ele>1790.59</ele>
        <time>2013-03-23T07:15:13Z</time>
      </trkpt>
      <trkpt lat="42.58958" lon="1.78178">
        <ele>1792.52</ele>
        <time>2013-03-23T07:15:26Z</time>
      </trkpt>
      <trkpt lat="42.5896" lon="1.78172">
        <ele>1791.55</ele>
        <time>2013-03-23T07:15:36Z</time>
      </trkpt>
      <trkpt lat="42.58957" lon="1.78158">
        <ele>1791.07</ele>
        <time>2013-03-23T07:15:48Z</time>
      </trkpt>
      <trkpt lat="42.58954" lon="1.78146">
        <ele>1791.55</ele>
        <time>2013-03-23T07:16:00Z</time>
      </trkpt>
      <trkpt lat="42.5895" lon="1.78137">
        <ele>1793</ele>
        <time>2013-03-23T07:16:13Z</time>
      </trkpt>
      <trkpt lat="42.58946" lon="1.78131">
        <ele>1793.96</ele>
        <time>2013-03-23T07:16:23Z</time>
      </trkpt>
      <trkpt lat="42.58941" lon="1.78124">
        <ele>1796.36</ele>
        <time>2013-03-23T07:16:34Z</time>
      </trkpt>
      <trkpt lat="42.58937" lon="1.78118">
        <ele>1797.32</ele>
        <time>2013-03-23T07:16:46Z</time>
      </trkpt>
      <trkpt lat="42.58932" lon="1.78107">
        <ele>1797.8</ele>
        <time>2013-03-23T07:17:00Z</time>
      </trkpt>
      <trkpt lat="42.58928" lon="1.78098">
        <ele>1801.17</ele>
        <time>2013-03-23T07:17:12Z</time>
      </trkpt>
      <trkpt lat="42.58926" lon="1.78094">
        <ele>1803.09</ele>
        <time>2013-03-23T07:17:16Z</time>
      </trkpt>
      <trkpt lat="42.58921" lon="1.78086">
        <ele>1806.45</ele>
        <time>2013-03-23T07:17:28Z</time>
      </trkpt>
      <trkpt lat="42.58916" lon="1.78079">
        <ele>1808.38</ele>
        <time>2013-03-23T07:17:39Z</time>
      </trkpt>
      <trkpt lat="42.58911" lon="1.78073">
        <ele>1809.34</ele>
        <time>2013-03-23T07:17:51Z</time>
      </trkpt>
      <trkpt lat="42.58906" lon="1.78066">
        <ele>1810.78</ele>
        <time>2013-03-23T07:18:02Z</time>
      </trkpt>
      <trkpt lat="42.58899" lon="1.78059">
        <ele>1811.26</ele>
        <time>2013-03-23T07:18:14Z</time>
      </trkpt>
      <trkpt lat="42.58892" lon="1.78052">
        <ele>1814.15</ele>
        <time>2013-03-23T07:18:26Z</time>
      </trkpt>
      <trkpt lat="42.58885" lon="1.78043">
        <ele>1815.59</ele>
        <time>2013-03-23T07:18:37Z</time>
      </trkpt>
      <trkpt lat="42.58881" lon="1.78031">
        <ele>1816.55</ele>
        <time>2013-03-23T07:18:49Z</time>
      </trkpt>
      <trkpt lat="42.58876" lon="1.78023">
        <ele>1817.03</ele>
        <time>2013-03-23T07:18:59Z</time>
      </trkpt>
      <trkpt lat="42.58868" lon="1.78013">
        <ele>1819.91</ele>
        <time>2013-03-23T07:19:13Z</time>
      </trkpt>
      <trkpt lat="42.58864" lon="1.78008">
        <ele>1821.84</ele>
        <time>2013-03-23T07:19:24Z</time>
      </trkpt>
      <trkpt lat="42.58858" lon="1.77999">
        <ele>1822.32</ele>
        <time>2013-03-23T07:19:33Z</time>
      </trkpt>
      <trkpt lat="42.58858" lon="1.77997">
        <ele>1821.84</ele>
        <time>2013-03-23T07:19:35Z</time>
      </trkpt>
      <trkpt lat="42.58849" lon="1.77983">
        <ele>1819.43</ele>
        <time>2013-03-23T07:19:45Z</time>
      </trkpt>
      <trkpt lat="42.58841" lon="1.77974">
        <ele>1818.47</ele>
        <time>2013-03-23T07:19:54Z</time>
      </trkpt>
      <trkpt lat="42.58841" lon="1.77974">
        <ele>1817.51</ele>
        <time>2013-03-23T07:19:56Z</time>
      </trkpt>
      <trkpt lat="42.5884" lon="1.77974">
        <ele>1817.03</ele>
        <time>2013-03-23T07:19:57Z</time>
      </trkpt>
      <trkpt lat="42.58839" lon="1.77973">
        <ele>1817.03</ele>
        <time>2013-03-23T07:19:58Z</time>
      </trkpt>
      <trkpt lat="42.58838" lon="1.77972">
        <ele>1817.03</ele>
        <time>2013-03-23T07:19:59Z</time>
      </trkpt>
      <trkpt lat="42.58838" lon="1.77972">
        <ele>1817.03</ele>
        <time>2013-03-23T07:20:00Z</time>
      </trkpt>
      <trkpt lat="42.58837" lon="1.77972">
        <ele>1817.03</ele>
        <time>2013-03-23T07:20:01Z</time>
      </trkpt>
      <trkpt lat="42.58836" lon="1.77972">
        <ele>1816.55</ele>
        <time>2013-03-23T07:20:02Z</time>
      </trkpt>
      <trkpt lat="42.58836" lon="1.77971">
        <ele>1816.55</ele>
        <time>2013-03-23T07:20:03Z</time>
      </trkpt>
      <trkpt lat="42.58835" lon="1.77971">
        <ele>1816.55</ele>
        <time>2013-03-23T07:20:04Z</time>
      </trkpt>
      <trkpt lat="42.58834" lon="1.7797">
        <ele>1816.07</ele>
        <time>2013-03-23T07:20:05Z</time>
      </trkpt>
      <trkpt lat="42.58833" lon="1.7797">
        <ele>1816.07</ele>
        <time>2013-03-23T07:20:06Z</time>
      </trkpt>
      <trkpt lat="42.58832" lon="1.77968">
        <ele>1816.07</ele>
        <time>2013-03-23T07:20:08Z</time>
      </trkpt>
      <trkpt lat="42.58831" lon="1.77967">
        <ele>1816.07</ele>
        <time>2013-03-23T07:20:09Z</time>
      </trkpt>
      <trkpt lat="42.5883" lon="1.77966">
        <ele>1816.07</ele>
        <time>2013-03-23T07:20:10Z</time>
      </trkpt>
      <trkpt lat="42.58822" lon="1.77963">
        <ele>1817.03</ele>
        <time>2013-03-23T07:20:18Z</time>
      </trkpt>
      <trkpt lat="42.58817" lon="1.77961">
        <ele>1817.51</ele>
        <time>2013-03-23T07:20:23Z</time>
      </trkpt>
      <trkpt lat="42.58805" lon="1.7796">
        <ele>1819.91</ele>
        <time>2013-03-23T07:20:36Z</time>
      </trkpt>
      <trkpt lat="42.58794" lon="1.77955">
        <ele>1821.35</ele>
        <time>2013-03-23T07:20:47Z</time>
      </trkpt>
      <trkpt lat="42.58786" lon="1.7795">
        <ele>1822.8</ele>
        <time>2013-03-23T07:20:57Z</time>
      </trkpt>
      <trkpt lat="42.58776" lon="1.77942">
        <ele>1825.2</ele>
        <time>2013-03-23T07:21:11Z</time>
      </trkpt>
      <trkpt lat="42.58774" lon="1.77941">
        <ele>1825.2</ele>
        <time>2013-03-23T07:21:13Z</time>
      </trkpt>
      <trkpt lat="42.58761" lon="1.77931">
        <ele>1830.01</ele>
        <time>2013-03-23T07:21:27Z</time>
      </trkpt>
      <trkpt lat="42.58755" lon="1.77928">
        <ele>1831.45</ele>
        <time>2013-03-23T07:21:34Z</time>
      </trkpt>
      <trkpt lat="42.58748" lon="1.77924">
        <ele>1832.89</ele>
        <time>2013-03-23T07:21:45Z</time>
      </trkpt>
      <trkpt lat="42.58739" lon="1.77914">
        <ele>1834.81</ele>
        <time>2013-03-23T07:21:57Z</time>
      </trkpt>
      <trkpt lat="42.58737" lon="1.77913">
        <ele>1835.29</ele>
        <time>2013-03-23T07:21:59Z</time>
      </trkpt>
      <trkpt lat="42.5873" lon="1.77909">
        <ele>1836.26</ele>
        <time>2013-03-23T07:22:07Z</time>
      </trkpt>
      <trkpt lat="42.58728" lon="1.77908">
        <ele>1836.26</ele>
        <time>2013-03-23T07:22:09Z</time>
      </trkpt>
      <trkpt lat="42.58725" lon="1.77903">
        <ele>1836.26</ele>
        <time>2013-03-23T07:22:14Z</time>
      </trkpt>
      <trkpt lat="42.5872" lon="1.77897">
        <ele>1837.7</ele>
        <time>2013-03-23T07:22:21Z</time>
      </trkpt>
      <trkpt lat="42.58713" lon="1.77888">
        <ele>1839.14</ele>
        <time>2013-03-23T07:22:33Z</time>
      </trkpt>
      <trkpt lat="42.58711" lon="1.77887">
        <ele>1839.14</ele>
        <time>2013-03-23T07:22:35Z</time>
      </trkpt>
      <trkpt lat="42.58709" lon="1.77886">
        <ele>1839.62</ele>
        <time>2013-03-23T07:22:37Z</time>
      </trkpt>
      <trkpt lat="42.58709" lon="1.77885">
        <ele>1838.66</ele>
        <time>2013-03-23T07:22:49Z</time>
      </trkpt>
      <trkpt lat="42.58704" lon="1.7788">
        <ele>1839.62</ele>
        <time>2013-03-23T07:23:02Z</time>
      </trkpt>
      <trkpt lat="42.58702" lon="1.77878">
        <ele>1839.62</ele>
        <time>2013-03-23T07:23:04Z</time>
      </trkpt>
      <trkpt lat="42.58697" lon="1.77872">
        <ele>1840.1</ele>
        <time>2013-03-23T07:23:10Z</time>
      </trkpt>
      <trkpt lat="42.58689" lon="1.77868">
        <ele>1839.62</ele>
        <time>2013-03-23T07:23:20Z</time>
      </trkpt>
      <trkpt lat="42.58685" lon="1.77867">
        <ele>1839.62</ele>
        <time>2013-03-23T07:23:25Z</time>
      </trkpt>
      <trkpt lat="42.58673" lon="1.77862">
        <ele>1842.02</ele>
        <time>2013-03-23T07:23:38Z</time>
      </trkpt>
      <trkpt lat="42.58665" lon="1.77857">
        <ele>1845.39</ele>
        <time>2013-03-23T07:23:48Z</time>
      </trkpt>
      <trkpt lat="42.58658" lon="1.7785">
        <ele>1847.31</ele>
        <time>2013-03-23T07:24:00Z</time>
      </trkpt>
      <trkpt lat="42.58653" lon="1.77836">
        <ele>1848.75</ele>
        <time>2013-03-23T07:24:13Z</time>
      </trkpt>
      <trkpt lat="42.58648" lon="1.77825">
        <ele>1851.16</ele>
        <time>2013-03-23T07:24:26Z</time>
      </trkpt>
      <trkpt lat="42.58641" lon="1.77815">
        <ele>1853.08</ele>
        <time>2013-03-23T07:24:38Z</time>
      </trkpt>
      <trkpt lat="42.58634" lon="1.77805">
        <ele>1854.52</ele>
        <time>2013-03-23T07:24:52Z</time>
      </trkpt>
      <trkpt lat="42.58627" lon="1.77795">
        <ele>1856.44</ele>
        <time>2013-03-23T07:25:06Z</time>
      </trkpt>
      <trkpt lat="42.58623" lon="1.77789">
        <ele>1860.29</ele>
        <time>2013-03-23T07:25:19Z</time>
      </trkpt>
      <trkpt lat="42.58623" lon="1.77786">
        <ele>1862.69</ele>
        <time>2013-03-23T07:25:30Z</time>
      </trkpt>
      <trkpt lat="42.58621" lon="1.77779">
        <ele>1863.17</ele>
        <time>2013-03-23T07:25:46Z</time>
      </trkpt>
      <trkpt lat="42.58618" lon="1.77771">
        <ele>1865.09</ele>
        <time>2013-03-23T07:25:58Z</time>
      </trkpt>
      <trkpt lat="42.58618" lon="1.77767">
        <ele>1866.06</ele>
        <time>2013-03-23T07:26:08Z</time>
      </trkpt>
      <trkpt lat="42.58618" lon="1.77769">
        <ele>1866.06</ele>
        <time>2013-03-23T07:26:25Z</time>
      </trkpt>
      <trkpt lat="42.58618" lon="1.7777">
        <ele>1865.09</ele>
        <time>2013-03-23T07:26:38Z</time>
      </trkpt>
      <trkpt lat="42.58615" lon="1.77768">
        <ele>1865.09</ele>
        <time>2013-03-23T07:26:57Z</time>
      </trkpt>
      <trkpt lat="42.58616" lon="1.77766">
        <ele>1860.77</ele>
        <time>2013-03-23T07:27:08Z</time>
      </trkpt>
      <trkpt lat="42.58616" lon="1.77767">
        <ele>1860.77</ele>
        <time>2013-03-23T07:27:20Z</time>
      </trkpt>
      <trkpt lat="42.58618" lon="1.77765">
        <ele>1861.25</ele>
        <time>2013-03-23T07:27:31Z</time>
      </trkpt>
      <trkpt lat="42.58618" lon="1.77769">
        <ele>1861.25</ele>
        <time>2013-03-23T07:27:47Z</time>
      </trkpt>
      <trkpt lat="42.58618" lon="1.77768">
        <ele>1861.25</ele>
        <time>2013-03-23T07:27:49Z</time>
      </trkpt>
      <trkpt lat="42.5862" lon="1.77762">
        <ele>1860.29</ele>
        <time>2013-03-23T07:27:58Z</time>
      </trkpt>
      <trkpt lat="42.58623" lon="1.7776">
        <ele>1859.81</ele>
        <time>2013-03-23T07:28:11Z</time>
      </trkpt>
      <trkpt lat="42.58625" lon="1.77759">
        <ele>1858.37</ele>
        <time>2013-03-23T07:28:16Z</time>
      </trkpt>
      <trkpt lat="42.58631" lon="1.7775">
        <ele>1855</ele>
        <time>2013-03-23T07:28:24Z</time>
      </trkpt>
      <trkpt lat="42.58636" lon="1.77745">
        <ele>1852.12</ele>
        <time>2013-03-23T07:28:29Z</time>
      </trkpt>
      <trkpt lat="42.58637" lon="1.77743">
        <ele>1851.16</ele>
        <time>2013-03-23T07:28:37Z</time>
      </trkpt>
      <trkpt lat="42.58641" lon="1.77744">
        <ele>1848.75</ele>
        <time>2013-03-23T07:28:49Z</time>
      </trkpt>
      <trkpt lat="42.58641" lon="1.77744">
        <ele>1849.71</ele>
        <time>2013-03-23T07:29:05Z</time>
      </trkpt>
      <trkpt lat="42.58639" lon="1.77747">
        <ele>1849.23</ele>
        <time>2013-03-23T07:29:16Z</time>
      </trkpt>
      <trkpt lat="42.58638" lon="1.77747">
        <ele>1846.83</ele>
        <time>2013-03-23T07:29:28Z</time>
      </trkpt>
      <trkpt lat="42.58638" lon="1.77745">
        <ele>1847.79</ele>
        <time>2013-03-23T07:29:40Z</time>
      </trkpt>
      <trkpt lat="42.58639" lon="1.77743">
        <ele>1849.71</ele>
        <time>2013-03-23T07:29:50Z</time>
      </trkpt>
      <trkpt lat="42.58639" lon="1.77743">
        <ele>1851.64</ele>
        <time>2013-03-23T07:30:05Z</time>
      </trkpt>
      <trkpt lat="42.58638" lon="1.77741">
        <ele>1847.31</ele>
        <time>2013-03-23T07:30:19Z</time>
      </trkpt>
      <trkpt lat="42.5864" lon="1.7774">
        <ele>1846.83</ele>
        <time>2013-03-23T07:30:30Z</time>
      </trkpt>
      <trkpt lat="42.58641" lon="1.77739">
        <ele>1845.39</ele>
        <time>2013-03-23T07:30:45Z</time>
      </trkpt>
      <trkpt lat="42.58641" lon="1.77739">
        <ele>1846.83</ele>
        <time>2013-03-23T07:30:56Z</time>
      </trkpt>
      <trkpt lat="42.58641" lon="1.77742">
        <ele>1847.31</ele>
        <time>2013-03-23T07:31:10Z</time>
      </trkpt>
      <trkpt lat="42.58642" lon="1.77743">
        <ele>1849.23</ele>
        <time>2013-03-23T07:31:40Z</time>
      </trkpt>
      <trkpt lat="42.58643" lon="1.77741">
        <ele>1847.79</ele>
        <time>2013-03-23T07:32:05Z</time>
      </trkpt>
      <trkpt lat="42.5864" lon="1.77742">
        <ele>1847.31</ele>
        <time>2013-03-23T07:32:20Z</time>
      </trkpt>
      <trkpt lat="42.58641" lon="1.77741">
        <ele>1844.91</ele>
        <time>2013-03-23T07:32:45Z</time>
      </trkpt>
      <trkpt lat="42.58641" lon="1.7774">
        <ele>1845.87</ele>
        <time>2013-03-23T07:33:08Z</time>
      </trkpt>
      <trkpt lat="42.5864" lon="1.7774">
        <ele>1847.31</ele>
        <time>2013-03-23T07:33:18Z</time>
      </trkpt>
      <trkpt lat="42.58638" lon="1.77741">
        <ele>1847.79</ele>
        <time>2013-03-23T07:33:32Z</time>
      </trkpt>
      <trkpt lat="42.58639" lon="1.77741">
        <ele>1847.31</ele>
        <time>2013-03-23T07:33:46Z</time>
      </trkpt>
      <trkpt lat="42.58638" lon="1.77741">
        <ele>1845.87</ele>
        <time>2013-03-23T07:34:02Z</time>
      </trkpt>
      <trkpt lat="42.58638" lon="1.7774">
        <ele>1846.83</ele>
        <time>2013-03-23T07:34:06Z</time>
      </trkpt>
      <trkpt lat="42.58632" lon="1.77735">
        <ele>1849.71</ele>
        <time>2013-03-23T07:34:16Z</time>
      </trkpt>
      <trkpt lat="42.58632" lon="1.77721">
        <ele>1854.04</ele>
        <time>2013-03-23T07:34:29Z</time>
      </trkpt>
      <trkpt lat="42.58629" lon="1.77712">
        <ele>1858.37</ele>
        <time>2013-03-23T07:34:40Z</time>
      </trkpt>
      <trkpt lat="42.58628" lon="1.77702">
        <ele>1863.17</ele>
        <time>2013-03-23T07:34:51Z</time>
      </trkpt>
      <trkpt lat="42.58628" lon="1.777">
        <ele>1863.17</ele>
        <time>2013-03-23T07:35:00Z</time>
      </trkpt>
      <trkpt lat="42.58627" lon="1.77699">
        <ele>1863.17</ele>
        <time>2013-03-23T07:35:22Z</time>
      </trkpt>
      <trkpt lat="42.58626" lon="1.77695">
        <ele>1861.73</ele>
        <time>2013-03-23T07:35:36Z</time>
      </trkpt>
      <trkpt lat="42.58624" lon="1.77688">
        <ele>1862.21</ele>
        <time>2013-03-23T07:35:45Z</time>
      </trkpt>
      <trkpt lat="42.58619" lon="1.77674">
        <ele>1864.61</ele>
        <time>2013-03-23T07:35:59Z</time>
      </trkpt>
      <trkpt lat="42.58617" lon="1.77657">
        <ele>1867.5</ele>
        <time>2013-03-23T07:36:14Z</time>
      </trkpt>
      <trkpt lat="42.58616" lon="1.77644">
        <ele>1870.38</ele>
        <time>2013-03-23T07:36:27Z</time>
      </trkpt>
      <trkpt lat="42.58613" lon="1.77633">
        <ele>1872.79</ele>
        <time>2013-03-23T07:36:39Z</time>
      </trkpt>
      <trkpt lat="42.58605" lon="1.77617">
        <ele>1874.71</ele>
        <time>2013-03-23T07:36:53Z</time>
      </trkpt>
      <trkpt lat="42.586" lon="1.77605">
        <ele>1877.11</ele>
        <time>2013-03-23T07:37:07Z</time>
      </trkpt>
      <trkpt lat="42.58596" lon="1.77595">
        <ele>1880.48</ele>
        <time>2013-03-23T07:37:20Z</time>
      </trkpt>
      <trkpt lat="42.58594" lon="1.77582">
        <ele>1883.84</ele>
        <time>2013-03-23T07:37:33Z</time>
      </trkpt>
      <trkpt lat="42.58592" lon="1.77569">
        <ele>1887.69</ele>
        <time>2013-03-23T07:37:45Z</time>
      </trkpt>
      <trkpt lat="42.5859" lon="1.77558">
        <ele>1891.05</ele>
        <time>2013-03-23T07:37:58Z</time>
      </trkpt>
      <trkpt lat="42.58589" lon="1.77546">
        <ele>1892.01</ele>
        <time>2013-03-23T07:38:10Z</time>
      </trkpt>
      <trkpt lat="42.58587" lon="1.77537">
        <ele>1893.93</ele>
        <time>2013-03-23T07:38:21Z</time>
      </trkpt>
      <trkpt lat="42.58583" lon="1.77528">
        <ele>1896.34</ele>
        <time>2013-03-23T07:38:31Z</time>
      </trkpt>
      <trkpt lat="42.58579" lon="1.77519">
        <ele>1897.78</ele>
        <time>2013-03-23T07:38:43Z</time>
      </trkpt>
      <trkpt lat="42.58577" lon="1.77514">
        <ele>1900.18</ele>
        <time>2013-03-23T07:38:55Z</time>
      </trkpt>
      <trkpt lat="42.58573" lon="1.77506">
        <ele>1901.63</ele>
        <time>2013-03-23T07:39:06Z</time>
      </trkpt>
      <trkpt lat="42.58568" lon="1.77498">
        <ele>1903.55</ele>
        <time>2013-03-23T07:39:19Z</time>
      </trkpt>
      <trkpt lat="42.58563" lon="1.77491">
        <ele>1907.87</ele>
        <time>2013-03-23T07:39:31Z</time>
      </trkpt>
      <trkpt lat="42.58558" lon="1.77485">
        <ele>1910.28</ele>
        <time>2013-03-23T07:39:43Z</time>
      </trkpt>
      <trkpt lat="42.58555" lon="1.7748">
        <ele>1914.12</ele>
        <time>2013-03-23T07:39:53Z</time>
      </trkpt>
      <trkpt lat="42.58549" lon="1.77476">
        <ele>1917.01</ele>
        <time>2013-03-23T07:40:04Z</time>
      </trkpt>
      <trkpt lat="42.58545" lon="1.77473">
        <ele>1918.93</ele>
        <time>2013-03-23T07:40:16Z</time>
      </trkpt>
      <trkpt lat="42.58537" lon="1.77469">
        <ele>1920.37</ele>
        <time>2013-03-23T07:40:28Z</time>
      </trkpt>
      <trkpt lat="42.5853" lon="1.77468">
        <ele>1921.33</ele>
        <time>2013-03-23T07:40:40Z</time>
      </trkpt>
      <trkpt lat="42.58529" lon="1.77466">
        <ele>1921.81</ele>
        <time>2013-03-23T07:40:52Z</time>
      </trkpt>
      <trkpt lat="42.58527" lon="1.77466">
        <ele>1923.74</ele>
        <time>2013-03-23T07:41:12Z</time>
      </trkpt>
      <trkpt lat="42.58527" lon="1.77467">
        <ele>1923.74</ele>
        <time>2013-03-23T07:41:28Z</time>
      </trkpt>
      <trkpt lat="42.58526" lon="1.77466">
        <ele>1923.74</ele>
        <time>2013-03-23T07:41:41Z</time>
      </trkpt>
      <trkpt lat="42.58528" lon="1.77463">
        <ele>1922.77</ele>
        <time>2013-03-23T07:41:59Z</time>
      </trkpt>
      <trkpt lat="42.58527" lon="1.77465">
        <ele>1922.29</ele>
        <time>2013-03-23T07:42:29Z</time>
      </trkpt>
      <trkpt lat="42.58519" lon="1.77464">
        <ele>1924.7</ele>
        <time>2013-03-23T07:42:43Z</time>
      </trkpt>
      <trkpt lat="42.58519" lon="1.77462">
        <ele>1925.18</ele>
        <time>2013-03-23T07:42:55Z</time>
      </trkpt>
      <trkpt lat="42.58522" lon="1.77459">
        <ele>1924.22</ele>
        <time>2013-03-23T07:43:06Z</time>
      </trkpt>
      <trkpt lat="42.58517" lon="1.77458">
        <ele>1924.22</ele>
        <time>2013-03-23T07:43:16Z</time>
      </trkpt>
      <trkpt lat="42.58513" lon="1.77458">
        <ele>1923.25</ele>
        <time>2013-03-23T07:43:24Z</time>
      </trkpt>
      <trkpt lat="42.58512" lon="1.77457">
        <ele>1924.22</ele>
        <time>2013-03-23T07:43:32Z</time>
      </trkpt>
      <trkpt lat="42.58512" lon="1.77457">
        <ele>1923.74</ele>
        <time>2013-03-23T07:43:41Z</time>
      </trkpt>
      <trkpt lat="42.58513" lon="1.77456">
        <ele>1921.81</ele>
        <time>2013-03-23T07:43:54Z</time>
      </trkpt>
      <trkpt lat="42.58514" lon="1.77456">
        <ele>1920.85</ele>
        <time>2013-03-23T07:44:03Z</time>
      </trkpt>
      <trkpt lat="42.58514" lon="1.77453">
        <ele>1924.7</ele>
        <time>2013-03-23T07:44:12Z</time>
      </trkpt>
      <trkpt lat="42.58513" lon="1.77452">
        <ele>1929.5</ele>
        <time>2013-03-23T07:44:25Z</time>
      </trkpt>
      <trkpt lat="42.58515" lon="1.77452">
        <ele>1928.54</ele>
        <time>2013-03-23T07:44:38Z</time>
      </trkpt>
      <trkpt lat="42.58513" lon="1.77452">
        <ele>1928.06</ele>
        <time>2013-03-23T07:44:50Z</time>
      </trkpt>
      <trkpt lat="42.58514" lon="1.77451">
        <ele>1924.7</ele>
        <time>2013-03-23T07:45:00Z</time>
      </trkpt>
      <trkpt lat="42.58512" lon="1.7745">
        <ele>1926.14</ele>
        <time>2013-03-23T07:45:09Z</time>
      </trkpt>
      <trkpt lat="42.58509" lon="1.77444">
        <ele>1931.43</ele>
        <time>2013-03-23T07:45:19Z</time>
      </trkpt>
      <trkpt lat="42.58509" lon="1.77443">
        <ele>1930.46</ele>
        <time>2013-03-23T07:45:26Z</time>
      </trkpt>
      <trkpt lat="42.58507" lon="1.77435">
        <ele>1930.95</ele>
        <time>2013-03-23T07:45:38Z</time>
      </trkpt>
      <trkpt lat="42.58506" lon="1.77428">
        <ele>1932.39</ele>
        <time>2013-03-23T07:45:49Z</time>
      </trkpt>
      <trkpt lat="42.58506" lon="1.7742">
        <ele>1936.71</ele>
        <time>2013-03-23T07:46:00Z</time>
      </trkpt>
      <trkpt lat="42.58508" lon="1.77412">
        <ele>1937.19</ele>
        <time>2013-03-23T07:46:11Z</time>
      </trkpt>
      <trkpt lat="42.58509" lon="1.77409">
        <ele>1937.67</ele>
        <time>2013-03-23T07:46:13Z</time>
      </trkpt>
      <trkpt lat="42.58516" lon="1.77399">
        <ele>1937.67</ele>
        <time>2013-03-23T07:46:25Z</time>
      </trkpt>
      <trkpt lat="42.58518" lon="1.77392">
        <ele>1940.08</ele>
        <time>2013-03-23T07:46:36Z</time>
      </trkpt>
      <trkpt lat="42.58517" lon="1.77372">
        <ele>1940.08</ele>
        <time>2013-03-23T07:46:50Z</time>
      </trkpt>
      <trkpt lat="42.58515" lon="1.77367">
        <ele>1940.56</ele>
        <time>2013-03-23T07:47:03Z</time>
      </trkpt>
      <trkpt lat="42.58514" lon="1.77356">
        <ele>1940.08</ele>
        <time>2013-03-23T07:47:14Z</time>
      </trkpt>
      <trkpt lat="42.58513" lon="1.77346">
        <ele>1941.52</ele>
        <time>2013-03-23T07:47:22Z</time>
      </trkpt>
      <trkpt lat="42.58511" lon="1.7733">
        <ele>1942.48</ele>
        <time>2013-03-23T07:47:37Z</time>
      </trkpt>
      <trkpt lat="42.58509" lon="1.77321">
        <ele>1943.44</ele>
        <time>2013-03-23T07:47:48Z</time>
      </trkpt>
      <trkpt lat="42.58509" lon="1.77305">
        <ele>1946.33</ele>
        <time>2013-03-23T07:48:02Z</time>
      </trkpt>
      <trkpt lat="42.58509" lon="1.77302">
        <ele>1945.85</ele>
        <time>2013-03-23T07:48:06Z</time>
      </trkpt>
      <trkpt lat="42.5851" lon="1.77298">
        <ele>1947.77</ele>
        <time>2013-03-23T07:48:19Z</time>
      </trkpt>
      <trkpt lat="42.58511" lon="1.77297">
        <ele>1950.65</ele>
        <time>2013-03-23T07:48:30Z</time>
      </trkpt>
      <trkpt lat="42.58512" lon="1.77296">
        <ele>1951.13</ele>
        <time>2013-03-23T07:48:33Z</time>
      </trkpt>
      <trkpt lat="42.58514" lon="1.77295">
        <ele>1947.77</ele>
        <time>2013-03-23T07:48:45Z</time>
      </trkpt>
      <trkpt lat="42.58515" lon="1.77292">
        <ele>1946.81</ele>
        <time>2013-03-23T07:48:55Z</time>
      </trkpt>
      <trkpt lat="42.58511" lon="1.77284">
        <ele>1947.29</ele>
        <time>2013-03-23T07:49:06Z</time>
      </trkpt>
      <trkpt lat="42.58508" lon="1.7728">
        <ele>1946.33</ele>
        <time>2013-03-23T07:49:17Z</time>
      </trkpt>
      <trkpt lat="42.58507" lon="1.77278">
        <ele>1946.81</ele>
        <time>2013-03-23T07:49:28Z</time>
      </trkpt>
      <trkpt lat="42.58506" lon="1.77276">
        <ele>1947.77</ele>
        <time>2013-03-23T07:49:45Z</time>
      </trkpt>
      <trkpt lat="42.58505" lon="1.77273">
        <ele>1947.77</ele>
        <time>2013-03-23T07:49:55Z</time>
      </trkpt>
      <trkpt lat="42.58506" lon="1.7727">
        <ele>1947.77</ele>
        <time>2013-03-23T07:50:06Z</time>
      </trkpt>
      <trkpt lat="42.58504" lon="1.77265">
        <ele>1947.77</ele>
        <time>2013-03-23T07:50:15Z</time>
      </trkpt>
      <trkpt lat="42.58503" lon="1.77267">
        <ele>1947.77</ele>
        <time>2013-03-23T07:50:25Z</time>
      </trkpt>
      <trkpt lat="42.58499" lon="1.77267">
        <ele>1949.69</ele>
        <time>2013-03-23T07:50:37Z</time>
      </trkpt>
      <trkpt lat="42.58494" lon="1.77269">
        <ele>1953.06</ele>
        <time>2013-03-23T07:50:49Z</time>
      </trkpt>
      <trkpt lat="42.58492" lon="1.77269">
        <ele>1950.65</ele>
        <time>2013-03-23T07:51:01Z</time>
      </trkpt>
      <trkpt lat="42.58491" lon="1.77267">
        <ele>1949.69</ele>
        <time>2013-03-23T07:51:14Z</time>
      </trkpt>
      <trkpt lat="42.5849" lon="1.77267">
        <ele>1949.21</ele>
        <time>2013-03-23T07:51:17Z</time>
      </trkpt>
      <trkpt lat="42.5849" lon="1.77269">
        <ele>1951.61</ele>
        <time>2013-03-23T07:51:27Z</time>
      </trkpt>
      <trkpt lat="42.5849" lon="1.77267">
        <ele>1953.06</ele>
        <time>2013-03-23T07:51:38Z</time>
      </trkpt>
      <trkpt lat="42.58491" lon="1.77265">
        <ele>1953.54</ele>
        <time>2013-03-23T07:51:52Z</time>
      </trkpt>
      <trkpt lat="42.58489" lon="1.77263">
        <ele>1954.02</ele>
        <time>2013-03-23T07:52:00Z</time>
      </trkpt>
      <trkpt lat="42.58489" lon="1.77261">
        <ele>1954.98</ele>
        <time>2013-03-23T07:52:04Z</time>
      </trkpt>
      <trkpt lat="42.58491" lon="1.77252">
        <ele>1959.3</ele>
        <time>2013-03-23T07:52:18Z</time>
      </trkpt>
      <trkpt lat="42.58488" lon="1.7725">
        <ele>1959.78</ele>
        <time>2013-03-23T07:52:28Z</time>
      </trkpt>
      <trkpt lat="42.58486" lon="1.77247">
        <ele>1961.71</ele>
        <time>2013-03-23T07:52:42Z</time>
      </trkpt>
      <trkpt lat="42.58486" lon="1.77244">
        <ele>1963.15</ele>
        <time>2013-03-23T07:52:51Z</time>
      </trkpt>
      <trkpt lat="42.58487" lon="1.7723">
        <ele>1963.63</ele>
        <time>2013-03-23T07:53:02Z</time>
      </trkpt>
      <trkpt lat="42.58484" lon="1.77218">
        <ele>1965.07</ele>
        <time>2013-03-23T07:53:16Z</time>
      </trkpt>
      <trkpt lat="42.58483" lon="1.77217">
        <ele>1966.51</ele>
        <time>2013-03-23T07:53:35Z</time>
      </trkpt>
      <trkpt lat="42.5848" lon="1.77207">
        <ele>1967.48</ele>
        <time>2013-03-23T07:53:50Z</time>
      </trkpt>
      <trkpt lat="42.58479" lon="1.77201">
        <ele>1967.48</ele>
        <time>2013-03-23T07:53:54Z</time>
      </trkpt>
      <trkpt lat="42.58479" lon="1.77198">
        <ele>1966.99</ele>
        <time>2013-03-23T07:53:57Z</time>
      </trkpt>
      <trkpt lat="42.58474" lon="1.7718">
        <ele>1966.99</ele>
        <time>2013-03-23T07:54:11Z</time>
      </trkpt>
      <trkpt lat="42.58468" lon="1.77168">
        <ele>1968.44</ele>
        <time>2013-03-23T07:54:24Z</time>
      </trkpt>
      <trkpt lat="42.58463" lon="1.7716">
        <ele>1971.8</ele>
        <time>2013-03-23T07:54:35Z</time>
      </trkpt>
      <trkpt lat="42.58456" lon="1.77151">
        <ele>1974.69</ele>
        <time>2013-03-23T07:54:47Z</time>
      </trkpt>
      <trkpt lat="42.5845" lon="1.77145">
        <ele>1976.13</ele>
        <time>2013-03-23T07:54:58Z</time>
      </trkpt>
      <trkpt lat="42.58445" lon="1.77139">
        <ele>1978.05</ele>
        <time>2013-03-23T07:55:09Z</time>
      </trkpt>
      <trkpt lat="42.58439" lon="1.77136">
        <ele>1978.53</ele>
        <time>2013-03-23T07:55:21Z</time>
      </trkpt>
      <trkpt lat="42.58431" lon="1.77133">
        <ele>1979.01</ele>
        <time>2013-03-23T07:55:31Z</time>
      </trkpt>
      <trkpt lat="42.58427" lon="1.77131">
        <ele>1980.45</ele>
        <time>2013-03-23T07:55:42Z</time>
      </trkpt>
      <trkpt lat="42.58423" lon="1.77126">
        <ele>1983.82</ele>
        <time>2013-03-23T07:55:53Z</time>
      </trkpt>
      <trkpt lat="42.58417" lon="1.77123">
        <ele>1986.22</ele>
        <time>2013-03-23T07:56:05Z</time>
      </trkpt>
      <trkpt lat="42.58411" lon="1.77121">
        <ele>1988.14</ele>
        <time>2013-03-23T07:56:18Z</time>
      </trkpt>
      <trkpt lat="42.58414" lon="1.77115">
        <ele>1989.59</ele>
        <time>2013-03-23T07:56:27Z</time>
      </trkpt>
      <trkpt lat="42.58417" lon="1.77109">
        <ele>1990.55</ele>
        <time>2013-03-23T07:56:38Z</time>
      </trkpt>
      <trkpt lat="42.58422" lon="1.77099">
        <ele>1995.35</ele>
        <time>2013-03-23T07:56:51Z</time>
      </trkpt>
      <trkpt lat="42.58423" lon="1.77093">
        <ele>1996.8</ele>
        <time>2013-03-23T07:56:58Z</time>
      </trkpt>
      <trkpt lat="42.58416" lon="1.77089">
        <ele>1997.28</ele>
        <time>2013-03-23T07:57:08Z</time>
      </trkpt>
      <trkpt lat="42.58413" lon="1.77087">
        <ele>1997.76</ele>
        <time>2013-03-23T07:57:13Z</time>
      </trkpt>
      <trkpt lat="42.58408" lon="1.77086">
        <ele>1998.24</ele>
        <time>2013-03-23T07:57:20Z</time>
      </trkpt>
      <trkpt lat="42.58401" lon="1.77084">
        <ele>1998.72</ele>
        <time>2013-03-23T07:57:25Z</time>
      </trkpt>
      <trkpt lat="42.58393" lon="1.77085">
        <ele>1999.68</ele>
        <time>2013-03-23T07:57:36Z</time>
      </trkpt>
      <trkpt lat="42.58392" lon="1.77082">
        <ele>2003.04</ele>
        <time>2013-03-23T07:57:47Z</time>
      </trkpt>
      <trkpt lat="42.58392" lon="1.7707">
        <ele>2006.41</ele>
        <time>2013-03-23T07:58:00Z</time>
      </trkpt>
      <trkpt lat="42.58392" lon="1.77064">
        <ele>2006.41</ele>
        <time>2013-03-23T07:58:04Z</time>
      </trkpt>
      <trkpt lat="42.58394" lon="1.77048">
        <ele>2008.81</ele>
        <time>2013-03-23T07:58:19Z</time>
      </trkpt>
      <trkpt lat="42.58398" lon="1.77031">
        <ele>2010.25</ele>
        <time>2013-03-23T07:58:33Z</time>
      </trkpt>
      <trkpt lat="42.58397" lon="1.77019">
        <ele>2011.7</ele>
        <time>2013-03-23T07:58:44Z</time>
      </trkpt>
      <trkpt lat="42.58394" lon="1.77007">
        <ele>2014.1</ele>
        <time>2013-03-23T07:58:56Z</time>
      </trkpt>
      <trkpt lat="42.58392" lon="1.76998">
        <ele>2016.5</ele>
        <time>2013-03-23T07:59:07Z</time>
      </trkpt>
      <trkpt lat="42.58392" lon="1.76992">
        <ele>2017.46</ele>
        <time>2013-03-23T07:59:18Z</time>
      </trkpt>
      <trkpt lat="42.5839" lon="1.76983">
        <ele>2019.87</ele>
        <time>2013-03-23T07:59:30Z</time>
      </trkpt>
      <trkpt lat="42.58389" lon="1.76975">
        <ele>2022.27</ele>
        <time>2013-03-23T07:59:41Z</time>
      </trkpt>
      <trkpt lat="42.58389" lon="1.76965">
        <ele>2022.75</ele>
        <time>2013-03-23T07:59:51Z</time>
      </trkpt>
      <trkpt lat="42.58389" lon="1.76954">
        <ele>2025.15</ele>
        <time>2013-03-23T08:00:04Z</time>
      </trkpt>
      <trkpt lat="42.58389" lon="1.76943">
        <ele>2027.56</ele>
        <time>2013-03-23T08:00:16Z</time>
      </trkpt>
      <trkpt lat="42.58391" lon="1.76931">
        <ele>2029.96</ele>
        <time>2013-03-23T08:00:28Z</time>
      </trkpt>
      <trkpt lat="42.58392" lon="1.76928">
        <ele>2030.92</ele>
        <time>2013-03-23T08:00:32Z</time>
      </trkpt>
      <trkpt lat="42.58399" lon="1.76924">
        <ele>2031.4</ele>
        <time>2013-03-23T08:00:44Z</time>
      </trkpt>
      <trkpt lat="42.58402" lon="1.76918">
        <ele>2034.29</ele>
        <time>2013-03-23T08:00:56Z</time>
      </trkpt>
      <trkpt lat="42.58401" lon="1.7691">
        <ele>2039.09</ele>
        <time>2013-03-23T08:01:11Z</time>
      </trkpt>
      <trkpt lat="42.584" lon="1.76911">
        <ele>2041.02</ele>
        <time>2013-03-23T08:01:30Z</time>
      </trkpt>
      <trkpt lat="42.58401" lon="1.76911">
        <ele>2041.5</ele>
        <time>2013-03-23T08:01:45Z</time>
      </trkpt>
      <trkpt lat="42.58402" lon="1.7691">
        <ele>2041.98</ele>
        <time>2013-03-23T08:02:00Z</time>
      </trkpt>
      <trkpt lat="42.58402" lon="1.76908">
        <ele>2041.98</ele>
        <time>2013-03-23T08:02:14Z</time>
      </trkpt>
      <trkpt lat="42.58402" lon="1.76908">
        <ele>2042.46</ele>
        <time>2013-03-23T08:02:46Z</time>
      </trkpt>
      <trkpt lat="42.58403" lon="1.76906">
        <ele>2041.02</ele>
        <time>2013-03-23T08:03:17Z</time>
      </trkpt>
      <trkpt lat="42.58404" lon="1.7691">
        <ele>2041.98</ele>
        <time>2013-03-23T08:04:03Z</time>
      </trkpt>
      <trkpt lat="42.58405" lon="1.76907">
        <ele>2035.73</ele>
        <time>2013-03-23T08:04:40Z</time>
      </trkpt>
      <trkpt lat="42.58404" lon="1.76909">
        <ele>2035.73</ele>
        <time>2013-03-23T08:05:10Z</time>
      </trkpt>
      <trkpt lat="42.58403" lon="1.7691">
        <ele>2034.77</ele>
        <time>2013-03-23T08:05:45Z</time>
      </trkpt>
      <trkpt lat="42.58401" lon="1.76908">
        <ele>2035.73</ele>
        <time>2013-03-23T08:06:11Z</time>
      </trkpt>
      <trkpt lat="42.58401" lon="1.76911">
        <ele>2037.17</ele>
        <time>2013-03-23T08:06:24Z</time>
      </trkpt>
      <trkpt lat="42.58402" lon="1.76911">
        <ele>2041.02</ele>
        <time>2013-03-23T08:06:33Z</time>
      </trkpt>
      <trkpt lat="42.58398" lon="1.76911">
        <ele>2044.38</ele>
        <time>2013-03-23T08:06:58Z</time>
      </trkpt>
      <trkpt lat="42.58402" lon="1.76911">
        <ele>2043.9</ele>
        <time>2013-03-23T08:07:12Z</time>
      </trkpt>
      <trkpt lat="42.58403" lon="1.76911">
        <ele>2045.82</ele>
        <time>2013-03-23T08:07:27Z</time>
      </trkpt>
      <trkpt lat="42.58402" lon="1.76911">
        <ele>2044.38</ele>
        <time>2013-03-23T08:07:42Z</time>
      </trkpt>
      <trkpt lat="42.58403" lon="1.76911">
        <ele>2044.38</ele>
        <time>2013-03-23T08:08:00Z</time>
      </trkpt>
      <trkpt lat="42.58403" lon="1.7691">
        <ele>2043.42</ele>
        <time>2013-03-23T08:08:11Z</time>
      </trkpt>
      <trkpt lat="42.58401" lon="1.76912">
        <ele>2042.46</ele>
        <time>2013-03-23T08:08:31Z</time>
      </trkpt>
      <trkpt lat="42.58403" lon="1.76907">
        <ele>2041.98</ele>
        <time>2013-03-23T08:08:36Z</time>
      </trkpt>
      <trkpt lat="42.58413" lon="1.76887">
        <ele>2041.5</ele>
        <time>2013-03-23T08:08:53Z</time>
      </trkpt>
      <trkpt lat="42.58414" lon="1.76883">
        <ele>2042.46</ele>
        <time>2013-03-23T08:08:57Z</time>
      </trkpt>
      <trkpt lat="42.58417" lon="1.76876">
        <ele>2041.98</ele>
        <time>2013-03-23T08:09:02Z</time>
      </trkpt>
      <trkpt lat="42.58424" lon="1.76866">
        <ele>2041.5</ele>
        <time>2013-03-23T08:09:12Z</time>
      </trkpt>
      <trkpt lat="42.58429" lon="1.76859">
        <ele>2042.94</ele>
        <time>2013-03-23T08:09:19Z</time>
      </trkpt>
      <trkpt lat="42.58434" lon="1.76853">
        <ele>2044.38</ele>
        <time>2013-03-23T08:09:26Z</time>
      </trkpt>
      <trkpt lat="42.58439" lon="1.76844">
        <ele>2046.78</ele>
        <time>2013-03-23T08:09:34Z</time>
      </trkpt>
      <trkpt lat="42.58443" lon="1.7684">
        <ele>2046.3</ele>
        <time>2013-03-23T08:09:39Z</time>
      </trkpt>
      <trkpt lat="42.58452" lon="1.76826">
        <ele>2047.75</ele>
        <time>2013-03-23T08:09:53Z</time>
      </trkpt>
      <trkpt lat="42.58464" lon="1.76817">
        <ele>2047.26</ele>
        <time>2013-03-23T08:10:06Z</time>
      </trkpt>
      <trkpt lat="42.58473" lon="1.76813">
        <ele>2045.34</ele>
        <time>2013-03-23T08:10:13Z</time>
      </trkpt>
      <trkpt lat="42.58478" lon="1.7681">
        <ele>2044.38</ele>
        <time>2013-03-23T08:10:19Z</time>
      </trkpt>
      <trkpt lat="42.58492" lon="1.76797">
        <ele>2042.94</ele>
        <time>2013-03-23T08:10:32Z</time>
      </trkpt>
      <trkpt lat="42.58497" lon="1.76792">
        <ele>2041.98</ele>
        <time>2013-03-23T08:10:45Z</time>
      </trkpt>
      <trkpt lat="42.58498" lon="1.76791">
        <ele>2040.05</ele>
        <time>2013-03-23T08:10:59Z</time>
      </trkpt>
      <trkpt lat="42.58499" lon="1.76787">
        <ele>2036.69</ele>
        <time>2013-03-23T08:11:23Z</time>
      </trkpt>
      <trkpt lat="42.585" lon="1.76786">
        <ele>2034.29</ele>
        <time>2013-03-23T08:11:44Z</time>
      </trkpt>
      <trkpt lat="42.58504" lon="1.76781">
        <ele>2035.25</ele>
        <time>2013-03-23T08:11:55Z</time>
      </trkpt>
      <trkpt lat="42.58506" lon="1.76775">
        <ele>2033.81</ele>
        <time>2013-03-23T08:11:59Z</time>
      </trkpt>
      <trkpt lat="42.58508" lon="1.76762">
        <ele>2035.73</ele>
        <time>2013-03-23T08:12:06Z</time>
      </trkpt>
      <trkpt lat="42.58512" lon="1.76745">
        <ele>2034.77</ele>
        <time>2013-03-23T08:12:16Z</time>
      </trkpt>
      <trkpt lat="42.58514" lon="1.76738">
        <ele>2034.77</ele>
        <time>2013-03-23T08:12:21Z</time>
      </trkpt>
      <trkpt lat="42.58516" lon="1.76729">
        <ele>2034.77</ele>
        <time>2013-03-23T08:12:28Z</time>
      </trkpt>
      <trkpt lat="42.58519" lon="1.76715">
        <ele>2035.25</ele>
        <time>2013-03-23T08:12:39Z</time>
      </trkpt>
      <trkpt lat="42.58522" lon="1.76701">
        <ele>2036.21</ele>
        <time>2013-03-23T08:12:49Z</time>
      </trkpt>
      <trkpt lat="42.58523" lon="1.76694">
        <ele>2036.21</ele>
        <time>2013-03-23T08:12:55Z</time>
      </trkpt>
      <trkpt lat="42.58523" lon="1.76684">
        <ele>2035.25</ele>
        <time>2013-03-23T08:13:01Z</time>
      </trkpt>
      <trkpt lat="42.58528" lon="1.76672">
        <ele>2036.21</ele>
        <time>2013-03-23T08:13:11Z</time>
      </trkpt>
      <trkpt lat="42.58535" lon="1.76661">
        <ele>2037.17</ele>
        <time>2013-03-23T08:13:23Z</time>
      </trkpt>
      <trkpt lat="42.58543" lon="1.76653">
        <ele>2038.13</ele>
        <time>2013-03-23T08:13:34Z</time>
      </trkpt>
      <trkpt lat="42.58549" lon="1.76648">
        <ele>2038.61</ele>
        <time>2013-03-23T08:13:39Z</time>
      </trkpt>
      <trkpt lat="42.58555" lon="1.76644">
        <ele>2039.09</ele>
        <time>2013-03-23T08:13:44Z</time>
      </trkpt>
      <trkpt lat="42.58566" lon="1.76636">
        <ele>2039.57</ele>
        <time>2013-03-23T08:13:57Z</time>
      </trkpt>
      <trkpt lat="42.58566" lon="1.76637">
        <ele>2041.5</ele>
        <time>2013-03-23T08:14:11Z</time>
      </trkpt>
      <trkpt lat="42.58566" lon="1.76636">
        <ele>2041.02</ele>
        <time>2013-03-23T08:14:19Z</time>
      </trkpt>
      <trkpt lat="42.58568" lon="1.76638">
        <ele>2039.57</ele>
        <time>2013-03-23T08:14:33Z</time>
      </trkpt>
      <trkpt lat="42.58568" lon="1.76644">
        <ele>2038.61</ele>
        <time>2013-03-23T08:14:58Z</time>
      </trkpt>
      <trkpt lat="42.58569" lon="1.76642">
        <ele>2040.54</ele>
        <time>2013-03-23T08:15:31Z</time>
      </trkpt>
      <trkpt lat="42.58568" lon="1.76638">
        <ele>2041.98</ele>
        <time>2013-03-23T08:15:43Z</time>
      </trkpt>
      <trkpt lat="42.58567" lon="1.7664">
        <ele>2042.94</ele>
        <time>2013-03-23T08:16:01Z</time>
      </trkpt>
      <trkpt lat="42.5857" lon="1.76635">
        <ele>2043.9</ele>
        <time>2013-03-23T08:16:12Z</time>
      </trkpt>
      <trkpt lat="42.58577" lon="1.76629">
        <ele>2043.9</ele>
        <time>2013-03-23T08:16:20Z</time>
      </trkpt>
      <trkpt lat="42.58588" lon="1.76614">
        <ele>2043.42</ele>
        <time>2013-03-23T08:16:34Z</time>
      </trkpt>
      <trkpt lat="42.58591" lon="1.76611">
        <ele>2041.98</ele>
        <time>2013-03-23T08:16:38Z</time>
      </trkpt>
      <trkpt lat="42.58599" lon="1.76602">
        <ele>2040.54</ele>
        <time>2013-03-23T08:16:45Z</time>
      </trkpt>
      <trkpt lat="42.58612" lon="1.76581">
        <ele>2041.02</ele>
        <time>2013-03-23T08:17:01Z</time>
      </trkpt>
      <trkpt lat="42.58613" lon="1.7658">
        <ele>2041.02</ele>
        <time>2013-03-23T08:17:02Z</time>
      </trkpt>
      <trkpt lat="42.58619" lon="1.76576">
        <ele>2041.98</ele>
        <time>2013-03-23T08:17:08Z</time>
      </trkpt>
      <trkpt lat="42.58631" lon="1.76562">
        <ele>2042.94</ele>
        <time>2013-03-23T08:17:21Z</time>
      </trkpt>
      <trkpt lat="42.58645" lon="1.76547">
        <ele>2043.42</ele>
        <time>2013-03-23T08:17:36Z</time>
      </trkpt>
      <trkpt lat="42.58648" lon="1.76544">
        <ele>2043.42</ele>
        <time>2013-03-23T08:17:39Z</time>
      </trkpt>
      <trkpt lat="42.58653" lon="1.7654">
        <ele>2043.9</ele>
        <time>2013-03-23T08:17:44Z</time>
      </trkpt>
      <trkpt lat="42.58658" lon="1.76536">
        <ele>2044.38</ele>
        <time>2013-03-23T08:17:49Z</time>
      </trkpt>
      <trkpt lat="42.58666" lon="1.76527">
        <ele>2044.38</ele>
        <time>2013-03-23T08:17:58Z</time>
      </trkpt>
      <trkpt lat="42.58668" lon="1.76524">
        <ele>2043.9</ele>
        <time>2013-03-23T08:18:01Z</time>
      </trkpt>
      <trkpt lat="42.58681" lon="1.76513">
        <ele>2044.86</ele>
        <time>2013-03-23T08:18:14Z</time>
      </trkpt>
      <trkpt lat="42.58695" lon="1.76501">
        <ele>2045.82</ele>
        <time>2013-03-23T08:18:28Z</time>
      </trkpt>
      <trkpt lat="42.58709" lon="1.76489">
        <ele>2045.82</ele>
        <time>2013-03-23T08:18:43Z</time>
      </trkpt>
      <trkpt lat="42.58721" lon="1.76478">
        <ele>2046.78</ele>
        <time>2013-03-23T08:18:57Z</time>
      </trkpt>
      <trkpt lat="42.58732" lon="1.76466">
        <ele>2048.71</ele>
        <time>2013-03-23T08:19:11Z</time>
      </trkpt>
      <trkpt lat="42.58736" lon="1.76459">
        <ele>2050.63</ele>
        <time>2013-03-23T08:19:18Z</time>
      </trkpt>
      <trkpt lat="42.5874" lon="1.76452">
        <ele>2051.59</ele>
        <time>2013-03-23T08:19:25Z</time>
      </trkpt>
      <trkpt lat="42.58741" lon="1.76449">
        <ele>2051.59</ele>
        <time>2013-03-23T08:19:27Z</time>
      </trkpt>
      <trkpt lat="42.58743" lon="1.76443">
        <ele>2052.55</ele>
        <time>2013-03-23T08:19:32Z</time>
      </trkpt>
      <trkpt lat="42.58745" lon="1.76435">
        <ele>2052.07</ele>
        <time>2013-03-23T08:19:39Z</time>
      </trkpt>
      <trkpt lat="42.58753" lon="1.76419">
        <ele>2053.03</ele>
        <time>2013-03-23T08:19:53Z</time>
      </trkpt>
      <trkpt lat="42.58756" lon="1.7641">
        <ele>2053.51</ele>
        <time>2013-03-23T08:20:00Z</time>
      </trkpt>
      <trkpt lat="42.58756" lon="1.76406">
        <ele>2053.99</ele>
        <time>2013-03-23T08:20:03Z</time>
      </trkpt>
      <trkpt lat="42.58757" lon="1.76404">
        <ele>2054.47</ele>
        <time>2013-03-23T08:20:05Z</time>
      </trkpt>
      <trkpt lat="42.58763" lon="1.76387">
        <ele>2056.4</ele>
        <time>2013-03-23T08:20:20Z</time>
      </trkpt>
      <trkpt lat="42.58766" lon="1.76374">
        <ele>2056.88</ele>
        <time>2013-03-23T08:20:31Z</time>
      </trkpt>
      <trkpt lat="42.58772" lon="1.76356">
        <ele>2059.28</ele>
        <time>2013-03-23T08:20:47Z</time>
      </trkpt>
      <trkpt lat="42.58775" lon="1.76348">
        <ele>2060.24</ele>
        <time>2013-03-23T08:20:53Z</time>
      </trkpt>
      <trkpt lat="42.5878" lon="1.76331">
        <ele>2062.65</ele>
        <time>2013-03-23T08:21:08Z</time>
      </trkpt>
      <trkpt lat="42.58785" lon="1.76325">
        <ele>2064.09</ele>
        <time>2013-03-23T08:21:19Z</time>
      </trkpt>
      <trkpt lat="42.58786" lon="1.76323">
        <ele>2063.13</ele>
        <time>2013-03-23T08:21:27Z</time>
      </trkpt>
      <trkpt lat="42.58786" lon="1.76322">
        <ele>2064.57</ele>
        <time>2013-03-23T08:21:35Z</time>
      </trkpt>
      <trkpt lat="42.58787" lon="1.76323">
        <ele>2063.61</ele>
        <time>2013-03-23T08:21:47Z</time>
      </trkpt>
      <trkpt lat="42.58789" lon="1.76319">
        <ele>2064.57</ele>
        <time>2013-03-23T08:21:55Z</time>
      </trkpt>
      <trkpt lat="42.58798" lon="1.76308">
        <ele>2063.61</ele>
        <time>2013-03-23T08:22:08Z</time>
      </trkpt>
      <trkpt lat="42.58803" lon="1.76303">
        <ele>2063.61</ele>
        <time>2013-03-23T08:22:14Z</time>
      </trkpt>
      <trkpt lat="42.58806" lon="1.763">
        <ele>2064.09</ele>
        <time>2013-03-23T08:22:19Z</time>
      </trkpt>
      <trkpt lat="42.58808" lon="1.76298">
        <ele>2064.09</ele>
        <time>2013-03-23T08:22:21Z</time>
      </trkpt>
      <trkpt lat="42.5882" lon="1.76289">
        <ele>2065.53</ele>
        <time>2013-03-23T08:22:36Z</time>
      </trkpt>
      <trkpt lat="42.5883" lon="1.76282">
        <ele>2068.41</ele>
        <time>2013-03-23T08:22:49Z</time>
      </trkpt>
      <trkpt lat="42.58836" lon="1.76278">
        <ele>2068.89</ele>
        <time>2013-03-23T08:23:00Z</time>
      </trkpt>
      <trkpt lat="42.58842" lon="1.76278">
        <ele>2072.74</ele>
        <time>2013-03-23T08:23:12Z</time>
      </trkpt>
      <trkpt lat="42.58849" lon="1.76278">
        <ele>2074.18</ele>
        <time>2013-03-23T08:23:24Z</time>
      </trkpt>
      <trkpt lat="42.58854" lon="1.7627">
        <ele>2077.55</ele>
        <time>2013-03-23T08:23:35Z</time>
      </trkpt>
      <trkpt lat="42.5886" lon="1.76264">
        <ele>2079.95</ele>
        <time>2013-03-23T08:23:42Z</time>
      </trkpt>
      <trkpt lat="42.58863" lon="1.76261">
        <ele>2081.39</ele>
        <time>2013-03-23T08:23:56Z</time>
      </trkpt>
      <trkpt lat="42.58864" lon="1.76261">
        <ele>2081.39</ele>
        <time>2013-03-23T08:24:05Z</time>
      </trkpt>
      <trkpt lat="42.58867" lon="1.76257">
        <ele>2081.39</ele>
        <time>2013-03-23T08:24:09Z</time>
      </trkpt>
      <trkpt lat="42.58876" lon="1.76244">
        <ele>2081.39</ele>
        <time>2013-03-23T08:24:23Z</time>
      </trkpt>
      <trkpt lat="42.58882" lon="1.7624">
        <ele>2082.35</ele>
        <time>2013-03-23T08:24:29Z</time>
      </trkpt>
      <trkpt lat="42.58895" lon="1.76229">
        <ele>2084.76</ele>
        <time>2013-03-23T08:24:43Z</time>
      </trkpt>
      <trkpt lat="42.58907" lon="1.76216">
        <ele>2085.24</ele>
        <time>2013-03-23T08:24:58Z</time>
      </trkpt>
      <trkpt lat="42.58911" lon="1.76213">
        <ele>2084.76</ele>
        <time>2013-03-23T08:25:03Z</time>
      </trkpt>
      <trkpt lat="42.58923" lon="1.76196">
        <ele>2083.79</ele>
        <time>2013-03-23T08:25:18Z</time>
      </trkpt>
      <trkpt lat="42.58925" lon="1.76195">
        <ele>2083.79</ele>
        <time>2013-03-23T08:25:20Z</time>
      </trkpt>
      <trkpt lat="42.58935" lon="1.76182">
        <ele>2086.2</ele>
        <time>2013-03-23T08:25:34Z</time>
      </trkpt>
      <trkpt lat="42.58937" lon="1.7618">
        <ele>2086.2</ele>
        <time>2013-03-23T08:25:36Z</time>
      </trkpt>
      <trkpt lat="42.58947" lon="1.76168">
        <ele>2088.12</ele>
        <time>2013-03-23T08:25:49Z</time>
      </trkpt>
      <trkpt lat="42.58951" lon="1.76162">
        <ele>2089.56</ele>
        <time>2013-03-23T08:25:55Z</time>
      </trkpt>
      <trkpt lat="42.58952" lon="1.76159">
        <ele>2089.56</ele>
        <time>2013-03-23T08:25:57Z</time>
      </trkpt>
      <trkpt lat="42.58957" lon="1.76153">
        <ele>2090.04</ele>
        <time>2013-03-23T08:26:04Z</time>
      </trkpt>
      <trkpt lat="42.58963" lon="1.76145">
        <ele>2091</ele>
        <time>2013-03-23T08:26:11Z</time>
      </trkpt>
      <trkpt lat="42.58965" lon="1.76144">
        <ele>2091</ele>
        <time>2013-03-23T08:26:13Z</time>
      </trkpt>
      <trkpt lat="42.58973" lon="1.7613">
        <ele>2093.41</ele>
        <time>2013-03-23T08:26:24Z</time>
      </trkpt>
      <trkpt lat="42.58979" lon="1.76113">
        <ele>2094.85</ele>
        <time>2013-03-23T08:26:38Z</time>
      </trkpt>
      <trkpt lat="42.58986" lon="1.76102">
        <ele>2094.37</ele>
        <time>2013-03-23T08:26:47Z</time>
      </trkpt>
      <trkpt lat="42.58986" lon="1.761">
        <ele>2094.85</ele>
        <time>2013-03-23T08:26:49Z</time>
      </trkpt>
      <trkpt lat="42.58996" lon="1.76079">
        <ele>2096.29</ele>
        <time>2013-03-23T08:27:04Z</time>
      </trkpt>
      <trkpt lat="42.59002" lon="1.76064">
        <ele>2097.25</ele>
        <time>2013-03-23T08:27:15Z</time>
      </trkpt>
      <trkpt lat="42.59003" lon="1.76058">
        <ele>2097.73</ele>
        <time>2013-03-23T08:27:19Z</time>
      </trkpt>
      <trkpt lat="42.59007" lon="1.76052">
        <ele>2098.21</ele>
        <time>2013-03-23T08:27:24Z</time>
      </trkpt>
      <trkpt lat="42.59013" lon="1.76046">
        <ele>2099.18</ele>
        <time>2013-03-23T08:27:31Z</time>
      </trkpt>
      <trkpt lat="42.59016" lon="1.76043">
        <ele>2099.66</ele>
        <time>2013-03-23T08:27:34Z</time>
      </trkpt>
      <trkpt lat="42.59018" lon="1.76041">
        <ele>2099.66</ele>
        <time>2013-03-23T08:27:36Z</time>
      </trkpt>
      <trkpt lat="42.59026" lon="1.76033">
        <ele>2099.66</ele>
        <time>2013-03-23T08:27:46Z</time>
      </trkpt>
      <trkpt lat="42.59029" lon="1.76022">
        <ele>2100.62</ele>
        <time>2013-03-23T08:27:59Z</time>
      </trkpt>
      <trkpt lat="42.59031" lon="1.7602">
        <ele>2100.14</ele>
        <time>2013-03-23T08:28:04Z</time>
      </trkpt>
      <trkpt lat="42.59037" lon="1.76008">
        <ele>2101.58</ele>
        <time>2013-03-23T08:28:14Z</time>
      </trkpt>
      <trkpt lat="42.59044" lon="1.75993">
        <ele>2103.5</ele>
        <time>2013-03-23T08:28:27Z</time>
      </trkpt>
      <trkpt lat="42.59045" lon="1.75991">
        <ele>2103.5</ele>
        <time>2013-03-23T08:28:28Z</time>
      </trkpt>
      <trkpt lat="42.59051" lon="1.75978">
        <ele>2104.94</ele>
        <time>2013-03-23T08:28:38Z</time>
      </trkpt>
      <trkpt lat="42.59053" lon="1.7597">
        <ele>2103.02</ele>
        <time>2013-03-23T08:28:52Z</time>
      </trkpt>
      <trkpt lat="42.59052" lon="1.7597">
        <ele>2103.02</ele>
        <time>2013-03-23T08:29:10Z</time>
      </trkpt>
      <trkpt lat="42.59055" lon="1.75963">
        <ele>2101.58</ele>
        <time>2013-03-23T08:29:19Z</time>
      </trkpt>
      <trkpt lat="42.59066" lon="1.75939">
        <ele>2100.14</ele>
        <time>2013-03-23T08:29:34Z</time>
      </trkpt>
      <trkpt lat="42.59071" lon="1.75929">
        <ele>2099.18</ele>
        <time>2013-03-23T08:29:41Z</time>
      </trkpt>
      <trkpt lat="42.59074" lon="1.75924">
        <ele>2100.62</ele>
        <time>2013-03-23T08:29:46Z</time>
      </trkpt>
      <trkpt lat="42.59078" lon="1.75916">
        <ele>2101.58</ele>
        <time>2013-03-23T08:29:55Z</time>
      </trkpt>
      <trkpt lat="42.59083" lon="1.75904">
        <ele>2103.02</ele>
        <time>2013-03-23T08:30:04Z</time>
      </trkpt>
      <trkpt lat="42.59089" lon="1.75891">
        <ele>2103.02</ele>
        <time>2013-03-23T08:30:14Z</time>
      </trkpt>
      <trkpt lat="42.59091" lon="1.75886">
        <ele>2103.02</ele>
        <time>2013-03-23T08:30:18Z</time>
      </trkpt>
      <trkpt lat="42.59095" lon="1.7588">
        <ele>2102.06</ele>
        <time>2013-03-23T08:30:23Z</time>
      </trkpt>
      <trkpt lat="42.59105" lon="1.75865">
        <ele>2102.54</ele>
        <time>2013-03-23T08:30:37Z</time>
      </trkpt>
      <trkpt lat="42.59116" lon="1.7585">
        <ele>2102.06</ele>
        <time>2013-03-23T08:30:52Z</time>
      </trkpt>
      <trkpt lat="42.59128" lon="1.75839">
        <ele>2101.58</ele>
        <time>2013-03-23T08:31:06Z</time>
      </trkpt>
      <trkpt lat="42.59142" lon="1.75826">
        <ele>2100.62</ele>
        <time>2013-03-23T08:31:21Z</time>
      </trkpt>
      <trkpt lat="42.5915" lon="1.7582">
        <ele>2101.1</ele>
        <time>2013-03-23T08:31:29Z</time>
      </trkpt>
      <trkpt lat="42.59154" lon="1.75821">
        <ele>2103.98</ele>
        <time>2013-03-23T08:31:46Z</time>
      </trkpt>
      <trkpt lat="42.59162" lon="1.75814">
        <ele>2103.98</ele>
        <time>2013-03-23T08:32:02Z</time>
      </trkpt>
      <trkpt lat="42.59165" lon="1.75811">
        <ele>2103.5</ele>
        <time>2013-03-23T08:32:04Z</time>
      </trkpt>
      <trkpt lat="42.59174" lon="1.75805">
        <ele>2102.06</ele>
        <time>2013-03-23T08:32:10Z</time>
      </trkpt>
      <trkpt lat="42.59181" lon="1.75804">
        <ele>2100.14</ele>
        <time>2013-03-23T08:32:15Z</time>
      </trkpt>
      <trkpt lat="42.59193" lon="1.75796">
        <ele>2100.62</ele>
        <time>2013-03-23T08:32:28Z</time>
      </trkpt>
      <trkpt lat="42.59197" lon="1.75793">
        <ele>2100.62</ele>
        <time>2013-03-23T08:32:32Z</time>
      </trkpt>
      <trkpt lat="42.59201" lon="1.75789">
        <ele>2101.1</ele>
        <time>2013-03-23T08:32:36Z</time>
      </trkpt>
      <trkpt lat="42.59209" lon="1.75781">
        <ele>2100.62</ele>
        <time>2013-03-23T08:32:44Z</time>
      </trkpt>
      <trkpt lat="42.59219" lon="1.75774">
        <ele>2101.58</ele>
        <time>2013-03-23T08:32:57Z</time>
      </trkpt>
      <trkpt lat="42.59223" lon="1.75771">
        <ele>2102.06</ele>
        <time>2013-03-23T08:33:02Z</time>
      </trkpt>
      <trkpt lat="42.59237" lon="1.75759">
        <ele>2103.5</ele>
        <time>2013-03-23T08:33:17Z</time>
      </trkpt>
      <trkpt lat="42.59248" lon="1.75751">
        <ele>2103.98</ele>
        <time>2013-03-23T08:33:29Z</time>
      </trkpt>
      <trkpt lat="42.59254" lon="1.75743">
        <ele>2104.46</ele>
        <time>2013-03-23T08:33:44Z</time>
      </trkpt>
      <trkpt lat="42.59269" lon="1.75731">
        <ele>2104.46</ele>
        <time>2013-03-23T08:33:59Z</time>
      </trkpt>
      <trkpt lat="42.59284" lon="1.75719">
        <ele>2105.91</ele>
        <time>2013-03-23T08:34:14Z</time>
      </trkpt>
      <trkpt lat="42.59294" lon="1.75714">
        <ele>2105.91</ele>
        <time>2013-03-23T08:34:24Z</time>
      </trkpt>
      <trkpt lat="42.59298" lon="1.75711">
        <ele>2105.91</ele>
        <time>2013-03-23T08:34:28Z</time>
      </trkpt>
      <trkpt lat="42.59316" lon="1.75698">
        <ele>2105.91</ele>
        <time>2013-03-23T08:34:44Z</time>
      </trkpt>
      <trkpt lat="42.59327" lon="1.75689">
        <ele>2106.87</ele>
        <time>2013-03-23T08:34:57Z</time>
      </trkpt>
      <trkpt lat="42.59328" lon="1.75689">
        <ele>2106.87</ele>
        <time>2013-03-23T08:34:58Z</time>
      </trkpt>
      <trkpt lat="42.59341" lon="1.75678">
        <ele>2106.87</ele>
        <time>2013-03-23T08:35:12Z</time>
      </trkpt>
      <trkpt lat="42.59352" lon="1.7567">
        <ele>2106.39</ele>
        <time>2013-03-23T08:35:23Z</time>
      </trkpt>
      <trkpt lat="42.59358" lon="1.75665">
        <ele>2107.35</ele>
        <time>2013-03-23T08:35:30Z</time>
      </trkpt>
      <trkpt lat="42.59369" lon="1.75657">
        <ele>2107.83</ele>
        <time>2013-03-23T08:35:42Z</time>
      </trkpt>
      <trkpt lat="42.59381" lon="1.75646">
        <ele>2107.83</ele>
        <time>2013-03-23T08:35:56Z</time>
      </trkpt>
      <trkpt lat="42.59393" lon="1.75636">
        <ele>2107.83</ele>
        <time>2013-03-23T08:36:08Z</time>
      </trkpt>
      <trkpt lat="42.59405" lon="1.75623">
        <ele>2109.27</ele>
        <time>2013-03-23T08:36:20Z</time>
      </trkpt>
      <trkpt lat="42.5941" lon="1.75617">
        <ele>2108.79</ele>
        <time>2013-03-23T08:36:28Z</time>
      </trkpt>
      <trkpt lat="42.59415" lon="1.75615">
        <ele>2111.67</ele>
        <time>2013-03-23T08:36:42Z</time>
      </trkpt>
      <trkpt lat="42.59417" lon="1.75616">
        <ele>2111.19</ele>
        <time>2013-03-23T08:37:05Z</time>
      </trkpt>
      <trkpt lat="42.59415" lon="1.75615">
        <ele>2107.83</ele>
        <time>2013-03-23T08:37:31Z</time>
      </trkpt>
      <trkpt lat="42.59417" lon="1.75616">
        <ele>2109.27</ele>
        <time>2013-03-23T08:37:42Z</time>
      </trkpt>
      <trkpt lat="42.59418" lon="1.75617">
        <ele>2106.39</ele>
        <time>2013-03-23T08:38:01Z</time>
      </trkpt>
      <trkpt lat="42.59414" lon="1.75617">
        <ele>2104.94</ele>
        <time>2013-03-23T08:38:20Z</time>
      </trkpt>
      <trkpt lat="42.59413" lon="1.75615">
        <ele>2107.35</ele>
        <time>2013-03-23T08:38:51Z</time>
      </trkpt>
      <trkpt lat="42.59413" lon="1.75614">
        <ele>2106.87</ele>
        <time>2013-03-23T08:39:01Z</time>
      </trkpt>
      <trkpt lat="42.59414" lon="1.75614">
        <ele>2109.27</ele>
        <time>2013-03-23T08:39:19Z</time>
      </trkpt>
      <trkpt lat="42.59414" lon="1.75613">
        <ele>2107.83</ele>
        <time>2013-03-23T08:39:41Z</time>
      </trkpt>
      <trkpt lat="42.59414" lon="1.75615">
        <ele>2108.79</ele>
        <time>2013-03-23T08:39:56Z</time>
      </trkpt>
      <trkpt lat="42.59414" lon="1.75614">
        <ele>2107.83</ele>
        <time>2013-03-23T08:40:17Z</time>
      </trkpt>
      <trkpt lat="42.59413" lon="1.75612">
        <ele>2108.31</ele>
        <time>2013-03-23T08:40:33Z</time>
      </trkpt>
      <trkpt lat="42.59412" lon="1.75613">
        <ele>2110.23</ele>
        <time>2013-03-23T08:40:57Z</time>
      </trkpt>
      <trkpt lat="42.59413" lon="1.75614">
        <ele>2110.71</ele>
        <time>2013-03-23T08:41:24Z</time>
      </trkpt>
      <trkpt lat="42.59415" lon="1.75613">
        <ele>2111.19</ele>
        <time>2013-03-23T08:41:37Z</time>
      </trkpt>
      <trkpt lat="42.59414" lon="1.75611">
        <ele>2113.12</ele>
        <time>2013-03-23T08:41:58Z</time>
      </trkpt>
      <trkpt lat="42.5942" lon="1.75601">
        <ele>2112.63</ele>
        <time>2013-03-23T08:42:10Z</time>
      </trkpt>
      <trkpt lat="42.59421" lon="1.75601">
        <ele>2111.19</ele>
        <time>2013-03-23T08:42:18Z</time>
      </trkpt>
      <trkpt lat="42.59427" lon="1.75584">
        <ele>2112.15</ele>
        <time>2013-03-23T08:42:29Z</time>
      </trkpt>
      <trkpt lat="42.59429" lon="1.75577">
        <ele>2112.63</ele>
        <time>2013-03-23T08:42:34Z</time>
      </trkpt>
      <trkpt lat="42.59437" lon="1.75557">
        <ele>2112.15</ele>
        <time>2013-03-23T08:42:48Z</time>
      </trkpt>
      <trkpt lat="42.59437" lon="1.75556">
        <ele>2112.15</ele>
        <time>2013-03-23T08:42:49Z</time>
      </trkpt>
      <trkpt lat="42.59438" lon="1.75553">
        <ele>2112.15</ele>
        <time>2013-03-23T08:42:57Z</time>
      </trkpt>
      <trkpt lat="42.59441" lon="1.75558">
        <ele>2111.67</ele>
        <time>2013-03-23T08:43:08Z</time>
      </trkpt>
      <trkpt lat="42.5944" lon="1.75559">
        <ele>2110.71</ele>
        <time>2013-03-23T08:43:21Z</time>
      </trkpt>
      <trkpt lat="42.59442" lon="1.75559">
        <ele>2110.71</ele>
        <time>2013-03-23T08:43:31Z</time>
      </trkpt>
      <trkpt lat="42.5944" lon="1.75559">
        <ele>2110.23</ele>
        <time>2013-03-23T08:43:44Z</time>
      </trkpt>
      <trkpt lat="42.5944" lon="1.75559">
        <ele>2109.75</ele>
        <time>2013-03-23T08:43:55Z</time>
      </trkpt>
      <trkpt lat="42.5944" lon="1.75558">
        <ele>2110.23</ele>
        <time>2013-03-23T08:43:57Z</time>
      </trkpt>
      <trkpt lat="42.59441" lon="1.75561">
        <ele>2105.42</ele>
        <time>2013-03-23T08:44:14Z</time>
      </trkpt>
      <trkpt lat="42.59441" lon="1.75559">
        <ele>2110.23</ele>
        <time>2013-03-23T08:44:36Z</time>
      </trkpt>
      <trkpt lat="42.59441" lon="1.75558">
        <ele>2109.27</ele>
        <time>2013-03-23T08:45:06Z</time>
      </trkpt>
      <trkpt lat="42.59438" lon="1.75559">
        <ele>2106.87</ele>
        <time>2013-03-23T08:45:34Z</time>
      </trkpt>
      <trkpt lat="42.59442" lon="1.75562">
        <ele>2107.83</ele>
        <time>2013-03-23T08:46:01Z</time>
      </trkpt>
      <trkpt lat="42.59443" lon="1.75563">
        <ele>2111.19</ele>
        <time>2013-03-23T08:46:27Z</time>
      </trkpt>
      <trkpt lat="42.59441" lon="1.75563">
        <ele>2110.71</ele>
        <time>2013-03-23T08:47:10Z</time>
      </trkpt>
      <trkpt lat="42.59441" lon="1.75561">
        <ele>2112.63</ele>
        <time>2013-03-23T08:47:43Z</time>
      </trkpt>
      <trkpt lat="42.5944" lon="1.75559">
        <ele>2113.12</ele>
        <time>2013-03-23T08:48:16Z</time>
      </trkpt>
      <trkpt lat="42.59445" lon="1.75561">
        <ele>2110.23</ele>
        <time>2013-03-23T08:48:44Z</time>
      </trkpt>
      <trkpt lat="42.59446" lon="1.75566">
        <ele>2109.27</ele>
        <time>2013-03-23T08:49:13Z</time>
      </trkpt>
      <trkpt lat="42.59445" lon="1.75564">
        <ele>2110.71</ele>
        <time>2013-03-23T08:49:41Z</time>
      </trkpt>
      <trkpt lat="42.59443" lon="1.75563">
        <ele>2110.71</ele>
        <time>2013-03-23T08:50:06Z</time>
      </trkpt>
      <trkpt lat="42.59447" lon="1.75565">
        <ele>2107.83</ele>
        <time>2013-03-23T08:50:43Z</time>
      </trkpt>
      <trkpt lat="42.59446" lon="1.75568">
        <ele>2105.91</ele>
        <time>2013-03-23T08:51:14Z</time>
      </trkpt>
      <trkpt lat="42.59447" lon="1.75564">
        <ele>2102.06</ele>
        <time>2013-03-23T08:51:51Z</time>
      </trkpt>
      <trkpt lat="42.59443" lon="1.75563">
        <ele>2108.31</ele>
        <time>2013-03-23T08:52:24Z</time>
      </trkpt>
      <trkpt lat="42.59441" lon="1.75565">
        <ele>2115.04</ele>
        <time>2013-03-23T08:52:55Z</time>
      </trkpt>
      <trkpt lat="42.59442" lon="1.75564">
        <ele>2113.12</ele>
        <time>2013-03-23T08:53:21Z</time>
      </trkpt>
      <trkpt lat="42.5944" lon="1.75562">
        <ele>2115.04</ele>
        <time>2013-03-23T08:53:50Z</time>
      </trkpt>
      <trkpt lat="42.5944" lon="1.75563">
        <ele>2113.6</ele>
        <time>2013-03-23T08:54:16Z</time>
      </trkpt>
      <trkpt lat="42.59439" lon="1.75563">
        <ele>2113.6</ele>
        <time>2013-03-23T08:54:48Z</time>
      </trkpt>
      <trkpt lat="42.59442" lon="1.75564">
        <ele>2110.71</ele>
        <time>2013-03-23T08:55:19Z</time>
      </trkpt>
      <trkpt lat="42.59442" lon="1.75565">
        <ele>2110.71</ele>
        <time>2013-03-23T08:55:56Z</time>
      </trkpt>
      <trkpt lat="42.59439" lon="1.75566">
        <ele>2114.56</ele>
        <time>2013-03-23T08:56:26Z</time>
      </trkpt>
      <trkpt lat="42.59438" lon="1.75561">
        <ele>2116.48</ele>
        <time>2013-03-23T08:57:03Z</time>
      </trkpt>
      <trkpt lat="42.59435" lon="1.75565">
        <ele>2119.84</ele>
        <time>2013-03-23T08:57:23Z</time>
      </trkpt>
      <trkpt lat="42.59436" lon="1.7556">
        <ele>2119.84</ele>
        <time>2013-03-23T08:57:36Z</time>
      </trkpt>
      <trkpt lat="42.59435" lon="1.75559">
        <ele>2117.92</ele>
        <time>2013-03-23T08:57:46Z</time>
      </trkpt>
      <trkpt lat="42.59436" lon="1.75556">
        <ele>2115.52</ele>
        <time>2013-03-23T08:57:57Z</time>
      </trkpt>
      <trkpt lat="42.59436" lon="1.75556">
        <ele>2115.04</ele>
        <time>2013-03-23T08:58:14Z</time>
      </trkpt>
      <trkpt lat="42.59437" lon="1.75557">
        <ele>2113.6</ele>
        <time>2013-03-23T08:58:25Z</time>
      </trkpt>
      <trkpt lat="42.59437" lon="1.75559">
        <ele>2113.6</ele>
        <time>2013-03-23T08:58:33Z</time>
      </trkpt>
      <trkpt lat="42.59438" lon="1.75557">
        <ele>2112.15</ele>
        <time>2013-03-23T08:58:47Z</time>
      </trkpt>
      <trkpt lat="42.59436" lon="1.75558">
        <ele>2113.12</ele>
        <time>2013-03-23T08:59:02Z</time>
      </trkpt>
      <trkpt lat="42.59433" lon="1.75557">
        <ele>2117.92</ele>
        <time>2013-03-23T08:59:15Z</time>
      </trkpt>
      <trkpt lat="42.59434" lon="1.75555">
        <ele>2117.92</ele>
        <time>2013-03-23T08:59:21Z</time>
      </trkpt>
      <trkpt lat="42.5944" lon="1.75548">
        <ele>2116.96</ele>
        <time>2013-03-23T08:59:27Z</time>
      </trkpt>
      <trkpt lat="42.59443" lon="1.75543">
        <ele>2116.96</ele>
        <time>2013-03-23T08:59:31Z</time>
      </trkpt>
      <trkpt lat="42.59449" lon="1.75535">
        <ele>2116</ele>
        <time>2013-03-23T08:59:38Z</time>
      </trkpt>
      <trkpt lat="42.59457" lon="1.75522">
        <ele>2114.56</ele>
        <time>2013-03-23T08:59:47Z</time>
      </trkpt>
      <trkpt lat="42.59461" lon="1.75517">
        <ele>2115.04</ele>
        <time>2013-03-23T08:59:52Z</time>
      </trkpt>
      <trkpt lat="42.59463" lon="1.75513">
        <ele>2114.56</ele>
        <time>2013-03-23T08:59:55Z</time>
      </trkpt>
      <trkpt lat="42.59468" lon="1.75507">
        <ele>2116</ele>
        <time>2013-03-23T09:00:01Z</time>
      </trkpt>
      <trkpt lat="42.59472" lon="1.75498">
        <ele>2116.96</ele>
        <time>2013-03-23T09:00:07Z</time>
      </trkpt>
      <trkpt lat="42.59474" lon="1.75492">
        <ele>2116.96</ele>
        <time>2013-03-23T09:00:11Z</time>
      </trkpt>
      <trkpt lat="42.59482" lon="1.75478">
        <ele>2117.44</ele>
        <time>2013-03-23T09:00:23Z</time>
      </trkpt>
      <trkpt lat="42.59486" lon="1.75466">
        <ele>2117.44</ele>
        <time>2013-03-23T09:00:31Z</time>
      </trkpt>
      <trkpt lat="42.5949" lon="1.75454">
        <ele>2117.44</ele>
        <time>2013-03-23T09:00:39Z</time>
      </trkpt>
      <trkpt lat="42.59493" lon="1.75447">
        <ele>2117.44</ele>
        <time>2013-03-23T09:00:44Z</time>
      </trkpt>
      <trkpt lat="42.59496" lon="1.75442">
        <ele>2116.96</ele>
        <time>2013-03-23T09:00:48Z</time>
      </trkpt>
      <trkpt lat="42.595" lon="1.75431">
        <ele>2117.44</ele>
        <time>2013-03-23T09:00:56Z</time>
      </trkpt>
      <trkpt lat="42.59505" lon="1.75424">
        <ele>2117.92</ele>
        <time>2013-03-23T09:01:02Z</time>
      </trkpt>
      <trkpt lat="42.59507" lon="1.75421">
        <ele>2117.44</ele>
        <time>2013-03-23T09:01:05Z</time>
      </trkpt>
      <trkpt lat="42.59514" lon="1.75402">
        <ele>2118.88</ele>
        <time>2013-03-23T09:01:18Z</time>
      </trkpt>
      <trkpt lat="42.59515" lon="1.75399">
        <ele>2118.88</ele>
        <time>2013-03-23T09:01:20Z</time>
      </trkpt>
      <trkpt lat="42.59518" lon="1.75393">
        <ele>2118.4</ele>
        <time>2013-03-23T09:01:25Z</time>
      </trkpt>
      <trkpt lat="42.59519" lon="1.7539">
        <ele>2118.4</ele>
        <time>2013-03-23T09:01:27Z</time>
      </trkpt>
      <trkpt lat="42.59524" lon="1.7538">
        <ele>2119.36</ele>
        <time>2013-03-23T09:01:36Z</time>
      </trkpt>
      <trkpt lat="42.59531" lon="1.75362">
        <ele>2120.81</ele>
        <time>2013-03-23T09:01:50Z</time>
      </trkpt>
      <trkpt lat="42.59532" lon="1.75359">
        <ele>2121.29</ele>
        <time>2013-03-23T09:01:52Z</time>
      </trkpt>
      <trkpt lat="42.59537" lon="1.75346">
        <ele>2124.17</ele>
        <time>2013-03-23T09:02:04Z</time>
      </trkpt>
      <trkpt lat="42.59542" lon="1.75335">
        <ele>2125.13</ele>
        <time>2013-03-23T09:02:17Z</time>
      </trkpt>
      <trkpt lat="42.59545" lon="1.75334">
        <ele>2124.65</ele>
        <time>2013-03-23T09:02:25Z</time>
      </trkpt>
      <trkpt lat="42.59549" lon="1.75325">
        <ele>2125.61</ele>
        <time>2013-03-23T09:02:34Z</time>
      </trkpt>
      <trkpt lat="42.59556" lon="1.75316">
        <ele>2126.57</ele>
        <time>2013-03-23T09:02:45Z</time>
      </trkpt>
      <trkpt lat="42.5956" lon="1.7531">
        <ele>2127.05</ele>
        <time>2013-03-23T09:02:52Z</time>
      </trkpt>
      <trkpt lat="42.59565" lon="1.75296">
        <ele>2129.46</ele>
        <time>2013-03-23T09:03:05Z</time>
      </trkpt>
      <trkpt lat="42.5957" lon="1.75279">
        <ele>2133.3</ele>
        <time>2013-03-23T09:03:20Z</time>
      </trkpt>
      <trkpt lat="42.59573" lon="1.75268">
        <ele>2135.71</ele>
        <time>2013-03-23T09:03:30Z</time>
      </trkpt>
      <trkpt lat="42.59575" lon="1.75258">
        <ele>2137.15</ele>
        <time>2013-03-23T09:03:40Z</time>
      </trkpt>
      <trkpt lat="42.59581" lon="1.75245">
        <ele>2139.55</ele>
        <time>2013-03-23T09:03:54Z</time>
      </trkpt>
      <trkpt lat="42.59586" lon="1.75233">
        <ele>2141.95</ele>
        <time>2013-03-23T09:04:07Z</time>
      </trkpt>
      <trkpt lat="42.59586" lon="1.75223">
        <ele>2143.88</ele>
        <time>2013-03-23T09:04:18Z</time>
      </trkpt>
      <trkpt lat="42.59586" lon="1.75211">
        <ele>2143.4</ele>
        <time>2013-03-23T09:04:30Z</time>
      </trkpt>
      <trkpt lat="42.59583" lon="1.75197">
        <ele>2143.4</ele>
        <time>2013-03-23T09:04:43Z</time>
      </trkpt>
      <trkpt lat="42.59586" lon="1.75183">
        <ele>2144.84</ele>
        <time>2013-03-23T09:04:56Z</time>
      </trkpt>
      <trkpt lat="42.59589" lon="1.75169">
        <ele>2146.76</ele>
        <time>2013-03-23T09:05:08Z</time>
      </trkpt>
      <trkpt lat="42.59589" lon="1.75168">
        <ele>2147.72</ele>
        <time>2013-03-23T09:05:10Z</time>
      </trkpt>
      <trkpt lat="42.59592" lon="1.75154">
        <ele>2151.57</ele>
        <time>2013-03-23T09:05:23Z</time>
      </trkpt>
      <trkpt lat="42.59593" lon="1.75145">
        <ele>2154.93</ele>
        <time>2013-03-23T09:05:31Z</time>
      </trkpt>
      <trkpt lat="42.59598" lon="1.75135">
        <ele>2160.7</ele>
        <time>2013-03-23T09:05:44Z</time>
      </trkpt>
      <trkpt lat="42.596" lon="1.75132">
        <ele>2163.1</ele>
        <time>2013-03-23T09:05:48Z</time>
      </trkpt>
      <trkpt lat="42.59612" lon="1.75125">
        <ele>2164.55</ele>
        <time>2013-03-23T09:06:01Z</time>
      </trkpt>
      <trkpt lat="42.59613" lon="1.75123">
        <ele>2165.51</ele>
        <time>2013-03-23T09:06:03Z</time>
      </trkpt>
      <trkpt lat="42.59614" lon="1.75122">
        <ele>2165.51</ele>
        <time>2013-03-23T09:06:05Z</time>
      </trkpt>
      <trkpt lat="42.59616" lon="1.7512">
        <ele>2165.99</ele>
        <time>2013-03-23T09:06:07Z</time>
      </trkpt>
      <trkpt lat="42.59624" lon="1.75102">
        <ele>2165.03</ele>
        <time>2013-03-23T09:06:21Z</time>
      </trkpt>
      <trkpt lat="42.59624" lon="1.75099">
        <ele>2165.99</ele>
        <time>2013-03-23T09:06:45Z</time>
      </trkpt>
      <trkpt lat="42.59631" lon="1.75081">
        <ele>2167.91</ele>
        <time>2013-03-23T09:07:00Z</time>
      </trkpt>
      <trkpt lat="42.59637" lon="1.7506">
        <ele>2167.91</ele>
        <time>2013-03-23T09:07:14Z</time>
      </trkpt>
      <trkpt lat="42.59638" lon="1.75058">
        <ele>2167.91</ele>
        <time>2013-03-23T09:07:16Z</time>
      </trkpt>
      <trkpt lat="42.59639" lon="1.75053">
        <ele>2168.87</ele>
        <time>2013-03-23T09:07:21Z</time>
      </trkpt>
      <trkpt lat="42.59646" lon="1.7504">
        <ele>2170.79</ele>
        <time>2013-03-23T09:07:35Z</time>
      </trkpt>
      <trkpt lat="42.59647" lon="1.75036">
        <ele>2171.76</ele>
        <time>2013-03-23T09:07:39Z</time>
      </trkpt>
      <trkpt lat="42.5965" lon="1.75023">
        <ele>2173.68</ele>
        <time>2013-03-23T09:07:51Z</time>
      </trkpt>
      <trkpt lat="42.59653" lon="1.7501">
        <ele>2176.56</ele>
        <time>2013-03-23T09:08:04Z</time>
      </trkpt>
      <trkpt lat="42.59656" lon="1.75001">
        <ele>2178.48</ele>
        <time>2013-03-23T09:08:14Z</time>
      </trkpt>
      <trkpt lat="42.5966" lon="1.74996">
        <ele>2180.89</ele>
        <time>2013-03-23T09:08:26Z</time>
      </trkpt>
      <trkpt lat="42.59666" lon="1.74992">
        <ele>2184.25</ele>
        <time>2013-03-23T09:08:38Z</time>
      </trkpt>
      <trkpt lat="42.59675" lon="1.74992">
        <ele>2187.14</ele>
        <time>2013-03-23T09:08:50Z</time>
      </trkpt>
      <trkpt lat="42.59681" lon="1.74987">
        <ele>2190.5</ele>
        <time>2013-03-23T09:09:01Z</time>
      </trkpt>
      <trkpt lat="42.59689" lon="1.74983">
        <ele>2193.87</ele>
        <time>2013-03-23T09:09:13Z</time>
      </trkpt>
      <trkpt lat="42.59698" lon="1.7498">
        <ele>2195.79</ele>
        <time>2013-03-23T09:09:24Z</time>
      </trkpt>
      <trkpt lat="42.59702" lon="1.7497">
        <ele>2199.63</ele>
        <time>2013-03-23T09:09:36Z</time>
      </trkpt>
      <trkpt lat="42.59708" lon="1.74963">
        <ele>2201.56</ele>
        <time>2013-03-23T09:09:46Z</time>
      </trkpt>
      <trkpt lat="42.59711" lon="1.74957">
        <ele>2202.52</ele>
        <time>2013-03-23T09:09:59Z</time>
      </trkpt>
      <trkpt lat="42.59708" lon="1.74953">
        <ele>2202.04</ele>
        <time>2013-03-23T09:10:12Z</time>
      </trkpt>
      <trkpt lat="42.59706" lon="1.74953">
        <ele>2204.92</ele>
        <time>2013-03-23T09:10:22Z</time>
      </trkpt>
      <trkpt lat="42.59709" lon="1.74959">
        <ele>2207.32</ele>
        <time>2013-03-23T09:10:34Z</time>
      </trkpt>
      <trkpt lat="42.5971" lon="1.74957">
        <ele>2207.81</ele>
        <time>2013-03-23T09:10:54Z</time>
      </trkpt>
      <trkpt lat="42.59708" lon="1.74963">
        <ele>2208.29</ele>
        <time>2013-03-23T09:11:04Z</time>
      </trkpt>
      <trkpt lat="42.59706" lon="1.74959">
        <ele>2205.88</ele>
        <time>2013-03-23T09:11:17Z</time>
      </trkpt>
      <trkpt lat="42.59708" lon="1.74952">
        <ele>2207.32</ele>
        <time>2013-03-23T09:11:29Z</time>
      </trkpt>
      <trkpt lat="42.5971" lon="1.74951">
        <ele>2208.77</ele>
        <time>2013-03-23T09:11:36Z</time>
      </trkpt>
      <trkpt lat="42.59712" lon="1.74948">
        <ele>2208.29</ele>
        <time>2013-03-23T09:11:39Z</time>
      </trkpt>
      <trkpt lat="42.59713" lon="1.74946">
        <ele>2208.29</ele>
        <time>2013-03-23T09:11:41Z</time>
      </trkpt>
      <trkpt lat="42.59719" lon="1.74934">
        <ele>2208.29</ele>
        <time>2013-03-23T09:11:50Z</time>
      </trkpt>
      <trkpt lat="42.59727" lon="1.74922">
        <ele>2205.4</ele>
        <time>2013-03-23T09:12:01Z</time>
      </trkpt>
      <trkpt lat="42.59736" lon="1.74914">
        <ele>2203.96</ele>
        <time>2013-03-23T09:12:12Z</time>
      </trkpt>
      <trkpt lat="42.59749" lon="1.7491">
        <ele>2206.84</ele>
        <time>2013-03-23T09:12:25Z</time>
      </trkpt>
      <trkpt lat="42.59754" lon="1.74911">
        <ele>2208.77</ele>
        <time>2013-03-23T09:12:32Z</time>
      </trkpt>
      <trkpt lat="42.59768" lon="1.74908">
        <ele>2210.21</ele>
        <time>2013-03-23T09:12:47Z</time>
      </trkpt>
      <trkpt lat="42.59777" lon="1.74911">
        <ele>2216.94</ele>
        <time>2013-03-23T09:13:00Z</time>
      </trkpt>
      <trkpt lat="42.59786" lon="1.74913">
        <ele>2220.78</ele>
        <time>2013-03-23T09:13:10Z</time>
      </trkpt>
      <trkpt lat="42.59792" lon="1.74914">
        <ele>2220.78</ele>
        <time>2013-03-23T09:13:16Z</time>
      </trkpt>
      <trkpt lat="42.59809" lon="1.74914">
        <ele>2221.26</ele>
        <time>2013-03-23T09:13:32Z</time>
      </trkpt>
      <trkpt lat="42.59822" lon="1.74916">
        <ele>2219.82</ele>
        <time>2013-03-23T09:13:45Z</time>
      </trkpt>
      <trkpt lat="42.59834" lon="1.74917">
        <ele>2220.3</ele>
        <time>2013-03-23T09:13:57Z</time>
      </trkpt>
      <trkpt lat="42.59841" lon="1.74917">
        <ele>2223.19</ele>
        <time>2013-03-23T09:14:09Z</time>
      </trkpt>
      <trkpt lat="42.59842" lon="1.74919">
        <ele>2224.63</ele>
        <time>2013-03-23T09:14:12Z</time>
      </trkpt>
      <trkpt lat="42.59849" lon="1.74922">
        <ele>2228.95</ele>
        <time>2013-03-23T09:14:23Z</time>
      </trkpt>
      <trkpt lat="42.59857" lon="1.74925">
        <ele>2230.4</ele>
        <time>2013-03-23T09:14:35Z</time>
      </trkpt>
      <trkpt lat="42.59863" lon="1.74925">
        <ele>2236.16</ele>
        <time>2013-03-23T09:14:46Z</time>
      </trkpt>
      <trkpt lat="42.59864" lon="1.74934">
        <ele>2242.89</ele>
        <time>2013-03-23T09:14:57Z</time>
      </trkpt>
      <trkpt lat="42.59869" lon="1.7494">
        <ele>2248.18</ele>
        <time>2013-03-23T09:15:08Z</time>
      </trkpt>
      <trkpt lat="42.59876" lon="1.74952">
        <ele>2250.58</ele>
        <time>2013-03-23T09:15:19Z</time>
      </trkpt>
      <trkpt lat="42.59881" lon="1.74962">
        <ele>2251.54</ele>
        <time>2013-03-23T09:15:31Z</time>
      </trkpt>
      <trkpt lat="42.59887" lon="1.74969">
        <ele>2248.18</ele>
        <time>2013-03-23T09:15:41Z</time>
      </trkpt>
      <trkpt lat="42.5989" lon="1.74977">
        <ele>2249.62</ele>
        <time>2013-03-23T09:15:53Z</time>
      </trkpt>
      <trkpt lat="42.59894" lon="1.74985">
        <ele>2249.14</ele>
        <time>2013-03-23T09:16:04Z</time>
      </trkpt>
      <trkpt lat="42.59897" lon="1.74991">
        <ele>2250.58</ele>
        <time>2013-03-23T09:16:14Z</time>
      </trkpt>
      <trkpt lat="42.599" lon="1.74997">
        <ele>2251.06</ele>
        <time>2013-03-23T09:16:25Z</time>
      </trkpt>
      <trkpt lat="42.59901" lon="1.75006">
        <ele>2251.06</ele>
        <time>2013-03-23T09:16:36Z</time>
      </trkpt>
      <trkpt lat="42.59907" lon="1.75008">
        <ele>2249.14</ele>
        <time>2013-03-23T09:16:46Z</time>
      </trkpt>
      <trkpt lat="42.59907" lon="1.75001">
        <ele>2250.1</ele>
        <time>2013-03-23T09:16:57Z</time>
      </trkpt>
      <trkpt lat="42.59911" lon="1.74999">
        <ele>2250.1</ele>
        <time>2013-03-23T09:17:23Z</time>
      </trkpt>
      <trkpt lat="42.59914" lon="1.74998">
        <ele>2251.54</ele>
        <time>2013-03-23T09:17:38Z</time>
      </trkpt>
      <trkpt lat="42.59922" lon="1.74996">
        <ele>2252.51</ele>
        <time>2013-03-23T09:17:50Z</time>
      </trkpt>
      <trkpt lat="42.59932" lon="1.74993">
        <ele>2254.43</ele>
        <time>2013-03-23T09:18:02Z</time>
      </trkpt>
      <trkpt lat="42.5994" lon="1.74992">
        <ele>2254.43</ele>
        <time>2013-03-23T09:18:14Z</time>
      </trkpt>
      <trkpt lat="42.59948" lon="1.7499">
        <ele>2257.31</ele>
        <time>2013-03-23T09:18:27Z</time>
      </trkpt>
      <trkpt lat="42.59952" lon="1.7499">
        <ele>2258.27</ele>
        <time>2013-03-23T09:18:33Z</time>
      </trkpt>
      <trkpt lat="42.59961" lon="1.74986">
        <ele>2265.48</ele>
        <time>2013-03-23T09:18:46Z</time>
      </trkpt>
      <trkpt lat="42.59968" lon="1.74987">
        <ele>2270.29</ele>
        <time>2013-03-23T09:18:58Z</time>
      </trkpt>
      <trkpt lat="42.59977" lon="1.74989">
        <ele>2273.66</ele>
        <time>2013-03-23T09:19:12Z</time>
      </trkpt>
      <trkpt lat="42.59982" lon="1.7499">
        <ele>2277.5</ele>
        <time>2013-03-23T09:19:24Z</time>
      </trkpt>
      <trkpt lat="42.59996" lon="1.74986">
        <ele>2275.1</ele>
        <time>2013-03-23T09:19:37Z</time>
      </trkpt>
      <trkpt lat="42.60004" lon="1.74983">
        <ele>2274.14</ele>
        <time>2013-03-23T09:19:48Z</time>
      </trkpt>
      <trkpt lat="42.60012" lon="1.74985">
        <ele>2275.1</ele>
        <time>2013-03-23T09:19:59Z</time>
      </trkpt>
      <trkpt lat="42.6002" lon="1.74984">
        <ele>2275.58</ele>
        <time>2013-03-23T09:20:11Z</time>
      </trkpt>
      <trkpt lat="42.60027" lon="1.74985">
        <ele>2277.98</ele>
        <time>2013-03-23T09:20:22Z</time>
      </trkpt>
      <trkpt lat="42.60033" lon="1.74992">
        <ele>2278.94</ele>
        <time>2013-03-23T09:20:35Z</time>
      </trkpt>
      <trkpt lat="42.60034" lon="1.74992">
        <ele>2280.38</ele>
        <time>2013-03-23T09:20:55Z</time>
      </trkpt>
      <trkpt lat="42.60039" lon="1.74995">
        <ele>2282.31</ele>
        <time>2013-03-23T09:21:06Z</time>
      </trkpt>
      <trkpt lat="42.60043" lon="1.75005">
        <ele>2283.75</ele>
        <time>2013-03-23T09:21:17Z</time>
      </trkpt>
      <trkpt lat="42.60051" lon="1.7501">
        <ele>2286.63</ele>
        <time>2013-03-23T09:21:30Z</time>
      </trkpt>
      <trkpt lat="42.60057" lon="1.75015">
        <ele>2289.04</ele>
        <time>2013-03-23T09:21:42Z</time>
      </trkpt>
      <trkpt lat="42.60062" lon="1.75016">
        <ele>2292.4</ele>
        <time>2013-03-23T09:21:59Z</time>
      </trkpt>
      <trkpt lat="42.60068" lon="1.75024">
        <ele>2294.32</ele>
        <time>2013-03-23T09:22:12Z</time>
      </trkpt>
      <trkpt lat="42.6007" lon="1.75026">
        <ele>2297.69</ele>
        <time>2013-03-23T09:22:25Z</time>
      </trkpt>
      <trkpt lat="42.60069" lon="1.75026">
        <ele>2299.61</ele>
        <time>2013-03-23T09:22:52Z</time>
      </trkpt>
      <trkpt lat="42.60076" lon="1.75034">
        <ele>2299.61</ele>
        <time>2013-03-23T09:23:04Z</time>
      </trkpt>
      <trkpt lat="42.60081" lon="1.75039">
        <ele>2299.61</ele>
        <time>2013-03-23T09:23:21Z</time>
      </trkpt>
      <trkpt lat="42.60093" lon="1.75051">
        <ele>2302.49</ele>
        <time>2013-03-23T09:23:36Z</time>
      </trkpt>
      <trkpt lat="42.60104" lon="1.75062">
        <ele>2302.49</ele>
        <time>2013-03-23T09:23:50Z</time>
      </trkpt>
      <trkpt lat="42.60112" lon="1.75068">
        <ele>2302.98</ele>
        <time>2013-03-23T09:24:02Z</time>
      </trkpt>
      <trkpt lat="42.60121" lon="1.75079">
        <ele>2304.42</ele>
        <time>2013-03-23T09:24:16Z</time>
      </trkpt>
      <trkpt lat="42.6013" lon="1.75087">
        <ele>2306.82</ele>
        <time>2013-03-23T09:24:30Z</time>
      </trkpt>
      <trkpt lat="42.6014" lon="1.75099">
        <ele>2307.78</ele>
        <time>2013-03-23T09:24:46Z</time>
      </trkpt>
      <trkpt lat="42.60149" lon="1.75112">
        <ele>2308.26</ele>
        <time>2013-03-23T09:25:00Z</time>
      </trkpt>
      <trkpt lat="42.60157" lon="1.75119">
        <ele>2311.63</ele>
        <time>2013-03-23T09:25:12Z</time>
      </trkpt>
      <trkpt lat="42.60165" lon="1.75125">
        <ele>2314.03</ele>
        <time>2013-03-23T09:25:26Z</time>
      </trkpt>
      <trkpt lat="42.60174" lon="1.7513">
        <ele>2317.4</ele>
        <time>2013-03-23T09:25:40Z</time>
      </trkpt>
      <trkpt lat="42.60179" lon="1.75139">
        <ele>2319.32</ele>
        <time>2013-03-23T09:25:52Z</time>
      </trkpt>
      <trkpt lat="42.60182" lon="1.75144">
        <ele>2326.05</ele>
        <time>2013-03-23T09:26:05Z</time>
      </trkpt>
      <trkpt lat="42.60187" lon="1.7515">
        <ele>2329.89</ele>
        <time>2013-03-23T09:26:18Z</time>
      </trkpt>
      <trkpt lat="42.60194" lon="1.75157">
        <ele>2332.78</ele>
        <time>2013-03-23T09:26:31Z</time>
      </trkpt>
      <trkpt lat="42.60203" lon="1.7516">
        <ele>2330.85</ele>
        <time>2013-03-23T09:26:43Z</time>
      </trkpt>
      <trkpt lat="42.6021" lon="1.75167">
        <ele>2329.89</ele>
        <time>2013-03-23T09:26:57Z</time>
      </trkpt>
      <trkpt lat="42.60215" lon="1.75171">
        <ele>2330.85</ele>
        <time>2013-03-23T09:27:09Z</time>
      </trkpt>
      <trkpt lat="42.6022" lon="1.75175">
        <ele>2332.3</ele>
        <time>2013-03-23T09:27:23Z</time>
      </trkpt>
      <trkpt lat="42.60227" lon="1.7518">
        <ele>2334.22</ele>
        <time>2013-03-23T09:27:34Z</time>
      </trkpt>
      <trkpt lat="42.60231" lon="1.75182">
        <ele>2335.18</ele>
        <time>2013-03-23T09:27:44Z</time>
      </trkpt>
      <trkpt lat="42.60234" lon="1.75186">
        <ele>2337.1</ele>
        <time>2013-03-23T09:27:56Z</time>
      </trkpt>
      <trkpt lat="42.60236" lon="1.75191">
        <ele>2340.47</ele>
        <time>2013-03-23T09:28:07Z</time>
      </trkpt>
      <trkpt lat="42.6024" lon="1.752">
        <ele>2341.91</ele>
        <time>2013-03-23T09:28:19Z</time>
      </trkpt>
      <trkpt lat="42.60246" lon="1.75208">
        <ele>2342.39</ele>
        <time>2013-03-23T09:28:31Z</time>
      </trkpt>
      <trkpt lat="42.60247" lon="1.7521">
        <ele>2342.87</ele>
        <time>2013-03-23T09:28:34Z</time>
      </trkpt>
      <trkpt lat="42.60246" lon="1.75218">
        <ele>2348.16</ele>
        <time>2013-03-23T09:28:49Z</time>
      </trkpt>
      <trkpt lat="42.60248" lon="1.75215">
        <ele>2348.16</ele>
        <time>2013-03-23T09:29:09Z</time>
      </trkpt>
      <trkpt lat="42.6025" lon="1.75222">
        <ele>2347.68</ele>
        <time>2013-03-23T09:29:20Z</time>
      </trkpt>
      <trkpt lat="42.60254" lon="1.75232">
        <ele>2349.6</ele>
        <time>2013-03-23T09:29:32Z</time>
      </trkpt>
      <trkpt lat="42.6026" lon="1.75239">
        <ele>2352.96</ele>
        <time>2013-03-23T09:29:45Z</time>
      </trkpt>
      <trkpt lat="42.60266" lon="1.75246">
        <ele>2353.44</ele>
        <time>2013-03-23T09:29:57Z</time>
      </trkpt>
      <trkpt lat="42.60269" lon="1.75255">
        <ele>2357.29</ele>
        <time>2013-03-23T09:30:09Z</time>
      </trkpt>
      <trkpt lat="42.60275" lon="1.75262">
        <ele>2357.29</ele>
        <time>2013-03-23T09:30:21Z</time>
      </trkpt>
      <trkpt lat="42.60279" lon="1.75266">
        <ele>2360.17</ele>
        <time>2013-03-23T09:30:32Z</time>
      </trkpt>
      <trkpt lat="42.60284" lon="1.75275">
        <ele>2361.62</ele>
        <time>2013-03-23T09:30:45Z</time>
      </trkpt>
      <trkpt lat="42.60288" lon="1.75276">
        <ele>2362.58</ele>
        <time>2013-03-23T09:30:54Z</time>
      </trkpt>
      <trkpt lat="42.60293" lon="1.7528">
        <ele>2364.5</ele>
        <time>2013-03-23T09:31:04Z</time>
      </trkpt>
      <trkpt lat="42.60296" lon="1.75283">
        <ele>2365.46</ele>
        <time>2013-03-23T09:31:16Z</time>
      </trkpt>
      <trkpt lat="42.603" lon="1.75286">
        <ele>2366.9</ele>
        <time>2013-03-23T09:31:32Z</time>
      </trkpt>
      <trkpt lat="42.60304" lon="1.75291">
        <ele>2366.9</ele>
        <time>2013-03-23T09:31:39Z</time>
      </trkpt>
      <trkpt lat="42.60307" lon="1.75292">
        <ele>2364.5</ele>
        <time>2013-03-23T09:31:54Z</time>
      </trkpt>
      <trkpt lat="42.60309" lon="1.75296">
        <ele>2364.98</ele>
        <time>2013-03-23T09:32:07Z</time>
      </trkpt>
      <trkpt lat="42.60315" lon="1.753">
        <ele>2369.31</ele>
        <time>2013-03-23T09:32:20Z</time>
      </trkpt>
      <trkpt lat="42.60322" lon="1.75304">
        <ele>2372.19</ele>
        <time>2013-03-23T09:32:33Z</time>
      </trkpt>
      <trkpt lat="42.60327" lon="1.75306">
        <ele>2373.15</ele>
        <time>2013-03-23T09:32:45Z</time>
      </trkpt>
      <trkpt lat="42.6033" lon="1.75309">
        <ele>2373.15</ele>
        <time>2013-03-23T09:32:57Z</time>
      </trkpt>
      <trkpt lat="42.60331" lon="1.75314">
        <ele>2373.15</ele>
        <time>2013-03-23T09:33:14Z</time>
      </trkpt>
      <trkpt lat="42.6033" lon="1.75313">
        <ele>2371.23</ele>
        <time>2013-03-23T09:33:29Z</time>
      </trkpt>
      <trkpt lat="42.60324" lon="1.75315">
        <ele>2369.31</ele>
        <time>2013-03-23T09:33:42Z</time>
      </trkpt>
      <trkpt lat="42.60319" lon="1.75317">
        <ele>2369.31</ele>
        <time>2013-03-23T09:33:53Z</time>
      </trkpt>
      <trkpt lat="42.60315" lon="1.75321">
        <ele>2368.35</ele>
        <time>2013-03-23T09:34:04Z</time>
      </trkpt>
      <trkpt lat="42.60313" lon="1.75321">
        <ele>2368.35</ele>
        <time>2013-03-23T09:34:16Z</time>
      </trkpt>
      <trkpt lat="42.60314" lon="1.75324">
        <ele>2367.38</ele>
        <time>2013-03-23T09:34:29Z</time>
      </trkpt>
      <trkpt lat="42.60317" lon="1.75328">
        <ele>2367.38</ele>
        <time>2013-03-23T09:34:39Z</time>
      </trkpt>
      <trkpt lat="42.60322" lon="1.7533">
        <ele>2370.75</ele>
        <time>2013-03-23T09:34:53Z</time>
      </trkpt>
      <trkpt lat="42.60325" lon="1.75331">
        <ele>2375.07</ele>
        <time>2013-03-23T09:35:05Z</time>
      </trkpt>
      <trkpt lat="42.60329" lon="1.75335">
        <ele>2377.48</ele>
        <time>2013-03-23T09:35:18Z</time>
      </trkpt>
      <trkpt lat="42.60335" lon="1.75336">
        <ele>2379.4</ele>
        <time>2013-03-23T09:35:30Z</time>
      </trkpt>
      <trkpt lat="42.6034" lon="1.75338">
        <ele>2382.28</ele>
        <time>2013-03-23T09:35:44Z</time>
      </trkpt>
      <trkpt lat="42.60343" lon="1.75341">
        <ele>2384.21</ele>
        <time>2013-03-23T09:35:57Z</time>
      </trkpt>
      <trkpt lat="42.60348" lon="1.75345">
        <ele>2386.61</ele>
        <time>2013-03-23T09:36:09Z</time>
      </trkpt>
      <trkpt lat="42.60356" lon="1.75349">
        <ele>2388.05</ele>
        <time>2013-03-23T09:36:22Z</time>
      </trkpt>
      <trkpt lat="42.60365" lon="1.75355">
        <ele>2391.42</ele>
        <time>2013-03-23T09:36:37Z</time>
      </trkpt>
      <trkpt lat="42.60371" lon="1.75358">
        <ele>2392.86</ele>
        <time>2013-03-23T09:36:50Z</time>
      </trkpt>
      <trkpt lat="42.6038" lon="1.75359">
        <ele>2393.82</ele>
        <time>2013-03-23T09:37:03Z</time>
      </trkpt>
      <trkpt lat="42.60382" lon="1.75358">
        <ele>2395.74</ele>
        <time>2013-03-23T09:37:08Z</time>
      </trkpt>
      <trkpt lat="42.60389" lon="1.75354">
        <ele>2396.7</ele>
        <time>2013-03-23T09:37:20Z</time>
      </trkpt>
      <trkpt lat="42.60397" lon="1.75346">
        <ele>2396.7</ele>
        <time>2013-03-23T09:37:34Z</time>
      </trkpt>
      <trkpt lat="42.60401" lon="1.75343">
        <ele>2397.18</ele>
        <time>2013-03-23T09:37:41Z</time>
      </trkpt>
      <trkpt lat="42.60409" lon="1.75346">
        <ele>2400.07</ele>
        <time>2013-03-23T09:37:54Z</time>
      </trkpt>
      <trkpt lat="42.6041" lon="1.75344">
        <ele>2401.99</ele>
        <time>2013-03-23T09:38:28Z</time>
      </trkpt>
      <trkpt lat="42.6041" lon="1.75347">
        <ele>2401.03</ele>
        <time>2013-03-23T09:38:44Z</time>
      </trkpt>
      <trkpt lat="42.60414" lon="1.75355">
        <ele>2403.43</ele>
        <time>2013-03-23T09:38:55Z</time>
      </trkpt>
      <trkpt lat="42.60418" lon="1.75364">
        <ele>2403.43</ele>
        <time>2013-03-23T09:39:07Z</time>
      </trkpt>
      <trkpt lat="42.60418" lon="1.75374">
        <ele>2408.24</ele>
        <time>2013-03-23T09:39:17Z</time>
      </trkpt>
      <trkpt lat="42.60419" lon="1.75384">
        <ele>2410.16</ele>
        <time>2013-03-23T09:39:28Z</time>
      </trkpt>
      <trkpt lat="42.60421" lon="1.75393">
        <ele>2412.57</ele>
        <time>2013-03-23T09:39:38Z</time>
      </trkpt>
      <trkpt lat="42.60421" lon="1.75401">
        <ele>2413.05</ele>
        <time>2013-03-23T09:39:48Z</time>
      </trkpt>
      <trkpt lat="42.60422" lon="1.75412">
        <ele>2414.97</ele>
        <time>2013-03-23T09:39:59Z</time>
      </trkpt>
      <trkpt lat="42.60418" lon="1.75418">
        <ele>2416.89</ele>
        <time>2013-03-23T09:40:11Z</time>
      </trkpt>
      <trkpt lat="42.60415" lon="1.75423">
        <ele>2419.78</ele>
        <time>2013-03-23T09:40:24Z</time>
      </trkpt>
      <trkpt lat="42.60411" lon="1.75426">
        <ele>2421.22</ele>
        <time>2013-03-23T09:40:35Z</time>
      </trkpt>
      <trkpt lat="42.60409" lon="1.75429">
        <ele>2418.33</ele>
        <time>2013-03-23T09:40:48Z</time>
      </trkpt>
      <trkpt lat="42.6041" lon="1.75428">
        <ele>2418.81</ele>
        <time>2013-03-23T09:40:59Z</time>
      </trkpt>
      <trkpt lat="42.60413" lon="1.7543">
        <ele>2418.81</ele>
        <time>2013-03-23T09:41:08Z</time>
      </trkpt>
      <trkpt lat="42.60419" lon="1.7544">
        <ele>2418.33</ele>
        <time>2013-03-23T09:41:20Z</time>
      </trkpt>
      <trkpt lat="42.60425" lon="1.75441">
        <ele>2419.3</ele>
        <time>2013-03-23T09:41:32Z</time>
      </trkpt>
      <trkpt lat="42.60427" lon="1.75441">
        <ele>2421.22</ele>
        <time>2013-03-23T09:41:46Z</time>
      </trkpt>
      <trkpt lat="42.60427" lon="1.75443">
        <ele>2424.58</ele>
        <time>2013-03-23T09:42:01Z</time>
      </trkpt>
      <trkpt lat="42.60423" lon="1.75446">
        <ele>2429.39</ele>
        <time>2013-03-23T09:42:14Z</time>
      </trkpt>
      <trkpt lat="42.60418" lon="1.75454">
        <ele>2434.2</ele>
        <time>2013-03-23T09:42:30Z</time>
      </trkpt>
      <trkpt lat="42.60412" lon="1.75459">
        <ele>2435.64</ele>
        <time>2013-03-23T09:42:41Z</time>
      </trkpt>
      <trkpt lat="42.60406" lon="1.75461">
        <ele>2437.08</ele>
        <time>2013-03-23T09:42:53Z</time>
      </trkpt>
      <trkpt lat="42.60404" lon="1.75462">
        <ele>2437.08</ele>
        <time>2013-03-23T09:43:00Z</time>
      </trkpt>
      <trkpt lat="42.60409" lon="1.75473">
        <ele>2437.08</ele>
        <time>2013-03-23T09:43:13Z</time>
      </trkpt>
      <trkpt lat="42.60412" lon="1.75477">
        <ele>2438.04</ele>
        <time>2013-03-23T09:43:18Z</time>
      </trkpt>
      <trkpt lat="42.60419" lon="1.75487">
        <ele>2439</ele>
        <time>2013-03-23T09:43:31Z</time>
      </trkpt>
      <trkpt lat="42.60419" lon="1.75496">
        <ele>2438.04</ele>
        <time>2013-03-23T09:43:45Z</time>
      </trkpt>
      <trkpt lat="42.6042" lon="1.75495">
        <ele>2438.52</ele>
        <time>2013-03-23T09:43:59Z</time>
      </trkpt>
      <trkpt lat="42.6042" lon="1.75495">
        <ele>2438.52</ele>
        <time>2013-03-23T09:44:00Z</time>
      </trkpt>
      <trkpt lat="42.60421" lon="1.75494">
        <ele>2439</ele>
        <time>2013-03-23T09:44:12Z</time>
      </trkpt>
      <trkpt lat="42.6042" lon="1.75498">
        <ele>2439</ele>
        <time>2013-03-23T09:44:32Z</time>
      </trkpt>
      <trkpt lat="42.6042" lon="1.75498">
        <ele>2437.56</ele>
        <time>2013-03-23T09:44:51Z</time>
      </trkpt>
      <trkpt lat="42.60421" lon="1.75499">
        <ele>2439</ele>
        <time>2013-03-23T09:45:03Z</time>
      </trkpt>
      <trkpt lat="42.60419" lon="1.75502">
        <ele>2438.52</ele>
        <time>2013-03-23T09:45:19Z</time>
      </trkpt>
      <trkpt lat="42.60419" lon="1.75502">
        <ele>2440.92</ele>
        <time>2013-03-23T09:45:38Z</time>
      </trkpt>
      <trkpt lat="42.60417" lon="1.75506">
        <ele>2442.85</ele>
        <time>2013-03-23T09:46:05Z</time>
      </trkpt>
      <trkpt lat="42.60418" lon="1.75501">
        <ele>2440.92</ele>
        <time>2013-03-23T09:46:27Z</time>
      </trkpt>
      <trkpt lat="42.60419" lon="1.75502">
        <ele>2440.92</ele>
        <time>2013-03-23T09:47:03Z</time>
      </trkpt>
      <trkpt lat="42.6042" lon="1.75502">
        <ele>2440.44</ele>
        <time>2013-03-23T09:47:28Z</time>
      </trkpt>
      <trkpt lat="42.60423" lon="1.75504">
        <ele>2441.41</ele>
        <time>2013-03-23T09:48:07Z</time>
      </trkpt>
      <trkpt lat="42.6042" lon="1.755">
        <ele>2440.44</ele>
        <time>2013-03-23T09:48:34Z</time>
      </trkpt>
      <trkpt lat="42.60422" lon="1.75503">
        <ele>2445.25</ele>
        <time>2013-03-23T09:49:15Z</time>
      </trkpt>
      <trkpt lat="42.60417" lon="1.75499">
        <ele>2441.89</ele>
        <time>2013-03-23T09:49:53Z</time>
      </trkpt>
      <trkpt lat="42.60418" lon="1.75501">
        <ele>2441.41</ele>
        <time>2013-03-23T09:50:37Z</time>
      </trkpt>
      <trkpt lat="42.60418" lon="1.75499">
        <ele>2441.41</ele>
        <time>2013-03-23T09:51:19Z</time>
      </trkpt>
      <trkpt lat="42.60419" lon="1.755">
        <ele>2439.48</ele>
        <time>2013-03-23T09:51:49Z</time>
      </trkpt>
      <trkpt lat="42.6042" lon="1.75498">
        <ele>2439</ele>
        <time>2013-03-23T09:52:20Z</time>
      </trkpt>
      <trkpt lat="42.60423" lon="1.75499">
        <ele>2438.52</ele>
        <time>2013-03-23T09:52:59Z</time>
      </trkpt>
      <trkpt lat="42.60422" lon="1.755">
        <ele>2440.44</ele>
        <time>2013-03-23T09:53:39Z</time>
      </trkpt>
      <trkpt lat="42.6042" lon="1.75498">
        <ele>2442.37</ele>
        <time>2013-03-23T09:54:15Z</time>
      </trkpt>
      <trkpt lat="42.6042" lon="1.75497">
        <ele>2442.37</ele>
        <time>2013-03-23T09:54:53Z</time>
      </trkpt>
      <trkpt lat="42.6042" lon="1.75496">
        <ele>2441.41</ele>
        <time>2013-03-23T09:54:57Z</time>
      </trkpt>
      <trkpt lat="42.60419" lon="1.75497">
        <ele>2439</ele>
        <time>2013-03-23T09:55:10Z</time>
      </trkpt>
      <trkpt lat="42.60418" lon="1.75497">
        <ele>2440.92</ele>
        <time>2013-03-23T09:55:26Z</time>
      </trkpt>
      <trkpt lat="42.60418" lon="1.75501">
        <ele>2440.92</ele>
        <time>2013-03-23T09:55:38Z</time>
      </trkpt>
      <trkpt lat="42.60419" lon="1.75501">
        <ele>2441.41</ele>
        <time>2013-03-23T09:55:52Z</time>
      </trkpt>
      <trkpt lat="42.60418" lon="1.75497">
        <ele>2442.85</ele>
        <time>2013-03-23T09:56:06Z</time>
      </trkpt>
      <trkpt lat="42.60417" lon="1.75497">
        <ele>2443.33</ele>
        <time>2013-03-23T09:56:08Z</time>
      </trkpt>
      <trkpt lat="42.60408" lon="1.75503">
        <ele>2444.77</ele>
        <time>2013-03-23T09:56:22Z</time>
      </trkpt>
      <trkpt lat="42.60406" lon="1.75505">
        <ele>2446.69</ele>
        <time>2013-03-23T09:56:34Z</time>
      </trkpt>
      <trkpt lat="42.604" lon="1.75506">
        <ele>2447.65</ele>
        <time>2013-03-23T09:56:46Z</time>
      </trkpt>
      <trkpt lat="42.60396" lon="1.75508">
        <ele>2448.13</ele>
        <time>2013-03-23T09:56:57Z</time>
      </trkpt>
      <trkpt lat="42.60395" lon="1.75508">
        <ele>2449.1</ele>
        <time>2013-03-23T09:57:08Z</time>
      </trkpt>
      <trkpt lat="42.60393" lon="1.75512">
        <ele>2450.54</ele>
        <time>2013-03-23T09:57:21Z</time>
      </trkpt>
      <trkpt lat="42.60389" lon="1.75516">
        <ele>2453.42</ele>
        <time>2013-03-23T09:57:35Z</time>
      </trkpt>
      <trkpt lat="42.60386" lon="1.75516">
        <ele>2455.34</ele>
        <time>2013-03-23T09:57:49Z</time>
      </trkpt>
      <trkpt lat="42.60381" lon="1.75522">
        <ele>2455.82</ele>
        <time>2013-03-23T09:58:06Z</time>
      </trkpt>
      <trkpt lat="42.60382" lon="1.75522">
        <ele>2455.82</ele>
        <time>2013-03-23T09:58:19Z</time>
      </trkpt>
      <trkpt lat="42.6038" lon="1.75523">
        <ele>2457.27</ele>
        <time>2013-03-23T09:58:38Z</time>
      </trkpt>
      <trkpt lat="42.60377" lon="1.75525">
        <ele>2460.15</ele>
        <time>2013-03-23T09:58:50Z</time>
      </trkpt>
      <trkpt lat="42.60372" lon="1.75522">
        <ele>2462.55</ele>
        <time>2013-03-23T09:59:03Z</time>
      </trkpt>
      <trkpt lat="42.60368" lon="1.75514">
        <ele>2460.63</ele>
        <time>2013-03-23T09:59:17Z</time>
      </trkpt>
      <trkpt lat="42.60362" lon="1.75513">
        <ele>2462.55</ele>
        <time>2013-03-23T09:59:30Z</time>
      </trkpt>
      <trkpt lat="42.60361" lon="1.75515">
        <ele>2462.55</ele>
        <time>2013-03-23T09:59:46Z</time>
      </trkpt>
      <trkpt lat="42.6036" lon="1.75514">
        <ele>2463.04</ele>
        <time>2013-03-23T10:00:04Z</time>
      </trkpt>
      <trkpt lat="42.60356" lon="1.75517">
        <ele>2464.96</ele>
        <time>2013-03-23T10:00:18Z</time>
      </trkpt>
      <trkpt lat="42.60351" lon="1.7552">
        <ele>2466.4</ele>
        <time>2013-03-23T10:00:29Z</time>
      </trkpt>
      <trkpt lat="42.60346" lon="1.75523">
        <ele>2469.28</ele>
        <time>2013-03-23T10:00:41Z</time>
      </trkpt>
      <trkpt lat="42.60341" lon="1.75526">
        <ele>2470.73</ele>
        <time>2013-03-23T10:00:51Z</time>
      </trkpt>
      <trkpt lat="42.60335" lon="1.75525">
        <ele>2471.69</ele>
        <time>2013-03-23T10:01:02Z</time>
      </trkpt>
      <trkpt lat="42.60331" lon="1.75531">
        <ele>2471.21</ele>
        <time>2013-03-23T10:01:13Z</time>
      </trkpt>
      <trkpt lat="42.60327" lon="1.75537">
        <ele>2473.61</ele>
        <time>2013-03-23T10:01:24Z</time>
      </trkpt>
      <trkpt lat="42.60325" lon="1.75539">
        <ele>2474.57</ele>
        <time>2013-03-23T10:01:44Z</time>
      </trkpt>
      <trkpt lat="42.60323" lon="1.75538">
        <ele>2476.01</ele>
        <time>2013-03-23T10:01:51Z</time>
      </trkpt>
      <trkpt lat="42.60319" lon="1.75536">
        <ele>2477.94</ele>
        <time>2013-03-23T10:02:03Z</time>
      </trkpt>
      <trkpt lat="42.60314" lon="1.75537">
        <ele>2480.82</ele>
        <time>2013-03-23T10:02:15Z</time>
      </trkpt>
      <trkpt lat="42.60309" lon="1.75536">
        <ele>2483.22</ele>
        <time>2013-03-23T10:02:27Z</time>
      </trkpt>
      <trkpt lat="42.60305" lon="1.75534">
        <ele>2484.66</ele>
        <time>2013-03-23T10:02:41Z</time>
      </trkpt>
      <trkpt lat="42.60301" lon="1.75531">
        <ele>2486.59</ele>
        <time>2013-03-23T10:02:54Z</time>
      </trkpt>
      <trkpt lat="42.60295" lon="1.7553">
        <ele>2488.99</ele>
        <time>2013-03-23T10:03:08Z</time>
      </trkpt>
      <trkpt lat="42.60291" lon="1.75531">
        <ele>2490.43</ele>
        <time>2013-03-23T10:03:21Z</time>
      </trkpt>
      <trkpt lat="42.60291" lon="1.75532">
        <ele>2491.87</ele>
        <time>2013-03-23T10:03:31Z</time>
      </trkpt>
      <trkpt lat="42.60293" lon="1.75537">
        <ele>2491.87</ele>
        <time>2013-03-23T10:03:42Z</time>
      </trkpt>
      <trkpt lat="42.60293" lon="1.75539">
        <ele>2492.36</ele>
        <time>2013-03-23T10:03:54Z</time>
      </trkpt>
      <trkpt lat="42.60292" lon="1.75542">
        <ele>2494.28</ele>
        <time>2013-03-23T10:04:04Z</time>
      </trkpt>
      <trkpt lat="42.6029" lon="1.75542">
        <ele>2495.24</ele>
        <time>2013-03-23T10:04:17Z</time>
      </trkpt>
      <trkpt lat="42.60284" lon="1.75543">
        <ele>2499.57</ele>
        <time>2013-03-23T10:04:31Z</time>
      </trkpt>
      <trkpt lat="42.60281" lon="1.75543">
        <ele>2501.01</ele>
        <time>2013-03-23T10:04:43Z</time>
      </trkpt>
      <trkpt lat="42.60277" lon="1.75542">
        <ele>2503.41</ele>
        <time>2013-03-23T10:04:54Z</time>
      </trkpt>
      <trkpt lat="42.60272" lon="1.75541">
        <ele>2504.85</ele>
        <time>2013-03-23T10:05:07Z</time>
      </trkpt>
      <trkpt lat="42.60269" lon="1.75541">
        <ele>2506.29</ele>
        <time>2013-03-23T10:05:20Z</time>
      </trkpt>
      <trkpt lat="42.60263" lon="1.75541">
        <ele>2509.18</ele>
        <time>2013-03-23T10:05:34Z</time>
      </trkpt>
      <trkpt lat="42.60258" lon="1.75543">
        <ele>2511.58</ele>
        <time>2013-03-23T10:05:48Z</time>
      </trkpt>
      <trkpt lat="42.60257" lon="1.75547">
        <ele>2511.1</ele>
        <time>2013-03-23T10:06:00Z</time>
      </trkpt>
      <trkpt lat="42.60258" lon="1.75554">
        <ele>2511.58</ele>
        <time>2013-03-23T10:06:12Z</time>
      </trkpt>
      <trkpt lat="42.60259" lon="1.75561">
        <ele>2513.02</ele>
        <time>2013-03-23T10:06:23Z</time>
      </trkpt>
      <trkpt lat="42.60262" lon="1.75568">
        <ele>2513.02</ele>
        <time>2013-03-23T10:06:34Z</time>
      </trkpt>
      <trkpt lat="42.60262" lon="1.75573">
        <ele>2513.98</ele>
        <time>2013-03-23T10:06:45Z</time>
      </trkpt>
      <trkpt lat="42.60262" lon="1.75579">
        <ele>2515.43</ele>
        <time>2013-03-23T10:06:54Z</time>
      </trkpt>
      <trkpt lat="42.60261" lon="1.75583">
        <ele>2516.87</ele>
        <time>2013-03-23T10:07:06Z</time>
      </trkpt>
      <trkpt lat="42.60261" lon="1.75591">
        <ele>2518.79</ele>
        <time>2013-03-23T10:07:18Z</time>
      </trkpt>
      <trkpt lat="42.60263" lon="1.75599">
        <ele>2519.75</ele>
        <time>2013-03-23T10:07:29Z</time>
      </trkpt>
      <trkpt lat="42.60263" lon="1.75604">
        <ele>2519.75</ele>
        <time>2013-03-23T10:07:42Z</time>
      </trkpt>
      <trkpt lat="42.60263" lon="1.75607">
        <ele>2520.71</ele>
        <time>2013-03-23T10:07:59Z</time>
      </trkpt>
      <trkpt lat="42.60261" lon="1.75616">
        <ele>2521.19</ele>
        <time>2013-03-23T10:08:13Z</time>
      </trkpt>
      <trkpt lat="42.60258" lon="1.75626">
        <ele>2521.68</ele>
        <time>2013-03-23T10:08:26Z</time>
      </trkpt>
      <trkpt lat="42.60258" lon="1.75627">
        <ele>2521.68</ele>
        <time>2013-03-23T10:08:29Z</time>
      </trkpt>
      <trkpt lat="42.60255" lon="1.75633">
        <ele>2523.12</ele>
        <time>2013-03-23T10:08:40Z</time>
      </trkpt>
      <trkpt lat="42.60254" lon="1.75634">
        <ele>2522.16</ele>
        <time>2013-03-23T10:09:04Z</time>
      </trkpt>
      <trkpt lat="42.60255" lon="1.75633">
        <ele>2521.68</ele>
        <time>2013-03-23T10:09:20Z</time>
      </trkpt>
      <trkpt lat="42.60256" lon="1.75639">
        <ele>2521.68</ele>
        <time>2013-03-23T10:09:36Z</time>
      </trkpt>
      <trkpt lat="42.60257" lon="1.75645">
        <ele>2521.68</ele>
        <time>2013-03-23T10:09:46Z</time>
      </trkpt>
      <trkpt lat="42.60256" lon="1.75657">
        <ele>2522.16</ele>
        <time>2013-03-23T10:09:57Z</time>
      </trkpt>
      <trkpt lat="42.60255" lon="1.75663">
        <ele>2521.68</ele>
        <time>2013-03-23T10:10:02Z</time>
      </trkpt>
      <trkpt lat="42.60255" lon="1.75674">
        <ele>2522.64</ele>
        <time>2013-03-23T10:10:14Z</time>
      </trkpt>
      <trkpt lat="42.6025" lon="1.75682">
        <ele>2524.08</ele>
        <time>2013-03-23T10:10:28Z</time>
      </trkpt>
      <trkpt lat="42.60248" lon="1.75693">
        <ele>2524.56</ele>
        <time>2013-03-23T10:10:41Z</time>
      </trkpt>
      <trkpt lat="42.60244" lon="1.757">
        <ele>2526</ele>
        <time>2013-03-23T10:10:56Z</time>
      </trkpt>
      <trkpt lat="42.60242" lon="1.75705">
        <ele>2527.44</ele>
        <time>2013-03-23T10:11:07Z</time>
      </trkpt>
      <trkpt lat="42.60241" lon="1.75709">
        <ele>2528.89</ele>
        <time>2013-03-23T10:11:18Z</time>
      </trkpt>
      <trkpt lat="42.6024" lon="1.75717">
        <ele>2530.33</ele>
        <time>2013-03-23T10:11:30Z</time>
      </trkpt>
      <trkpt lat="42.60238" lon="1.75723">
        <ele>2531.77</ele>
        <time>2013-03-23T10:11:43Z</time>
      </trkpt>
      <trkpt lat="42.60237" lon="1.75728">
        <ele>2533.69</ele>
        <time>2013-03-23T10:11:56Z</time>
      </trkpt>
      <trkpt lat="42.60234" lon="1.75733">
        <ele>2535.13</ele>
        <time>2013-03-23T10:12:09Z</time>
      </trkpt>
      <trkpt lat="42.60231" lon="1.75735">
        <ele>2537.06</ele>
        <time>2013-03-23T10:12:20Z</time>
      </trkpt>
      <trkpt lat="42.60229" lon="1.75736">
        <ele>2537.54</ele>
        <time>2013-03-23T10:12:27Z</time>
      </trkpt>
      <trkpt lat="42.60227" lon="1.75741">
        <ele>2538.98</ele>
        <time>2013-03-23T10:12:39Z</time>
      </trkpt>
      <trkpt lat="42.60226" lon="1.75746">
        <ele>2540.42</ele>
        <time>2013-03-23T10:12:51Z</time>
      </trkpt>
      <trkpt lat="42.60226" lon="1.75749">
        <ele>2540.9</ele>
        <time>2013-03-23T10:12:54Z</time>
      </trkpt>
      <trkpt lat="42.60225" lon="1.75759">
        <ele>2543.31</ele>
        <time>2013-03-23T10:13:07Z</time>
      </trkpt>
      <trkpt lat="42.60225" lon="1.75762">
        <ele>2544.27</ele>
        <time>2013-03-23T10:13:21Z</time>
      </trkpt>
      <trkpt lat="42.60225" lon="1.75768">
        <ele>2544.75</ele>
        <time>2013-03-23T10:13:33Z</time>
      </trkpt>
      <trkpt lat="42.60224" lon="1.75776">
        <ele>2546.19</ele>
        <time>2013-03-23T10:13:45Z</time>
      </trkpt>
      <trkpt lat="42.60223" lon="1.75782">
        <ele>2548.11</ele>
        <time>2013-03-23T10:13:58Z</time>
      </trkpt>
      <trkpt lat="42.60222" lon="1.75789">
        <ele>2549.07</ele>
        <time>2013-03-23T10:14:09Z</time>
      </trkpt>
      <trkpt lat="42.60222" lon="1.75792">
        <ele>2549.55</ele>
        <time>2013-03-23T10:14:21Z</time>
      </trkpt>
      <trkpt lat="42.60223" lon="1.75797">
        <ele>2550.03</ele>
        <time>2013-03-23T10:14:33Z</time>
      </trkpt>
      <trkpt lat="42.60223" lon="1.75799">
        <ele>2551.48</ele>
        <time>2013-03-23T10:14:49Z</time>
      </trkpt>
      <trkpt lat="42.60223" lon="1.75804">
        <ele>2552.92</ele>
        <time>2013-03-23T10:14:59Z</time>
      </trkpt>
      <trkpt lat="42.60223" lon="1.75807">
        <ele>2553.88</ele>
        <time>2013-03-23T10:15:10Z</time>
      </trkpt>
      <trkpt lat="42.60221" lon="1.75809">
        <ele>2555.8</ele>
        <time>2013-03-23T10:15:23Z</time>
      </trkpt>
      <trkpt lat="42.60219" lon="1.7581">
        <ele>2556.76</ele>
        <time>2013-03-23T10:15:36Z</time>
      </trkpt>
      <trkpt lat="42.60217" lon="1.75809">
        <ele>2558.21</ele>
        <time>2013-03-23T10:15:47Z</time>
      </trkpt>
      <trkpt lat="42.60216" lon="1.75809">
        <ele>2559.17</ele>
        <time>2013-03-23T10:15:52Z</time>
      </trkpt>
      <trkpt lat="42.60214" lon="1.75809">
        <ele>2560.61</ele>
        <time>2013-03-23T10:16:02Z</time>
      </trkpt>
      <trkpt lat="42.60213" lon="1.75809">
        <ele>2561.57</ele>
        <time>2013-03-23T10:16:14Z</time>
      </trkpt>
      <trkpt lat="42.60211" lon="1.75809">
        <ele>2562.05</ele>
        <time>2013-03-23T10:16:25Z</time>
      </trkpt>
      <trkpt lat="42.6021" lon="1.75808">
        <ele>2562.53</ele>
        <time>2013-03-23T10:16:36Z</time>
      </trkpt>
      <trkpt lat="42.60209" lon="1.75807">
        <ele>2562.53</ele>
        <time>2013-03-23T10:16:46Z</time>
      </trkpt>
      <trkpt lat="42.60207" lon="1.75806">
        <ele>2563.01</ele>
        <time>2013-03-23T10:16:55Z</time>
      </trkpt>
      <trkpt lat="42.60207" lon="1.75805">
        <ele>2563.49</ele>
        <time>2013-03-23T10:17:07Z</time>
      </trkpt>
      <trkpt lat="42.60206" lon="1.75804">
        <ele>2564.45</ele>
        <time>2013-03-23T10:17:20Z</time>
      </trkpt>
      <trkpt lat="42.60202" lon="1.75802">
        <ele>2565.9</ele>
        <time>2013-03-23T10:17:33Z</time>
      </trkpt>
      <trkpt lat="42.60199" lon="1.75802">
        <ele>2569.26</ele>
        <time>2013-03-23T10:17:45Z</time>
      </trkpt>
      <trkpt lat="42.60197" lon="1.75802">
        <ele>2569.74</ele>
        <time>2013-03-23T10:17:56Z</time>
      </trkpt>
      <trkpt lat="42.60197" lon="1.75802">
        <ele>2569.74</ele>
        <time>2013-03-23T10:18:10Z</time>
      </trkpt>
      <trkpt lat="42.60196" lon="1.75802">
        <ele>2567.82</ele>
        <time>2013-03-23T10:18:22Z</time>
      </trkpt>
      <trkpt lat="42.60197" lon="1.75803">
        <ele>2567.82</ele>
        <time>2013-03-23T10:18:40Z</time>
      </trkpt>
      <trkpt lat="42.60198" lon="1.75804">
        <ele>2568.3</ele>
        <time>2013-03-23T10:19:01Z</time>
      </trkpt>
      <trkpt lat="42.60197" lon="1.75803">
        <ele>2568.78</ele>
        <time>2013-03-23T10:19:17Z</time>
      </trkpt>
      <trkpt lat="42.60198" lon="1.75804">
        <ele>2568.78</ele>
        <time>2013-03-23T10:19:31Z</time>
      </trkpt>
      <trkpt lat="42.60198" lon="1.75808">
        <ele>2569.26</ele>
        <time>2013-03-23T10:19:41Z</time>
      </trkpt>
      <trkpt lat="42.60199" lon="1.75812">
        <ele>2571.18</ele>
        <time>2013-03-23T10:19:51Z</time>
      </trkpt>
      <trkpt lat="42.60202" lon="1.75818">
        <ele>2573.11</ele>
        <time>2013-03-23T10:20:03Z</time>
      </trkpt>
      <trkpt lat="42.60202" lon="1.75819">
        <ele>2573.59</ele>
        <time>2013-03-23T10:20:11Z</time>
      </trkpt>
      <trkpt lat="42.602" lon="1.75822">
        <ele>2574.07</ele>
        <time>2013-03-23T10:20:22Z</time>
      </trkpt>
      <trkpt lat="42.60199" lon="1.75823">
        <ele>2572.14</ele>
        <time>2013-03-23T10:20:34Z</time>
      </trkpt>
      <trkpt lat="42.60196" lon="1.75823">
        <ele>2572.63</ele>
        <time>2013-03-23T10:20:45Z</time>
      </trkpt>
      <trkpt lat="42.60197" lon="1.75824">
        <ele>2573.11</ele>
        <time>2013-03-23T10:20:55Z</time>
      </trkpt>
      <trkpt lat="42.60196" lon="1.75827">
        <ele>2573.59</ele>
        <time>2013-03-23T10:21:07Z</time>
      </trkpt>
      <trkpt lat="42.60197" lon="1.75831">
        <ele>2574.07</ele>
        <time>2013-03-23T10:21:17Z</time>
      </trkpt>
      <trkpt lat="42.60197" lon="1.75836">
        <ele>2575.99</ele>
        <time>2013-03-23T10:21:29Z</time>
      </trkpt>
      <trkpt lat="42.60197" lon="1.75838">
        <ele>2577.43</ele>
        <time>2013-03-23T10:21:39Z</time>
      </trkpt>
      <trkpt lat="42.60197" lon="1.75842">
        <ele>2577.91</ele>
        <time>2013-03-23T10:21:49Z</time>
      </trkpt>
      <trkpt lat="42.60197" lon="1.75846">
        <ele>2579.35</ele>
        <time>2013-03-23T10:22:00Z</time>
      </trkpt>
      <trkpt lat="42.60198" lon="1.75852">
        <ele>2579.84</ele>
        <time>2013-03-23T10:22:13Z</time>
      </trkpt>
      <trkpt lat="42.60198" lon="1.75854">
        <ele>2579.84</ele>
        <time>2013-03-23T10:22:24Z</time>
      </trkpt>
      <trkpt lat="42.60198" lon="1.75857">
        <ele>2580.32</ele>
        <time>2013-03-23T10:22:35Z</time>
      </trkpt>
      <trkpt lat="42.60196" lon="1.75864">
        <ele>2582.24</ele>
        <time>2013-03-23T10:22:46Z</time>
      </trkpt>
      <trkpt lat="42.60194" lon="1.75869">
        <ele>2582.24</ele>
        <time>2013-03-23T10:23:00Z</time>
      </trkpt>
      <trkpt lat="42.60193" lon="1.75873">
        <ele>2583.68</ele>
        <time>2013-03-23T10:23:11Z</time>
      </trkpt>
      <trkpt lat="42.60191" lon="1.75877">
        <ele>2585.6</ele>
        <time>2013-03-23T10:23:22Z</time>
      </trkpt>
      <trkpt lat="42.6019" lon="1.75884">
        <ele>2587.53</ele>
        <time>2013-03-23T10:23:35Z</time>
      </trkpt>
      <trkpt lat="42.60187" lon="1.75893">
        <ele>2588.01</ele>
        <time>2013-03-23T10:23:50Z</time>
      </trkpt>
      <trkpt lat="42.60185" lon="1.75899">
        <ele>2589.45</ele>
        <time>2013-03-23T10:24:00Z</time>
      </trkpt>
      <trkpt lat="42.60185" lon="1.75905">
        <ele>2589.93</ele>
        <time>2013-03-23T10:24:11Z</time>
      </trkpt>
      <trkpt lat="42.60184" lon="1.75909">
        <ele>2589.93</ele>
        <time>2013-03-23T10:24:17Z</time>
      </trkpt>
      <trkpt lat="42.60182" lon="1.75916">
        <ele>2588.01</ele>
        <time>2013-03-23T10:24:29Z</time>
      </trkpt>
      <trkpt lat="42.60181" lon="1.75918">
        <ele>2588.01</ele>
        <time>2013-03-23T10:24:52Z</time>
      </trkpt>
      <trkpt lat="42.60178" lon="1.75931">
        <ele>2585.12</ele>
        <time>2013-03-23T10:25:04Z</time>
      </trkpt>
      <trkpt lat="42.60176" lon="1.75941">
        <ele>2585.6</ele>
        <time>2013-03-23T10:25:15Z</time>
      </trkpt>
      <trkpt lat="42.60173" lon="1.75954">
        <ele>2586.08</ele>
        <time>2013-03-23T10:25:27Z</time>
      </trkpt>
      <trkpt lat="42.60173" lon="1.75963">
        <ele>2587.53</ele>
        <time>2013-03-23T10:25:36Z</time>
      </trkpt>
      <trkpt lat="42.60172" lon="1.75966">
        <ele>2587.53</ele>
        <time>2013-03-23T10:25:38Z</time>
      </trkpt>
      <trkpt lat="42.60172" lon="1.75968">
        <ele>2587.53</ele>
        <time>2013-03-23T10:25:40Z</time>
      </trkpt>
      <trkpt lat="42.60172" lon="1.75971">
        <ele>2587.53</ele>
        <time>2013-03-23T10:25:42Z</time>
      </trkpt>
      <trkpt lat="42.60174" lon="1.75984">
        <ele>2588.01</ele>
        <time>2013-03-23T10:25:54Z</time>
      </trkpt>
      <trkpt lat="42.60174" lon="1.75987">
        <ele>2588.49</ele>
        <time>2013-03-23T10:26:06Z</time>
      </trkpt>
      <trkpt lat="42.60172" lon="1.75999">
        <ele>2588.97</ele>
        <time>2013-03-23T10:26:19Z</time>
      </trkpt>
      <trkpt lat="42.6017" lon="1.76009">
        <ele>2589.45</ele>
        <time>2013-03-23T10:26:28Z</time>
      </trkpt>
      <trkpt lat="42.60167" lon="1.76022">
        <ele>2588.97</ele>
        <time>2013-03-23T10:26:40Z</time>
      </trkpt>
      <trkpt lat="42.60164" lon="1.76036">
        <ele>2588.97</ele>
        <time>2013-03-23T10:26:53Z</time>
      </trkpt>
      <trkpt lat="42.60161" lon="1.76049">
        <ele>2589.45</ele>
        <time>2013-03-23T10:27:07Z</time>
      </trkpt>
      <trkpt lat="42.60161" lon="1.76057">
        <ele>2590.41</ele>
        <time>2013-03-23T10:27:19Z</time>
      </trkpt>
      <trkpt lat="42.6016" lon="1.76067">
        <ele>2590.89</ele>
        <time>2013-03-23T10:27:30Z</time>
      </trkpt>
      <trkpt lat="42.60159" lon="1.76078">
        <ele>2592.33</ele>
        <time>2013-03-23T10:27:41Z</time>
      </trkpt>
      <trkpt lat="42.60158" lon="1.76092">
        <ele>2592.81</ele>
        <time>2013-03-23T10:27:54Z</time>
      </trkpt>
      <trkpt lat="42.60155" lon="1.76106">
        <ele>2593.77</ele>
        <time>2013-03-23T10:28:08Z</time>
      </trkpt>
      <trkpt lat="42.60152" lon="1.76119">
        <ele>2593.77</ele>
        <time>2013-03-23T10:28:22Z</time>
      </trkpt>
      <trkpt lat="42.60149" lon="1.76131">
        <ele>2594.74</ele>
        <time>2013-03-23T10:28:35Z</time>
      </trkpt>
      <trkpt lat="42.60147" lon="1.76141">
        <ele>2596.18</ele>
        <time>2013-03-23T10:28:48Z</time>
      </trkpt>
      <trkpt lat="42.60146" lon="1.76149">
        <ele>2596.66</ele>
        <time>2013-03-23T10:28:59Z</time>
      </trkpt>
      <trkpt lat="42.60145" lon="1.76154">
        <ele>2597.14</ele>
        <time>2013-03-23T10:29:09Z</time>
      </trkpt>
      <trkpt lat="42.60142" lon="1.76163">
        <ele>2596.66</ele>
        <time>2013-03-23T10:29:20Z</time>
      </trkpt>
      <trkpt lat="42.60139" lon="1.76172">
        <ele>2597.62</ele>
        <time>2013-03-23T10:29:31Z</time>
      </trkpt>
      <trkpt lat="42.60137" lon="1.76183">
        <ele>2599.54</ele>
        <time>2013-03-23T10:29:43Z</time>
      </trkpt>
      <trkpt lat="42.60136" lon="1.76192">
        <ele>2601.46</ele>
        <time>2013-03-23T10:29:54Z</time>
      </trkpt>
      <trkpt lat="42.60133" lon="1.76199">
        <ele>2602.91</ele>
        <time>2013-03-23T10:30:05Z</time>
      </trkpt>
      <trkpt lat="42.6013" lon="1.76205">
        <ele>2604.35</ele>
        <time>2013-03-23T10:30:17Z</time>
      </trkpt>
      <trkpt lat="42.60129" lon="1.76211">
        <ele>2605.79</ele>
        <time>2013-03-23T10:30:28Z</time>
      </trkpt>
      <trkpt lat="42.60127" lon="1.7622">
        <ele>2606.75</ele>
        <time>2013-03-23T10:30:40Z</time>
      </trkpt>
      <trkpt lat="42.60127" lon="1.76227">
        <ele>2608.67</ele>
        <time>2013-03-23T10:30:52Z</time>
      </trkpt>
      <trkpt lat="42.60126" lon="1.76233">
        <ele>2610.12</ele>
        <time>2013-03-23T10:31:03Z</time>
      </trkpt>
      <trkpt lat="42.60124" lon="1.76241">
        <ele>2611.08</ele>
        <time>2013-03-23T10:31:14Z</time>
      </trkpt>
      <trkpt lat="42.60121" lon="1.76251">
        <ele>2612.04</ele>
        <time>2013-03-23T10:31:26Z</time>
      </trkpt>
      <trkpt lat="42.60119" lon="1.7626">
        <ele>2613</ele>
        <time>2013-03-23T10:31:38Z</time>
      </trkpt>
      <trkpt lat="42.60118" lon="1.76266">
        <ele>2613.96</ele>
        <time>2013-03-23T10:31:47Z</time>
      </trkpt>
      <trkpt lat="42.60116" lon="1.76275">
        <ele>2615.88</ele>
        <time>2013-03-23T10:31:59Z</time>
      </trkpt>
      <trkpt lat="42.60116" lon="1.76282">
        <ele>2617.33</ele>
        <time>2013-03-23T10:32:10Z</time>
      </trkpt>
      <trkpt lat="42.60114" lon="1.76288">
        <ele>2618.77</ele>
        <time>2013-03-23T10:32:22Z</time>
      </trkpt>
      <trkpt lat="42.60113" lon="1.76296">
        <ele>2621.17</ele>
        <time>2013-03-23T10:32:35Z</time>
      </trkpt>
      <trkpt lat="42.6011" lon="1.76301">
        <ele>2622.13</ele>
        <time>2013-03-23T10:32:46Z</time>
      </trkpt>
      <trkpt lat="42.60109" lon="1.76306">
        <ele>2623.09</ele>
        <time>2013-03-23T10:33:00Z</time>
      </trkpt>
      <trkpt lat="42.60109" lon="1.76314">
        <ele>2624.54</ele>
        <time>2013-03-23T10:33:11Z</time>
      </trkpt>
      <trkpt lat="42.60107" lon="1.76321">
        <ele>2625.02</ele>
        <time>2013-03-23T10:33:23Z</time>
      </trkpt>
      <trkpt lat="42.60108" lon="1.76325">
        <ele>2625.98</ele>
        <time>2013-03-23T10:33:33Z</time>
      </trkpt>
      <trkpt lat="42.60107" lon="1.76334">
        <ele>2626.46</ele>
        <time>2013-03-23T10:33:43Z</time>
      </trkpt>
      <trkpt lat="42.60105" lon="1.76342">
        <ele>2627.9</ele>
        <time>2013-03-23T10:33:54Z</time>
      </trkpt>
      <trkpt lat="42.60106" lon="1.76348">
        <ele>2628.86</ele>
        <time>2013-03-23T10:34:06Z</time>
      </trkpt>
      <trkpt lat="42.60107" lon="1.76355">
        <ele>2630.79</ele>
        <time>2013-03-23T10:34:18Z</time>
      </trkpt>
      <trkpt lat="42.60106" lon="1.76361">
        <ele>2631.27</ele>
        <time>2013-03-23T10:34:29Z</time>
      </trkpt>
      <trkpt lat="42.60107" lon="1.76364">
        <ele>2632.71</ele>
        <time>2013-03-23T10:34:40Z</time>
      </trkpt>
      <trkpt lat="42.60106" lon="1.76364">
        <ele>2631.75</ele>
        <time>2013-03-23T10:34:53Z</time>
      </trkpt>
      <trkpt lat="42.60106" lon="1.76364">
        <ele>2631.27</ele>
        <time>2013-03-23T10:35:08Z</time>
      </trkpt>
      <trkpt lat="42.60107" lon="1.76364">
        <ele>2630.3</ele>
        <time>2013-03-23T10:35:25Z</time>
      </trkpt>
      <trkpt lat="42.60107" lon="1.76363">
        <ele>2629.34</ele>
        <time>2013-03-23T10:35:42Z</time>
      </trkpt>
      <trkpt lat="42.60107" lon="1.76364">
        <ele>2629.34</ele>
        <time>2013-03-23T10:36:14Z</time>
      </trkpt>
      <trkpt lat="42.60107" lon="1.76365">
        <ele>2628.86</ele>
        <time>2013-03-23T10:36:30Z</time>
      </trkpt>
      <trkpt lat="42.60108" lon="1.76364">
        <ele>2628.86</ele>
        <time>2013-03-23T10:36:52Z</time>
      </trkpt>
      <trkpt lat="42.60107" lon="1.76365">
        <ele>2630.79</ele>
        <time>2013-03-23T10:37:15Z</time>
      </trkpt>
      <trkpt lat="42.60105" lon="1.76364">
        <ele>2630.79</ele>
        <time>2013-03-23T10:37:47Z</time>
      </trkpt>
      <trkpt lat="42.60105" lon="1.76364">
        <ele>2630.79</ele>
        <time>2013-03-23T10:38:25Z</time>
      </trkpt>
      <trkpt lat="42.60104" lon="1.76364">
        <ele>2630.79</ele>
        <time>2013-03-23T10:39:04Z</time>
      </trkpt>
      <trkpt lat="42.60104" lon="1.76364">
        <ele>2631.27</ele>
        <time>2013-03-23T10:39:37Z</time>
      </trkpt>
      <trkpt lat="42.60104" lon="1.76364">
        <ele>2630.79</ele>
        <time>2013-03-23T10:40:20Z</time>
      </trkpt>
      <trkpt lat="42.60105" lon="1.76365">
        <ele>2630.3</ele>
        <time>2013-03-23T10:40:54Z</time>
      </trkpt>
      <trkpt lat="42.60105" lon="1.76363">
        <ele>2629.34</ele>
        <time>2013-03-23T10:41:29Z</time>
      </trkpt>
      <trkpt lat="42.60108" lon="1.76364">
        <ele>2628.38</ele>
        <time>2013-03-23T10:42:07Z</time>
      </trkpt>
      <trkpt lat="42.6011" lon="1.76364">
        <ele>2631.27</ele>
        <time>2013-03-23T10:42:25Z</time>
      </trkpt>
      <trkpt lat="42.60109" lon="1.76366">
        <ele>2632.71</ele>
        <time>2013-03-23T10:42:48Z</time>
      </trkpt>
      <trkpt lat="42.60109" lon="1.76368">
        <ele>2636.55</ele>
        <time>2013-03-23T10:43:29Z</time>
      </trkpt>
      <trkpt lat="42.60109" lon="1.76368">
        <ele>2637.51</ele>
        <time>2013-03-23T10:44:08Z</time>
      </trkpt>
      <trkpt lat="42.60109" lon="1.76368">
        <ele>2637.03</ele>
        <time>2013-03-23T10:44:41Z</time>
      </trkpt>
      <trkpt lat="42.60108" lon="1.76368">
        <ele>2637.03</ele>
        <time>2013-03-23T10:45:14Z</time>
      </trkpt>
      <trkpt lat="42.60108" lon="1.76367">
        <ele>2636.55</ele>
        <time>2013-03-23T10:45:50Z</time>
      </trkpt>
      <trkpt lat="42.60109" lon="1.76368">
        <ele>2637.51</ele>
        <time>2013-03-23T10:46:18Z</time>
      </trkpt>
      <trkpt lat="42.60108" lon="1.76367">
        <ele>2637.51</ele>
        <time>2013-03-23T10:46:54Z</time>
      </trkpt>
      <trkpt lat="42.60108" lon="1.76368">
        <ele>2637.03</ele>
        <time>2013-03-23T10:47:29Z</time>
      </trkpt>
      <trkpt lat="42.6011" lon="1.76364">
        <ele>2635.59</ele>
        <time>2013-03-23T10:48:01Z</time>
      </trkpt>
      <trkpt lat="42.60109" lon="1.76363">
        <ele>2632.71</ele>
        <time>2013-03-23T10:48:11Z</time>
      </trkpt>
      <trkpt lat="42.60109" lon="1.76364">
        <ele>2634.15</ele>
        <time>2013-03-23T10:48:19Z</time>
      </trkpt>
      <trkpt lat="42.60107" lon="1.76363">
        <ele>2632.23</ele>
        <time>2013-03-23T10:48:37Z</time>
      </trkpt>
      <trkpt lat="42.60107" lon="1.76362">
        <ele>2632.23</ele>
        <time>2013-03-23T10:48:54Z</time>
      </trkpt>
      <trkpt lat="42.60108" lon="1.76362">
        <ele>2632.71</ele>
        <time>2013-03-23T10:49:15Z</time>
      </trkpt>
      <trkpt lat="42.60107" lon="1.7636">
        <ele>2630.79</ele>
        <time>2013-03-23T10:49:39Z</time>
      </trkpt>
      <trkpt lat="42.60108" lon="1.7636">
        <ele>2629.82</ele>
        <time>2013-03-23T10:49:57Z</time>
      </trkpt>
      <trkpt lat="42.60108" lon="1.76361">
        <ele>2630.3</ele>
        <time>2013-03-23T10:50:10Z</time>
      </trkpt>
      <trkpt lat="42.6011" lon="1.76362">
        <ele>2630.79</ele>
        <time>2013-03-23T10:50:21Z</time>
      </trkpt>
      <trkpt lat="42.60109" lon="1.76361">
        <ele>2630.79</ele>
        <time>2013-03-23T10:50:36Z</time>
      </trkpt>
      <trkpt lat="42.6011" lon="1.7636">
        <ele>2630.79</ele>
        <time>2013-03-23T10:51:04Z</time>
      </trkpt>
      <trkpt lat="42.60111" lon="1.76361">
        <ele>2632.23</ele>
        <time>2013-03-23T10:51:21Z</time>
      </trkpt>
      <trkpt lat="42.6011" lon="1.76362">
        <ele>2631.75</ele>
        <time>2013-03-23T10:51:40Z</time>
      </trkpt>
      <trkpt lat="42.60109" lon="1.76358">
        <ele>2631.27</ele>
        <time>2013-03-23T10:51:52Z</time>
      </trkpt>
      <trkpt lat="42.60108" lon="1.76354">
        <ele>2630.79</ele>
        <time>2013-03-23T10:52:06Z</time>
      </trkpt>
      <trkpt lat="42.60109" lon="1.76348">
        <ele>2629.82</ele>
        <time>2013-03-23T10:52:13Z</time>
      </trkpt>
      <trkpt lat="42.60113" lon="1.76327">
        <ele>2625.98</ele>
        <time>2013-03-23T10:52:29Z</time>
      </trkpt>
      <trkpt lat="42.60114" lon="1.76317">
        <ele>2624.06</ele>
        <time>2013-03-23T10:52:36Z</time>
      </trkpt>
      <trkpt lat="42.60119" lon="1.763">
        <ele>2621.65</ele>
        <time>2013-03-23T10:52:51Z</time>
      </trkpt>
      <trkpt lat="42.60121" lon="1.76296">
        <ele>2620.21</ele>
        <time>2013-03-23T10:52:55Z</time>
      </trkpt>
      <trkpt lat="42.60123" lon="1.76283">
        <ele>2618.29</ele>
        <time>2013-03-23T10:53:05Z</time>
      </trkpt>
      <trkpt lat="42.60124" lon="1.7628">
        <ele>2617.81</ele>
        <time>2013-03-23T10:53:07Z</time>
      </trkpt>
      <trkpt lat="42.60124" lon="1.76272">
        <ele>2617.33</ele>
        <time>2013-03-23T10:53:13Z</time>
      </trkpt>
      <trkpt lat="42.60125" lon="1.76257">
        <ele>2615.88</ele>
        <time>2013-03-23T10:53:24Z</time>
      </trkpt>
      <trkpt lat="42.60128" lon="1.76237">
        <ele>2612.52</ele>
        <time>2013-03-23T10:53:38Z</time>
      </trkpt>
      <trkpt lat="42.6013" lon="1.76218">
        <ele>2609.16</ele>
        <time>2013-03-23T10:53:52Z</time>
      </trkpt>
      <trkpt lat="42.6013" lon="1.76212">
        <ele>2608.19</ele>
        <time>2013-03-23T10:53:56Z</time>
      </trkpt>
      <trkpt lat="42.60137" lon="1.76196">
        <ele>2604.35</ele>
        <time>2013-03-23T10:54:11Z</time>
      </trkpt>
      <trkpt lat="42.60145" lon="1.76178">
        <ele>2600.98</ele>
        <time>2013-03-23T10:54:25Z</time>
      </trkpt>
      <trkpt lat="42.60147" lon="1.76174">
        <ele>2600.02</ele>
        <time>2013-03-23T10:54:28Z</time>
      </trkpt>
      <trkpt lat="42.60151" lon="1.76155">
        <ele>2599.06</ele>
        <time>2013-03-23T10:54:44Z</time>
      </trkpt>
      <trkpt lat="42.60154" lon="1.76144">
        <ele>2597.62</ele>
        <time>2013-03-23T10:54:52Z</time>
      </trkpt>
      <trkpt lat="42.60157" lon="1.76135">
        <ele>2596.18</ele>
        <time>2013-03-23T10:55:01Z</time>
      </trkpt>
      <trkpt lat="42.60161" lon="1.76116">
        <ele>2594.74</ele>
        <time>2013-03-23T10:55:15Z</time>
      </trkpt>
      <trkpt lat="42.60165" lon="1.76098">
        <ele>2593.77</ele>
        <time>2013-03-23T10:55:30Z</time>
      </trkpt>
      <trkpt lat="42.60167" lon="1.76087">
        <ele>2592.81</ele>
        <time>2013-03-23T10:55:43Z</time>
      </trkpt>
      <trkpt lat="42.6017" lon="1.76072">
        <ele>2592.33</ele>
        <time>2013-03-23T10:55:57Z</time>
      </trkpt>
      <trkpt lat="42.60174" lon="1.76054">
        <ele>2590.41</ele>
        <time>2013-03-23T10:56:12Z</time>
      </trkpt>
      <trkpt lat="42.60175" lon="1.76048">
        <ele>2589.45</ele>
        <time>2013-03-23T10:56:18Z</time>
      </trkpt>
      <trkpt lat="42.6018" lon="1.7603">
        <ele>2588.01</ele>
        <time>2013-03-23T10:56:33Z</time>
      </trkpt>
      <trkpt lat="42.60187" lon="1.76019">
        <ele>2586.56</ele>
        <time>2013-03-23T10:56:46Z</time>
      </trkpt>
      <trkpt lat="42.60191" lon="1.76011">
        <ele>2585.6</ele>
        <time>2013-03-23T10:56:55Z</time>
      </trkpt>
      <trkpt lat="42.60203" lon="1.7599">
        <ele>2580.8</ele>
        <time>2013-03-23T10:57:13Z</time>
      </trkpt>
      <trkpt lat="42.60209" lon="1.75981">
        <ele>2579.35</ele>
        <time>2013-03-23T10:57:28Z</time>
      </trkpt>
      <trkpt lat="42.60214" lon="1.7597">
        <ele>2577.91</ele>
        <time>2013-03-23T10:57:41Z</time>
      </trkpt>
      <trkpt lat="42.60217" lon="1.75961">
        <ele>2575.99</ele>
        <time>2013-03-23T10:57:54Z</time>
      </trkpt>
      <trkpt lat="42.60219" lon="1.75952">
        <ele>2575.51</ele>
        <time>2013-03-23T10:58:06Z</time>
      </trkpt>
      <trkpt lat="42.6022" lon="1.75939">
        <ele>2575.51</ele>
        <time>2013-03-23T10:58:20Z</time>
      </trkpt>
      <trkpt lat="42.60224" lon="1.75922">
        <ele>2573.11</ele>
        <time>2013-03-23T10:58:37Z</time>
      </trkpt>
      <trkpt lat="42.60225" lon="1.75915">
        <ele>2571.66</ele>
        <time>2013-03-23T10:58:50Z</time>
      </trkpt>
      <trkpt lat="42.60225" lon="1.75908">
        <ele>2570.7</ele>
        <time>2013-03-23T10:59:02Z</time>
      </trkpt>
      <trkpt lat="42.60227" lon="1.75902">
        <ele>2569.74</ele>
        <time>2013-03-23T10:59:13Z</time>
      </trkpt>
      <trkpt lat="42.60228" lon="1.75895">
        <ele>2569.26</ele>
        <time>2013-03-23T10:59:23Z</time>
      </trkpt>
      <trkpt lat="42.60229" lon="1.75885">
        <ele>2567.82</ele>
        <time>2013-03-23T10:59:36Z</time>
      </trkpt>
      <trkpt lat="42.6023" lon="1.75874">
        <ele>2566.38</ele>
        <time>2013-03-23T10:59:50Z</time>
      </trkpt>
      <trkpt lat="42.60231" lon="1.75865">
        <ele>2564.45</ele>
        <time>2013-03-23T11:00:01Z</time>
      </trkpt>
      <trkpt lat="42.60231" lon="1.75858">
        <ele>2562.05</ele>
        <time>2013-03-23T11:00:13Z</time>
      </trkpt>
      <trkpt lat="42.60232" lon="1.75851">
        <ele>2561.09</ele>
        <time>2013-03-23T11:00:24Z</time>
      </trkpt>
      <trkpt lat="42.60231" lon="1.75844">
        <ele>2560.13</ele>
        <time>2013-03-23T11:00:34Z</time>
      </trkpt>
      <trkpt lat="42.6023" lon="1.7583">
        <ele>2556.76</ele>
        <time>2013-03-23T11:00:48Z</time>
      </trkpt>
      <trkpt lat="42.6023" lon="1.75826">
        <ele>2556.28</ele>
        <time>2013-03-23T11:00:53Z</time>
      </trkpt>
      <trkpt lat="42.6023" lon="1.75813">
        <ele>2552.92</ele>
        <time>2013-03-23T11:01:08Z</time>
      </trkpt>
      <trkpt lat="42.60228" lon="1.75807">
        <ele>2552.44</ele>
        <time>2013-03-23T11:01:22Z</time>
      </trkpt>
      <trkpt lat="42.60226" lon="1.75799">
        <ele>2551.48</ele>
        <time>2013-03-23T11:01:34Z</time>
      </trkpt>
      <trkpt lat="42.60225" lon="1.7579">
        <ele>2549.07</ele>
        <time>2013-03-23T11:01:56Z</time>
      </trkpt>
      <trkpt lat="42.60225" lon="1.75779">
        <ele>2547.15</ele>
        <time>2013-03-23T11:02:08Z</time>
      </trkpt>
      <trkpt lat="42.60226" lon="1.75763">
        <ele>2544.27</ele>
        <time>2013-03-23T11:02:23Z</time>
      </trkpt>
      <trkpt lat="42.60226" lon="1.75758">
        <ele>2542.82</ele>
        <time>2013-03-23T11:02:27Z</time>
      </trkpt>
      <trkpt lat="42.60226" lon="1.75752">
        <ele>2541.86</ele>
        <time>2013-03-23T11:02:31Z</time>
      </trkpt>
      <trkpt lat="42.60228" lon="1.75746">
        <ele>2540.42</ele>
        <time>2013-03-23T11:02:36Z</time>
      </trkpt>
      <trkpt lat="42.60228" lon="1.75743">
        <ele>2539.46</ele>
        <time>2013-03-23T11:02:38Z</time>
      </trkpt>
      <trkpt lat="42.60232" lon="1.75737">
        <ele>2537.06</ele>
        <time>2013-03-23T11:02:45Z</time>
      </trkpt>
      <trkpt lat="42.60234" lon="1.75729">
        <ele>2536.1</ele>
        <time>2013-03-23T11:02:52Z</time>
      </trkpt>
      <trkpt lat="42.6024" lon="1.75716">
        <ele>2532.25</ele>
        <time>2013-03-23T11:03:04Z</time>
      </trkpt>
      <trkpt lat="42.6024" lon="1.75711">
        <ele>2531.29</ele>
        <time>2013-03-23T11:03:08Z</time>
      </trkpt>
      <trkpt lat="42.60244" lon="1.75698">
        <ele>2527.92</ele>
        <time>2013-03-23T11:03:20Z</time>
      </trkpt>
      <trkpt lat="42.60247" lon="1.75691">
        <ele>2526.48</ele>
        <time>2013-03-23T11:03:26Z</time>
      </trkpt>
      <trkpt lat="42.60255" lon="1.75674">
        <ele>2525.52</ele>
        <time>2013-03-23T11:03:42Z</time>
      </trkpt>
      <trkpt lat="42.6026" lon="1.75662">
        <ele>2522.64</ele>
        <time>2013-03-23T11:03:52Z</time>
      </trkpt>
      <trkpt lat="42.60263" lon="1.75649">
        <ele>2521.68</ele>
        <time>2013-03-23T11:04:03Z</time>
      </trkpt>
      <trkpt lat="42.60264" lon="1.75633">
        <ele>2519.75</ele>
        <time>2013-03-23T11:04:15Z</time>
      </trkpt>
      <trkpt lat="42.6027" lon="1.75615">
        <ele>2519.27</ele>
        <time>2013-03-23T11:04:28Z</time>
      </trkpt>
      <trkpt lat="42.60276" lon="1.75603">
        <ele>2516.87</ele>
        <time>2013-03-23T11:04:44Z</time>
      </trkpt>
      <trkpt lat="42.60276" lon="1.75602">
        <ele>2516.39</ele>
        <time>2013-03-23T11:05:04Z</time>
      </trkpt>
      <trkpt lat="42.60277" lon="1.75601">
        <ele>2514.95</ele>
        <time>2013-03-23T11:05:39Z</time>
      </trkpt>
      <trkpt lat="42.60278" lon="1.75597">
        <ele>2513.5</ele>
        <time>2013-03-23T11:05:57Z</time>
      </trkpt>
      <trkpt lat="42.6028" lon="1.75585">
        <ele>2511.58</ele>
        <time>2013-03-23T11:06:11Z</time>
      </trkpt>
      <trkpt lat="42.60282" lon="1.75575">
        <ele>2508.7</ele>
        <time>2013-03-23T11:06:20Z</time>
      </trkpt>
      <trkpt lat="42.60282" lon="1.75572">
        <ele>2508.22</ele>
        <time>2013-03-23T11:06:22Z</time>
      </trkpt>
      <trkpt lat="42.60282" lon="1.7557">
        <ele>2507.74</ele>
        <time>2013-03-23T11:06:24Z</time>
      </trkpt>
      <trkpt lat="42.60283" lon="1.75564">
        <ele>2506.77</ele>
        <time>2013-03-23T11:06:29Z</time>
      </trkpt>
      <trkpt lat="42.6028" lon="1.75558">
        <ele>2503.89</ele>
        <time>2013-03-23T11:06:42Z</time>
      </trkpt>
      <trkpt lat="42.60276" lon="1.75548">
        <ele>2501.97</ele>
        <time>2013-03-23T11:06:54Z</time>
      </trkpt>
      <trkpt lat="42.60281" lon="1.75541">
        <ele>2498.12</ele>
        <time>2013-03-23T11:07:06Z</time>
      </trkpt>
      <trkpt lat="42.60289" lon="1.75536">
        <ele>2492.84</ele>
        <time>2013-03-23T11:07:17Z</time>
      </trkpt>
      <trkpt lat="42.60294" lon="1.75533">
        <ele>2488.99</ele>
        <time>2013-03-23T11:07:29Z</time>
      </trkpt>
      <trkpt lat="42.60303" lon="1.75533">
        <ele>2484.66</ele>
        <time>2013-03-23T11:07:41Z</time>
      </trkpt>
      <trkpt lat="42.60307" lon="1.75534">
        <ele>2482.74</ele>
        <time>2013-03-23T11:07:51Z</time>
      </trkpt>
      <trkpt lat="42.60313" lon="1.75537">
        <ele>2480.34</ele>
        <time>2013-03-23T11:08:00Z</time>
      </trkpt>
      <trkpt lat="42.60317" lon="1.75536">
        <ele>2478.9</ele>
        <time>2013-03-23T11:08:04Z</time>
      </trkpt>
      <trkpt lat="42.60319" lon="1.75533">
        <ele>2477.45</ele>
        <time>2013-03-23T11:08:08Z</time>
      </trkpt>
      <trkpt lat="42.60326" lon="1.75538">
        <ele>2475.05</ele>
        <time>2013-03-23T11:08:16Z</time>
      </trkpt>
      <trkpt lat="42.60328" lon="1.75538">
        <ele>2474.57</ele>
        <time>2013-03-23T11:08:18Z</time>
      </trkpt>
      <trkpt lat="42.60329" lon="1.75537">
        <ele>2473.61</ele>
        <time>2013-03-23T11:08:20Z</time>
      </trkpt>
      <trkpt lat="42.60335" lon="1.75524">
        <ele>2471.21</ele>
        <time>2013-03-23T11:08:33Z</time>
      </trkpt>
      <trkpt lat="42.60339" lon="1.75522">
        <ele>2470.24</ele>
        <time>2013-03-23T11:08:37Z</time>
      </trkpt>
      <trkpt lat="42.60346" lon="1.75525">
        <ele>2467.84</ele>
        <time>2013-03-23T11:08:43Z</time>
      </trkpt>
      <trkpt lat="42.60352" lon="1.75524">
        <ele>2465.44</ele>
        <time>2013-03-23T11:08:49Z</time>
      </trkpt>
      <trkpt lat="42.60362" lon="1.75517">
        <ele>2462.55</ele>
        <time>2013-03-23T11:09:02Z</time>
      </trkpt>
      <trkpt lat="42.60371" lon="1.7552">
        <ele>2459.19</ele>
        <time>2013-03-23T11:09:15Z</time>
      </trkpt>
      <trkpt lat="42.60378" lon="1.75522">
        <ele>2456.31</ele>
        <time>2013-03-23T11:09:25Z</time>
      </trkpt>
      <trkpt lat="42.6038" lon="1.75521">
        <ele>2455.34</ele>
        <time>2013-03-23T11:09:28Z</time>
      </trkpt>
      <trkpt lat="42.60382" lon="1.75518">
        <ele>2453.9</ele>
        <time>2013-03-23T11:09:31Z</time>
      </trkpt>
      <trkpt lat="42.60386" lon="1.75519">
        <ele>2452.94</ele>
        <time>2013-03-23T11:09:36Z</time>
      </trkpt>
      <trkpt lat="42.60388" lon="1.75519">
        <ele>2452.46</ele>
        <time>2013-03-23T11:09:38Z</time>
      </trkpt>
      <trkpt lat="42.6039" lon="1.7552">
        <ele>2451.98</ele>
        <time>2013-03-23T11:09:40Z</time>
      </trkpt>
      <trkpt lat="42.60391" lon="1.75519">
        <ele>2451.5</ele>
        <time>2013-03-23T11:09:43Z</time>
      </trkpt>
      <trkpt lat="42.60398" lon="1.75517">
        <ele>2450.06</ele>
        <time>2013-03-23T11:09:50Z</time>
      </trkpt>
      <trkpt lat="42.60402" lon="1.75521">
        <ele>2448.13</ele>
        <time>2013-03-23T11:09:56Z</time>
      </trkpt>
      <trkpt lat="42.6041" lon="1.75516">
        <ele>2444.29</ele>
        <time>2013-03-23T11:10:06Z</time>
      </trkpt>
      <trkpt lat="42.60413" lon="1.75518">
        <ele>2443.81</ele>
        <time>2013-03-23T11:10:09Z</time>
      </trkpt>
      <trkpt lat="42.60417" lon="1.75518">
        <ele>2440.92</ele>
        <time>2013-03-23T11:10:20Z</time>
      </trkpt>
      <trkpt lat="42.60417" lon="1.75515">
        <ele>2440.44</ele>
        <time>2013-03-23T11:10:28Z</time>
      </trkpt>
      <trkpt lat="42.60426" lon="1.75509">
        <ele>2438.52</ele>
        <time>2013-03-23T11:10:40Z</time>
      </trkpt>
      <trkpt lat="42.60433" lon="1.75512">
        <ele>2437.08</ele>
        <time>2013-03-23T11:10:52Z</time>
      </trkpt>
      <trkpt lat="42.60432" lon="1.75509">
        <ele>2438.04</ele>
        <time>2013-03-23T11:11:16Z</time>
      </trkpt>
      <trkpt lat="42.60431" lon="1.75509">
        <ele>2434.68</ele>
        <time>2013-03-23T11:11:26Z</time>
      </trkpt>
      <trkpt lat="42.60431" lon="1.75509">
        <ele>2434.2</ele>
        <time>2013-03-23T11:11:51Z</time>
      </trkpt>
      <trkpt lat="42.60432" lon="1.7551">
        <ele>2436.6</ele>
        <time>2013-03-23T11:12:27Z</time>
      </trkpt>
      <trkpt lat="42.60432" lon="1.7551">
        <ele>2436.6</ele>
        <time>2013-03-23T11:12:56Z</time>
      </trkpt>
      <trkpt lat="42.60431" lon="1.75508">
        <ele>2437.56</ele>
        <time>2013-03-23T11:13:22Z</time>
      </trkpt>
      <trkpt lat="42.6043" lon="1.75507">
        <ele>2438.52</ele>
        <time>2013-03-23T11:14:01Z</time>
      </trkpt>
      <trkpt lat="42.60431" lon="1.75509">
        <ele>2441.89</ele>
        <time>2013-03-23T11:14:44Z</time>
      </trkpt>
      <trkpt lat="42.60432" lon="1.75511">
        <ele>2437.56</ele>
        <time>2013-03-23T11:15:31Z</time>
      </trkpt>
      <trkpt lat="42.60433" lon="1.75512">
        <ele>2436.6</ele>
        <time>2013-03-23T11:15:54Z</time>
      </trkpt>
      <trkpt lat="42.60431" lon="1.7551">
        <ele>2437.08</ele>
        <time>2013-03-23T11:16:15Z</time>
      </trkpt>
      <trkpt lat="42.6043" lon="1.75508">
        <ele>2437.56</ele>
        <time>2013-03-23T11:16:48Z</time>
      </trkpt>
      <trkpt lat="42.60431" lon="1.75508">
        <ele>2437.56</ele>
        <time>2013-03-23T11:17:11Z</time>
      </trkpt>
      <trkpt lat="42.60431" lon="1.75508">
        <ele>2439.48</ele>
        <time>2013-03-23T11:17:50Z</time>
      </trkpt>
      <trkpt lat="42.60431" lon="1.75507">
        <ele>2438.52</ele>
        <time>2013-03-23T11:18:07Z</time>
      </trkpt>
      <trkpt lat="42.60431" lon="1.75513">
        <ele>2437.56</ele>
        <time>2013-03-23T11:18:18Z</time>
      </trkpt>
      <trkpt lat="42.60431" lon="1.75511">
        <ele>2437.56</ele>
        <time>2013-03-23T11:18:31Z</time>
      </trkpt>
      <trkpt lat="42.60432" lon="1.75512">
        <ele>2437.08</ele>
        <time>2013-03-23T11:18:42Z</time>
      </trkpt>
      <trkpt lat="42.60431" lon="1.75512">
        <ele>2436.12</ele>
        <time>2013-03-23T11:18:51Z</time>
      </trkpt>
      <trkpt lat="42.60431" lon="1.75509">
        <ele>2439.48</ele>
        <time>2013-03-23T11:18:58Z</time>
      </trkpt>
      <trkpt lat="42.6043" lon="1.7551">
        <ele>2439.48</ele>
        <time>2013-03-23T11:19:11Z</time>
      </trkpt>
      <trkpt lat="42.6043" lon="1.75513">
        <ele>2438.04</ele>
        <time>2013-03-23T11:19:24Z</time>
      </trkpt>
      <trkpt lat="42.60428" lon="1.75508">
        <ele>2439</ele>
        <time>2013-03-23T11:19:36Z</time>
      </trkpt>
      <trkpt lat="42.60429" lon="1.75511">
        <ele>2439</ele>
        <time>2013-03-23T11:19:43Z</time>
      </trkpt>
      <trkpt lat="42.60429" lon="1.75515">
        <ele>2438.04</ele>
        <time>2013-03-23T11:19:45Z</time>
      </trkpt>
      <trkpt lat="42.60429" lon="1.75518">
        <ele>2437.56</ele>
        <time>2013-03-23T11:19:46Z</time>
      </trkpt>
      <trkpt lat="42.60428" lon="1.75521">
        <ele>2436.6</ele>
        <time>2013-03-23T11:19:47Z</time>
      </trkpt>
      <trkpt lat="42.60429" lon="1.75524">
        <ele>2436.12</ele>
        <time>2013-03-23T11:19:48Z</time>
      </trkpt>
      <trkpt lat="42.60432" lon="1.75525">
        <ele>2435.16</ele>
        <time>2013-03-23T11:19:49Z</time>
      </trkpt>
      <trkpt lat="42.60434" lon="1.75527">
        <ele>2434.2</ele>
        <time>2013-03-23T11:19:50Z</time>
      </trkpt>
      <trkpt lat="42.60434" lon="1.75529">
        <ele>2433.71</ele>
        <time>2013-03-23T11:19:51Z</time>
      </trkpt>
      <trkpt lat="42.60428" lon="1.75535">
        <ele>2430.35</ele>
        <time>2013-03-23T11:19:59Z</time>
      </trkpt>
      <trkpt lat="42.60417" lon="1.75542">
        <ele>2426.02</ele>
        <time>2013-03-23T11:20:05Z</time>
      </trkpt>
      <trkpt lat="42.60416" lon="1.75546">
        <ele>2425.06</ele>
        <time>2013-03-23T11:20:07Z</time>
      </trkpt>
      <trkpt lat="42.60418" lon="1.75549">
        <ele>2424.1</ele>
        <time>2013-03-23T11:20:08Z</time>
      </trkpt>
      <trkpt lat="42.6042" lon="1.75549">
        <ele>2423.14</ele>
        <time>2013-03-23T11:20:09Z</time>
      </trkpt>
      <trkpt lat="42.60423" lon="1.75549">
        <ele>2422.18</ele>
        <time>2013-03-23T11:20:10Z</time>
      </trkpt>
      <trkpt lat="42.60427" lon="1.75551">
        <ele>2421.22</ele>
        <time>2013-03-23T11:20:11Z</time>
      </trkpt>
      <trkpt lat="42.60428" lon="1.75554">
        <ele>2420.26</ele>
        <time>2013-03-23T11:20:12Z</time>
      </trkpt>
      <trkpt lat="42.60426" lon="1.75558">
        <ele>2419.3</ele>
        <time>2013-03-23T11:20:13Z</time>
      </trkpt>
      <trkpt lat="42.60427" lon="1.75562">
        <ele>2418.33</ele>
        <time>2013-03-23T11:20:14Z</time>
      </trkpt>
      <trkpt lat="42.6043" lon="1.75565">
        <ele>2416.89</ele>
        <time>2013-03-23T11:20:15Z</time>
      </trkpt>
      <trkpt lat="42.60434" lon="1.7557">
        <ele>2415.93</ele>
        <time>2013-03-23T11:20:16Z</time>
      </trkpt>
      <trkpt lat="42.60437" lon="1.75583">
        <ele>2412.09</ele>
        <time>2013-03-23T11:20:18Z</time>
      </trkpt>
      <trkpt lat="42.60445" lon="1.7559">
        <ele>2407.76</ele>
        <time>2013-03-23T11:20:20Z</time>
      </trkpt>
      <trkpt lat="42.60447" lon="1.75593">
        <ele>2405.84</ele>
        <time>2013-03-23T11:20:21Z</time>
      </trkpt>
      <trkpt lat="42.60446" lon="1.75598">
        <ele>2403.91</ele>
        <time>2013-03-23T11:20:22Z</time>
      </trkpt>
      <trkpt lat="42.60443" lon="1.75602">
        <ele>2402.95</ele>
        <time>2013-03-23T11:20:23Z</time>
      </trkpt>
      <trkpt lat="42.60435" lon="1.75616">
        <ele>2400.07</ele>
        <time>2013-03-23T11:20:26Z</time>
      </trkpt>
      <trkpt lat="42.60423" lon="1.75651">
        <ele>2396.22</ele>
        <time>2013-03-23T11:20:33Z</time>
      </trkpt>
      <trkpt lat="42.60429" lon="1.75679">
        <ele>2390.94</ele>
        <time>2013-03-23T11:20:39Z</time>
      </trkpt>
      <trkpt lat="42.60436" lon="1.75693">
        <ele>2387.09</ele>
        <time>2013-03-23T11:20:43Z</time>
      </trkpt>
      <trkpt lat="42.60438" lon="1.75698">
        <ele>2386.13</ele>
        <time>2013-03-23T11:20:44Z</time>
      </trkpt>
      <trkpt lat="42.60438" lon="1.75703">
        <ele>2385.65</ele>
        <time>2013-03-23T11:20:45Z</time>
      </trkpt>
      <trkpt lat="42.6045" lon="1.75735">
        <ele>2379.88</ele>
        <time>2013-03-23T11:20:52Z</time>
      </trkpt>
      <trkpt lat="42.60461" lon="1.75751">
        <ele>2375.55</ele>
        <time>2013-03-23T11:20:56Z</time>
      </trkpt>
      <trkpt lat="42.60461" lon="1.75757">
        <ele>2374.59</ele>
        <time>2013-03-23T11:20:57Z</time>
      </trkpt>
      <trkpt lat="42.60461" lon="1.75763">
        <ele>2374.11</ele>
        <time>2013-03-23T11:20:58Z</time>
      </trkpt>
      <trkpt lat="42.60463" lon="1.75769">
        <ele>2373.15</ele>
        <time>2013-03-23T11:20:59Z</time>
      </trkpt>
      <trkpt lat="42.60477" lon="1.75786">
        <ele>2367.38</ele>
        <time>2013-03-23T11:21:04Z</time>
      </trkpt>
      <trkpt lat="42.60481" lon="1.75788">
        <ele>2366.42</ele>
        <time>2013-03-23T11:21:05Z</time>
      </trkpt>
      <trkpt lat="42.60483" lon="1.75794">
        <ele>2364.98</ele>
        <time>2013-03-23T11:21:06Z</time>
      </trkpt>
      <trkpt lat="42.60484" lon="1.758">
        <ele>2364.02</ele>
        <time>2013-03-23T11:21:07Z</time>
      </trkpt>
      <trkpt lat="42.60486" lon="1.75805">
        <ele>2363.06</ele>
        <time>2013-03-23T11:21:08Z</time>
      </trkpt>
      <trkpt lat="42.60491" lon="1.75807">
        <ele>2362.1</ele>
        <time>2013-03-23T11:21:09Z</time>
      </trkpt>
      <trkpt lat="42.60494" lon="1.75812">
        <ele>2360.65</ele>
        <time>2013-03-23T11:21:10Z</time>
      </trkpt>
      <trkpt lat="42.60495" lon="1.75821">
        <ele>2355.37</ele>
        <time>2013-03-23T11:21:15Z</time>
      </trkpt>
      <trkpt lat="42.60495" lon="1.75819">
        <ele>2350.56</ele>
        <time>2013-03-23T11:21:23Z</time>
      </trkpt>
      <trkpt lat="42.60506" lon="1.75819">
        <ele>2350.08</ele>
        <time>2013-03-23T11:21:27Z</time>
      </trkpt>
      <trkpt lat="42.60511" lon="1.75819">
        <ele>2349.12</ele>
        <time>2013-03-23T11:21:34Z</time>
      </trkpt>
      <trkpt lat="42.60519" lon="1.75821">
        <ele>2349.12</ele>
        <time>2013-03-23T11:21:39Z</time>
      </trkpt>
      <trkpt lat="42.6052" lon="1.75825">
        <ele>2348.64</ele>
        <time>2013-03-23T11:21:40Z</time>
      </trkpt>
      <trkpt lat="42.60521" lon="1.75828">
        <ele>2348.16</ele>
        <time>2013-03-23T11:21:41Z</time>
      </trkpt>
      <trkpt lat="42.60523" lon="1.7583">
        <ele>2347.68</ele>
        <time>2013-03-23T11:21:42Z</time>
      </trkpt>
      <trkpt lat="42.60527" lon="1.75831">
        <ele>2347.2</ele>
        <time>2013-03-23T11:21:43Z</time>
      </trkpt>
      <trkpt lat="42.60533" lon="1.75829">
        <ele>2346.23</ele>
        <time>2013-03-23T11:21:45Z</time>
      </trkpt>
      <trkpt lat="42.60541" lon="1.75827">
        <ele>2345.75</ele>
        <time>2013-03-23T11:21:47Z</time>
      </trkpt>
      <trkpt lat="42.60544" lon="1.75829">
        <ele>2345.27</ele>
        <time>2013-03-23T11:21:48Z</time>
      </trkpt>
      <trkpt lat="42.60544" lon="1.75834">
        <ele>2345.27</ele>
        <time>2013-03-23T11:21:49Z</time>
      </trkpt>
      <trkpt lat="42.60545" lon="1.75838">
        <ele>2344.79</ele>
        <time>2013-03-23T11:21:50Z</time>
      </trkpt>
      <trkpt lat="42.60548" lon="1.75841">
        <ele>2343.83</ele>
        <time>2013-03-23T11:21:51Z</time>
      </trkpt>
      <trkpt lat="42.6055" lon="1.75846">
        <ele>2343.35</ele>
        <time>2013-03-23T11:21:52Z</time>
      </trkpt>
      <trkpt lat="42.60548" lon="1.75851">
        <ele>2342.39</ele>
        <time>2013-03-23T11:21:53Z</time>
      </trkpt>
      <trkpt lat="42.60545" lon="1.75855">
        <ele>2341.91</ele>
        <time>2013-03-23T11:21:54Z</time>
      </trkpt>
      <trkpt lat="42.60543" lon="1.75859">
        <ele>2341.43</ele>
        <time>2013-03-23T11:21:55Z</time>
      </trkpt>
      <trkpt lat="42.60542" lon="1.75864">
        <ele>2340.95</ele>
        <time>2013-03-23T11:21:56Z</time>
      </trkpt>
      <trkpt lat="42.60543" lon="1.75868">
        <ele>2340.47</ele>
        <time>2013-03-23T11:21:57Z</time>
      </trkpt>
      <trkpt lat="42.60546" lon="1.7587">
        <ele>2340.47</ele>
        <time>2013-03-23T11:21:58Z</time>
      </trkpt>
      <trkpt lat="42.60553" lon="1.7587">
        <ele>2339.51</ele>
        <time>2013-03-23T11:22:00Z</time>
      </trkpt>
      <trkpt lat="42.60559" lon="1.75864">
        <ele>2338.06</ele>
        <time>2013-03-23T11:22:10Z</time>
      </trkpt>
      <trkpt lat="42.6056" lon="1.75864">
        <ele>2338.54</ele>
        <time>2013-03-23T11:22:13Z</time>
      </trkpt>
      <trkpt lat="42.60568" lon="1.75866">
        <ele>2337.58</ele>
        <time>2013-03-23T11:22:17Z</time>
      </trkpt>
      <trkpt lat="42.60583" lon="1.75881">
        <ele>2334.22</ele>
        <time>2013-03-23T11:22:24Z</time>
      </trkpt>
      <trkpt lat="42.6059" lon="1.75898">
        <ele>2330.37</ele>
        <time>2013-03-23T11:22:30Z</time>
      </trkpt>
      <trkpt lat="42.60593" lon="1.75893">
        <ele>2330.37</ele>
        <time>2013-03-23T11:22:33Z</time>
      </trkpt>
      <trkpt lat="42.60604" lon="1.75885">
        <ele>2332.3</ele>
        <time>2013-03-23T11:22:42Z</time>
      </trkpt>
      <trkpt lat="42.60607" lon="1.75874">
        <ele>2331.81</ele>
        <time>2013-03-23T11:22:46Z</time>
      </trkpt>
      <trkpt lat="42.60611" lon="1.75865">
        <ele>2331.33</ele>
        <time>2013-03-23T11:22:48Z</time>
      </trkpt>
      <trkpt lat="42.60619" lon="1.75873">
        <ele>2327.01</ele>
        <time>2013-03-23T11:22:54Z</time>
      </trkpt>
      <trkpt lat="42.60622" lon="1.75869">
        <ele>2325.09</ele>
        <time>2013-03-23T11:22:56Z</time>
      </trkpt>
      <trkpt lat="42.60629" lon="1.75855">
        <ele>2322.68</ele>
        <time>2013-03-23T11:22:59Z</time>
      </trkpt>
      <trkpt lat="42.60636" lon="1.75844">
        <ele>2320.76</ele>
        <time>2013-03-23T11:23:01Z</time>
      </trkpt>
      <trkpt lat="42.60651" lon="1.75846">
        <ele>2316.43</ele>
        <time>2013-03-23T11:23:07Z</time>
      </trkpt>
      <trkpt lat="42.6065" lon="1.75848">
        <ele>2314.03</ele>
        <time>2013-03-23T11:23:15Z</time>
      </trkpt>
      <trkpt lat="42.6065" lon="1.75848">
        <ele>2313.55</ele>
        <time>2013-03-23T11:23:16Z</time>
      </trkpt>
      <trkpt lat="42.60651" lon="1.75857">
        <ele>2313.07</ele>
        <time>2013-03-23T11:23:20Z</time>
      </trkpt>
      <trkpt lat="42.60656" lon="1.75862">
        <ele>2311.15</ele>
        <time>2013-03-23T11:23:25Z</time>
      </trkpt>
      <trkpt lat="42.60676" lon="1.75847">
        <ele>2308.26</ele>
        <time>2013-03-23T11:23:38Z</time>
      </trkpt>
      <trkpt lat="42.60687" lon="1.75848">
        <ele>2309.22</ele>
        <time>2013-03-23T11:23:45Z</time>
      </trkpt>
      <trkpt lat="42.60688" lon="1.75856">
        <ele>2307.3</ele>
        <time>2013-03-23T11:23:52Z</time>
      </trkpt>
      <trkpt lat="42.60694" lon="1.75873">
        <ele>2303.94</ele>
        <time>2013-03-23T11:23:59Z</time>
      </trkpt>
      <trkpt lat="42.60708" lon="1.759">
        <ele>2299.61</ele>
        <time>2013-03-23T11:24:05Z</time>
      </trkpt>
      <trkpt lat="42.60726" lon="1.7593">
        <ele>2295.28</ele>
        <time>2013-03-23T11:24:15Z</time>
      </trkpt>
      <trkpt lat="42.60746" lon="1.7595">
        <ele>2292.4</ele>
        <time>2013-03-23T11:24:22Z</time>
      </trkpt>
      <trkpt lat="42.60777" lon="1.75993">
        <ele>2289.52</ele>
        <time>2013-03-23T11:24:33Z</time>
      </trkpt>
      <trkpt lat="42.60794" lon="1.76023">
        <ele>2292.88</ele>
        <time>2013-03-23T11:24:43Z</time>
      </trkpt>
      <trkpt lat="42.6081" lon="1.76048">
        <ele>2297.69</ele>
        <time>2013-03-23T11:24:55Z</time>
      </trkpt>
      <trkpt lat="42.60822" lon="1.76081">
        <ele>2303.46</ele>
        <time>2013-03-23T11:25:13Z</time>
      </trkpt>
      <trkpt lat="42.60818" lon="1.76087">
        <ele>2303.94</ele>
        <time>2013-03-23T11:25:25Z</time>
      </trkpt>
      <trkpt lat="42.60814" lon="1.76089">
        <ele>2301.05</ele>
        <time>2013-03-23T11:25:36Z</time>
      </trkpt>
      <trkpt lat="42.60814" lon="1.76087">
        <ele>2301.53</ele>
        <time>2013-03-23T11:25:52Z</time>
      </trkpt>
      <trkpt lat="42.60817" lon="1.76088">
        <ele>2300.57</ele>
        <time>2013-03-23T11:26:01Z</time>
      </trkpt>
      <trkpt lat="42.60815" lon="1.76088">
        <ele>2300.57</ele>
        <time>2013-03-23T11:26:22Z</time>
      </trkpt>
      <trkpt lat="42.60817" lon="1.76087">
        <ele>2303.46</ele>
        <time>2013-03-23T11:26:47Z</time>
      </trkpt>
      <trkpt lat="42.60817" lon="1.76088">
        <ele>2303.94</ele>
        <time>2013-03-23T11:27:04Z</time>
      </trkpt>
      <trkpt lat="42.60817" lon="1.76088">
        <ele>2303.94</ele>
        <time>2013-03-23T11:27:19Z</time>
      </trkpt>
      <trkpt lat="42.60816" lon="1.76087">
        <ele>2303.46</ele>
        <time>2013-03-23T11:27:22Z</time>
      </trkpt>
      <trkpt lat="42.60816" lon="1.76089">
        <ele>2303.46</ele>
        <time>2013-03-23T11:27:24Z</time>
      </trkpt>
      <trkpt lat="42.60828" lon="1.76109">
        <ele>2303.46</ele>
        <time>2013-03-23T11:27:38Z</time>
      </trkpt>
      <trkpt lat="42.6083" lon="1.76121">
        <ele>2302.49</ele>
        <time>2013-03-23T11:27:42Z</time>
      </trkpt>
      <trkpt lat="42.6084" lon="1.76126">
        <ele>2300.09</ele>
        <time>2013-03-23T11:27:46Z</time>
      </trkpt>
      <trkpt lat="42.60845" lon="1.76126">
        <ele>2298.65</ele>
        <time>2013-03-23T11:27:48Z</time>
      </trkpt>
      <trkpt lat="42.60849" lon="1.76126">
        <ele>2297.69</ele>
        <time>2013-03-23T11:27:55Z</time>
      </trkpt>
      <trkpt lat="42.60852" lon="1.76129">
        <ele>2297.21</ele>
        <time>2013-03-23T11:27:58Z</time>
      </trkpt>
      <trkpt lat="42.6085" lon="1.76139">
        <ele>2297.21</ele>
        <time>2013-03-23T11:28:06Z</time>
      </trkpt>
      <trkpt lat="42.60855" lon="1.76163">
        <ele>2295.28</ele>
        <time>2013-03-23T11:28:23Z</time>
      </trkpt>
      <trkpt lat="42.60858" lon="1.76165">
        <ele>2294.8</ele>
        <time>2013-03-23T11:28:26Z</time>
      </trkpt>
      <trkpt lat="42.60857" lon="1.76197">
        <ele>2293.36</ele>
        <time>2013-03-23T11:28:40Z</time>
      </trkpt>
      <trkpt lat="42.60859" lon="1.76229">
        <ele>2288.56</ele>
        <time>2013-03-23T11:28:47Z</time>
      </trkpt>
      <trkpt lat="42.6086" lon="1.76239">
        <ele>2286.63</ele>
        <time>2013-03-23T11:28:49Z</time>
      </trkpt>
      <trkpt lat="42.60859" lon="1.7625">
        <ele>2285.19</ele>
        <time>2013-03-23T11:28:51Z</time>
      </trkpt>
      <trkpt lat="42.60858" lon="1.76263">
        <ele>2283.27</ele>
        <time>2013-03-23T11:28:53Z</time>
      </trkpt>
      <trkpt lat="42.6086" lon="1.76278">
        <ele>2282.31</ele>
        <time>2013-03-23T11:28:55Z</time>
      </trkpt>
      <trkpt lat="42.60861" lon="1.76285">
        <ele>2281.35</ele>
        <time>2013-03-23T11:28:56Z</time>
      </trkpt>
      <trkpt lat="42.60863" lon="1.76292">
        <ele>2280.87</ele>
        <time>2013-03-23T11:28:57Z</time>
      </trkpt>
      <trkpt lat="42.60866" lon="1.76298">
        <ele>2280.38</ele>
        <time>2013-03-23T11:28:58Z</time>
      </trkpt>
      <trkpt lat="42.60868" lon="1.76304">
        <ele>2279.9</ele>
        <time>2013-03-23T11:28:59Z</time>
      </trkpt>
      <trkpt lat="42.60895" lon="1.76349">
        <ele>2276.54</ele>
        <time>2013-03-23T11:29:11Z</time>
      </trkpt>
      <trkpt lat="42.60902" lon="1.76358">
        <ele>2276.06</ele>
        <time>2013-03-23T11:29:21Z</time>
      </trkpt>
      <trkpt lat="42.60903" lon="1.76357">
        <ele>2276.06</ele>
        <time>2013-03-23T11:29:23Z</time>
      </trkpt>
      <trkpt lat="42.60907" lon="1.7636">
        <ele>2276.54</ele>
        <time>2013-03-23T11:29:32Z</time>
      </trkpt>
      <trkpt lat="42.60908" lon="1.7636">
        <ele>2277.02</ele>
        <time>2013-03-23T11:29:34Z</time>
      </trkpt>
      <trkpt lat="42.60911" lon="1.7636">
        <ele>2278.46</ele>
        <time>2013-03-23T11:29:40Z</time>
      </trkpt>
      <trkpt lat="42.60913" lon="1.76364">
        <ele>2281.35</ele>
        <time>2013-03-23T11:29:50Z</time>
      </trkpt>
      <trkpt lat="42.60914" lon="1.76365">
        <ele>2281.35</ele>
        <time>2013-03-23T11:29:54Z</time>
      </trkpt>
      <trkpt lat="42.60912" lon="1.76368">
        <ele>2279.9</ele>
        <time>2013-03-23T11:30:04Z</time>
      </trkpt>
      <trkpt lat="42.60914" lon="1.76365">
        <ele>2282.79</ele>
        <time>2013-03-23T11:30:19Z</time>
      </trkpt>
      <trkpt lat="42.60913" lon="1.76365">
        <ele>2283.75</ele>
        <time>2013-03-23T11:30:33Z</time>
      </trkpt>
      <trkpt lat="42.60913" lon="1.76365">
        <ele>2282.79</ele>
        <time>2013-03-23T11:30:41Z</time>
      </trkpt>
      <trkpt lat="42.60913" lon="1.76366">
        <ele>2282.31</ele>
        <time>2013-03-23T11:30:52Z</time>
      </trkpt>
      <trkpt lat="42.60914" lon="1.7637">
        <ele>2280.87</ele>
        <time>2013-03-23T11:31:04Z</time>
      </trkpt>
      <trkpt lat="42.60914" lon="1.7637">
        <ele>2281.35</ele>
        <time>2013-03-23T11:31:06Z</time>
      </trkpt>
      <trkpt lat="42.60914" lon="1.76373">
        <ele>2283.75</ele>
        <time>2013-03-23T11:31:16Z</time>
      </trkpt>
      <trkpt lat="42.60912" lon="1.7637">
        <ele>2282.31</ele>
        <time>2013-03-23T11:31:26Z</time>
      </trkpt>
      <trkpt lat="42.60916" lon="1.76368">
        <ele>2281.83</ele>
        <time>2013-03-23T11:31:36Z</time>
      </trkpt>
      <trkpt lat="42.60916" lon="1.76368">
        <ele>2281.83</ele>
        <time>2013-03-23T11:31:46Z</time>
      </trkpt>
      <trkpt lat="42.60916" lon="1.76375">
        <ele>2280.38</ele>
        <time>2013-03-23T11:31:54Z</time>
      </trkpt>
      <trkpt lat="42.60921" lon="1.76382">
        <ele>2284.23</ele>
        <time>2013-03-23T11:32:05Z</time>
      </trkpt>
      <trkpt lat="42.60923" lon="1.76386">
        <ele>2285.19</ele>
        <time>2013-03-23T11:32:09Z</time>
      </trkpt>
      <trkpt lat="42.60927" lon="1.76393">
        <ele>2285.67</ele>
        <time>2013-03-23T11:32:22Z</time>
      </trkpt>
      <trkpt lat="42.6093" lon="1.76389">
        <ele>2286.63</ele>
        <time>2013-03-23T11:32:35Z</time>
      </trkpt>
      <trkpt lat="42.60929" lon="1.76386">
        <ele>2287.59</ele>
        <time>2013-03-23T11:32:46Z</time>
      </trkpt>
      <trkpt lat="42.60926" lon="1.76389">
        <ele>2285.67</ele>
        <time>2013-03-23T11:33:07Z</time>
      </trkpt>
      <trkpt lat="42.60928" lon="1.76389">
        <ele>2286.15</ele>
        <time>2013-03-23T11:33:24Z</time>
      </trkpt>
      <trkpt lat="42.60927" lon="1.76389">
        <ele>2283.75</ele>
        <time>2013-03-23T11:33:51Z</time>
      </trkpt>
      <trkpt lat="42.60928" lon="1.76386">
        <ele>2283.27</ele>
        <time>2013-03-23T11:34:24Z</time>
      </trkpt>
      <trkpt lat="42.60927" lon="1.76388">
        <ele>2283.75</ele>
        <time>2013-03-23T11:34:56Z</time>
      </trkpt>
      <trkpt lat="42.60927" lon="1.7639">
        <ele>2285.19</ele>
        <time>2013-03-23T11:35:27Z</time>
      </trkpt>
      <trkpt lat="42.60925" lon="1.76388">
        <ele>2284.23</ele>
        <time>2013-03-23T11:35:57Z</time>
      </trkpt>
      <trkpt lat="42.60928" lon="1.76387">
        <ele>2284.71</ele>
        <time>2013-03-23T11:36:26Z</time>
      </trkpt>
      <trkpt lat="42.60927" lon="1.76386">
        <ele>2284.23</ele>
        <time>2013-03-23T11:36:57Z</time>
      </trkpt>
      <trkpt lat="42.60927" lon="1.76382">
        <ele>2284.71</ele>
        <time>2013-03-23T11:37:25Z</time>
      </trkpt>
      <trkpt lat="42.60922" lon="1.76386">
        <ele>2283.27</ele>
        <time>2013-03-23T11:37:56Z</time>
      </trkpt>
      <trkpt lat="42.60927" lon="1.76387">
        <ele>2284.23</ele>
        <time>2013-03-23T11:38:22Z</time>
      </trkpt>
      <trkpt lat="42.60926" lon="1.76388">
        <ele>2281.83</ele>
        <time>2013-03-23T11:38:55Z</time>
      </trkpt>
      <trkpt lat="42.60926" lon="1.76389">
        <ele>2280.87</ele>
        <time>2013-03-23T11:39:24Z</time>
      </trkpt>
      <trkpt lat="42.60925" lon="1.76386">
        <ele>2282.31</ele>
        <time>2013-03-23T11:39:58Z</time>
      </trkpt>
      <trkpt lat="42.60927" lon="1.76387">
        <ele>2279.9</ele>
        <time>2013-03-23T11:40:32Z</time>
      </trkpt>
      <trkpt lat="42.6093" lon="1.76386">
        <ele>2278.94</ele>
        <time>2013-03-23T11:41:07Z</time>
      </trkpt>
      <trkpt lat="42.60929" lon="1.76388">
        <ele>2279.9</ele>
        <time>2013-03-23T11:41:42Z</time>
      </trkpt>
      <trkpt lat="42.6093" lon="1.76385">
        <ele>2277.98</ele>
        <time>2013-03-23T11:42:19Z</time>
      </trkpt>
      <trkpt lat="42.6093" lon="1.76386">
        <ele>2278.46</ele>
        <time>2013-03-23T11:42:51Z</time>
      </trkpt>
      <trkpt lat="42.60929" lon="1.76386">
        <ele>2279.42</ele>
        <time>2013-03-23T11:43:23Z</time>
      </trkpt>
      <trkpt lat="42.60928" lon="1.76386">
        <ele>2279.9</ele>
        <time>2013-03-23T11:44:01Z</time>
      </trkpt>
      <trkpt lat="42.60928" lon="1.76388">
        <ele>2282.31</ele>
        <time>2013-03-23T11:44:34Z</time>
      </trkpt>
      <trkpt lat="42.6093" lon="1.76387">
        <ele>2284.71</ele>
        <time>2013-03-23T11:45:14Z</time>
      </trkpt>
      <trkpt lat="42.60931" lon="1.76389">
        <ele>2286.15</ele>
        <time>2013-03-23T11:45:51Z</time>
      </trkpt>
      <trkpt lat="42.60929" lon="1.7639">
        <ele>2287.59</ele>
        <time>2013-03-23T11:46:36Z</time>
      </trkpt>
      <trkpt lat="42.60929" lon="1.76387">
        <ele>2288.08</ele>
        <time>2013-03-23T11:47:06Z</time>
      </trkpt>
      <trkpt lat="42.60928" lon="1.76389">
        <ele>2288.56</ele>
        <time>2013-03-23T11:47:44Z</time>
      </trkpt>
      <trkpt lat="42.60929" lon="1.76387">
        <ele>2286.15</ele>
        <time>2013-03-23T11:48:19Z</time>
      </trkpt>
      <trkpt lat="42.60929" lon="1.76387">
        <ele>2286.15</ele>
        <time>2013-03-23T11:48:49Z</time>
      </trkpt>
      <trkpt lat="42.6093" lon="1.76387">
        <ele>2285.67</ele>
        <time>2013-03-23T11:49:23Z</time>
      </trkpt>
      <trkpt lat="42.60931" lon="1.76387">
        <ele>2286.63</ele>
        <time>2013-03-23T11:49:56Z</time>
      </trkpt>
      <trkpt lat="42.60928" lon="1.76388">
        <ele>2284.23</ele>
        <time>2013-03-23T11:50:26Z</time>
      </trkpt>
      <trkpt lat="42.60929" lon="1.76387">
        <ele>2285.67</ele>
        <time>2013-03-23T11:50:55Z</time>
      </trkpt>
      <trkpt lat="42.60927" lon="1.76388">
        <ele>2283.75</ele>
        <time>2013-03-23T11:51:26Z</time>
      </trkpt>
      <trkpt lat="42.60927" lon="1.76389">
        <ele>2283.27</ele>
        <time>2013-03-23T11:51:57Z</time>
      </trkpt>
      <trkpt lat="42.60928" lon="1.76386">
        <ele>2283.27</ele>
        <time>2013-03-23T11:52:29Z</time>
      </trkpt>
      <trkpt lat="42.60929" lon="1.76387">
        <ele>2282.79</ele>
        <time>2013-03-23T11:52:54Z</time>
      </trkpt>
      <trkpt lat="42.60929" lon="1.76386">
        <ele>2283.75</ele>
        <time>2013-03-23T11:53:27Z</time>
      </trkpt>
      <trkpt lat="42.60928" lon="1.76389">
        <ele>2282.79</ele>
        <time>2013-03-23T11:54:00Z</time>
      </trkpt>
      <trkpt lat="42.60929" lon="1.7639">
        <ele>2282.79</ele>
        <time>2013-03-23T11:54:36Z</time>
      </trkpt>
      <trkpt lat="42.60928" lon="1.76389">
        <ele>2284.23</ele>
        <time>2013-03-23T11:55:11Z</time>
      </trkpt>
      <trkpt lat="42.60928" lon="1.7639">
        <ele>2282.79</ele>
        <time>2013-03-23T11:55:47Z</time>
      </trkpt>
      <trkpt lat="42.60929" lon="1.76391">
        <ele>2281.83</ele>
        <time>2013-03-23T11:56:23Z</time>
      </trkpt>
      <trkpt lat="42.60928" lon="1.7639">
        <ele>2282.79</ele>
        <time>2013-03-23T11:56:55Z</time>
      </trkpt>
      <trkpt lat="42.60928" lon="1.76388">
        <ele>2282.79</ele>
        <time>2013-03-23T11:57:22Z</time>
      </trkpt>
      <trkpt lat="42.60928" lon="1.76387">
        <ele>2285.19</ele>
        <time>2013-03-23T11:57:48Z</time>
      </trkpt>
      <trkpt lat="42.60927" lon="1.76386">
        <ele>2285.19</ele>
        <time>2013-03-23T11:58:22Z</time>
      </trkpt>
      <trkpt lat="42.60928" lon="1.76386">
        <ele>2284.23</ele>
        <time>2013-03-23T11:58:50Z</time>
      </trkpt>
      <trkpt lat="42.60929" lon="1.76386">
        <ele>2282.79</ele>
        <time>2013-03-23T11:59:15Z</time>
      </trkpt>
      <trkpt lat="42.60928" lon="1.76385">
        <ele>2281.35</ele>
        <time>2013-03-23T11:59:50Z</time>
      </trkpt>
      <trkpt lat="42.60929" lon="1.76386">
        <ele>2280.87</ele>
        <time>2013-03-23T12:00:36Z</time>
      </trkpt>
      <trkpt lat="42.60927" lon="1.76387">
        <ele>2279.9</ele>
        <time>2013-03-23T12:01:14Z</time>
      </trkpt>
      <trkpt lat="42.60927" lon="1.76386">
        <ele>2281.83</ele>
        <time>2013-03-23T12:01:45Z</time>
      </trkpt>
      <trkpt lat="42.60927" lon="1.76386">
        <ele>2281.83</ele>
        <time>2013-03-23T12:02:06Z</time>
      </trkpt>
      <trkpt lat="42.60927" lon="1.76388">
        <ele>2280.87</ele>
        <time>2013-03-23T12:02:33Z</time>
      </trkpt>
      <trkpt lat="42.60927" lon="1.76388">
        <ele>2281.83</ele>
        <time>2013-03-23T12:03:10Z</time>
      </trkpt>
      <trkpt lat="42.60926" lon="1.76387">
        <ele>2281.83</ele>
        <time>2013-03-23T12:03:47Z</time>
      </trkpt>
      <trkpt lat="42.60926" lon="1.76388">
        <ele>2281.35</ele>
        <time>2013-03-23T12:04:26Z</time>
      </trkpt>
      <trkpt lat="42.60927" lon="1.76389">
        <ele>2280.87</ele>
        <time>2013-03-23T12:04:56Z</time>
      </trkpt>
      <trkpt lat="42.60926" lon="1.76388">
        <ele>2282.79</ele>
        <time>2013-03-23T12:05:28Z</time>
      </trkpt>
      <trkpt lat="42.60927" lon="1.76388">
        <ele>2282.31</ele>
        <time>2013-03-23T12:06:11Z</time>
      </trkpt>
      <trkpt lat="42.60926" lon="1.76388">
        <ele>2280.87</ele>
        <time>2013-03-23T12:06:44Z</time>
      </trkpt>
      <trkpt lat="42.60926" lon="1.76387">
        <ele>2281.35</ele>
        <time>2013-03-23T12:07:19Z</time>
      </trkpt>
      <trkpt lat="42.60927" lon="1.76388">
        <ele>2281.83</ele>
        <time>2013-03-23T12:07:50Z</time>
      </trkpt>
      <trkpt lat="42.60927" lon="1.76387">
        <ele>2279.9</ele>
        <time>2013-03-23T12:08:27Z</time>
      </trkpt>
      <trkpt lat="42.60928" lon="1.76388">
        <ele>2281.83</ele>
        <time>2013-03-23T12:08:40Z</time>
      </trkpt>
      <trkpt lat="42.60923" lon="1.76393">
        <ele>2283.27</ele>
        <time>2013-03-23T12:08:54Z</time>
      </trkpt>
      <trkpt lat="42.60926" lon="1.7639">
        <ele>2284.23</ele>
        <time>2013-03-23T12:09:25Z</time>
      </trkpt>
      <trkpt lat="42.60928" lon="1.76387">
        <ele>2285.67</ele>
        <time>2013-03-23T12:09:52Z</time>
      </trkpt>
      <trkpt lat="42.60928" lon="1.76388">
        <ele>2285.67</ele>
        <time>2013-03-23T12:10:19Z</time>
      </trkpt>
      <trkpt lat="42.60928" lon="1.76389">
        <ele>2285.67</ele>
        <time>2013-03-23T12:10:47Z</time>
      </trkpt>
      <trkpt lat="42.60927" lon="1.76389">
        <ele>2285.19</ele>
        <time>2013-03-23T12:11:15Z</time>
      </trkpt>
      <trkpt lat="42.60928" lon="1.76389">
        <ele>2285.67</ele>
        <time>2013-03-23T12:11:26Z</time>
      </trkpt>
      <trkpt lat="42.60926" lon="1.76387">
        <ele>2289.52</ele>
        <time>2013-03-23T12:11:37Z</time>
      </trkpt>
      <trkpt lat="42.60925" lon="1.7639">
        <ele>2288.08</ele>
        <time>2013-03-23T12:11:55Z</time>
      </trkpt>
      <trkpt lat="42.60925" lon="1.76391">
        <ele>2285.19</ele>
        <time>2013-03-23T12:12:14Z</time>
      </trkpt>
      <trkpt lat="42.60926" lon="1.76388">
        <ele>2285.67</ele>
        <time>2013-03-23T12:12:32Z</time>
      </trkpt>
      <trkpt lat="42.60927" lon="1.76388">
        <ele>2287.11</ele>
        <time>2013-03-23T12:12:53Z</time>
      </trkpt>
      <trkpt lat="42.60926" lon="1.7639">
        <ele>2287.59</ele>
        <time>2013-03-23T12:13:06Z</time>
      </trkpt>
      <trkpt lat="42.60927" lon="1.76389">
        <ele>2289.52</ele>
        <time>2013-03-23T12:13:21Z</time>
      </trkpt>
      <trkpt lat="42.60927" lon="1.76389">
        <ele>2290.48</ele>
        <time>2013-03-23T12:13:32Z</time>
      </trkpt>
      <trkpt lat="42.60927" lon="1.76388">
        <ele>2288.56</ele>
        <time>2013-03-23T12:13:44Z</time>
      </trkpt>
      <trkpt lat="42.60925" lon="1.76387">
        <ele>2289.52</ele>
        <time>2013-03-23T12:13:56Z</time>
      </trkpt>
      <trkpt lat="42.60926" lon="1.76387">
        <ele>2291.92</ele>
        <time>2013-03-23T12:14:12Z</time>
      </trkpt>
      <trkpt lat="42.60926" lon="1.76385">
        <ele>2293.84</ele>
        <time>2013-03-23T12:14:30Z</time>
      </trkpt>
      <trkpt lat="42.60932" lon="1.76389">
        <ele>2292.4</ele>
        <time>2013-03-23T12:14:43Z</time>
      </trkpt>
      <trkpt lat="42.60927" lon="1.76389">
        <ele>2289.04</ele>
        <time>2013-03-23T12:14:59Z</time>
      </trkpt>
      <trkpt lat="42.60926" lon="1.76389">
        <ele>2290</ele>
        <time>2013-03-23T12:15:12Z</time>
      </trkpt>
      <trkpt lat="42.60926" lon="1.76391">
        <ele>2291.44</ele>
        <time>2013-03-23T12:15:24Z</time>
      </trkpt>
      <trkpt lat="42.60923" lon="1.76386">
        <ele>2290.48</ele>
        <time>2013-03-23T12:15:36Z</time>
      </trkpt>
      <trkpt lat="42.60924" lon="1.76383">
        <ele>2294.32</ele>
        <time>2013-03-23T12:15:48Z</time>
      </trkpt>
      <trkpt lat="42.60924" lon="1.76375">
        <ele>2303.94</ele>
        <time>2013-03-23T12:15:58Z</time>
      </trkpt>
      <trkpt lat="42.60926" lon="1.76383">
        <ele>2302.01</ele>
        <time>2013-03-23T12:16:10Z</time>
      </trkpt>
      <trkpt lat="42.60925" lon="1.76383">
        <ele>2302.01</ele>
        <time>2013-03-23T12:16:22Z</time>
      </trkpt>
      <trkpt lat="42.60925" lon="1.76391">
        <ele>2293.36</ele>
        <time>2013-03-23T12:16:34Z</time>
      </trkpt>
      <trkpt lat="42.60925" lon="1.76387">
        <ele>2294.32</ele>
        <time>2013-03-23T12:16:49Z</time>
      </trkpt>
      <trkpt lat="42.60927" lon="1.76389">
        <ele>2293.36</ele>
        <time>2013-03-23T12:17:01Z</time>
      </trkpt>
      <trkpt lat="42.60925" lon="1.76388">
        <ele>2292.88</ele>
        <time>2013-03-23T12:17:16Z</time>
      </trkpt>
      <trkpt lat="42.60925" lon="1.76389">
        <ele>2292.88</ele>
        <time>2013-03-23T12:17:17Z</time>
      </trkpt>
      <trkpt lat="42.60929" lon="1.76398">
        <ele>2290.96</ele>
        <time>2013-03-23T12:17:25Z</time>
      </trkpt>
      <trkpt lat="42.6093" lon="1.76393">
        <ele>2288.56</ele>
        <time>2013-03-23T12:17:36Z</time>
      </trkpt>
      <trkpt lat="42.6094" lon="1.76378">
        <ele>2284.71</ele>
        <time>2013-03-23T12:17:44Z</time>
      </trkpt>
      <trkpt lat="42.6094" lon="1.76382">
        <ele>2282.31</ele>
        <time>2013-03-23T12:17:52Z</time>
      </trkpt>
      <trkpt lat="42.6094" lon="1.76384">
        <ele>2281.83</ele>
        <time>2013-03-23T12:18:13Z</time>
      </trkpt>
      <trkpt lat="42.60949" lon="1.7638">
        <ele>2280.38</ele>
        <time>2013-03-23T12:18:17Z</time>
      </trkpt>
      <trkpt lat="42.60956" lon="1.76379">
        <ele>2277.5</ele>
        <time>2013-03-23T12:18:23Z</time>
      </trkpt>
      <trkpt lat="42.60961" lon="1.7639">
        <ele>2276.06</ele>
        <time>2013-03-23T12:18:29Z</time>
      </trkpt>
      <trkpt lat="42.60962" lon="1.76393">
        <ele>2275.58</ele>
        <time>2013-03-23T12:18:30Z</time>
      </trkpt>
      <trkpt lat="42.60964" lon="1.76395">
        <ele>2275.58</ele>
        <time>2013-03-23T12:18:31Z</time>
      </trkpt>
      <trkpt lat="42.60966" lon="1.76394">
        <ele>2275.1</ele>
        <time>2013-03-23T12:18:32Z</time>
      </trkpt>
      <trkpt lat="42.60967" lon="1.76391">
        <ele>2274.62</ele>
        <time>2013-03-23T12:18:33Z</time>
      </trkpt>
      <trkpt lat="42.60981" lon="1.76376">
        <ele>2269.81</ele>
        <time>2013-03-23T12:18:41Z</time>
      </trkpt>
      <trkpt lat="42.60986" lon="1.76389">
        <ele>2267.41</ele>
        <time>2013-03-23T12:18:45Z</time>
      </trkpt>
      <trkpt lat="42.60988" lon="1.76389">
        <ele>2266.45</ele>
        <time>2013-03-23T12:18:46Z</time>
      </trkpt>
      <trkpt lat="42.60993" lon="1.76383">
        <ele>2265</ele>
        <time>2013-03-23T12:18:48Z</time>
      </trkpt>
      <trkpt lat="42.61" lon="1.76387">
        <ele>2262.6</ele>
        <time>2013-03-23T12:18:52Z</time>
      </trkpt>
      <trkpt lat="42.61002" lon="1.76394">
        <ele>2260.68</ele>
        <time>2013-03-23T12:18:54Z</time>
      </trkpt>
      <trkpt lat="42.61008" lon="1.76394">
        <ele>2260.68</ele>
        <time>2013-03-23T12:19:01Z</time>
      </trkpt>
      <trkpt lat="42.61017" lon="1.76388">
        <ele>2261.64</ele>
        <time>2013-03-23T12:19:11Z</time>
      </trkpt>
      <trkpt lat="42.61026" lon="1.76376">
        <ele>2261.16</ele>
        <time>2013-03-23T12:19:16Z</time>
      </trkpt>
      <trkpt lat="42.61032" lon="1.76389">
        <ele>2258.27</ele>
        <time>2013-03-23T12:19:21Z</time>
      </trkpt>
      <trkpt lat="42.61053" lon="1.76411">
        <ele>2248.66</ele>
        <time>2013-03-23T12:19:29Z</time>
      </trkpt>
      <trkpt lat="42.61049" lon="1.76424">
        <ele>2243.85</ele>
        <time>2013-03-23T12:19:33Z</time>
      </trkpt>
      <trkpt lat="42.6105" lon="1.76428">
        <ele>2240.97</ele>
        <time>2013-03-23T12:19:41Z</time>
      </trkpt>
      <trkpt lat="42.6105" lon="1.76439">
        <ele>2238.09</ele>
        <time>2013-03-23T12:19:46Z</time>
      </trkpt>
      <trkpt lat="42.61053" lon="1.76449">
        <ele>2235.68</ele>
        <time>2013-03-23T12:19:51Z</time>
      </trkpt>
      <trkpt lat="42.61055" lon="1.76452">
        <ele>2235.2</ele>
        <time>2013-03-23T12:19:52Z</time>
      </trkpt>
      <trkpt lat="42.61058" lon="1.76453">
        <ele>2234.72</ele>
        <time>2013-03-23T12:19:53Z</time>
      </trkpt>
      <trkpt lat="42.61062" lon="1.76441">
        <ele>2234.24</ele>
        <time>2013-03-23T12:19:57Z</time>
      </trkpt>
      <trkpt lat="42.61063" lon="1.76438">
        <ele>2234.24</ele>
        <time>2013-03-23T12:20:00Z</time>
      </trkpt>
      <trkpt lat="42.61068" lon="1.76443">
        <ele>2235.2</ele>
        <time>2013-03-23T12:20:08Z</time>
      </trkpt>
      <trkpt lat="42.61069" lon="1.76443">
        <ele>2234.72</ele>
        <time>2013-03-23T12:20:10Z</time>
      </trkpt>
      <trkpt lat="42.61069" lon="1.76462">
        <ele>2233.28</ele>
        <time>2013-03-23T12:20:18Z</time>
      </trkpt>
      <trkpt lat="42.61078" lon="1.76467">
        <ele>2231.36</ele>
        <time>2013-03-23T12:20:23Z</time>
      </trkpt>
      <trkpt lat="42.61088" lon="1.76468">
        <ele>2229.43</ele>
        <time>2013-03-23T12:20:28Z</time>
      </trkpt>
      <trkpt lat="42.61087" lon="1.76471">
        <ele>2229.92</ele>
        <time>2013-03-23T12:20:41Z</time>
      </trkpt>
      <trkpt lat="42.61082" lon="1.7649">
        <ele>2227.51</ele>
        <time>2013-03-23T12:20:48Z</time>
      </trkpt>
      <trkpt lat="42.6108" lon="1.76499">
        <ele>2225.59</ele>
        <time>2013-03-23T12:20:56Z</time>
      </trkpt>
      <trkpt lat="42.61077" lon="1.76512">
        <ele>2222.71</ele>
        <time>2013-03-23T12:21:05Z</time>
      </trkpt>
      <trkpt lat="42.61078" lon="1.76517">
        <ele>2221.74</ele>
        <time>2013-03-23T12:21:07Z</time>
      </trkpt>
      <trkpt lat="42.61079" lon="1.76521">
        <ele>2221.26</ele>
        <time>2013-03-23T12:21:08Z</time>
      </trkpt>
      <trkpt lat="42.6108" lon="1.76527">
        <ele>2220.78</ele>
        <time>2013-03-23T12:21:09Z</time>
      </trkpt>
      <trkpt lat="42.61074" lon="1.7654">
        <ele>2218.38</ele>
        <time>2013-03-23T12:21:13Z</time>
      </trkpt>
      <trkpt lat="42.61081" lon="1.7654">
        <ele>2216.46</ele>
        <time>2013-03-23T12:21:16Z</time>
      </trkpt>
      <trkpt lat="42.61092" lon="1.76542">
        <ele>2215.01</ele>
        <time>2013-03-23T12:21:31Z</time>
      </trkpt>
      <trkpt lat="42.61092" lon="1.76543">
        <ele>2215.5</ele>
        <time>2013-03-23T12:21:32Z</time>
      </trkpt>
      <trkpt lat="42.61099" lon="1.76547">
        <ele>2215.01</ele>
        <time>2013-03-23T12:21:36Z</time>
      </trkpt>
      <trkpt lat="42.61101" lon="1.76546">
        <ele>2214.53</ele>
        <time>2013-03-23T12:21:37Z</time>
      </trkpt>
      <trkpt lat="42.61104" lon="1.76546">
        <ele>2214.05</ele>
        <time>2013-03-23T12:21:38Z</time>
      </trkpt>
      <trkpt lat="42.61107" lon="1.76549">
        <ele>2213.09</ele>
        <time>2013-03-23T12:21:39Z</time>
      </trkpt>
      <trkpt lat="42.61108" lon="1.76553">
        <ele>2212.61</ele>
        <time>2013-03-23T12:21:40Z</time>
      </trkpt>
      <trkpt lat="42.6111" lon="1.76555">
        <ele>2212.13</ele>
        <time>2013-03-23T12:21:41Z</time>
      </trkpt>
      <trkpt lat="42.61114" lon="1.76556">
        <ele>2211.65</ele>
        <time>2013-03-23T12:21:42Z</time>
      </trkpt>
      <trkpt lat="42.61116" lon="1.76558">
        <ele>2210.69</ele>
        <time>2013-03-23T12:21:43Z</time>
      </trkpt>
      <trkpt lat="42.61117" lon="1.76562">
        <ele>2210.21</ele>
        <time>2013-03-23T12:21:44Z</time>
      </trkpt>
      <trkpt lat="42.6112" lon="1.76564">
        <ele>2209.25</ele>
        <time>2013-03-23T12:21:45Z</time>
      </trkpt>
      <trkpt lat="42.61129" lon="1.76567">
        <ele>2206.84</ele>
        <time>2013-03-23T12:21:48Z</time>
      </trkpt>
      <trkpt lat="42.61129" lon="1.76571">
        <ele>2206.36</ele>
        <time>2013-03-23T12:21:49Z</time>
      </trkpt>
      <trkpt lat="42.61128" lon="1.76574">
        <ele>2205.88</ele>
        <time>2013-03-23T12:21:50Z</time>
      </trkpt>
      <trkpt lat="42.61125" lon="1.76581">
        <ele>2202.52</ele>
        <time>2013-03-23T12:22:01Z</time>
      </trkpt>
      <trkpt lat="42.61125" lon="1.76591">
        <ele>2203.48</ele>
        <time>2013-03-23T12:22:08Z</time>
      </trkpt>
      <trkpt lat="42.61125" lon="1.76592">
        <ele>2203.48</ele>
        <time>2013-03-23T12:22:09Z</time>
      </trkpt>
      <trkpt lat="42.61127" lon="1.76595">
        <ele>2205.88</ele>
        <time>2013-03-23T12:22:22Z</time>
      </trkpt>
      <trkpt lat="42.61123" lon="1.766">
        <ele>2207.32</ele>
        <time>2013-03-23T12:22:48Z</time>
      </trkpt>
      <trkpt lat="42.61125" lon="1.766">
        <ele>2207.32</ele>
        <time>2013-03-23T12:22:50Z</time>
      </trkpt>
      <trkpt lat="42.61126" lon="1.76602">
        <ele>2207.32</ele>
        <time>2013-03-23T12:22:51Z</time>
      </trkpt>
      <trkpt lat="42.61126" lon="1.76605">
        <ele>2207.32</ele>
        <time>2013-03-23T12:22:52Z</time>
      </trkpt>
      <trkpt lat="42.61126" lon="1.76609">
        <ele>2206.84</ele>
        <time>2013-03-23T12:22:53Z</time>
      </trkpt>
      <trkpt lat="42.61126" lon="1.76613">
        <ele>2206.84</ele>
        <time>2013-03-23T12:22:54Z</time>
      </trkpt>
      <trkpt lat="42.61131" lon="1.76643">
        <ele>2203.96</ele>
        <time>2013-03-23T12:23:05Z</time>
      </trkpt>
      <trkpt lat="42.61131" lon="1.76648">
        <ele>2202.52</ele>
        <time>2013-03-23T12:23:07Z</time>
      </trkpt>
      <trkpt lat="42.6113" lon="1.76651">
        <ele>2202.52</ele>
        <time>2013-03-23T12:23:08Z</time>
      </trkpt>
      <trkpt lat="42.61129" lon="1.76653">
        <ele>2202.04</ele>
        <time>2013-03-23T12:23:09Z</time>
      </trkpt>
      <trkpt lat="42.61128" lon="1.76657">
        <ele>2201.56</ele>
        <time>2013-03-23T12:23:10Z</time>
      </trkpt>
      <trkpt lat="42.61133" lon="1.76679">
        <ele>2200.11</ele>
        <time>2013-03-23T12:23:15Z</time>
      </trkpt>
      <trkpt lat="42.61153" lon="1.76676">
        <ele>2198.67</ele>
        <time>2013-03-23T12:23:21Z</time>
      </trkpt>
      <trkpt lat="42.61156" lon="1.76678">
        <ele>2198.19</ele>
        <time>2013-03-23T12:23:22Z</time>
      </trkpt>
      <trkpt lat="42.61157" lon="1.76681">
        <ele>2198.19</ele>
        <time>2013-03-23T12:23:23Z</time>
      </trkpt>
      <trkpt lat="42.61159" lon="1.76684">
        <ele>2198.19</ele>
        <time>2013-03-23T12:23:24Z</time>
      </trkpt>
      <trkpt lat="42.61159" lon="1.76687">
        <ele>2198.19</ele>
        <time>2013-03-23T12:23:25Z</time>
      </trkpt>
      <trkpt lat="42.61166" lon="1.76701">
        <ele>2197.71</ele>
        <time>2013-03-23T12:23:37Z</time>
      </trkpt>
      <trkpt lat="42.61174" lon="1.76725">
        <ele>2196.27</ele>
        <time>2013-03-23T12:23:53Z</time>
      </trkpt>
      <trkpt lat="42.61182" lon="1.76748">
        <ele>2193.39</ele>
        <time>2013-03-23T12:24:04Z</time>
      </trkpt>
      <trkpt lat="42.61184" lon="1.7678">
        <ele>2191.46</ele>
        <time>2013-03-23T12:24:18Z</time>
      </trkpt>
      <trkpt lat="42.61184" lon="1.76787">
        <ele>2191.94</ele>
        <time>2013-03-23T12:24:30Z</time>
      </trkpt>
      <trkpt lat="42.61183" lon="1.76798">
        <ele>2191.94</ele>
        <time>2013-03-23T12:24:47Z</time>
      </trkpt>
      <trkpt lat="42.61182" lon="1.7683">
        <ele>2190.02</ele>
        <time>2013-03-23T12:25:01Z</time>
      </trkpt>
      <trkpt lat="42.61179" lon="1.76854">
        <ele>2189.06</ele>
        <time>2013-03-23T12:25:12Z</time>
      </trkpt>
      <trkpt lat="42.61176" lon="1.76876">
        <ele>2186.66</ele>
        <time>2013-03-23T12:25:19Z</time>
      </trkpt>
      <trkpt lat="42.61172" lon="1.76885">
        <ele>2186.66</ele>
        <time>2013-03-23T12:25:29Z</time>
      </trkpt>
      <trkpt lat="42.61172" lon="1.76885">
        <ele>2188.1</ele>
        <time>2013-03-23T12:25:37Z</time>
      </trkpt>
      <trkpt lat="42.61173" lon="1.76885">
        <ele>2187.62</ele>
        <time>2013-03-23T12:25:48Z</time>
      </trkpt>
      <trkpt lat="42.61172" lon="1.76888">
        <ele>2189.06</ele>
        <time>2013-03-23T12:26:00Z</time>
      </trkpt>
      <trkpt lat="42.61172" lon="1.76887">
        <ele>2191.94</ele>
        <time>2013-03-23T12:26:19Z</time>
      </trkpt>
      <trkpt lat="42.61173" lon="1.76887">
        <ele>2192.9</ele>
        <time>2013-03-23T12:26:40Z</time>
      </trkpt>
      <trkpt lat="42.61172" lon="1.76887">
        <ele>2192.9</ele>
        <time>2013-03-23T12:26:55Z</time>
      </trkpt>
      <trkpt lat="42.61173" lon="1.76887">
        <ele>2193.39</ele>
        <time>2013-03-23T12:27:05Z</time>
      </trkpt>
      <trkpt lat="42.61171" lon="1.76885">
        <ele>2189.54</ele>
        <time>2013-03-23T12:27:23Z</time>
      </trkpt>
      <trkpt lat="42.61171" lon="1.76886">
        <ele>2190.02</ele>
        <time>2013-03-23T12:27:34Z</time>
      </trkpt>
      <trkpt lat="42.61173" lon="1.76889">
        <ele>2190.98</ele>
        <time>2013-03-23T12:27:41Z</time>
      </trkpt>
      <trkpt lat="42.61172" lon="1.76905">
        <ele>2190.02</ele>
        <time>2013-03-23T12:27:53Z</time>
      </trkpt>
      <trkpt lat="42.61172" lon="1.76907">
        <ele>2189.54</ele>
        <time>2013-03-23T12:27:54Z</time>
      </trkpt>
      <trkpt lat="42.61173" lon="1.76919">
        <ele>2189.06</ele>
        <time>2013-03-23T12:28:00Z</time>
      </trkpt>
      <trkpt lat="42.61173" lon="1.7693">
        <ele>2188.1</ele>
        <time>2013-03-23T12:28:04Z</time>
      </trkpt>
      <trkpt lat="42.61169" lon="1.76948">
        <ele>2187.62</ele>
        <time>2013-03-23T12:28:11Z</time>
      </trkpt>
      <trkpt lat="42.61175" lon="1.76949">
        <ele>2187.14</ele>
        <time>2013-03-23T12:28:19Z</time>
      </trkpt>
      <trkpt lat="42.61176" lon="1.76949">
        <ele>2187.14</ele>
        <time>2013-03-23T12:28:34Z</time>
      </trkpt>
      <trkpt lat="42.61181" lon="1.76953">
        <ele>2186.66</ele>
        <time>2013-03-23T12:28:37Z</time>
      </trkpt>
      <trkpt lat="42.6118" lon="1.7697">
        <ele>2184.73</ele>
        <time>2013-03-23T12:28:41Z</time>
      </trkpt>
      <trkpt lat="42.61176" lon="1.76979">
        <ele>2184.25</ele>
        <time>2013-03-23T12:28:43Z</time>
      </trkpt>
      <trkpt lat="42.61187" lon="1.76988">
        <ele>2181.37</ele>
        <time>2013-03-23T12:28:49Z</time>
      </trkpt>
      <trkpt lat="42.61188" lon="1.76991">
        <ele>2180.89</ele>
        <time>2013-03-23T12:28:50Z</time>
      </trkpt>
      <trkpt lat="42.61189" lon="1.76995">
        <ele>2180.89</ele>
        <time>2013-03-23T12:28:51Z</time>
      </trkpt>
      <trkpt lat="42.61188" lon="1.76998">
        <ele>2180.41</ele>
        <time>2013-03-23T12:28:52Z</time>
      </trkpt>
      <trkpt lat="42.61186" lon="1.77013">
        <ele>2178.48</ele>
        <time>2013-03-23T12:28:55Z</time>
      </trkpt>
      <trkpt lat="42.61187" lon="1.77019">
        <ele>2177.52</ele>
        <time>2013-03-23T12:28:56Z</time>
      </trkpt>
      <trkpt lat="42.61193" lon="1.77039">
        <ele>2176.56</ele>
        <time>2013-03-23T12:29:00Z</time>
      </trkpt>
      <trkpt lat="42.61204" lon="1.77068">
        <ele>2174.64</ele>
        <time>2013-03-23T12:29:08Z</time>
      </trkpt>
      <trkpt lat="42.61213" lon="1.77104">
        <ele>2171.27</ele>
        <time>2013-03-23T12:29:15Z</time>
      </trkpt>
      <trkpt lat="42.61217" lon="1.77111">
        <ele>2170.31</ele>
        <time>2013-03-23T12:29:17Z</time>
      </trkpt>
      <trkpt lat="42.61221" lon="1.77121">
        <ele>2169.83</ele>
        <time>2013-03-23T12:29:21Z</time>
      </trkpt>
      <trkpt lat="42.61222" lon="1.77123">
        <ele>2169.35</ele>
        <time>2013-03-23T12:29:31Z</time>
      </trkpt>
      <trkpt lat="42.61222" lon="1.77124">
        <ele>2170.79</ele>
        <time>2013-03-23T12:29:43Z</time>
      </trkpt>
      <trkpt lat="42.61223" lon="1.77123">
        <ele>2170.79</ele>
        <time>2013-03-23T12:29:51Z</time>
      </trkpt>
      <trkpt lat="42.61223" lon="1.77121">
        <ele>2170.31</ele>
        <time>2013-03-23T12:29:59Z</time>
      </trkpt>
      <trkpt lat="42.6122" lon="1.77121">
        <ele>2169.35</ele>
        <time>2013-03-23T12:30:15Z</time>
      </trkpt>
      <trkpt lat="42.6122" lon="1.77119">
        <ele>2170.79</ele>
        <time>2013-03-23T12:30:31Z</time>
      </trkpt>
      <trkpt lat="42.61219" lon="1.77121">
        <ele>2170.31</ele>
        <time>2013-03-23T12:30:41Z</time>
      </trkpt>
      <trkpt lat="42.6122" lon="1.7712">
        <ele>2171.76</ele>
        <time>2013-03-23T12:30:55Z</time>
      </trkpt>
      <trkpt lat="42.61219" lon="1.7712">
        <ele>2169.35</ele>
        <time>2013-03-23T12:31:17Z</time>
      </trkpt>
      <trkpt lat="42.61221" lon="1.77124">
        <ele>2168.39</ele>
        <time>2013-03-23T12:31:27Z</time>
      </trkpt>
      <trkpt lat="42.61217" lon="1.77132">
        <ele>2167.43</ele>
        <time>2013-03-23T12:31:32Z</time>
      </trkpt>
      <trkpt lat="42.61213" lon="1.77142">
        <ele>2166.95</ele>
        <time>2013-03-23T12:31:37Z</time>
      </trkpt>
      <trkpt lat="42.6122" lon="1.77159">
        <ele>2165.99</ele>
        <time>2013-03-23T12:31:46Z</time>
      </trkpt>
      <trkpt lat="42.61215" lon="1.77167">
        <ele>2164.55</ele>
        <time>2013-03-23T12:31:49Z</time>
      </trkpt>
      <trkpt lat="42.6121" lon="1.77186">
        <ele>2161.18</ele>
        <time>2013-03-23T12:31:55Z</time>
      </trkpt>
      <trkpt lat="42.61206" lon="1.77187">
        <ele>2160.7</ele>
        <time>2013-03-23T12:32:03Z</time>
      </trkpt>
      <trkpt lat="42.61197" lon="1.77186">
        <ele>2159.74</ele>
        <time>2013-03-23T12:32:15Z</time>
      </trkpt>
      <trkpt lat="42.61181" lon="1.77193">
        <ele>2158.3</ele>
        <time>2013-03-23T12:32:18Z</time>
      </trkpt>
      <trkpt lat="42.61152" lon="1.77225">
        <ele>2154.93</ele>
        <time>2013-03-23T12:32:24Z</time>
      </trkpt>
      <trkpt lat="42.61146" lon="1.77254">
        <ele>2153.97</ele>
        <time>2013-03-23T12:32:37Z</time>
      </trkpt>
      <trkpt lat="42.61147" lon="1.7727">
        <ele>2154.93</ele>
        <time>2013-03-23T12:32:48Z</time>
      </trkpt>
      <trkpt lat="42.61148" lon="1.77271">
        <ele>2153.97</ele>
        <time>2013-03-23T12:33:02Z</time>
      </trkpt>
      <trkpt lat="42.61149" lon="1.77271">
        <ele>2154.45</ele>
        <time>2013-03-23T12:33:16Z</time>
      </trkpt>
      <trkpt lat="42.61148" lon="1.77271">
        <ele>2155.41</ele>
        <time>2013-03-23T12:33:33Z</time>
      </trkpt>
      <trkpt lat="42.61144" lon="1.77277">
        <ele>2152.53</ele>
        <time>2013-03-23T12:33:47Z</time>
      </trkpt>
      <trkpt lat="42.61143" lon="1.77279">
        <ele>2152.53</ele>
        <time>2013-03-23T12:33:48Z</time>
      </trkpt>
      <trkpt lat="42.61142" lon="1.77281">
        <ele>2152.05</ele>
        <time>2013-03-23T12:33:49Z</time>
      </trkpt>
      <trkpt lat="42.61141" lon="1.77281">
        <ele>2152.53</ele>
        <time>2013-03-23T12:33:50Z</time>
      </trkpt>
      <trkpt lat="42.61138" lon="1.7728">
        <ele>2152.53</ele>
        <time>2013-03-23T12:33:52Z</time>
      </trkpt>
      <trkpt lat="42.61123" lon="1.77282">
        <ele>2150.13</ele>
        <time>2013-03-23T12:33:59Z</time>
      </trkpt>
      <trkpt lat="42.61122" lon="1.77285">
        <ele>2150.13</ele>
        <time>2013-03-23T12:34:00Z</time>
      </trkpt>
      <trkpt lat="42.61124" lon="1.77288">
        <ele>2149.65</ele>
        <time>2013-03-23T12:34:01Z</time>
      </trkpt>
      <trkpt lat="42.61125" lon="1.77298">
        <ele>2148.68</ele>
        <time>2013-03-23T12:34:04Z</time>
      </trkpt>
      <trkpt lat="42.61123" lon="1.773">
        <ele>2148.68</ele>
        <time>2013-03-23T12:34:05Z</time>
      </trkpt>
      <trkpt lat="42.61121" lon="1.77303">
        <ele>2147.72</ele>
        <time>2013-03-23T12:34:06Z</time>
      </trkpt>
      <trkpt lat="42.61121" lon="1.77307">
        <ele>2147.24</ele>
        <time>2013-03-23T12:34:07Z</time>
      </trkpt>
      <trkpt lat="42.61121" lon="1.77312">
        <ele>2147.24</ele>
        <time>2013-03-23T12:34:08Z</time>
      </trkpt>
      <trkpt lat="42.61121" lon="1.77317">
        <ele>2147.24</ele>
        <time>2013-03-23T12:34:09Z</time>
      </trkpt>
      <trkpt lat="42.61118" lon="1.7732">
        <ele>2146.28</ele>
        <time>2013-03-23T12:34:10Z</time>
      </trkpt>
      <trkpt lat="42.61116" lon="1.77323">
        <ele>2146.28</ele>
        <time>2013-03-23T12:34:11Z</time>
      </trkpt>
      <trkpt lat="42.61115" lon="1.77327">
        <ele>2145.8</ele>
        <time>2013-03-23T12:34:12Z</time>
      </trkpt>
      <trkpt lat="42.61113" lon="1.7733">
        <ele>2145.32</ele>
        <time>2013-03-23T12:34:13Z</time>
      </trkpt>
      <trkpt lat="42.61111" lon="1.77333">
        <ele>2144.36</ele>
        <time>2013-03-23T12:34:14Z</time>
      </trkpt>
      <trkpt lat="42.6111" lon="1.77338">
        <ele>2143.88</ele>
        <time>2013-03-23T12:34:15Z</time>
      </trkpt>
      <trkpt lat="42.61107" lon="1.77341">
        <ele>2142.44</ele>
        <time>2013-03-23T12:34:16Z</time>
      </trkpt>
      <trkpt lat="42.61106" lon="1.77345">
        <ele>2140.99</ele>
        <time>2013-03-23T12:34:17Z</time>
      </trkpt>
      <trkpt lat="42.61104" lon="1.7735">
        <ele>2139.55</ele>
        <time>2013-03-23T12:34:18Z</time>
      </trkpt>
      <trkpt lat="42.61101" lon="1.77355">
        <ele>2138.59</ele>
        <time>2013-03-23T12:34:19Z</time>
      </trkpt>
      <trkpt lat="42.611" lon="1.77361">
        <ele>2137.15</ele>
        <time>2013-03-23T12:34:20Z</time>
      </trkpt>
      <trkpt lat="42.61098" lon="1.77366">
        <ele>2136.19</ele>
        <time>2013-03-23T12:34:21Z</time>
      </trkpt>
      <trkpt lat="42.61097" lon="1.77371">
        <ele>2134.74</ele>
        <time>2013-03-23T12:34:22Z</time>
      </trkpt>
      <trkpt lat="42.61097" lon="1.77377">
        <ele>2133.78</ele>
        <time>2013-03-23T12:34:23Z</time>
      </trkpt>
      <trkpt lat="42.61095" lon="1.77382">
        <ele>2132.82</ele>
        <time>2013-03-23T12:34:24Z</time>
      </trkpt>
      <trkpt lat="42.61094" lon="1.77387">
        <ele>2131.86</ele>
        <time>2013-03-23T12:34:25Z</time>
      </trkpt>
      <trkpt lat="42.61094" lon="1.77391">
        <ele>2131.38</ele>
        <time>2013-03-23T12:34:26Z</time>
      </trkpt>
      <trkpt lat="42.61094" lon="1.77393">
        <ele>2127.53</ele>
        <time>2013-03-23T12:34:38Z</time>
      </trkpt>
      <trkpt lat="42.61093" lon="1.77392">
        <ele>2127.05</ele>
        <time>2013-03-23T12:35:02Z</time>
      </trkpt>
      <trkpt lat="42.61097" lon="1.77396">
        <ele>2124.65</ele>
        <time>2013-03-23T12:35:25Z</time>
      </trkpt>
      <trkpt lat="42.61096" lon="1.77392">
        <ele>2124.65</ele>
        <time>2013-03-23T12:35:40Z</time>
      </trkpt>
      <trkpt lat="42.61093" lon="1.77391">
        <ele>2127.05</ele>
        <time>2013-03-23T12:35:52Z</time>
      </trkpt>
      <trkpt lat="42.61092" lon="1.77392">
        <ele>2127.53</ele>
        <time>2013-03-23T12:35:53Z</time>
      </trkpt>
      <trkpt lat="42.61091" lon="1.77393">
        <ele>2127.53</ele>
        <time>2013-03-23T12:35:54Z</time>
      </trkpt>
      <trkpt lat="42.61089" lon="1.77396">
        <ele>2127.53</ele>
        <time>2013-03-23T12:35:55Z</time>
      </trkpt>
      <trkpt lat="42.61089" lon="1.774">
        <ele>2127.05</ele>
        <time>2013-03-23T12:35:56Z</time>
      </trkpt>
      <trkpt lat="42.61089" lon="1.77404">
        <ele>2126.57</ele>
        <time>2013-03-23T12:35:57Z</time>
      </trkpt>
      <trkpt lat="42.61088" lon="1.77409">
        <ele>2126.57</ele>
        <time>2013-03-23T12:35:58Z</time>
      </trkpt>
      <trkpt lat="42.61087" lon="1.77414">
        <ele>2126.09</ele>
        <time>2013-03-23T12:35:59Z</time>
      </trkpt>
      <trkpt lat="42.61085" lon="1.77419">
        <ele>2125.61</ele>
        <time>2013-03-23T12:36:00Z</time>
      </trkpt>
      <trkpt lat="42.61083" lon="1.77425">
        <ele>2124.65</ele>
        <time>2013-03-23T12:36:01Z</time>
      </trkpt>
      <trkpt lat="42.61081" lon="1.7743">
        <ele>2124.17</ele>
        <time>2013-03-23T12:36:02Z</time>
      </trkpt>
      <trkpt lat="42.61079" lon="1.77436">
        <ele>2123.69</ele>
        <time>2013-03-23T12:36:03Z</time>
      </trkpt>
      <trkpt lat="42.61078" lon="1.77442">
        <ele>2122.73</ele>
        <time>2013-03-23T12:36:04Z</time>
      </trkpt>
      <trkpt lat="42.61075" lon="1.77447">
        <ele>2122.25</ele>
        <time>2013-03-23T12:36:05Z</time>
      </trkpt>
      <trkpt lat="42.61073" lon="1.77454">
        <ele>2121.29</ele>
        <time>2013-03-23T12:36:06Z</time>
      </trkpt>
      <trkpt lat="42.6107" lon="1.77459">
        <ele>2120.81</ele>
        <time>2013-03-23T12:36:07Z</time>
      </trkpt>
      <trkpt lat="42.61067" lon="1.77464">
        <ele>2119.84</ele>
        <time>2013-03-23T12:36:08Z</time>
      </trkpt>
      <trkpt lat="42.61064" lon="1.7747">
        <ele>2119.36</ele>
        <time>2013-03-23T12:36:09Z</time>
      </trkpt>
      <trkpt lat="42.6106" lon="1.77475">
        <ele>2118.4</ele>
        <time>2013-03-23T12:36:10Z</time>
      </trkpt>
      <trkpt lat="42.61058" lon="1.77481">
        <ele>2117.44</ele>
        <time>2013-03-23T12:36:11Z</time>
      </trkpt>
      <trkpt lat="42.61055" lon="1.77488">
        <ele>2116</ele>
        <time>2013-03-23T12:36:12Z</time>
      </trkpt>
      <trkpt lat="42.61052" lon="1.77492">
        <ele>2114.56</ele>
        <time>2013-03-23T12:36:13Z</time>
      </trkpt>
      <trkpt lat="42.61048" lon="1.7749">
        <ele>2110.71</ele>
        <time>2013-03-23T12:36:19Z</time>
      </trkpt>
      <trkpt lat="42.61049" lon="1.7749">
        <ele>2110.71</ele>
        <time>2013-03-23T12:36:32Z</time>
      </trkpt>
      <trkpt lat="42.61049" lon="1.77492">
        <ele>2107.83</ele>
        <time>2013-03-23T12:36:46Z</time>
      </trkpt>
      <trkpt lat="42.61037" lon="1.77508">
        <ele>2107.35</ele>
        <time>2013-03-23T12:36:53Z</time>
      </trkpt>
      <trkpt lat="42.61017" lon="1.77525">
        <ele>2108.79</ele>
        <time>2013-03-23T12:37:07Z</time>
      </trkpt>
      <trkpt lat="42.61016" lon="1.77526">
        <ele>2109.75</ele>
        <time>2013-03-23T12:37:27Z</time>
      </trkpt>
      <trkpt lat="42.61013" lon="1.7753">
        <ele>2109.75</ele>
        <time>2013-03-23T12:37:39Z</time>
      </trkpt>
      <trkpt lat="42.61011" lon="1.77547">
        <ele>2108.79</ele>
        <time>2013-03-23T12:37:44Z</time>
      </trkpt>
      <trkpt lat="42.61003" lon="1.77556">
        <ele>2107.83</ele>
        <time>2013-03-23T12:37:47Z</time>
      </trkpt>
      <trkpt lat="42.60995" lon="1.77579">
        <ele>2104.46</ele>
        <time>2013-03-23T12:37:52Z</time>
      </trkpt>
      <trkpt lat="42.60993" lon="1.77584">
        <ele>2103.98</ele>
        <time>2013-03-23T12:37:53Z</time>
      </trkpt>
      <trkpt lat="42.60985" lon="1.77599">
        <ele>2100.62</ele>
        <time>2013-03-23T12:37:57Z</time>
      </trkpt>
      <trkpt lat="42.60982" lon="1.77604">
        <ele>2097.73</ele>
        <time>2013-03-23T12:38:06Z</time>
      </trkpt>
      <trkpt lat="42.60983" lon="1.77606">
        <ele>2097.73</ele>
        <time>2013-03-23T12:38:24Z</time>
      </trkpt>
      <trkpt lat="42.60975" lon="1.77632">
        <ele>2094.85</ele>
        <time>2013-03-23T12:38:32Z</time>
      </trkpt>
      <trkpt lat="42.6097" lon="1.77665">
        <ele>2091</ele>
        <time>2013-03-23T12:38:38Z</time>
      </trkpt>
      <trkpt lat="42.6097" lon="1.77671">
        <ele>2090.04</ele>
        <time>2013-03-23T12:38:39Z</time>
      </trkpt>
      <trkpt lat="42.60957" lon="1.77695">
        <ele>2088.12</ele>
        <time>2013-03-23T12:38:44Z</time>
      </trkpt>
      <trkpt lat="42.60935" lon="1.77694">
        <ele>2089.08</ele>
        <time>2013-03-23T12:38:55Z</time>
      </trkpt>
      <trkpt lat="42.60935" lon="1.77694">
        <ele>2089.56</ele>
        <time>2013-03-23T12:39:11Z</time>
      </trkpt>
      <trkpt lat="42.6093" lon="1.77694">
        <ele>2089.56</ele>
        <time>2013-03-23T12:39:22Z</time>
      </trkpt>
      <trkpt lat="42.6092" lon="1.77703">
        <ele>2087.16</ele>
        <time>2013-03-23T12:39:30Z</time>
      </trkpt>
      <trkpt lat="42.60906" lon="1.77696">
        <ele>2086.2</ele>
        <time>2013-03-23T12:39:37Z</time>
      </trkpt>
      <trkpt lat="42.60907" lon="1.77711">
        <ele>2083.79</ele>
        <time>2013-03-23T12:39:44Z</time>
      </trkpt>
      <trkpt lat="42.60899" lon="1.77713">
        <ele>2081.87</ele>
        <time>2013-03-23T12:39:50Z</time>
      </trkpt>
      <trkpt lat="42.60893" lon="1.7771">
        <ele>2080.91</ele>
        <time>2013-03-23T12:39:54Z</time>
      </trkpt>
      <trkpt lat="42.60881" lon="1.77715">
        <ele>2077.55</ele>
        <time>2013-03-23T12:40:01Z</time>
      </trkpt>
      <trkpt lat="42.60876" lon="1.77726">
        <ele>2076.1</ele>
        <time>2013-03-23T12:40:07Z</time>
      </trkpt>
      <trkpt lat="42.60873" lon="1.77725">
        <ele>2076.1</ele>
        <time>2013-03-23T12:40:08Z</time>
      </trkpt>
      <trkpt lat="42.6085" lon="1.77715">
        <ele>2076.59</ele>
        <time>2013-03-23T12:40:16Z</time>
      </trkpt>
      <trkpt lat="42.60835" lon="1.77725">
        <ele>2075.14</ele>
        <time>2013-03-23T12:40:22Z</time>
      </trkpt>
      <trkpt lat="42.608" lon="1.77727">
        <ele>2070.34</ele>
        <time>2013-03-23T12:40:28Z</time>
      </trkpt>
      <trkpt lat="42.60767" lon="1.77727">
        <ele>2066.97</ele>
        <time>2013-03-23T12:40:34Z</time>
      </trkpt>
      <trkpt lat="42.60763" lon="1.77726">
        <ele>2066.97</ele>
        <time>2013-03-23T12:40:35Z</time>
      </trkpt>
      <trkpt lat="42.6073" lon="1.77717">
        <ele>2066.01</ele>
        <time>2013-03-23T12:40:45Z</time>
      </trkpt>
      <trkpt lat="42.60728" lon="1.77718">
        <ele>2064.57</ele>
        <time>2013-03-23T12:40:54Z</time>
      </trkpt>
      <trkpt lat="42.6073" lon="1.77719">
        <ele>2064.09</ele>
        <time>2013-03-23T12:41:14Z</time>
      </trkpt>
      <trkpt lat="42.60731" lon="1.77723">
        <ele>2065.05</ele>
        <time>2013-03-23T12:41:27Z</time>
      </trkpt>
      <trkpt lat="42.60731" lon="1.77724">
        <ele>2064.09</ele>
        <time>2013-03-23T12:41:51Z</time>
      </trkpt>
      <trkpt lat="42.60732" lon="1.77724">
        <ele>2063.13</ele>
        <time>2013-03-23T12:42:09Z</time>
      </trkpt>
      <trkpt lat="42.60732" lon="1.77726">
        <ele>2062.17</ele>
        <time>2013-03-23T12:42:23Z</time>
      </trkpt>
      <trkpt lat="42.60711" lon="1.77718">
        <ele>2061.68</ele>
        <time>2013-03-23T12:42:35Z</time>
      </trkpt>
      <trkpt lat="42.60687" lon="1.77703">
        <ele>2062.17</ele>
        <time>2013-03-23T12:42:49Z</time>
      </trkpt>
      <trkpt lat="42.60665" lon="1.77716">
        <ele>2057.84</ele>
        <time>2013-03-23T12:42:55Z</time>
      </trkpt>
      <trkpt lat="42.60661" lon="1.77719">
        <ele>2056.88</ele>
        <time>2013-03-23T12:42:56Z</time>
      </trkpt>
      <trkpt lat="42.60628" lon="1.77742">
        <ele>2050.15</ele>
        <time>2013-03-23T12:43:03Z</time>
      </trkpt>
      <trkpt lat="42.60616" lon="1.77753">
        <ele>2049.19</ele>
        <time>2013-03-23T12:43:07Z</time>
      </trkpt>
      <trkpt lat="42.60599" lon="1.77757">
        <ele>2044.86</ele>
        <time>2013-03-23T12:43:18Z</time>
      </trkpt>
      <trkpt lat="42.606" lon="1.77757">
        <ele>2044.86</ele>
        <time>2013-03-23T12:43:31Z</time>
      </trkpt>
      <trkpt lat="42.60599" lon="1.77755">
        <ele>2045.82</ele>
        <time>2013-03-23T12:43:40Z</time>
      </trkpt>
      <trkpt lat="42.60599" lon="1.77759">
        <ele>2046.78</ele>
        <time>2013-03-23T12:43:49Z</time>
      </trkpt>
      <trkpt lat="42.60598" lon="1.7776">
        <ele>2047.75</ele>
        <time>2013-03-23T12:44:05Z</time>
      </trkpt>
      <trkpt lat="42.60598" lon="1.7776">
        <ele>2048.23</ele>
        <time>2013-03-23T12:44:13Z</time>
      </trkpt>
      <trkpt lat="42.60578" lon="1.77758">
        <ele>2046.78</ele>
        <time>2013-03-23T12:44:31Z</time>
      </trkpt>
      <trkpt lat="42.60545" lon="1.77739">
        <ele>2042.94</ele>
        <time>2013-03-23T12:44:44Z</time>
      </trkpt>
      <trkpt lat="42.60542" lon="1.77736">
        <ele>2042.46</ele>
        <time>2013-03-23T12:44:45Z</time>
      </trkpt>
      <trkpt lat="42.60508" lon="1.77716">
        <ele>2038.61</ele>
        <time>2013-03-23T12:44:51Z</time>
      </trkpt>
      <trkpt lat="42.60464" lon="1.77719">
        <ele>2035.25</ele>
        <time>2013-03-23T12:45:03Z</time>
      </trkpt>
      <trkpt lat="42.60446" lon="1.77721">
        <ele>2032.36</ele>
        <time>2013-03-23T12:45:18Z</time>
      </trkpt>
      <trkpt lat="42.60446" lon="1.77722">
        <ele>2032.36</ele>
        <time>2013-03-23T12:45:32Z</time>
      </trkpt>
      <trkpt lat="42.60444" lon="1.77724">
        <ele>2033.33</ele>
        <time>2013-03-23T12:45:49Z</time>
      </trkpt>
      <trkpt lat="42.60442" lon="1.77724">
        <ele>2031.88</ele>
        <time>2013-03-23T12:46:02Z</time>
      </trkpt>
      <trkpt lat="42.60442" lon="1.77724">
        <ele>2033.33</ele>
        <time>2013-03-23T12:46:12Z</time>
      </trkpt>
      <trkpt lat="42.60442" lon="1.77722">
        <ele>2036.21</ele>
        <time>2013-03-23T12:46:32Z</time>
      </trkpt>
      <trkpt lat="42.60442" lon="1.77722">
        <ele>2035.73</ele>
        <time>2013-03-23T12:46:49Z</time>
      </trkpt>
      <trkpt lat="42.60444" lon="1.77725">
        <ele>2035.73</ele>
        <time>2013-03-23T12:46:51Z</time>
      </trkpt>
      <trkpt lat="42.60443" lon="1.77732">
        <ele>2033.81</ele>
        <time>2013-03-23T12:47:03Z</time>
      </trkpt>
      <trkpt lat="42.60441" lon="1.7773">
        <ele>2033.81</ele>
        <time>2013-03-23T12:47:22Z</time>
      </trkpt>
      <trkpt lat="42.60431" lon="1.77732">
        <ele>2032.36</ele>
        <time>2013-03-23T12:47:27Z</time>
      </trkpt>
      <trkpt lat="42.60427" lon="1.7773">
        <ele>2031.88</ele>
        <time>2013-03-23T12:47:29Z</time>
      </trkpt>
      <trkpt lat="42.60417" lon="1.77737">
        <ele>2029</ele>
        <time>2013-03-23T12:47:33Z</time>
      </trkpt>
      <trkpt lat="42.60401" lon="1.77754">
        <ele>2021.31</ele>
        <time>2013-03-23T12:47:39Z</time>
      </trkpt>
      <trkpt lat="42.60385" lon="1.77771">
        <ele>2014.58</ele>
        <time>2013-03-23T12:47:44Z</time>
      </trkpt>
      <trkpt lat="42.60351" lon="1.77785">
        <ele>2012.18</ele>
        <time>2013-03-23T12:47:53Z</time>
      </trkpt>
      <trkpt lat="42.6034" lon="1.77795">
        <ele>2012.66</ele>
        <time>2013-03-23T12:48:01Z</time>
      </trkpt>
      <trkpt lat="42.6033" lon="1.77807">
        <ele>2012.18</ele>
        <time>2013-03-23T12:48:08Z</time>
      </trkpt>
      <trkpt lat="42.60319" lon="1.77817">
        <ele>2013.14</ele>
        <time>2013-03-23T12:48:14Z</time>
      </trkpt>
      <trkpt lat="42.60304" lon="1.7783">
        <ele>2014.1</ele>
        <time>2013-03-23T12:48:21Z</time>
      </trkpt>
      <trkpt lat="42.60295" lon="1.77836">
        <ele>2014.1</ele>
        <time>2013-03-23T12:48:26Z</time>
      </trkpt>
      <trkpt lat="42.6028" lon="1.77846">
        <ele>2015.54</ele>
        <time>2013-03-23T12:48:35Z</time>
      </trkpt>
      <trkpt lat="42.60279" lon="1.77849">
        <ele>2016.02</ele>
        <time>2013-03-23T12:48:44Z</time>
      </trkpt>
      <trkpt lat="42.6028" lon="1.77849">
        <ele>2014.58</ele>
        <time>2013-03-23T12:48:51Z</time>
      </trkpt>
      <trkpt lat="42.60277" lon="1.77848">
        <ele>2015.54</ele>
        <time>2013-03-23T12:48:56Z</time>
      </trkpt>
      <trkpt lat="42.60271" lon="1.7785">
        <ele>2014.58</ele>
        <time>2013-03-23T12:49:00Z</time>
      </trkpt>
      <trkpt lat="42.60261" lon="1.77854">
        <ele>2015.06</ele>
        <time>2013-03-23T12:49:09Z</time>
      </trkpt>
      <trkpt lat="42.60256" lon="1.77856">
        <ele>2016.5</ele>
        <time>2013-03-23T12:49:15Z</time>
      </trkpt>
      <trkpt lat="42.60255" lon="1.77861">
        <ele>2016.5</ele>
        <time>2013-03-23T12:49:22Z</time>
      </trkpt>
      <trkpt lat="42.60246" lon="1.77863">
        <ele>2015.06</ele>
        <time>2013-03-23T12:49:29Z</time>
      </trkpt>
      <trkpt lat="42.60247" lon="1.77862">
        <ele>2016.98</ele>
        <time>2013-03-23T12:49:39Z</time>
      </trkpt>
      <trkpt lat="42.60248" lon="1.77861">
        <ele>2015.54</ele>
        <time>2013-03-23T12:49:55Z</time>
      </trkpt>
      <trkpt lat="42.60248" lon="1.7786">
        <ele>2013.62</ele>
        <time>2013-03-23T12:50:16Z</time>
      </trkpt>
      <trkpt lat="42.60247" lon="1.7786">
        <ele>2013.14</ele>
        <time>2013-03-23T12:50:46Z</time>
      </trkpt>
      <trkpt lat="42.60248" lon="1.77863">
        <ele>2013.14</ele>
        <time>2013-03-23T12:51:05Z</time>
      </trkpt>
      <trkpt lat="42.60248" lon="1.77864">
        <ele>2013.14</ele>
        <time>2013-03-23T12:51:17Z</time>
      </trkpt>
      <trkpt lat="42.60242" lon="1.77862">
        <ele>2012.18</ele>
        <time>2013-03-23T12:51:21Z</time>
      </trkpt>
      <trkpt lat="42.60238" lon="1.77862">
        <ele>2012.66</ele>
        <time>2013-03-23T12:51:24Z</time>
      </trkpt>
      <trkpt lat="42.60235" lon="1.77862">
        <ele>2012.18</ele>
        <time>2013-03-23T12:51:25Z</time>
      </trkpt>
      <trkpt lat="42.60233" lon="1.77861">
        <ele>2012.18</ele>
        <time>2013-03-23T12:51:26Z</time>
      </trkpt>
      <trkpt lat="42.60231" lon="1.77861">
        <ele>2012.18</ele>
        <time>2013-03-23T12:51:27Z</time>
      </trkpt>
      <trkpt lat="42.6023" lon="1.7786">
        <ele>2012.18</ele>
        <time>2013-03-23T12:51:28Z</time>
      </trkpt>
      <trkpt lat="42.60228" lon="1.7786">
        <ele>2012.66</ele>
        <time>2013-03-23T12:51:29Z</time>
      </trkpt>
      <trkpt lat="42.60227" lon="1.77859">
        <ele>2013.14</ele>
        <time>2013-03-23T12:51:30Z</time>
      </trkpt>
      <trkpt lat="42.60224" lon="1.77859">
        <ele>2013.14</ele>
        <time>2013-03-23T12:51:31Z</time>
      </trkpt>
      <trkpt lat="42.60223" lon="1.77858">
        <ele>2013.14</ele>
        <time>2013-03-23T12:51:32Z</time>
      </trkpt>
      <trkpt lat="42.60221" lon="1.77857">
        <ele>2013.14</ele>
        <time>2013-03-23T12:51:33Z</time>
      </trkpt>
      <trkpt lat="42.6022" lon="1.77858">
        <ele>2014.1</ele>
        <time>2013-03-23T12:51:34Z</time>
      </trkpt>
      <trkpt lat="42.60218" lon="1.77858">
        <ele>2014.58</ele>
        <time>2013-03-23T12:51:35Z</time>
      </trkpt>
      <trkpt lat="42.60216" lon="1.77859">
        <ele>2015.06</ele>
        <time>2013-03-23T12:51:36Z</time>
      </trkpt>
      <trkpt lat="42.60214" lon="1.7786">
        <ele>2015.06</ele>
        <time>2013-03-23T12:51:37Z</time>
      </trkpt>
      <trkpt lat="42.60212" lon="1.7786">
        <ele>2015.54</ele>
        <time>2013-03-23T12:51:38Z</time>
      </trkpt>
      <trkpt lat="42.60209" lon="1.77861">
        <ele>2015.06</ele>
        <time>2013-03-23T12:51:39Z</time>
      </trkpt>
      <trkpt lat="42.60207" lon="1.77862">
        <ele>2015.06</ele>
        <time>2013-03-23T12:51:40Z</time>
      </trkpt>
      <trkpt lat="42.60205" lon="1.77862">
        <ele>2014.58</ele>
        <time>2013-03-23T12:51:41Z</time>
      </trkpt>
      <trkpt lat="42.60202" lon="1.77863">
        <ele>2014.1</ele>
        <time>2013-03-23T12:51:42Z</time>
      </trkpt>
      <trkpt lat="42.602" lon="1.77864">
        <ele>2014.1</ele>
        <time>2013-03-23T12:51:43Z</time>
      </trkpt>
      <trkpt lat="42.60198" lon="1.77866">
        <ele>2014.1</ele>
        <time>2013-03-23T12:51:44Z</time>
      </trkpt>
      <trkpt lat="42.60196" lon="1.77866">
        <ele>2013.62</ele>
        <time>2013-03-23T12:51:45Z</time>
      </trkpt>
      <trkpt lat="42.60195" lon="1.77867">
        <ele>2014.1</ele>
        <time>2013-03-23T12:51:46Z</time>
      </trkpt>
      <trkpt lat="42.60194" lon="1.77868">
        <ele>2014.1</ele>
        <time>2013-03-23T12:51:47Z</time>
      </trkpt>
      <trkpt lat="42.6019" lon="1.7787">
        <ele>2014.1</ele>
        <time>2013-03-23T12:51:51Z</time>
      </trkpt>
      <trkpt lat="42.6019" lon="1.77871">
        <ele>2014.1</ele>
        <time>2013-03-23T12:51:52Z</time>
      </trkpt>
      <trkpt lat="42.60188" lon="1.77871">
        <ele>2013.62</ele>
        <time>2013-03-23T12:51:53Z</time>
      </trkpt>
      <trkpt lat="42.60187" lon="1.77872">
        <ele>2014.1</ele>
        <time>2013-03-23T12:51:54Z</time>
      </trkpt>
      <trkpt lat="42.60183" lon="1.77873">
        <ele>2013.62</ele>
        <time>2013-03-23T12:52:01Z</time>
      </trkpt>
      <trkpt lat="42.60174" lon="1.77879">
        <ele>2014.1</ele>
        <time>2013-03-23T12:52:11Z</time>
      </trkpt>
      <trkpt lat="42.60171" lon="1.77882">
        <ele>2014.1</ele>
        <time>2013-03-23T12:52:17Z</time>
      </trkpt>
      <trkpt lat="42.60169" lon="1.77883">
        <ele>2014.1</ele>
        <time>2013-03-23T12:52:18Z</time>
      </trkpt>
      <trkpt lat="42.60167" lon="1.77885">
        <ele>2013.62</ele>
        <time>2013-03-23T12:52:22Z</time>
      </trkpt>
      <trkpt lat="42.60166" lon="1.77886">
        <ele>2013.62</ele>
        <time>2013-03-23T12:52:23Z</time>
      </trkpt>
      <trkpt lat="42.60164" lon="1.77886">
        <ele>2014.1</ele>
        <time>2013-03-23T12:52:24Z</time>
      </trkpt>
      <trkpt lat="42.60157" lon="1.77889">
        <ele>2014.58</ele>
        <time>2013-03-23T12:52:38Z</time>
      </trkpt>
      <trkpt lat="42.60153" lon="1.77894">
        <ele>2014.1</ele>
        <time>2013-03-23T12:52:48Z</time>
      </trkpt>
      <trkpt lat="42.60133" lon="1.77905">
        <ele>2012.18</ele>
        <time>2013-03-23T12:53:01Z</time>
      </trkpt>
      <trkpt lat="42.60127" lon="1.77908">
        <ele>2012.66</ele>
        <time>2013-03-23T12:53:13Z</time>
      </trkpt>
      <trkpt lat="42.60127" lon="1.77908">
        <ele>2012.66</ele>
        <time>2013-03-23T12:53:28Z</time>
      </trkpt>
      <trkpt lat="42.60129" lon="1.77908">
        <ele>2010.25</ele>
        <time>2013-03-23T12:53:45Z</time>
      </trkpt>
      <trkpt lat="42.60126" lon="1.77905">
        <ele>2010.73</ele>
        <time>2013-03-23T12:54:06Z</time>
      </trkpt>
      <trkpt lat="42.60127" lon="1.77909">
        <ele>2007.85</ele>
        <time>2013-03-23T12:54:18Z</time>
      </trkpt>
      <trkpt lat="42.60126" lon="1.7791">
        <ele>2005.93</ele>
        <time>2013-03-23T12:54:34Z</time>
      </trkpt>
      <trkpt lat="42.60126" lon="1.77908">
        <ele>2006.89</ele>
        <time>2013-03-23T12:54:47Z</time>
      </trkpt>
      <trkpt lat="42.60112" lon="1.77917">
        <ele>2005.93</ele>
        <time>2013-03-23T12:55:04Z</time>
      </trkpt>
      <trkpt lat="42.60083" lon="1.77941">
        <ele>2005.45</ele>
        <time>2013-03-23T12:55:13Z</time>
      </trkpt>
      <trkpt lat="42.60083" lon="1.77943">
        <ele>2004.97</ele>
        <time>2013-03-23T12:55:15Z</time>
      </trkpt>
      <trkpt lat="42.60085" lon="1.77947">
        <ele>2004.01</ele>
        <time>2013-03-23T12:55:16Z</time>
      </trkpt>
      <trkpt lat="42.60086" lon="1.77952">
        <ele>2002.56</ele>
        <time>2013-03-23T12:55:17Z</time>
      </trkpt>
      <trkpt lat="42.60084" lon="1.77958">
        <ele>2001.12</ele>
        <time>2013-03-23T12:55:18Z</time>
      </trkpt>
      <trkpt lat="42.60081" lon="1.77963">
        <ele>2000.16</ele>
        <time>2013-03-23T12:55:19Z</time>
      </trkpt>
      <trkpt lat="42.60077" lon="1.77966">
        <ele>1999.68</ele>
        <time>2013-03-23T12:55:20Z</time>
      </trkpt>
      <trkpt lat="42.60073" lon="1.77969">
        <ele>1998.72</ele>
        <time>2013-03-23T12:55:21Z</time>
      </trkpt>
      <trkpt lat="42.60071" lon="1.77971">
        <ele>1998.72</ele>
        <time>2013-03-23T12:55:22Z</time>
      </trkpt>
      <trkpt lat="42.60076" lon="1.77975">
        <ele>1997.28</ele>
        <time>2013-03-23T12:55:30Z</time>
      </trkpt>
      <trkpt lat="42.60074" lon="1.77976">
        <ele>1997.76</ele>
        <time>2013-03-23T12:55:44Z</time>
      </trkpt>
      <trkpt lat="42.60073" lon="1.77977">
        <ele>1997.28</ele>
        <time>2013-03-23T12:55:45Z</time>
      </trkpt>
      <trkpt lat="42.60072" lon="1.77979">
        <ele>1996.8</ele>
        <time>2013-03-23T12:55:46Z</time>
      </trkpt>
      <trkpt lat="42.6007" lon="1.7798">
        <ele>1996.8</ele>
        <time>2013-03-23T12:55:47Z</time>
      </trkpt>
      <trkpt lat="42.60069" lon="1.77981">
        <ele>1996.8</ele>
        <time>2013-03-23T12:55:48Z</time>
      </trkpt>
      <trkpt lat="42.60067" lon="1.77982">
        <ele>1996.8</ele>
        <time>2013-03-23T12:55:49Z</time>
      </trkpt>
      <trkpt lat="42.60064" lon="1.77982">
        <ele>1996.8</ele>
        <time>2013-03-23T12:55:50Z</time>
      </trkpt>
      <trkpt lat="42.60062" lon="1.77983">
        <ele>1997.28</ele>
        <time>2013-03-23T12:55:51Z</time>
      </trkpt>
      <trkpt lat="42.60041" lon="1.78">
        <ele>1996.32</ele>
        <time>2013-03-23T12:56:08Z</time>
      </trkpt>
      <trkpt lat="42.60018" lon="1.78023">
        <ele>1995.83</ele>
        <time>2013-03-23T12:56:22Z</time>
      </trkpt>
      <trkpt lat="42.59987" lon="1.78062">
        <ele>1989.1</ele>
        <time>2013-03-23T12:56:30Z</time>
      </trkpt>
      <trkpt lat="42.59985" lon="1.78069">
        <ele>1988.62</ele>
        <time>2013-03-23T12:56:31Z</time>
      </trkpt>
      <trkpt lat="42.59984" lon="1.78077">
        <ele>1988.14</ele>
        <time>2013-03-23T12:56:32Z</time>
      </trkpt>
      <trkpt lat="42.59982" lon="1.78085">
        <ele>1987.18</ele>
        <time>2013-03-23T12:56:33Z</time>
      </trkpt>
      <trkpt lat="42.59981" lon="1.78093">
        <ele>1986.7</ele>
        <time>2013-03-23T12:56:34Z</time>
      </trkpt>
      <trkpt lat="42.59974" lon="1.78126">
        <ele>1986.7</ele>
        <time>2013-03-23T12:56:42Z</time>
      </trkpt>
      <trkpt lat="42.59974" lon="1.7813">
        <ele>1987.66</ele>
        <time>2013-03-23T12:56:53Z</time>
      </trkpt>
      <trkpt lat="42.59974" lon="1.78131">
        <ele>1989.1</ele>
        <time>2013-03-23T12:57:02Z</time>
      </trkpt>
      <trkpt lat="42.59974" lon="1.78133">
        <ele>1988.62</ele>
        <time>2013-03-23T12:57:20Z</time>
      </trkpt>
      <trkpt lat="42.59975" lon="1.78132">
        <ele>1991.51</ele>
        <time>2013-03-23T12:57:43Z</time>
      </trkpt>
      <trkpt lat="42.59974" lon="1.78132">
        <ele>1991.51</ele>
        <time>2013-03-23T12:57:54Z</time>
      </trkpt>
      <trkpt lat="42.59973" lon="1.78132">
        <ele>1993.43</ele>
        <time>2013-03-23T12:58:19Z</time>
      </trkpt>
      <trkpt lat="42.59974" lon="1.78131">
        <ele>1996.32</ele>
        <time>2013-03-23T12:58:46Z</time>
      </trkpt>
      <trkpt lat="42.59975" lon="1.78132">
        <ele>1994.87</ele>
        <time>2013-03-23T12:59:11Z</time>
      </trkpt>
      <trkpt lat="42.59976" lon="1.78134">
        <ele>1994.87</ele>
        <time>2013-03-23T12:59:31Z</time>
      </trkpt>
      <trkpt lat="42.59976" lon="1.78136">
        <ele>1994.39</ele>
        <time>2013-03-23T12:59:48Z</time>
      </trkpt>
      <trkpt lat="42.59971" lon="1.78153">
        <ele>1992.95</ele>
        <time>2013-03-23T12:59:54Z</time>
      </trkpt>
      <trkpt lat="42.59983" lon="1.78178">
        <ele>1990.07</ele>
        <time>2013-03-23T13:00:01Z</time>
      </trkpt>
      <trkpt lat="42.59983" lon="1.78182">
        <ele>1989.59</ele>
        <time>2013-03-23T13:00:02Z</time>
      </trkpt>
      <trkpt lat="42.5998" lon="1.7821">
        <ele>1984.3</ele>
        <time>2013-03-23T13:00:07Z</time>
      </trkpt>
      <trkpt lat="42.59986" lon="1.7822">
        <ele>1980.93</ele>
        <time>2013-03-23T13:00:13Z</time>
      </trkpt>
      <trkpt lat="42.59986" lon="1.78222">
        <ele>1980.45</ele>
        <time>2013-03-23T13:00:23Z</time>
      </trkpt>
      <trkpt lat="42.59986" lon="1.78222">
        <ele>1979.97</ele>
        <time>2013-03-23T13:00:31Z</time>
      </trkpt>
      <trkpt lat="42.59983" lon="1.78229">
        <ele>1979.49</ele>
        <time>2013-03-23T13:00:38Z</time>
      </trkpt>
      <trkpt lat="42.59986" lon="1.78233">
        <ele>1978.05</ele>
        <time>2013-03-23T13:00:47Z</time>
      </trkpt>
      <trkpt lat="42.59977" lon="1.78278">
        <ele>1972.76</ele>
        <time>2013-03-23T13:00:53Z</time>
      </trkpt>
      <trkpt lat="42.59965" lon="1.78304">
        <ele>1970.84</ele>
        <time>2013-03-23T13:00:57Z</time>
      </trkpt>
      <trkpt lat="42.59953" lon="1.78319">
        <ele>1972.28</ele>
        <time>2013-03-23T13:01:07Z</time>
      </trkpt>
      <trkpt lat="42.59951" lon="1.78328">
        <ele>1972.28</ele>
        <time>2013-03-23T13:01:16Z</time>
      </trkpt>
      <trkpt lat="42.59951" lon="1.78331">
        <ele>1970.84</ele>
        <time>2013-03-23T13:01:29Z</time>
      </trkpt>
      <trkpt lat="42.59951" lon="1.78331">
        <ele>1970.84</ele>
        <time>2013-03-23T13:01:34Z</time>
      </trkpt>
      <trkpt lat="42.59952" lon="1.78331">
        <ele>1969.88</ele>
        <time>2013-03-23T13:01:51Z</time>
      </trkpt>
      <trkpt lat="42.5995" lon="1.78333">
        <ele>1966.51</ele>
        <time>2013-03-23T13:02:04Z</time>
      </trkpt>
      <trkpt lat="42.59948" lon="1.78335">
        <ele>1969.4</ele>
        <time>2013-03-23T13:02:10Z</time>
      </trkpt>
      <trkpt lat="42.59945" lon="1.78346">
        <ele>1968.92</ele>
        <time>2013-03-23T13:02:17Z</time>
      </trkpt>
      <trkpt lat="42.59944" lon="1.78354">
        <ele>1968.92</ele>
        <time>2013-03-23T13:02:21Z</time>
      </trkpt>
      <trkpt lat="42.59943" lon="1.78359">
        <ele>1968.44</ele>
        <time>2013-03-23T13:02:24Z</time>
      </trkpt>
      <trkpt lat="42.59944" lon="1.78362">
        <ele>1967.48</ele>
        <time>2013-03-23T13:02:27Z</time>
      </trkpt>
      <trkpt lat="42.59943" lon="1.78367">
        <ele>1966.99</ele>
        <time>2013-03-23T13:02:31Z</time>
      </trkpt>
      <trkpt lat="42.59943" lon="1.78373">
        <ele>1965.55</ele>
        <time>2013-03-23T13:02:34Z</time>
      </trkpt>
      <trkpt lat="42.59943" lon="1.78381">
        <ele>1963.63</ele>
        <time>2013-03-23T13:02:38Z</time>
      </trkpt>
      <trkpt lat="42.59937" lon="1.78409">
        <ele>1961.71</ele>
        <time>2013-03-23T13:02:53Z</time>
      </trkpt>
      <trkpt lat="42.59937" lon="1.78414">
        <ele>1960.75</ele>
        <time>2013-03-23T13:02:56Z</time>
      </trkpt>
      <trkpt lat="42.59932" lon="1.78419">
        <ele>1960.27</ele>
        <time>2013-03-23T13:03:01Z</time>
      </trkpt>
      <trkpt lat="42.59929" lon="1.78426">
        <ele>1962.19</ele>
        <time>2013-03-23T13:03:06Z</time>
      </trkpt>
      <trkpt lat="42.59925" lon="1.78431">
        <ele>1961.71</ele>
        <time>2013-03-23T13:03:11Z</time>
      </trkpt>
      <trkpt lat="42.5992" lon="1.78437">
        <ele>1962.19</ele>
        <time>2013-03-23T13:03:16Z</time>
      </trkpt>
      <trkpt lat="42.59917" lon="1.78441">
        <ele>1962.67</ele>
        <time>2013-03-23T13:03:20Z</time>
      </trkpt>
      <trkpt lat="42.59913" lon="1.78446">
        <ele>1962.67</ele>
        <time>2013-03-23T13:03:25Z</time>
      </trkpt>
      <trkpt lat="42.59908" lon="1.78458">
        <ele>1961.23</ele>
        <time>2013-03-23T13:03:36Z</time>
      </trkpt>
      <trkpt lat="42.59885" lon="1.7847">
        <ele>1956.42</ele>
        <time>2013-03-23T13:03:49Z</time>
      </trkpt>
      <trkpt lat="42.59863" lon="1.78475">
        <ele>1950.65</ele>
        <time>2013-03-23T13:04:04Z</time>
      </trkpt>
      <trkpt lat="42.59859" lon="1.7848">
        <ele>1950.65</ele>
        <time>2013-03-23T13:04:24Z</time>
      </trkpt>
      <trkpt lat="42.59846" lon="1.78488">
        <ele>1950.17</ele>
        <time>2013-03-23T13:04:38Z</time>
      </trkpt>
      <trkpt lat="42.59842" lon="1.7849">
        <ele>1950.17</ele>
        <time>2013-03-23T13:04:40Z</time>
      </trkpt>
      <trkpt lat="42.59828" lon="1.78505">
        <ele>1952.09</ele>
        <time>2013-03-23T13:04:49Z</time>
      </trkpt>
      <trkpt lat="42.59827" lon="1.78509">
        <ele>1952.09</ele>
        <time>2013-03-23T13:04:50Z</time>
      </trkpt>
      <trkpt lat="42.59827" lon="1.78511">
        <ele>1952.09</ele>
        <time>2013-03-23T13:04:51Z</time>
      </trkpt>
      <trkpt lat="42.59826" lon="1.78512">
        <ele>1952.57</ele>
        <time>2013-03-23T13:04:52Z</time>
      </trkpt>
      <trkpt lat="42.59826" lon="1.78515">
        <ele>1952.57</ele>
        <time>2013-03-23T13:04:53Z</time>
      </trkpt>
      <trkpt lat="42.59826" lon="1.78517">
        <ele>1952.09</ele>
        <time>2013-03-23T13:04:54Z</time>
      </trkpt>
      <trkpt lat="42.59825" lon="1.78519">
        <ele>1952.09</ele>
        <time>2013-03-23T13:04:55Z</time>
      </trkpt>
      <trkpt lat="42.59824" lon="1.78519">
        <ele>1955.94</ele>
        <time>2013-03-23T13:05:11Z</time>
      </trkpt>
      <trkpt lat="42.59826" lon="1.78519">
        <ele>1955.94</ele>
        <time>2013-03-23T13:05:32Z</time>
      </trkpt>
      <trkpt lat="42.59823" lon="1.78523">
        <ele>1954.02</ele>
        <time>2013-03-23T13:05:42Z</time>
      </trkpt>
      <trkpt lat="42.59818" lon="1.78525">
        <ele>1951.13</ele>
        <time>2013-03-23T13:06:04Z</time>
      </trkpt>
      <trkpt lat="42.59816" lon="1.78535">
        <ele>1953.06</ele>
        <time>2013-03-23T13:06:12Z</time>
      </trkpt>
      <trkpt lat="42.59813" lon="1.78538">
        <ele>1952.57</ele>
        <time>2013-03-23T13:06:13Z</time>
      </trkpt>
      <trkpt lat="42.59811" lon="1.78543">
        <ele>1951.61</ele>
        <time>2013-03-23T13:06:14Z</time>
      </trkpt>
      <trkpt lat="42.59806" lon="1.7855">
        <ele>1949.69</ele>
        <time>2013-03-23T13:06:16Z</time>
      </trkpt>
      <trkpt lat="42.59808" lon="1.78552">
        <ele>1949.21</ele>
        <time>2013-03-23T13:06:24Z</time>
      </trkpt>
      <trkpt lat="42.59809" lon="1.78554">
        <ele>1947.29</ele>
        <time>2013-03-23T13:06:37Z</time>
      </trkpt>
      <trkpt lat="42.59806" lon="1.78577">
        <ele>1942.48</ele>
        <time>2013-03-23T13:06:44Z</time>
      </trkpt>
      <trkpt lat="42.59798" lon="1.78592">
        <ele>1937.67</ele>
        <time>2013-03-23T13:06:48Z</time>
      </trkpt>
      <trkpt lat="42.59794" lon="1.78594">
        <ele>1936.23</ele>
        <time>2013-03-23T13:06:49Z</time>
      </trkpt>
      <trkpt lat="42.59792" lon="1.78596">
        <ele>1934.79</ele>
        <time>2013-03-23T13:06:50Z</time>
      </trkpt>
      <trkpt lat="42.59792" lon="1.786">
        <ele>1933.35</ele>
        <time>2013-03-23T13:06:51Z</time>
      </trkpt>
      <trkpt lat="42.59795" lon="1.78604">
        <ele>1931.91</ele>
        <time>2013-03-23T13:06:52Z</time>
      </trkpt>
      <trkpt lat="42.59798" lon="1.78613">
        <ele>1929.5</ele>
        <time>2013-03-23T13:06:54Z</time>
      </trkpt>
      <trkpt lat="42.598" lon="1.78621">
        <ele>1928.06</ele>
        <time>2013-03-23T13:06:55Z</time>
      </trkpt>
      <trkpt lat="42.59802" lon="1.78637">
        <ele>1925.18</ele>
        <time>2013-03-23T13:06:57Z</time>
      </trkpt>
      <trkpt lat="42.59792" lon="1.78651">
        <ele>1917.01</ele>
        <time>2013-03-23T13:07:03Z</time>
      </trkpt>
      <trkpt lat="42.59782" lon="1.78654">
        <ele>1914.12</ele>
        <time>2013-03-23T13:07:07Z</time>
      </trkpt>
      <trkpt lat="42.5978" lon="1.78657">
        <ele>1913.16</ele>
        <time>2013-03-23T13:07:08Z</time>
      </trkpt>
      <trkpt lat="42.59778" lon="1.7866">
        <ele>1912.2</ele>
        <time>2013-03-23T13:07:09Z</time>
      </trkpt>
      <trkpt lat="42.59776" lon="1.78662">
        <ele>1911.24</ele>
        <time>2013-03-23T13:07:10Z</time>
      </trkpt>
      <trkpt lat="42.59775" lon="1.78664">
        <ele>1910.28</ele>
        <time>2013-03-23T13:07:11Z</time>
      </trkpt>
      <trkpt lat="42.59773" lon="1.78666">
        <ele>1909.32</ele>
        <time>2013-03-23T13:07:12Z</time>
      </trkpt>
      <trkpt lat="42.59772" lon="1.78669">
        <ele>1909.32</ele>
        <time>2013-03-23T13:07:13Z</time>
      </trkpt>
      <trkpt lat="42.59771" lon="1.78673">
        <ele>1908.83</ele>
        <time>2013-03-23T13:07:14Z</time>
      </trkpt>
      <trkpt lat="42.59768" lon="1.78676">
        <ele>1908.35</ele>
        <time>2013-03-23T13:07:15Z</time>
      </trkpt>
      <trkpt lat="42.59765" lon="1.78676">
        <ele>1908.35</ele>
        <time>2013-03-23T13:07:16Z</time>
      </trkpt>
      <trkpt lat="42.59761" lon="1.78675">
        <ele>1907.39</ele>
        <time>2013-03-23T13:07:17Z</time>
      </trkpt>
      <trkpt lat="42.59758" lon="1.78676">
        <ele>1906.91</ele>
        <time>2013-03-23T13:07:18Z</time>
      </trkpt>
      <trkpt lat="42.59754" lon="1.78678">
        <ele>1905.95</ele>
        <time>2013-03-23T13:07:19Z</time>
      </trkpt>
      <trkpt lat="42.5975" lon="1.78677">
        <ele>1904.99</ele>
        <time>2013-03-23T13:07:20Z</time>
      </trkpt>
      <trkpt lat="42.59741" lon="1.78665">
        <ele>1901.63</ele>
        <time>2013-03-23T13:07:23Z</time>
      </trkpt>
      <trkpt lat="42.59737" lon="1.78662">
        <ele>1900.18</ele>
        <time>2013-03-23T13:07:24Z</time>
      </trkpt>
      <trkpt lat="42.59725" lon="1.78656">
        <ele>1897.3</ele>
        <time>2013-03-23T13:07:27Z</time>
      </trkpt>
      <trkpt lat="42.59721" lon="1.78657">
        <ele>1896.82</ele>
        <time>2013-03-23T13:07:28Z</time>
      </trkpt>
      <trkpt lat="42.59716" lon="1.78661">
        <ele>1895.86</ele>
        <time>2013-03-23T13:07:29Z</time>
      </trkpt>
      <trkpt lat="42.59711" lon="1.78662">
        <ele>1894.42</ele>
        <time>2013-03-23T13:07:30Z</time>
      </trkpt>
      <trkpt lat="42.59705" lon="1.78664">
        <ele>1892.97</ele>
        <time>2013-03-23T13:07:31Z</time>
      </trkpt>
      <trkpt lat="42.597" lon="1.78667">
        <ele>1892.01</ele>
        <time>2013-03-23T13:07:32Z</time>
      </trkpt>
      <trkpt lat="42.59695" lon="1.78669">
        <ele>1890.57</ele>
        <time>2013-03-23T13:07:33Z</time>
      </trkpt>
      <trkpt lat="42.5969" lon="1.78671">
        <ele>1889.13</ele>
        <time>2013-03-23T13:07:34Z</time>
      </trkpt>
      <trkpt lat="42.59687" lon="1.78675">
        <ele>1888.17</ele>
        <time>2013-03-23T13:07:35Z</time>
      </trkpt>
      <trkpt lat="42.59683" lon="1.78678">
        <ele>1887.21</ele>
        <time>2013-03-23T13:07:36Z</time>
      </trkpt>
      <trkpt lat="42.59679" lon="1.7868">
        <ele>1885.76</ele>
        <time>2013-03-23T13:07:37Z</time>
      </trkpt>
      <trkpt lat="42.59676" lon="1.78683">
        <ele>1884.8</ele>
        <time>2013-03-23T13:07:38Z</time>
      </trkpt>
      <trkpt lat="42.59676" lon="1.78688">
        <ele>1884.32</ele>
        <time>2013-03-23T13:07:44Z</time>
      </trkpt>
      <trkpt lat="42.59676" lon="1.78689">
        <ele>1886.72</ele>
        <time>2013-03-23T13:07:55Z</time>
      </trkpt>
      <trkpt lat="42.59676" lon="1.7869">
        <ele>1889.61</ele>
        <time>2013-03-23T13:08:24Z</time>
      </trkpt>
      <trkpt lat="42.59677" lon="1.78692">
        <ele>1890.57</ele>
        <time>2013-03-23T13:08:41Z</time>
      </trkpt>
      <trkpt lat="42.59678" lon="1.7869">
        <ele>1891.53</ele>
        <time>2013-03-23T13:08:56Z</time>
      </trkpt>
      <trkpt lat="42.59676" lon="1.78692">
        <ele>1892.01</ele>
        <time>2013-03-23T13:09:02Z</time>
      </trkpt>
      <trkpt lat="42.59676" lon="1.78694">
        <ele>1891.05</ele>
        <time>2013-03-23T13:09:03Z</time>
      </trkpt>
      <trkpt lat="42.59664" lon="1.78734">
        <ele>1885.28</ele>
        <time>2013-03-23T13:09:12Z</time>
      </trkpt>
      <trkpt lat="42.59657" lon="1.78743">
        <ele>1883.36</ele>
        <time>2013-03-23T13:09:16Z</time>
      </trkpt>
      <trkpt lat="42.59655" lon="1.78738">
        <ele>1880.96</ele>
        <time>2013-03-23T13:09:24Z</time>
      </trkpt>
      <trkpt lat="42.59653" lon="1.7874">
        <ele>1880.96</ele>
        <time>2013-03-23T13:09:25Z</time>
      </trkpt>
      <trkpt lat="42.59651" lon="1.78743">
        <ele>1880.48</ele>
        <time>2013-03-23T13:09:26Z</time>
      </trkpt>
      <trkpt lat="42.59648" lon="1.78745">
        <ele>1880.48</ele>
        <time>2013-03-23T13:09:27Z</time>
      </trkpt>
      <trkpt lat="42.59645" lon="1.78748">
        <ele>1880</ele>
        <time>2013-03-23T13:09:28Z</time>
      </trkpt>
      <trkpt lat="42.5964" lon="1.78752">
        <ele>1879.03</ele>
        <time>2013-03-23T13:09:29Z</time>
      </trkpt>
      <trkpt lat="42.59635" lon="1.78757">
        <ele>1878.07</ele>
        <time>2013-03-23T13:09:30Z</time>
      </trkpt>
      <trkpt lat="42.59631" lon="1.78763">
        <ele>1876.63</ele>
        <time>2013-03-23T13:09:31Z</time>
      </trkpt>
      <trkpt lat="42.59627" lon="1.78768">
        <ele>1875.19</ele>
        <time>2013-03-23T13:09:32Z</time>
      </trkpt>
      <trkpt lat="42.59611" lon="1.78783">
        <ele>1867.02</ele>
        <time>2013-03-23T13:09:41Z</time>
      </trkpt>
      <trkpt lat="42.59604" lon="1.78786">
        <ele>1867.98</ele>
        <time>2013-03-23T13:09:52Z</time>
      </trkpt>
      <trkpt lat="42.59602" lon="1.78787">
        <ele>1867.5</ele>
        <time>2013-03-23T13:09:55Z</time>
      </trkpt>
      <trkpt lat="42.59592" lon="1.78783">
        <ele>1866.06</ele>
        <time>2013-03-23T13:10:00Z</time>
      </trkpt>
      <trkpt lat="42.59574" lon="1.78778">
        <ele>1863.65</ele>
        <time>2013-03-23T13:10:07Z</time>
      </trkpt>
      <trkpt lat="42.59573" lon="1.78781">
        <ele>1866.06</ele>
        <time>2013-03-23T13:10:17Z</time>
      </trkpt>
      <trkpt lat="42.59573" lon="1.78781">
        <ele>1868.46</ele>
        <time>2013-03-23T13:10:35Z</time>
      </trkpt>
      <trkpt lat="42.59572" lon="1.78785">
        <ele>1867.98</ele>
        <time>2013-03-23T13:10:53Z</time>
      </trkpt>
      <trkpt lat="42.5957" lon="1.78786">
        <ele>1870.38</ele>
        <time>2013-03-23T13:11:01Z</time>
      </trkpt>
      <trkpt lat="42.59562" lon="1.78783">
        <ele>1867.02</ele>
        <time>2013-03-23T13:11:08Z</time>
      </trkpt>
      <trkpt lat="42.59557" lon="1.78785">
        <ele>1866.06</ele>
        <time>2013-03-23T13:11:11Z</time>
      </trkpt>
      <trkpt lat="42.59532" lon="1.78786">
        <ele>1860.29</ele>
        <time>2013-03-23T13:11:18Z</time>
      </trkpt>
      <trkpt lat="42.59532" lon="1.78784">
        <ele>1859.81</ele>
        <time>2013-03-23T13:11:19Z</time>
      </trkpt>
      <trkpt lat="42.59529" lon="1.7878">
        <ele>1857.89</ele>
        <time>2013-03-23T13:11:25Z</time>
      </trkpt>
      <trkpt lat="42.59527" lon="1.7878">
        <ele>1857.4</ele>
        <time>2013-03-23T13:11:34Z</time>
      </trkpt>
      <trkpt lat="42.59525" lon="1.78781">
        <ele>1857.4</ele>
        <time>2013-03-23T13:11:35Z</time>
      </trkpt>
      <trkpt lat="42.59522" lon="1.7878">
        <ele>1856.92</ele>
        <time>2013-03-23T13:11:36Z</time>
      </trkpt>
      <trkpt lat="42.5952" lon="1.78777">
        <ele>1856.44</ele>
        <time>2013-03-23T13:11:37Z</time>
      </trkpt>
      <trkpt lat="42.59518" lon="1.78774">
        <ele>1855.48</ele>
        <time>2013-03-23T13:11:38Z</time>
      </trkpt>
      <trkpt lat="42.59515" lon="1.78773">
        <ele>1854.04</ele>
        <time>2013-03-23T13:11:39Z</time>
      </trkpt>
      <trkpt lat="42.59511" lon="1.78775">
        <ele>1852.6</ele>
        <time>2013-03-23T13:11:40Z</time>
      </trkpt>
      <trkpt lat="42.59508" lon="1.78776">
        <ele>1851.16</ele>
        <time>2013-03-23T13:11:41Z</time>
      </trkpt>
      <trkpt lat="42.59504" lon="1.78777">
        <ele>1849.71</ele>
        <time>2013-03-23T13:11:42Z</time>
      </trkpt>
      <trkpt lat="42.59499" lon="1.78779">
        <ele>1848.27</ele>
        <time>2013-03-23T13:11:43Z</time>
      </trkpt>
      <trkpt lat="42.59497" lon="1.78777">
        <ele>1847.31</ele>
        <time>2013-03-23T13:11:44Z</time>
      </trkpt>
      <trkpt lat="42.59495" lon="1.78774">
        <ele>1845.87</ele>
        <time>2013-03-23T13:11:45Z</time>
      </trkpt>
      <trkpt lat="42.59493" lon="1.78771">
        <ele>1844.91</ele>
        <time>2013-03-23T13:11:46Z</time>
      </trkpt>
      <trkpt lat="42.59489" lon="1.7877">
        <ele>1843.47</ele>
        <time>2013-03-23T13:11:47Z</time>
      </trkpt>
      <trkpt lat="42.59486" lon="1.78767">
        <ele>1842.5</ele>
        <time>2013-03-23T13:11:48Z</time>
      </trkpt>
      <trkpt lat="42.59483" lon="1.78763">
        <ele>1841.06</ele>
        <time>2013-03-23T13:11:49Z</time>
      </trkpt>
      <trkpt lat="42.5948" lon="1.78763">
        <ele>1839.62</ele>
        <time>2013-03-23T13:11:50Z</time>
      </trkpt>
      <trkpt lat="42.59479" lon="1.78767">
        <ele>1838.18</ele>
        <time>2013-03-23T13:11:51Z</time>
      </trkpt>
      <trkpt lat="42.59477" lon="1.78767">
        <ele>1836.74</ele>
        <time>2013-03-23T13:11:58Z</time>
      </trkpt>
      <trkpt lat="42.59476" lon="1.78768">
        <ele>1836.26</ele>
        <time>2013-03-23T13:11:59Z</time>
      </trkpt>
      <trkpt lat="42.59467" lon="1.7877">
        <ele>1835.77</ele>
        <time>2013-03-23T13:12:02Z</time>
      </trkpt>
      <trkpt lat="42.59464" lon="1.78769">
        <ele>1835.77</ele>
        <time>2013-03-23T13:12:03Z</time>
      </trkpt>
      <trkpt lat="42.5946" lon="1.78762">
        <ele>1834.33</ele>
        <time>2013-03-23T13:12:05Z</time>
      </trkpt>
      <trkpt lat="42.59457" lon="1.78762">
        <ele>1833.85</ele>
        <time>2013-03-23T13:12:06Z</time>
      </trkpt>
      <trkpt lat="42.59454" lon="1.78758">
        <ele>1832.89</ele>
        <time>2013-03-23T13:12:07Z</time>
      </trkpt>
      <trkpt lat="42.59454" lon="1.78755">
        <ele>1831.93</ele>
        <time>2013-03-23T13:12:08Z</time>
      </trkpt>
      <trkpt lat="42.59453" lon="1.78753">
        <ele>1831.93</ele>
        <time>2013-03-23T13:12:21Z</time>
      </trkpt>
      <trkpt lat="42.59454" lon="1.78751">
        <ele>1830.49</ele>
        <time>2013-03-23T13:12:31Z</time>
      </trkpt>
      <trkpt lat="42.59453" lon="1.78748">
        <ele>1830.49</ele>
        <time>2013-03-23T13:12:32Z</time>
      </trkpt>
      <trkpt lat="42.59451" lon="1.78745">
        <ele>1830.01</ele>
        <time>2013-03-23T13:12:33Z</time>
      </trkpt>
      <trkpt lat="42.59449" lon="1.78742">
        <ele>1827.6</ele>
        <time>2013-03-23T13:12:40Z</time>
      </trkpt>
      <trkpt lat="42.59448" lon="1.7874">
        <ele>1827.12</ele>
        <time>2013-03-23T13:12:42Z</time>
      </trkpt>
      <trkpt lat="42.59447" lon="1.78741">
        <ele>1826.64</ele>
        <time>2013-03-23T13:12:44Z</time>
      </trkpt>
      <trkpt lat="42.59448" lon="1.78739">
        <ele>1825.2</ele>
        <time>2013-03-23T13:12:54Z</time>
      </trkpt>
      <trkpt lat="42.59449" lon="1.78738">
        <ele>1825.2</ele>
        <time>2013-03-23T13:12:55Z</time>
      </trkpt>
      <trkpt lat="42.5945" lon="1.78736">
        <ele>1824.72</ele>
        <time>2013-03-23T13:12:56Z</time>
      </trkpt>
      <trkpt lat="42.59455" lon="1.78732">
        <ele>1824.24</ele>
        <time>2013-03-23T13:13:05Z</time>
      </trkpt>
      <trkpt lat="42.59455" lon="1.78723">
        <ele>1823.28</ele>
        <time>2013-03-23T13:13:14Z</time>
      </trkpt>
      <trkpt lat="42.59457" lon="1.78721">
        <ele>1823.28</ele>
        <time>2013-03-23T13:13:26Z</time>
      </trkpt>
      <trkpt lat="42.59458" lon="1.78717">
        <ele>1820.87</ele>
        <time>2013-03-23T13:13:53Z</time>
      </trkpt>
      <trkpt lat="42.59451" lon="1.78713">
        <ele>1819.91</ele>
        <time>2013-03-23T13:14:02Z</time>
      </trkpt>
      <trkpt lat="42.59445" lon="1.78709">
        <ele>1820.39</ele>
        <time>2013-03-23T13:14:11Z</time>
      </trkpt>
      <trkpt lat="42.59443" lon="1.78707">
        <ele>1819.91</ele>
        <time>2013-03-23T13:14:12Z</time>
      </trkpt>
      <trkpt lat="42.59442" lon="1.78705">
        <ele>1818.95</ele>
        <time>2013-03-23T13:14:13Z</time>
      </trkpt>
      <trkpt lat="42.59441" lon="1.78704">
        <ele>1818.95</ele>
        <time>2013-03-23T13:14:14Z</time>
      </trkpt>
      <trkpt lat="42.59439" lon="1.78703">
        <ele>1818.95</ele>
        <time>2013-03-23T13:14:15Z</time>
      </trkpt>
      <trkpt lat="42.59437" lon="1.78702">
        <ele>1818.47</ele>
        <time>2013-03-23T13:14:16Z</time>
      </trkpt>
      <trkpt lat="42.59436" lon="1.78701">
        <ele>1818.47</ele>
        <time>2013-03-23T13:14:17Z</time>
      </trkpt>
      <trkpt lat="42.59429" lon="1.78688">
        <ele>1818.47</ele>
        <time>2013-03-23T13:14:30Z</time>
      </trkpt>
      <trkpt lat="42.59423" lon="1.78681">
        <ele>1816.55</ele>
        <time>2013-03-23T13:14:38Z</time>
      </trkpt>
      <trkpt lat="42.59423" lon="1.7868">
        <ele>1817.51</ele>
        <time>2013-03-23T13:14:55Z</time>
      </trkpt>
      <trkpt lat="42.59415" lon="1.78668">
        <ele>1816.07</ele>
        <time>2013-03-23T13:15:02Z</time>
      </trkpt>
      <trkpt lat="42.5941" lon="1.78663">
        <ele>1814.15</ele>
        <time>2013-03-23T13:15:10Z</time>
      </trkpt>
      <trkpt lat="42.59397" lon="1.78653">
        <ele>1813.18</ele>
        <time>2013-03-23T13:15:17Z</time>
      </trkpt>
      <trkpt lat="42.59394" lon="1.78649">
        <ele>1811.74</ele>
        <time>2013-03-23T13:15:28Z</time>
      </trkpt>
      <trkpt lat="42.59392" lon="1.7865">
        <ele>1811.74</ele>
        <time>2013-03-23T13:15:36Z</time>
      </trkpt>
      <trkpt lat="42.59392" lon="1.78648">
        <ele>1811.26</ele>
        <time>2013-03-23T13:15:48Z</time>
      </trkpt>
      <trkpt lat="42.59392" lon="1.78648">
        <ele>1810.78</ele>
        <time>2013-03-23T13:16:07Z</time>
      </trkpt>
      <trkpt lat="42.59392" lon="1.78651">
        <ele>1812.22</ele>
        <time>2013-03-23T13:16:26Z</time>
      </trkpt>
      <trkpt lat="42.59392" lon="1.7865">
        <ele>1811.26</ele>
        <time>2013-03-23T13:16:43Z</time>
      </trkpt>
      <trkpt lat="42.59382" lon="1.78641">
        <ele>1809.82</ele>
        <time>2013-03-23T13:16:53Z</time>
      </trkpt>
      <trkpt lat="42.5938" lon="1.7864">
        <ele>1808.86</ele>
        <time>2013-03-23T13:16:54Z</time>
      </trkpt>
      <trkpt lat="42.5938" lon="1.78638">
        <ele>1808.86</ele>
        <time>2013-03-23T13:16:55Z</time>
      </trkpt>
      <trkpt lat="42.59377" lon="1.78635">
        <ele>1806.94</ele>
        <time>2013-03-23T13:17:02Z</time>
      </trkpt>
      <trkpt lat="42.59374" lon="1.78633">
        <ele>1805.97</ele>
        <time>2013-03-23T13:17:03Z</time>
      </trkpt>
      <trkpt lat="42.59371" lon="1.78631">
        <ele>1805.49</ele>
        <time>2013-03-23T13:17:04Z</time>
      </trkpt>
      <trkpt lat="42.59363" lon="1.78626">
        <ele>1803.09</ele>
        <time>2013-03-23T13:17:07Z</time>
      </trkpt>
      <trkpt lat="42.59361" lon="1.78628">
        <ele>1801.65</ele>
        <time>2013-03-23T13:17:08Z</time>
      </trkpt>
      <trkpt lat="42.59361" lon="1.78633">
        <ele>1800.69</ele>
        <time>2013-03-23T13:17:09Z</time>
      </trkpt>
      <trkpt lat="42.59361" lon="1.78637">
        <ele>1799.24</ele>
        <time>2013-03-23T13:17:10Z</time>
      </trkpt>
      <trkpt lat="42.59358" lon="1.78641">
        <ele>1797.32</ele>
        <time>2013-03-23T13:17:11Z</time>
      </trkpt>
      <trkpt lat="42.59356" lon="1.78641">
        <ele>1795.4</ele>
        <time>2013-03-23T13:17:12Z</time>
      </trkpt>
      <trkpt lat="42.59355" lon="1.78639">
        <ele>1790.59</ele>
        <time>2013-03-23T13:17:23Z</time>
      </trkpt>
      <trkpt lat="42.59354" lon="1.7864">
        <ele>1791.55</ele>
        <time>2013-03-23T13:17:27Z</time>
      </trkpt>
      <trkpt lat="42.59353" lon="1.78643">
        <ele>1791.07</ele>
        <time>2013-03-23T13:17:28Z</time>
      </trkpt>
      <trkpt lat="42.5935" lon="1.7865">
        <ele>1789.63</ele>
        <time>2013-03-23T13:17:34Z</time>
      </trkpt>
      <trkpt lat="42.59349" lon="1.78649">
        <ele>1791.55</ele>
        <time>2013-03-23T13:17:40Z</time>
      </trkpt>
      <trkpt lat="42.59346" lon="1.78646">
        <ele>1791.55</ele>
        <time>2013-03-23T13:17:42Z</time>
      </trkpt>
      <trkpt lat="42.59344" lon="1.78644">
        <ele>1791.07</ele>
        <time>2013-03-23T13:17:43Z</time>
      </trkpt>
      <trkpt lat="42.59342" lon="1.78642">
        <ele>1790.59</ele>
        <time>2013-03-23T13:17:44Z</time>
      </trkpt>
      <trkpt lat="42.5934" lon="1.78641">
        <ele>1790.59</ele>
        <time>2013-03-23T13:17:45Z</time>
      </trkpt>
      <trkpt lat="42.59338" lon="1.78639">
        <ele>1790.11</ele>
        <time>2013-03-23T13:17:46Z</time>
      </trkpt>
      <trkpt lat="42.59335" lon="1.78638">
        <ele>1789.15</ele>
        <time>2013-03-23T13:17:50Z</time>
      </trkpt>
      <trkpt lat="42.59334" lon="1.78641">
        <ele>1788.19</ele>
        <time>2013-03-23T13:17:51Z</time>
      </trkpt>
      <trkpt lat="42.59336" lon="1.78658">
        <ele>1783.86</ele>
        <time>2013-03-23T13:17:57Z</time>
      </trkpt>
      <trkpt lat="42.59336" lon="1.7866">
        <ele>1783.38</ele>
        <time>2013-03-23T13:18:04Z</time>
      </trkpt>
      <trkpt lat="42.59325" lon="1.78656">
        <ele>1780.02</ele>
        <time>2013-03-23T13:18:10Z</time>
      </trkpt>
      <trkpt lat="42.59322" lon="1.7865">
        <ele>1776.17</ele>
        <time>2013-03-23T13:18:21Z</time>
      </trkpt>
      <trkpt lat="42.59321" lon="1.78649">
        <ele>1775.21</ele>
        <time>2013-03-23T13:18:22Z</time>
      </trkpt>
      <trkpt lat="42.59319" lon="1.78652">
        <ele>1775.21</ele>
        <time>2013-03-23T13:18:24Z</time>
      </trkpt>
      <trkpt lat="42.59319" lon="1.78658">
        <ele>1772.33</ele>
        <time>2013-03-23T13:18:30Z</time>
      </trkpt>
      <trkpt lat="42.59317" lon="1.7866">
        <ele>1770.41</ele>
        <time>2013-03-23T13:18:37Z</time>
      </trkpt>
      <trkpt lat="42.59303" lon="1.78654">
        <ele>1766.08</ele>
        <time>2013-03-23T13:18:45Z</time>
      </trkpt>
      <trkpt lat="42.59298" lon="1.78652">
        <ele>1764.64</ele>
        <time>2013-03-23T13:18:48Z</time>
      </trkpt>
      <trkpt lat="42.59295" lon="1.78652">
        <ele>1763.2</ele>
        <time>2013-03-23T13:18:51Z</time>
      </trkpt>
      <trkpt lat="42.59284" lon="1.78645">
        <ele>1755.02</ele>
        <time>2013-03-23T13:19:03Z</time>
      </trkpt>
      <trkpt lat="42.59269" lon="1.78637">
        <ele>1751.66</ele>
        <time>2013-03-23T13:19:14Z</time>
      </trkpt>
      <trkpt lat="42.59262" lon="1.78635">
        <ele>1752.14</ele>
        <time>2013-03-23T13:19:24Z</time>
      </trkpt>
      <trkpt lat="42.59259" lon="1.78635">
        <ele>1751.66</ele>
        <time>2013-03-23T13:19:26Z</time>
      </trkpt>
      <trkpt lat="42.59257" lon="1.78647">
        <ele>1744.45</ele>
        <time>2013-03-23T13:19:32Z</time>
      </trkpt>
      <trkpt lat="42.59252" lon="1.78652">
        <ele>1735.32</ele>
        <time>2013-03-23T13:19:40Z</time>
      </trkpt>
      <trkpt lat="42.59253" lon="1.78655">
        <ele>1733.88</ele>
        <time>2013-03-23T13:19:41Z</time>
      </trkpt>
      <trkpt lat="42.59255" lon="1.78659">
        <ele>1729.55</ele>
        <time>2013-03-23T13:19:44Z</time>
      </trkpt>
      <trkpt lat="42.5924" lon="1.7867">
        <ele>1722.82</ele>
        <time>2013-03-23T13:19:51Z</time>
      </trkpt>
      <trkpt lat="42.59237" lon="1.7867">
        <ele>1718.49</ele>
        <time>2013-03-23T13:19:59Z</time>
      </trkpt>
      <trkpt lat="42.59225" lon="1.78665">
        <ele>1717.05</ele>
        <time>2013-03-23T13:20:06Z</time>
      </trkpt>
      <trkpt lat="42.59216" lon="1.78676">
        <ele>1716.57</ele>
        <time>2013-03-23T13:20:12Z</time>
      </trkpt>
      <trkpt lat="42.59215" lon="1.78681">
        <ele>1712.25</ele>
        <time>2013-03-23T13:20:19Z</time>
      </trkpt>
      <trkpt lat="42.59214" lon="1.78682">
        <ele>1709.84</ele>
        <time>2013-03-23T13:20:33Z</time>
      </trkpt>
      <trkpt lat="42.59215" lon="1.78683">
        <ele>1709.36</ele>
        <time>2013-03-23T13:20:35Z</time>
      </trkpt>
      <trkpt lat="42.59212" lon="1.78689">
        <ele>1709.84</ele>
        <time>2013-03-23T13:20:38Z</time>
      </trkpt>
      <trkpt lat="42.59202" lon="1.78707">
        <ele>1706.96</ele>
        <time>2013-03-23T13:20:44Z</time>
      </trkpt>
      <trkpt lat="42.59198" lon="1.78721">
        <ele>1703.59</ele>
        <time>2013-03-23T13:20:51Z</time>
      </trkpt>
      <trkpt lat="42.592" lon="1.78724">
        <ele>1702.15</ele>
        <time>2013-03-23T13:20:56Z</time>
      </trkpt>
      <trkpt lat="42.59191" lon="1.7873">
        <ele>1697.34</ele>
        <time>2013-03-23T13:21:01Z</time>
      </trkpt>
      <trkpt lat="42.59192" lon="1.78731">
        <ele>1695.9</ele>
        <time>2013-03-23T13:21:05Z</time>
      </trkpt>
      <trkpt lat="42.5919" lon="1.78729">
        <ele>1697.34</ele>
        <time>2013-03-23T13:21:10Z</time>
      </trkpt>
      <trkpt lat="42.59188" lon="1.78727">
        <ele>1698.79</ele>
        <time>2013-03-23T13:21:18Z</time>
      </trkpt>
      <trkpt lat="42.59185" lon="1.78726">
        <ele>1697.83</ele>
        <time>2013-03-23T13:21:33Z</time>
      </trkpt>
      <trkpt lat="42.59186" lon="1.78727">
        <ele>1698.31</ele>
        <time>2013-03-23T13:21:36Z</time>
      </trkpt>
      <trkpt lat="42.59187" lon="1.78731">
        <ele>1699.75</ele>
        <time>2013-03-23T13:21:49Z</time>
      </trkpt>
      <trkpt lat="42.59186" lon="1.78728">
        <ele>1698.31</ele>
        <time>2013-03-23T13:21:59Z</time>
      </trkpt>
      <trkpt lat="42.59187" lon="1.78728">
        <ele>1696.38</ele>
        <time>2013-03-23T13:22:16Z</time>
      </trkpt>
      <trkpt lat="42.59185" lon="1.78728">
        <ele>1696.86</ele>
        <time>2013-03-23T13:22:40Z</time>
      </trkpt>
      <trkpt lat="42.59187" lon="1.78726">
        <ele>1700.23</ele>
        <time>2013-03-23T13:23:05Z</time>
      </trkpt>
      <trkpt lat="42.59182" lon="1.7873">
        <ele>1701.19</ele>
        <time>2013-03-23T13:23:26Z</time>
      </trkpt>
      <trkpt lat="42.59185" lon="1.78728">
        <ele>1702.63</ele>
        <time>2013-03-23T13:23:48Z</time>
      </trkpt>
      <trkpt lat="42.59186" lon="1.78726">
        <ele>1702.63</ele>
        <time>2013-03-23T13:24:14Z</time>
      </trkpt>
      <trkpt lat="42.59184" lon="1.78726">
        <ele>1701.19</ele>
        <time>2013-03-23T13:24:26Z</time>
      </trkpt>
      <trkpt lat="42.59183" lon="1.78725">
        <ele>1700.71</ele>
        <time>2013-03-23T13:24:28Z</time>
      </trkpt>
      <trkpt lat="42.59183" lon="1.78724">
        <ele>1698.31</ele>
        <time>2013-03-23T13:24:41Z</time>
      </trkpt>
      <trkpt lat="42.59179" lon="1.78725">
        <ele>1697.83</ele>
        <time>2013-03-23T13:24:58Z</time>
      </trkpt>
      <trkpt lat="42.59181" lon="1.7872">
        <ele>1698.31</ele>
        <time>2013-03-23T13:25:22Z</time>
      </trkpt>
      <trkpt lat="42.5918" lon="1.78719">
        <ele>1698.31</ele>
        <time>2013-03-23T13:25:25Z</time>
      </trkpt>
      <trkpt lat="42.59177" lon="1.78718">
        <ele>1698.31</ele>
        <time>2013-03-23T13:25:29Z</time>
      </trkpt>
      <trkpt lat="42.59171" lon="1.78714">
        <ele>1699.27</ele>
        <time>2013-03-23T13:25:37Z</time>
      </trkpt>
      <trkpt lat="42.59169" lon="1.78712">
        <ele>1699.27</ele>
        <time>2013-03-23T13:25:45Z</time>
      </trkpt>
      <trkpt lat="42.59166" lon="1.78709">
        <ele>1698.79</ele>
        <time>2013-03-23T13:25:50Z</time>
      </trkpt>
      <trkpt lat="42.59164" lon="1.78709">
        <ele>1699.27</ele>
        <time>2013-03-23T13:25:53Z</time>
      </trkpt>
      <trkpt lat="42.59159" lon="1.78706">
        <ele>1698.31</ele>
        <time>2013-03-23T13:25:57Z</time>
      </trkpt>
      <trkpt lat="42.59156" lon="1.78705">
        <ele>1697.83</ele>
        <time>2013-03-23T13:25:59Z</time>
      </trkpt>
      <trkpt lat="42.59151" lon="1.78702">
        <ele>1698.31</ele>
        <time>2013-03-23T13:26:09Z</time>
      </trkpt>
      <trkpt lat="42.59149" lon="1.787">
        <ele>1698.79</ele>
        <time>2013-03-23T13:26:24Z</time>
      </trkpt>
      <trkpt lat="42.59148" lon="1.78702">
        <ele>1701.19</ele>
        <time>2013-03-23T13:26:35Z</time>
      </trkpt>
      <trkpt lat="42.59139" lon="1.78697">
        <ele>1701.67</ele>
        <time>2013-03-23T13:26:46Z</time>
      </trkpt>
      <trkpt lat="42.59138" lon="1.78697">
        <ele>1701.67</ele>
        <time>2013-03-23T13:26:48Z</time>
      </trkpt>
      <trkpt lat="42.5913" lon="1.7869">
        <ele>1701.67</ele>
        <time>2013-03-23T13:26:59Z</time>
      </trkpt>
      <trkpt lat="42.59129" lon="1.78689">
        <ele>1701.67</ele>
        <time>2013-03-23T13:27:01Z</time>
      </trkpt>
      <trkpt lat="42.59124" lon="1.7869">
        <ele>1704.07</ele>
        <time>2013-03-23T13:27:10Z</time>
      </trkpt>
      <trkpt lat="42.59122" lon="1.78689">
        <ele>1705.04</ele>
        <time>2013-03-23T13:27:13Z</time>
      </trkpt>
      <trkpt lat="42.5912" lon="1.78686">
        <ele>1705.52</ele>
        <time>2013-03-23T13:27:17Z</time>
      </trkpt>
      <trkpt lat="42.59115" lon="1.78682">
        <ele>1706.48</ele>
        <time>2013-03-23T13:27:26Z</time>
      </trkpt>
      <trkpt lat="42.59109" lon="1.78677">
        <ele>1706.96</ele>
        <time>2013-03-23T13:27:36Z</time>
      </trkpt>
      <trkpt lat="42.59106" lon="1.78675">
        <ele>1706</ele>
        <time>2013-03-23T13:27:45Z</time>
      </trkpt>
      <trkpt lat="42.59101" lon="1.78673">
        <ele>1706.48</ele>
        <time>2013-03-23T13:27:54Z</time>
      </trkpt>
      <trkpt lat="42.59096" lon="1.78663">
        <ele>1706.96</ele>
        <time>2013-03-23T13:28:04Z</time>
      </trkpt>
      <trkpt lat="42.59092" lon="1.78657">
        <ele>1706.96</ele>
        <time>2013-03-23T13:28:11Z</time>
      </trkpt>
      <trkpt lat="42.59091" lon="1.78655">
        <ele>1706.96</ele>
        <time>2013-03-23T13:28:13Z</time>
      </trkpt>
      <trkpt lat="42.59088" lon="1.78654">
        <ele>1709.36</ele>
        <time>2013-03-23T13:28:21Z</time>
      </trkpt>
      <trkpt lat="42.59087" lon="1.78653">
        <ele>1709.36</ele>
        <time>2013-03-23T13:28:24Z</time>
      </trkpt>
      <trkpt lat="42.59081" lon="1.78651">
        <ele>1708.4</ele>
        <time>2013-03-23T13:28:35Z</time>
      </trkpt>
      <trkpt lat="42.59073" lon="1.78652">
        <ele>1706.48</ele>
        <time>2013-03-23T13:28:45Z</time>
      </trkpt>
      <trkpt lat="42.59072" lon="1.78651">
        <ele>1706.48</ele>
        <time>2013-03-23T13:28:53Z</time>
      </trkpt>
      <trkpt lat="42.59068" lon="1.7865">
        <ele>1706.48</ele>
        <time>2013-03-23T13:29:02Z</time>
      </trkpt>
      <trkpt lat="42.59067" lon="1.78652">
        <ele>1702.15</ele>
        <time>2013-03-23T13:29:17Z</time>
      </trkpt>
      <trkpt lat="42.59069" lon="1.7866">
        <ele>1703.59</ele>
        <time>2013-03-23T13:29:25Z</time>
      </trkpt>
      <trkpt lat="42.59063" lon="1.78674">
        <ele>1704.55</ele>
        <time>2013-03-23T13:29:32Z</time>
      </trkpt>
      <trkpt lat="42.59059" lon="1.78681">
        <ele>1703.59</ele>
        <time>2013-03-23T13:29:39Z</time>
      </trkpt>
      <trkpt lat="42.59056" lon="1.78684">
        <ele>1704.07</ele>
        <time>2013-03-23T13:29:43Z</time>
      </trkpt>
      <trkpt lat="42.59051" lon="1.78688">
        <ele>1702.63</ele>
        <time>2013-03-23T13:29:49Z</time>
      </trkpt>
      <trkpt lat="42.59045" lon="1.7869">
        <ele>1703.11</ele>
        <time>2013-03-23T13:29:57Z</time>
      </trkpt>
      <trkpt lat="42.59037" lon="1.78707">
        <ele>1703.59</ele>
        <time>2013-03-23T13:30:04Z</time>
      </trkpt>
      <trkpt lat="42.59037" lon="1.7871">
        <ele>1703.59</ele>
        <time>2013-03-23T13:30:05Z</time>
      </trkpt>
      <trkpt lat="42.59038" lon="1.78717">
        <ele>1701.67</ele>
        <time>2013-03-23T13:30:14Z</time>
      </trkpt>
      <trkpt lat="42.5904" lon="1.78723">
        <ele>1698.79</ele>
        <time>2013-03-23T13:30:25Z</time>
      </trkpt>
      <trkpt lat="42.59041" lon="1.78736">
        <ele>1698.79</ele>
        <time>2013-03-23T13:30:32Z</time>
      </trkpt>
      <trkpt lat="42.59039" lon="1.78741">
        <ele>1702.63</ele>
        <time>2013-03-23T13:30:44Z</time>
      </trkpt>
      <trkpt lat="42.59036" lon="1.7874">
        <ele>1704.07</ele>
        <time>2013-03-23T13:31:04Z</time>
      </trkpt>
      <trkpt lat="42.59038" lon="1.78741">
        <ele>1707.92</ele>
        <time>2013-03-23T13:31:23Z</time>
      </trkpt>
      <trkpt lat="42.59037" lon="1.78742">
        <ele>1707.44</ele>
        <time>2013-03-23T13:31:41Z</time>
      </trkpt>
      <trkpt lat="42.59035" lon="1.78743">
        <ele>1708.4</ele>
        <time>2013-03-23T13:31:45Z</time>
      </trkpt>
      <trkpt lat="42.59035" lon="1.78747">
        <ele>1708.4</ele>
        <time>2013-03-23T13:31:47Z</time>
      </trkpt>
      <trkpt lat="42.59037" lon="1.7875">
        <ele>1707.92</ele>
        <time>2013-03-23T13:31:48Z</time>
      </trkpt>
      <trkpt lat="42.59037" lon="1.78753">
        <ele>1707.92</ele>
        <time>2013-03-23T13:31:49Z</time>
      </trkpt>
      <trkpt lat="42.59037" lon="1.78756">
        <ele>1707.44</ele>
        <time>2013-03-23T13:31:50Z</time>
      </trkpt>
      <trkpt lat="42.59036" lon="1.78759">
        <ele>1707.44</ele>
        <time>2013-03-23T13:31:51Z</time>
      </trkpt>
      <trkpt lat="42.59023" lon="1.78794">
        <ele>1703.59</ele>
        <time>2013-03-23T13:32:00Z</time>
      </trkpt>
      <trkpt lat="42.59022" lon="1.78798">
        <ele>1703.11</ele>
        <time>2013-03-23T13:32:01Z</time>
      </trkpt>
      <trkpt lat="42.59021" lon="1.78801">
        <ele>1702.63</ele>
        <time>2013-03-23T13:32:02Z</time>
      </trkpt>
      <trkpt lat="42.59022" lon="1.78801">
        <ele>1701.67</ele>
        <time>2013-03-23T13:32:10Z</time>
      </trkpt>
      <trkpt lat="42.59023" lon="1.78805">
        <ele>1700.71</ele>
        <time>2013-03-23T13:32:17Z</time>
      </trkpt>
      <trkpt lat="42.59025" lon="1.78805">
        <ele>1699.75</ele>
        <time>2013-03-23T13:32:18Z</time>
      </trkpt>
      <trkpt lat="42.59028" lon="1.78805">
        <ele>1699.27</ele>
        <time>2013-03-23T13:32:19Z</time>
      </trkpt>
      <trkpt lat="42.59031" lon="1.78807">
        <ele>1698.79</ele>
        <time>2013-03-23T13:32:20Z</time>
      </trkpt>
      <trkpt lat="42.59033" lon="1.78813">
        <ele>1697.34</ele>
        <time>2013-03-23T13:32:21Z</time>
      </trkpt>
      <trkpt lat="42.59033" lon="1.78819">
        <ele>1696.38</ele>
        <time>2013-03-23T13:32:22Z</time>
      </trkpt>
      <trkpt lat="42.59035" lon="1.78823">
        <ele>1693.5</ele>
        <time>2013-03-23T13:32:26Z</time>
      </trkpt>
      <trkpt lat="42.59038" lon="1.78825">
        <ele>1692.54</ele>
        <time>2013-03-23T13:32:27Z</time>
      </trkpt>
      <trkpt lat="42.59041" lon="1.78827">
        <ele>1692.06</ele>
        <time>2013-03-23T13:32:28Z</time>
      </trkpt>
      <trkpt lat="42.59043" lon="1.78832">
        <ele>1691.1</ele>
        <time>2013-03-23T13:32:29Z</time>
      </trkpt>
      <trkpt lat="42.59044" lon="1.78838">
        <ele>1690.62</ele>
        <time>2013-03-23T13:32:30Z</time>
      </trkpt>
      <trkpt lat="42.59046" lon="1.78842">
        <ele>1690.14</ele>
        <time>2013-03-23T13:32:31Z</time>
      </trkpt>
      <trkpt lat="42.59048" lon="1.78844">
        <ele>1689.65</ele>
        <time>2013-03-23T13:32:32Z</time>
      </trkpt>
      <trkpt lat="42.5905" lon="1.78848">
        <ele>1688.69</ele>
        <time>2013-03-23T13:32:33Z</time>
      </trkpt>
      <trkpt lat="42.59054" lon="1.78849">
        <ele>1688.21</ele>
        <time>2013-03-23T13:32:34Z</time>
      </trkpt>
      <trkpt lat="42.59057" lon="1.78852">
        <ele>1687.73</ele>
        <time>2013-03-23T13:32:35Z</time>
      </trkpt>
      <trkpt lat="42.5906" lon="1.78856">
        <ele>1686.77</ele>
        <time>2013-03-23T13:32:36Z</time>
      </trkpt>
      <trkpt lat="42.59063" lon="1.78859">
        <ele>1685.81</ele>
        <time>2013-03-23T13:32:37Z</time>
      </trkpt>
      <trkpt lat="42.59063" lon="1.78862">
        <ele>1684.85</ele>
        <time>2013-03-23T13:32:38Z</time>
      </trkpt>
      <trkpt lat="42.59065" lon="1.78858">
        <ele>1679.08</ele>
        <time>2013-03-23T13:32:49Z</time>
      </trkpt>
      <trkpt lat="42.59065" lon="1.78858">
        <ele>1670.91</ele>
        <time>2013-03-23T13:33:04Z</time>
      </trkpt>
      <trkpt lat="42.59065" lon="1.7886">
        <ele>1670.43</ele>
        <time>2013-03-23T13:33:05Z</time>
      </trkpt>
      <trkpt lat="42.59065" lon="1.78863">
        <ele>1669.95</ele>
        <time>2013-03-23T13:33:06Z</time>
      </trkpt>
      <trkpt lat="42.59065" lon="1.78873">
        <ele>1668.02</ele>
        <time>2013-03-23T13:33:09Z</time>
      </trkpt>
      <trkpt lat="42.59071" lon="1.78875">
        <ele>1666.58</ele>
        <time>2013-03-23T13:33:11Z</time>
      </trkpt>
      <trkpt lat="42.59074" lon="1.78876">
        <ele>1666.1</ele>
        <time>2013-03-23T13:33:12Z</time>
      </trkpt>
      <trkpt lat="42.59075" lon="1.7888">
        <ele>1664.66</ele>
        <time>2013-03-23T13:33:13Z</time>
      </trkpt>
      <trkpt lat="42.59075" lon="1.78884">
        <ele>1663.7</ele>
        <time>2013-03-23T13:33:14Z</time>
      </trkpt>
      <trkpt lat="42.59078" lon="1.78886">
        <ele>1662.26</ele>
        <time>2013-03-23T13:33:15Z</time>
      </trkpt>
      <trkpt lat="42.5908" lon="1.78888">
        <ele>1660.81</ele>
        <time>2013-03-23T13:33:16Z</time>
      </trkpt>
      <trkpt lat="42.59082" lon="1.78891">
        <ele>1659.37</ele>
        <time>2013-03-23T13:33:17Z</time>
      </trkpt>
      <trkpt lat="42.59081" lon="1.78897">
        <ele>1657.93</ele>
        <time>2013-03-23T13:33:18Z</time>
      </trkpt>
      <trkpt lat="42.59079" lon="1.78903">
        <ele>1656.49</ele>
        <time>2013-03-23T13:33:19Z</time>
      </trkpt>
      <trkpt lat="42.59079" lon="1.78907">
        <ele>1655.05</ele>
        <time>2013-03-23T13:33:20Z</time>
      </trkpt>
      <trkpt lat="42.5908" lon="1.78909">
        <ele>1653.6</ele>
        <time>2013-03-23T13:33:21Z</time>
      </trkpt>
      <trkpt lat="42.5908" lon="1.78906">
        <ele>1648.8</ele>
        <time>2013-03-23T13:33:33Z</time>
      </trkpt>
      <trkpt lat="42.59082" lon="1.78907">
        <ele>1649.76</ele>
        <time>2013-03-23T13:33:38Z</time>
      </trkpt>
      <trkpt lat="42.59084" lon="1.78907">
        <ele>1649.76</ele>
        <time>2013-03-23T13:33:39Z</time>
      </trkpt>
      <trkpt lat="42.59091" lon="1.78909">
        <ele>1648.8</ele>
        <time>2013-03-23T13:33:45Z</time>
      </trkpt>
      <trkpt lat="42.59091" lon="1.78911">
        <ele>1648.8</ele>
        <time>2013-03-23T13:33:47Z</time>
      </trkpt>
      <trkpt lat="42.59091" lon="1.78914">
        <ele>1648.32</ele>
        <time>2013-03-23T13:33:48Z</time>
      </trkpt>
      <trkpt lat="42.59091" lon="1.78919">
        <ele>1647.84</ele>
        <time>2013-03-23T13:33:49Z</time>
      </trkpt>
      <trkpt lat="42.59086" lon="1.78938">
        <ele>1644.47</ele>
        <time>2013-03-23T13:33:53Z</time>
      </trkpt>
      <trkpt lat="42.59088" lon="1.78942">
        <ele>1643.51</ele>
        <time>2013-03-23T13:33:54Z</time>
      </trkpt>
      <trkpt lat="42.59089" lon="1.78947">
        <ele>1642.55</ele>
        <time>2013-03-23T13:33:55Z</time>
      </trkpt>
      <trkpt lat="42.59088" lon="1.78953">
        <ele>1641.59</ele>
        <time>2013-03-23T13:33:56Z</time>
      </trkpt>
      <trkpt lat="42.59087" lon="1.78958">
        <ele>1640.15</ele>
        <time>2013-03-23T13:33:57Z</time>
      </trkpt>
      <trkpt lat="42.59086" lon="1.78973">
        <ele>1637.74</ele>
        <time>2013-03-23T13:34:00Z</time>
      </trkpt>
      <trkpt lat="42.59089" lon="1.78975">
        <ele>1636.78</ele>
        <time>2013-03-23T13:34:01Z</time>
      </trkpt>
      <trkpt lat="42.59097" lon="1.7898">
        <ele>1633.9</ele>
        <time>2013-03-23T13:34:03Z</time>
      </trkpt>
      <trkpt lat="42.59099" lon="1.78986">
        <ele>1632.46</ele>
        <time>2013-03-23T13:34:04Z</time>
      </trkpt>
      <trkpt lat="42.59101" lon="1.78992">
        <ele>1631.01</ele>
        <time>2013-03-23T13:34:05Z</time>
      </trkpt>
      <trkpt lat="42.59102" lon="1.78999">
        <ele>1629.09</ele>
        <time>2013-03-23T13:34:06Z</time>
      </trkpt>
      <trkpt lat="42.5911" lon="1.79014">
        <ele>1623.32</ele>
        <time>2013-03-23T13:34:10Z</time>
      </trkpt>
      <trkpt lat="42.59109" lon="1.79017">
        <ele>1616.11</ele>
        <time>2013-03-23T13:34:18Z</time>
      </trkpt>
      <trkpt lat="42.59109" lon="1.79015">
        <ele>1614.67</ele>
        <time>2013-03-23T13:34:35Z</time>
      </trkpt>
      <trkpt lat="42.59109" lon="1.79014">
        <ele>1613.71</ele>
        <time>2013-03-23T13:34:56Z</time>
      </trkpt>
      <trkpt lat="42.5911" lon="1.79014">
        <ele>1613.71</ele>
        <time>2013-03-23T13:35:01Z</time>
      </trkpt>
      <trkpt lat="42.59104" lon="1.79033">
        <ele>1608.42</ele>
        <time>2013-03-23T13:35:08Z</time>
      </trkpt>
      <trkpt lat="42.59103" lon="1.79033">
        <ele>1607.46</ele>
        <time>2013-03-23T13:35:15Z</time>
      </trkpt>
      <trkpt lat="42.59091" lon="1.79049">
        <ele>1606.02</ele>
        <time>2013-03-23T13:35:26Z</time>
      </trkpt>
      <trkpt lat="42.59091" lon="1.79051">
        <ele>1606.5</ele>
        <time>2013-03-23T13:35:40Z</time>
      </trkpt>
      <trkpt lat="42.59085" lon="1.79063">
        <ele>1605.06</ele>
        <time>2013-03-23T13:35:45Z</time>
      </trkpt>
      <trkpt lat="42.59085" lon="1.79068">
        <ele>1605.06</ele>
        <time>2013-03-23T13:35:46Z</time>
      </trkpt>
      <trkpt lat="42.59084" lon="1.79073">
        <ele>1604.58</ele>
        <time>2013-03-23T13:35:47Z</time>
      </trkpt>
      <trkpt lat="42.59081" lon="1.79078">
        <ele>1602.66</ele>
        <time>2013-03-23T13:35:53Z</time>
      </trkpt>
      <trkpt lat="42.59082" lon="1.79076">
        <ele>1601.69</ele>
        <time>2013-03-23T13:36:08Z</time>
      </trkpt>
      <trkpt lat="42.59082" lon="1.79077">
        <ele>1602.17</ele>
        <time>2013-03-23T13:36:10Z</time>
      </trkpt>
      <trkpt lat="42.5908" lon="1.7908">
        <ele>1601.69</ele>
        <time>2013-03-23T13:36:12Z</time>
      </trkpt>
      <trkpt lat="42.59079" lon="1.79083">
        <ele>1601.21</ele>
        <time>2013-03-23T13:36:13Z</time>
      </trkpt>
      <trkpt lat="42.59078" lon="1.79087">
        <ele>1601.21</ele>
        <time>2013-03-23T13:36:14Z</time>
      </trkpt>
      <trkpt lat="42.59077" lon="1.79093">
        <ele>1600.73</ele>
        <time>2013-03-23T13:36:15Z</time>
      </trkpt>
      <trkpt lat="42.59074" lon="1.79096">
        <ele>1600.25</ele>
        <time>2013-03-23T13:36:16Z</time>
      </trkpt>
      <trkpt lat="42.59072" lon="1.791">
        <ele>1599.29</ele>
        <time>2013-03-23T13:36:17Z</time>
      </trkpt>
      <trkpt lat="42.59072" lon="1.79104">
        <ele>1598.81</ele>
        <time>2013-03-23T13:36:18Z</time>
      </trkpt>
      <trkpt lat="42.59072" lon="1.79109">
        <ele>1597.85</ele>
        <time>2013-03-23T13:36:19Z</time>
      </trkpt>
      <trkpt lat="42.5907" lon="1.79114">
        <ele>1596.89</ele>
        <time>2013-03-23T13:36:20Z</time>
      </trkpt>
      <trkpt lat="42.59069" lon="1.79119">
        <ele>1595.93</ele>
        <time>2013-03-23T13:36:21Z</time>
      </trkpt>
      <trkpt lat="42.59068" lon="1.79123">
        <ele>1594.48</ele>
        <time>2013-03-23T13:36:22Z</time>
      </trkpt>
      <trkpt lat="42.59066" lon="1.79126">
        <ele>1593.04</ele>
        <time>2013-03-23T13:36:23Z</time>
      </trkpt>
      <trkpt lat="42.59066" lon="1.79129">
        <ele>1591.6</ele>
        <time>2013-03-23T13:36:24Z</time>
      </trkpt>
      <trkpt lat="42.59066" lon="1.79133">
        <ele>1590.64</ele>
        <time>2013-03-23T13:36:25Z</time>
      </trkpt>
      <trkpt lat="42.59063" lon="1.79136">
        <ele>1588.72</ele>
        <time>2013-03-23T13:36:26Z</time>
      </trkpt>
      <trkpt lat="42.59062" lon="1.79139">
        <ele>1587.27</ele>
        <time>2013-03-23T13:36:27Z</time>
      </trkpt>
      <trkpt lat="42.59059" lon="1.79145">
        <ele>1584.87</ele>
        <time>2013-03-23T13:36:29Z</time>
      </trkpt>
      <trkpt lat="42.59057" lon="1.79149">
        <ele>1583.91</ele>
        <time>2013-03-23T13:36:30Z</time>
      </trkpt>
      <trkpt lat="42.59052" lon="1.79162">
        <ele>1579.1</ele>
        <time>2013-03-23T13:36:33Z</time>
      </trkpt>
      <trkpt lat="42.59042" lon="1.79198">
        <ele>1569.97</ele>
        <time>2013-03-23T13:36:41Z</time>
      </trkpt>
      <trkpt lat="42.59042" lon="1.79199">
        <ele>1567.57</ele>
        <time>2013-03-23T13:36:55Z</time>
      </trkpt>
      <trkpt lat="42.59041" lon="1.79198">
        <ele>1568.05</ele>
        <time>2013-03-23T13:37:06Z</time>
      </trkpt>
      <trkpt lat="42.59039" lon="1.79194">
        <ele>1568.05</ele>
        <time>2013-03-23T13:37:14Z</time>
      </trkpt>
      <trkpt lat="42.59038" lon="1.79192">
        <ele>1568.53</ele>
        <time>2013-03-23T13:37:19Z</time>
      </trkpt>
      <trkpt lat="42.59022" lon="1.79187">
        <ele>1564.68</ele>
        <time>2013-03-23T13:37:29Z</time>
      </trkpt>
      <trkpt lat="42.5902" lon="1.79187">
        <ele>1563.72</ele>
        <time>2013-03-23T13:37:32Z</time>
      </trkpt>
      <trkpt lat="42.5901" lon="1.79191">
        <ele>1563.72</ele>
        <time>2013-03-23T13:37:37Z</time>
      </trkpt>
      <trkpt lat="42.58988" lon="1.79198">
        <ele>1561.32</ele>
        <time>2013-03-23T13:37:42Z</time>
      </trkpt>
      <trkpt lat="42.58978" lon="1.79195">
        <ele>1555.07</ele>
        <time>2013-03-23T13:37:55Z</time>
      </trkpt>
      <trkpt lat="42.58977" lon="1.79195">
        <ele>1554.59</ele>
        <time>2013-03-23T13:38:14Z</time>
      </trkpt>
      <trkpt lat="42.58977" lon="1.79195">
        <ele>1552.67</ele>
        <time>2013-03-23T13:38:30Z</time>
      </trkpt>
      <trkpt lat="42.58971" lon="1.79196">
        <ele>1552.67</ele>
        <time>2013-03-23T13:38:42Z</time>
      </trkpt>
      <trkpt lat="42.58969" lon="1.79198">
        <ele>1552.67</ele>
        <time>2013-03-23T13:38:43Z</time>
      </trkpt>
      <trkpt lat="42.58965" lon="1.79205">
        <ele>1552.19</ele>
        <time>2013-03-23T13:38:46Z</time>
      </trkpt>
      <trkpt lat="42.58959" lon="1.79203">
        <ele>1550.74</ele>
        <time>2013-03-23T13:38:56Z</time>
      </trkpt>
      <trkpt lat="42.58958" lon="1.79205">
        <ele>1550.74</ele>
        <time>2013-03-23T13:38:57Z</time>
      </trkpt>
      <trkpt lat="42.58941" lon="1.79234">
        <ele>1547.38</ele>
        <time>2013-03-23T13:39:07Z</time>
      </trkpt>
      <trkpt lat="42.58936" lon="1.79242">
        <ele>1544.98</ele>
        <time>2013-03-23T13:39:10Z</time>
      </trkpt>
      <trkpt lat="42.58936" lon="1.79246">
        <ele>1544.5</ele>
        <time>2013-03-23T13:39:11Z</time>
      </trkpt>
      <trkpt lat="42.58936" lon="1.79251">
        <ele>1544.01</ele>
        <time>2013-03-23T13:39:12Z</time>
      </trkpt>
      <trkpt lat="42.58934" lon="1.79257">
        <ele>1543.05</ele>
        <time>2013-03-23T13:39:13Z</time>
      </trkpt>
      <trkpt lat="42.58932" lon="1.79263">
        <ele>1542.09</ele>
        <time>2013-03-23T13:39:14Z</time>
      </trkpt>
      <trkpt lat="42.58929" lon="1.7927">
        <ele>1541.13</ele>
        <time>2013-03-23T13:39:15Z</time>
      </trkpt>
      <trkpt lat="42.58926" lon="1.79274">
        <ele>1540.17</ele>
        <time>2013-03-23T13:39:16Z</time>
      </trkpt>
      <trkpt lat="42.58926" lon="1.79275">
        <ele>1537.29</ele>
        <time>2013-03-23T13:39:22Z</time>
      </trkpt>
      <trkpt lat="42.58926" lon="1.79276">
        <ele>1538.25</ele>
        <time>2013-03-23T13:39:26Z</time>
      </trkpt>
      <trkpt lat="42.58927" lon="1.79279">
        <ele>1538.73</ele>
        <time>2013-03-23T13:39:27Z</time>
      </trkpt>
      <trkpt lat="42.58926" lon="1.79283">
        <ele>1538.25</ele>
        <time>2013-03-23T13:39:28Z</time>
      </trkpt>
      <trkpt lat="42.58919" lon="1.79292">
        <ele>1536.32</ele>
        <time>2013-03-23T13:39:33Z</time>
      </trkpt>
      <trkpt lat="42.58919" lon="1.79295">
        <ele>1535.84</ele>
        <time>2013-03-23T13:39:34Z</time>
      </trkpt>
      <trkpt lat="42.58918" lon="1.79296">
        <ele>1532.48</ele>
        <time>2013-03-23T13:39:45Z</time>
      </trkpt>
      <trkpt lat="42.58918" lon="1.79295">
        <ele>1531.52</ele>
        <time>2013-03-23T13:39:59Z</time>
      </trkpt>
      <trkpt lat="42.58915" lon="1.79295">
        <ele>1531.52</ele>
        <time>2013-03-23T13:40:12Z</time>
      </trkpt>
      <trkpt lat="42.58912" lon="1.79301">
        <ele>1531.04</ele>
        <time>2013-03-23T13:40:14Z</time>
      </trkpt>
      <trkpt lat="42.5891" lon="1.79305">
        <ele>1531.04</ele>
        <time>2013-03-23T13:40:15Z</time>
      </trkpt>
      <trkpt lat="42.58907" lon="1.79309">
        <ele>1529.11</ele>
        <time>2013-03-23T13:40:22Z</time>
      </trkpt>
      <trkpt lat="42.589" lon="1.79318">
        <ele>1527.19</ele>
        <time>2013-03-23T13:40:26Z</time>
      </trkpt>
      <trkpt lat="42.58899" lon="1.79321">
        <ele>1526.71</ele>
        <time>2013-03-23T13:40:27Z</time>
      </trkpt>
      <trkpt lat="42.58897" lon="1.79323">
        <ele>1526.23</ele>
        <time>2013-03-23T13:40:28Z</time>
      </trkpt>
      <trkpt lat="42.58894" lon="1.79326">
        <ele>1523.83</ele>
        <time>2013-03-23T13:40:35Z</time>
      </trkpt>
      <trkpt lat="42.5889" lon="1.79332">
        <ele>1523.35</ele>
        <time>2013-03-23T13:40:38Z</time>
      </trkpt>
      <trkpt lat="42.58888" lon="1.79335">
        <ele>1523.35</ele>
        <time>2013-03-23T13:40:41Z</time>
      </trkpt>
      <trkpt lat="42.58887" lon="1.79336">
        <ele>1523.83</ele>
        <time>2013-03-23T13:40:42Z</time>
      </trkpt>
      <trkpt lat="42.58886" lon="1.79339">
        <ele>1523.35</ele>
        <time>2013-03-23T13:40:43Z</time>
      </trkpt>
      <trkpt lat="42.58885" lon="1.79341">
        <ele>1523.35</ele>
        <time>2013-03-23T13:40:51Z</time>
      </trkpt>
      <trkpt lat="42.58885" lon="1.79343">
        <ele>1525.27</ele>
        <time>2013-03-23T13:40:58Z</time>
      </trkpt>
      <trkpt lat="42.58883" lon="1.79346">
        <ele>1526.71</ele>
        <time>2013-03-23T13:41:13Z</time>
      </trkpt>
      <trkpt lat="42.58885" lon="1.79345">
        <ele>1527.67</ele>
        <time>2013-03-23T13:41:35Z</time>
      </trkpt>
      <trkpt lat="42.58884" lon="1.79346">
        <ele>1526.23</ele>
        <time>2013-03-23T13:41:44Z</time>
      </trkpt>
      <trkpt lat="42.58881" lon="1.79351">
        <ele>1524.31</ele>
        <time>2013-03-23T13:41:57Z</time>
      </trkpt>
      <trkpt lat="42.58877" lon="1.79354">
        <ele>1526.23</ele>
        <time>2013-03-23T13:42:06Z</time>
      </trkpt>
      <trkpt lat="42.58871" lon="1.79358">
        <ele>1524.79</ele>
        <time>2013-03-23T13:42:15Z</time>
      </trkpt>
      <trkpt lat="42.58871" lon="1.79361">
        <ele>1524.79</ele>
        <time>2013-03-23T13:42:24Z</time>
      </trkpt>
      <trkpt lat="42.58868" lon="1.7936">
        <ele>1522.39</ele>
        <time>2013-03-23T13:42:35Z</time>
      </trkpt>
      <trkpt lat="42.58867" lon="1.79359">
        <ele>1522.87</ele>
        <time>2013-03-23T13:42:45Z</time>
      </trkpt>
      <trkpt lat="42.58868" lon="1.7936">
        <ele>1523.83</ele>
        <time>2013-03-23T13:42:58Z</time>
      </trkpt>
      <trkpt lat="42.58869" lon="1.79358">
        <ele>1525.27</ele>
        <time>2013-03-23T13:43:13Z</time>
      </trkpt>
      <trkpt lat="42.58869" lon="1.79359">
        <ele>1521.9</ele>
        <time>2013-03-23T13:43:26Z</time>
      </trkpt>
      <trkpt lat="42.58862" lon="1.79359">
        <ele>1521.9</ele>
        <time>2013-03-23T13:43:38Z</time>
      </trkpt>
      <trkpt lat="42.5886" lon="1.7936">
        <ele>1521.9</ele>
        <time>2013-03-23T13:43:40Z</time>
      </trkpt>
      <trkpt lat="42.58858" lon="1.79362">
        <ele>1521.9</ele>
        <time>2013-03-23T13:43:42Z</time>
      </trkpt>
      <trkpt lat="42.58856" lon="1.79364">
        <ele>1521.9</ele>
        <time>2013-03-23T13:43:43Z</time>
      </trkpt>
      <trkpt lat="42.58854" lon="1.79366">
        <ele>1521.9</ele>
        <time>2013-03-23T13:43:44Z</time>
      </trkpt>
      <trkpt lat="42.58852" lon="1.79367">
        <ele>1522.39</ele>
        <time>2013-03-23T13:43:45Z</time>
      </trkpt>
      <trkpt lat="42.58841" lon="1.79371">
        <ele>1521.9</ele>
        <time>2013-03-23T13:43:54Z</time>
      </trkpt>
      <trkpt lat="42.58817" lon="1.79384">
        <ele>1519.98</ele>
        <time>2013-03-23T13:44:06Z</time>
      </trkpt>
      <trkpt lat="42.58815" lon="1.79385">
        <ele>1519.5</ele>
        <time>2013-03-23T13:44:07Z</time>
      </trkpt>
      <trkpt lat="42.5881" lon="1.79386">
        <ele>1518.54</ele>
        <time>2013-03-23T13:44:20Z</time>
      </trkpt>
      <trkpt lat="42.58809" lon="1.79386">
        <ele>1519.98</ele>
        <time>2013-03-23T13:44:46Z</time>
      </trkpt>
      <trkpt lat="42.58804" lon="1.79388">
        <ele>1516.62</ele>
        <time>2013-03-23T13:45:02Z</time>
      </trkpt>
      <trkpt lat="42.58775" lon="1.79394">
        <ele>1514.69</ele>
        <time>2013-03-23T13:45:18Z</time>
      </trkpt>
      <trkpt lat="42.58759" lon="1.79397">
        <ele>1513.73</ele>
        <time>2013-03-23T13:45:29Z</time>
      </trkpt>
      <trkpt lat="42.58746" lon="1.79403">
        <ele>1514.21</ele>
        <time>2013-03-23T13:45:40Z</time>
      </trkpt>
      <trkpt lat="42.58716" lon="1.79427">
        <ele>1513.73</ele>
        <time>2013-03-23T13:45:52Z</time>
      </trkpt>
      <trkpt lat="42.58683" lon="1.79453">
        <ele>1508.45</ele>
        <time>2013-03-23T13:46:03Z</time>
      </trkpt>
      <trkpt lat="42.58679" lon="1.79455">
        <ele>1507.48</ele>
        <time>2013-03-23T13:46:04Z</time>
      </trkpt>
      <trkpt lat="42.58675" lon="1.79457">
        <ele>1507</ele>
        <time>2013-03-23T13:46:05Z</time>
      </trkpt>
      <trkpt lat="42.58671" lon="1.79459">
        <ele>1506.52</ele>
        <time>2013-03-23T13:46:06Z</time>
      </trkpt>
      <trkpt lat="42.58667" lon="1.79462">
        <ele>1505.56</ele>
        <time>2013-03-23T13:46:07Z</time>
      </trkpt>
      <trkpt lat="42.58664" lon="1.79465">
        <ele>1504.6</ele>
        <time>2013-03-23T13:46:08Z</time>
      </trkpt>
      <trkpt lat="42.5866" lon="1.79468">
        <ele>1503.64</ele>
        <time>2013-03-23T13:46:09Z</time>
      </trkpt>
      <trkpt lat="42.58656" lon="1.79471">
        <ele>1502.68</ele>
        <time>2013-03-23T13:46:10Z</time>
      </trkpt>
      <trkpt lat="42.58652" lon="1.79473">
        <ele>1502.2</ele>
        <time>2013-03-23T13:46:11Z</time>
      </trkpt>
      <trkpt lat="42.58651" lon="1.79476">
        <ele>1499.31</ele>
        <time>2013-03-23T13:46:18Z</time>
      </trkpt>
      <trkpt lat="42.58648" lon="1.79479">
        <ele>1498.35</ele>
        <time>2013-03-23T13:46:19Z</time>
      </trkpt>
      <trkpt lat="42.58645" lon="1.79482">
        <ele>1497.39</ele>
        <time>2013-03-23T13:46:20Z</time>
      </trkpt>
      <trkpt lat="42.58624" lon="1.79495">
        <ele>1491.14</ele>
        <time>2013-03-23T13:46:28Z</time>
      </trkpt>
      <trkpt lat="42.58611" lon="1.79507">
        <ele>1486.82</ele>
        <time>2013-03-23T13:46:34Z</time>
      </trkpt>
      <trkpt lat="42.58608" lon="1.79508">
        <ele>1485.85</ele>
        <time>2013-03-23T13:46:35Z</time>
      </trkpt>
      <trkpt lat="42.58606" lon="1.79508">
        <ele>1485.37</ele>
        <time>2013-03-23T13:46:36Z</time>
      </trkpt>
      <trkpt lat="42.58604" lon="1.79509">
        <ele>1485.37</ele>
        <time>2013-03-23T13:46:37Z</time>
      </trkpt>
      <trkpt lat="42.58603" lon="1.7951">
        <ele>1484.89</ele>
        <time>2013-03-23T13:46:38Z</time>
      </trkpt>
      <trkpt lat="42.58601" lon="1.79511">
        <ele>1484.41</ele>
        <time>2013-03-23T13:46:39Z</time>
      </trkpt>
      <trkpt lat="42.58598" lon="1.79513">
        <ele>1483.93</ele>
        <time>2013-03-23T13:46:40Z</time>
      </trkpt>
      <trkpt lat="42.58595" lon="1.79514">
        <ele>1483.45</ele>
        <time>2013-03-23T13:46:41Z</time>
      </trkpt>
      <trkpt lat="42.58592" lon="1.79514">
        <ele>1482.97</ele>
        <time>2013-03-23T13:46:42Z</time>
      </trkpt>
      <trkpt lat="42.58565" lon="1.79525">
        <ele>1474.32</ele>
        <time>2013-03-23T13:46:51Z</time>
      </trkpt>
      <trkpt lat="42.58549" lon="1.79535">
        <ele>1470.47</ele>
        <time>2013-03-23T13:46:56Z</time>
      </trkpt>
      <trkpt lat="42.58549" lon="1.7954">
        <ele>1468.55</ele>
        <time>2013-03-23T13:46:57Z</time>
      </trkpt>
      <trkpt lat="42.58549" lon="1.79545">
        <ele>1466.63</ele>
        <time>2013-03-23T13:46:58Z</time>
      </trkpt>
      <trkpt lat="42.58548" lon="1.7955">
        <ele>1464.71</ele>
        <time>2013-03-23T13:46:59Z</time>
      </trkpt>
      <trkpt lat="42.5855" lon="1.79555">
        <ele>1462.78</ele>
        <time>2013-03-23T13:47:00Z</time>
      </trkpt>
      <trkpt lat="42.58549" lon="1.7956">
        <ele>1458.46</ele>
        <time>2013-03-23T13:47:05Z</time>
      </trkpt>
      <trkpt lat="42.58548" lon="1.79564">
        <ele>1457.98</ele>
        <time>2013-03-23T13:47:06Z</time>
      </trkpt>
      <trkpt lat="42.5855" lon="1.79566">
        <ele>1457.02</ele>
        <time>2013-03-23T13:47:07Z</time>
      </trkpt>
      <trkpt lat="42.58553" lon="1.79565">
        <ele>1455.57</ele>
        <time>2013-03-23T13:47:14Z</time>
      </trkpt>
      <trkpt lat="42.58555" lon="1.79563">
        <ele>1454.61</ele>
        <time>2013-03-23T13:47:27Z</time>
      </trkpt>
      <trkpt lat="42.58554" lon="1.79565">
        <ele>1453.17</ele>
        <time>2013-03-23T13:47:39Z</time>
      </trkpt>
      <trkpt lat="42.58553" lon="1.79564">
        <ele>1452.21</ele>
        <time>2013-03-23T13:47:48Z</time>
      </trkpt>
      <trkpt lat="42.58554" lon="1.79563">
        <ele>1449.32</ele>
        <time>2013-03-23T13:47:57Z</time>
      </trkpt>
      <trkpt lat="42.58554" lon="1.79561">
        <ele>1451.25</ele>
        <time>2013-03-23T13:48:08Z</time>
      </trkpt>
      <trkpt lat="42.58553" lon="1.79564">
        <ele>1450.77</ele>
        <time>2013-03-23T13:48:20Z</time>
      </trkpt>
      <trkpt lat="42.58555" lon="1.79563">
        <ele>1444.04</ele>
        <time>2013-03-23T13:48:49Z</time>
      </trkpt>
      <trkpt lat="42.58556" lon="1.79564">
        <ele>1443.08</ele>
        <time>2013-03-23T13:49:18Z</time>
      </trkpt>
      <trkpt lat="42.58555" lon="1.79564">
        <ele>1442.11</ele>
        <time>2013-03-23T13:49:48Z</time>
      </trkpt>
      <trkpt lat="42.58555" lon="1.79564">
        <ele>1446.92</ele>
        <time>2013-03-23T13:50:18Z</time>
      </trkpt>
      <trkpt lat="42.58552" lon="1.79565">
        <ele>1451.73</ele>
        <time>2013-03-23T13:50:53Z</time>
      </trkpt>
      <trkpt lat="42.5855" lon="1.79564">
        <ele>1444.52</ele>
        <time>2013-03-23T13:51:15Z</time>
      </trkpt>
      <trkpt lat="42.58554" lon="1.79566">
        <ele>1448.36</ele>
        <time>2013-03-23T13:51:41Z</time>
      </trkpt>
      <trkpt lat="42.58553" lon="1.79564">
        <ele>1445</ele>
        <time>2013-03-23T13:52:04Z</time>
      </trkpt>
      <trkpt lat="42.58551" lon="1.79564">
        <ele>1446.44</ele>
        <time>2013-03-23T13:52:19Z</time>
      </trkpt>
      <trkpt lat="42.58551" lon="1.79564">
        <ele>1445.48</ele>
        <time>2013-03-23T13:52:24Z</time>
      </trkpt>
      <trkpt lat="42.58551" lon="1.79562">
        <ele>1445.48</ele>
        <time>2013-03-23T13:52:25Z</time>
      </trkpt>
      <trkpt lat="42.58553" lon="1.79564">
        <ele>1445.96</ele>
        <time>2013-03-23T13:52:32Z</time>
      </trkpt>
      <trkpt lat="42.58554" lon="1.79566">
        <ele>1446.44</ele>
        <time>2013-03-23T13:52:34Z</time>
      </trkpt>
      <trkpt lat="42.58559" lon="1.79573">
        <ele>1447.4</ele>
        <time>2013-03-23T13:52:44Z</time>
      </trkpt>
      <trkpt lat="42.58574" lon="1.79566">
        <ele>1445.96</ele>
        <time>2013-03-23T13:52:59Z</time>
      </trkpt>
      <trkpt lat="42.58587" lon="1.79562">
        <ele>1445.48</ele>
        <time>2013-03-23T13:53:16Z</time>
      </trkpt>
      <trkpt lat="42.58591" lon="1.79561">
        <ele>1445.48</ele>
        <time>2013-03-23T13:53:19Z</time>
      </trkpt>
      <trkpt lat="42.58599" lon="1.7956">
        <ele>1445.48</ele>
        <time>2013-03-23T13:53:26Z</time>
      </trkpt>
      <trkpt lat="42.5862" lon="1.79559">
        <ele>1444.52</ele>
        <time>2013-03-23T13:53:42Z</time>
      </trkpt>
      <trkpt lat="42.58643" lon="1.79568">
        <ele>1442.6</ele>
        <time>2013-03-23T13:54:00Z</time>
      </trkpt>
      <trkpt lat="42.58667" lon="1.7958">
        <ele>1443.08</ele>
        <time>2013-03-23T13:54:19Z</time>
      </trkpt>
      <trkpt lat="42.58686" lon="1.79594">
        <ele>1440.67</ele>
        <time>2013-03-23T13:54:36Z</time>
      </trkpt>
      <trkpt lat="42.58699" lon="1.79609">
        <ele>1439.71</ele>
        <time>2013-03-23T13:54:51Z</time>
      </trkpt>
      <trkpt lat="42.58711" lon="1.79629">
        <ele>1438.27</ele>
        <time>2013-03-23T13:55:06Z</time>
      </trkpt>
      <trkpt lat="42.58713" lon="1.79631">
        <ele>1438.75</ele>
        <time>2013-03-23T13:55:08Z</time>
      </trkpt>
      <trkpt lat="42.58713" lon="1.79632">
        <ele>1438.75</ele>
        <time>2013-03-23T13:55:09Z</time>
      </trkpt>
      <trkpt lat="42.58726" lon="1.79652">
        <ele>1437.31</ele>
        <time>2013-03-23T13:55:27Z</time>
      </trkpt>
      <trkpt lat="42.58725" lon="1.79651">
        <ele>1438.75</ele>
        <time>2013-03-23T13:55:33Z</time>
      </trkpt>
      <trkpt lat="42.58725" lon="1.79652">
        <ele>1438.27</ele>
        <time>2013-03-23T13:55:35Z</time>
      </trkpt>
      <trkpt lat="42.58726" lon="1.79653">
        <ele>1438.27</ele>
        <time>2013-03-23T13:55:36Z</time>
      </trkpt>
      <trkpt lat="42.58727" lon="1.79655">
        <ele>1438.27</ele>
        <time>2013-03-23T13:55:37Z</time>
      </trkpt>
      <trkpt lat="42.58728" lon="1.79656">
        <ele>1437.79</ele>
        <time>2013-03-23T13:55:38Z</time>
      </trkpt>
      <trkpt lat="42.5873" lon="1.79657">
        <ele>1437.31</ele>
        <time>2013-03-23T13:55:39Z</time>
      </trkpt>
      <trkpt lat="42.58731" lon="1.79659">
        <ele>1436.83</ele>
        <time>2013-03-23T13:55:40Z</time>
      </trkpt>
      <trkpt lat="42.5875" lon="1.79683">
        <ele>1433.94</ele>
        <time>2013-03-23T13:55:59Z</time>
      </trkpt>
      <trkpt lat="42.58767" lon="1.79703">
        <ele>1433.46</ele>
        <time>2013-03-23T13:56:16Z</time>
      </trkpt>
      <trkpt lat="42.58784" lon="1.79725">
        <ele>1431.06</ele>
        <time>2013-03-23T13:56:34Z</time>
      </trkpt>
      <trkpt lat="42.58796" lon="1.7975">
        <ele>1432.02</ele>
        <time>2013-03-23T13:56:51Z</time>
      </trkpt>
      <trkpt lat="42.5881" lon="1.79772">
        <ele>1432.02</ele>
        <time>2013-03-23T13:57:07Z</time>
      </trkpt>
      <trkpt lat="42.58813" lon="1.79782">
        <ele>1432.02</ele>
        <time>2013-03-23T13:57:16Z</time>
      </trkpt>
      <trkpt lat="42.58812" lon="1.79783">
        <ele>1432.02</ele>
        <time>2013-03-23T13:57:17Z</time>
      </trkpt>
      <trkpt lat="42.58812" lon="1.79784">
        <ele>1432.02</ele>
        <time>2013-03-23T13:57:18Z</time>
      </trkpt>
      <trkpt lat="42.58812" lon="1.79786">
        <ele>1432.02</ele>
        <time>2013-03-23T13:57:19Z</time>
      </trkpt>
      <trkpt lat="42.58812" lon="1.79788">
        <ele>1432.5</ele>
        <time>2013-03-23T13:57:20Z</time>
      </trkpt>
      <trkpt lat="42.58812" lon="1.7979">
        <ele>1432.02</ele>
        <time>2013-03-23T13:57:21Z</time>
      </trkpt>
      <trkpt lat="42.58813" lon="1.79792">
        <ele>1431.54</ele>
        <time>2013-03-23T13:57:22Z</time>
      </trkpt>
      <trkpt lat="42.58813" lon="1.79794">
        <ele>1431.54</ele>
        <time>2013-03-23T13:57:23Z</time>
      </trkpt>
      <trkpt lat="42.58827" lon="1.79815">
        <ele>1432.98</ele>
        <time>2013-03-23T13:57:38Z</time>
      </trkpt>
      <trkpt lat="42.58834" lon="1.79834">
        <ele>1432.98</ele>
        <time>2013-03-23T13:57:51Z</time>
      </trkpt>
      <trkpt lat="42.58833" lon="1.79835">
        <ele>1432.98</ele>
        <time>2013-03-23T13:57:52Z</time>
      </trkpt>
      <trkpt lat="42.58832" lon="1.79836">
        <ele>1432.98</ele>
        <time>2013-03-23T13:57:53Z</time>
      </trkpt>
      <trkpt lat="42.5883" lon="1.79837">
        <ele>1432.98</ele>
        <time>2013-03-23T13:57:54Z</time>
      </trkpt>
      <trkpt lat="42.58829" lon="1.79838">
        <ele>1432.98</ele>
        <time>2013-03-23T13:57:55Z</time>
      </trkpt>
      <trkpt lat="42.58829" lon="1.7984">
        <ele>1432.98</ele>
        <time>2013-03-23T13:57:56Z</time>
      </trkpt>
      <trkpt lat="42.58828" lon="1.79841">
        <ele>1432.98</ele>
        <time>2013-03-23T13:57:57Z</time>
      </trkpt>
      <trkpt lat="42.58827" lon="1.79842">
        <ele>1432.5</ele>
        <time>2013-03-23T13:57:58Z</time>
      </trkpt>
      <trkpt lat="42.58826" lon="1.79844">
        <ele>1432.5</ele>
        <time>2013-03-23T13:57:59Z</time>
      </trkpt>
      <trkpt lat="42.58825" lon="1.79844">
        <ele>1432.5</ele>
        <time>2013-03-23T13:58:00Z</time>
      </trkpt>
      <trkpt lat="42.58824" lon="1.79846">
        <ele>1432.5</ele>
        <time>2013-03-23T13:58:01Z</time>
      </trkpt>
      <trkpt lat="42.58823" lon="1.79847">
        <ele>1432.5</ele>
        <time>2013-03-23T13:58:02Z</time>
      </trkpt>
      <trkpt lat="42.58823" lon="1.79848">
        <ele>1432.02</ele>
        <time>2013-03-23T13:58:03Z</time>
      </trkpt>
      <trkpt lat="42.58822" lon="1.79849">
        <ele>1432.02</ele>
        <time>2013-03-23T13:58:04Z</time>
      </trkpt>
      <trkpt lat="42.58821" lon="1.79851">
        <ele>1432.02</ele>
        <time>2013-03-23T13:58:05Z</time>
      </trkpt>
      <trkpt lat="42.58821" lon="1.79853">
        <ele>1431.54</ele>
        <time>2013-03-23T13:58:06Z</time>
      </trkpt>
      <trkpt lat="42.58821" lon="1.79855">
        <ele>1431.54</ele>
        <time>2013-03-23T13:58:07Z</time>
      </trkpt>
      <trkpt lat="42.58828" lon="1.79879">
        <ele>1432.98</ele>
        <time>2013-03-23T13:58:22Z</time>
      </trkpt>
      <trkpt lat="42.58831" lon="1.79881">
        <ele>1432.5</ele>
        <time>2013-03-23T13:58:26Z</time>
      </trkpt>
      <trkpt lat="42.58832" lon="1.79882">
        <ele>1432.5</ele>
        <time>2013-03-23T13:58:27Z</time>
      </trkpt>
      <trkpt lat="42.58832" lon="1.79884">
        <ele>1432.5</ele>
        <time>2013-03-23T13:58:29Z</time>
      </trkpt>
      <trkpt lat="42.5883" lon="1.79889">
        <ele>1432.02</ele>
        <time>2013-03-23T13:58:33Z</time>
      </trkpt>
      <trkpt lat="42.5883" lon="1.79889">
        <ele>1428.66</ele>
        <time>2013-03-23T13:58:42Z</time>
      </trkpt>
      <trkpt lat="42.58828" lon="1.79889">
        <ele>1426.73</ele>
        <time>2013-03-23T13:58:53Z</time>
      </trkpt>
      <trkpt lat="42.58827" lon="1.7989">
        <ele>1426.25</ele>
        <time>2013-03-23T13:59:20Z</time>
      </trkpt>
      <trkpt lat="42.58827" lon="1.79889">
        <ele>1430.58</ele>
        <time>2013-03-23T13:59:48Z</time>
      </trkpt>
      <trkpt lat="42.58827" lon="1.7989">
        <ele>1432.02</ele>
        <time>2013-03-23T14:00:26Z</time>
      </trkpt>
      <trkpt lat="42.58831" lon="1.79889">
        <ele>1435.87</ele>
        <time>2013-03-23T14:01:05Z</time>
      </trkpt>
      <trkpt lat="42.58827" lon="1.79885">
        <ele>1432.02</ele>
        <time>2013-03-23T14:01:44Z</time>
      </trkpt>
      <trkpt lat="42.58827" lon="1.79889">
        <ele>1432.02</ele>
        <time>2013-03-23T14:02:20Z</time>
      </trkpt>
      <trkpt lat="42.58828" lon="1.79884">
        <ele>1429.14</ele>
        <time>2013-03-23T14:03:07Z</time>
      </trkpt>
      <trkpt lat="42.58826" lon="1.79888">
        <ele>1429.14</ele>
        <time>2013-03-23T14:03:47Z</time>
      </trkpt>
      <trkpt lat="42.58824" lon="1.79891">
        <ele>1428.66</ele>
        <time>2013-03-23T14:04:22Z</time>
      </trkpt>
      <trkpt lat="42.58825" lon="1.79891">
        <ele>1428.18</ele>
        <time>2013-03-23T14:04:54Z</time>
      </trkpt>
      <trkpt lat="42.58825" lon="1.79893">
        <ele>1430.1</ele>
        <time>2013-03-23T14:05:21Z</time>
      </trkpt>
      <trkpt lat="42.58827" lon="1.79894">
        <ele>1423.85</ele>
        <time>2013-03-23T14:05:52Z</time>
      </trkpt>
      <trkpt lat="42.58829" lon="1.79892">
        <ele>1427.21</ele>
        <time>2013-03-23T14:06:31Z</time>
      </trkpt>
      <trkpt lat="42.58827" lon="1.79888">
        <ele>1430.58</ele>
        <time>2013-03-23T14:07:03Z</time>
      </trkpt>
      <trkpt lat="42.58826" lon="1.79889">
        <ele>1432.02</ele>
        <time>2013-03-23T14:07:39Z</time>
      </trkpt>
      <trkpt lat="42.58825" lon="1.79885">
        <ele>1429.14</ele>
        <time>2013-03-23T14:08:22Z</time>
      </trkpt>
      <trkpt lat="42.58827" lon="1.79889">
        <ele>1432.5</ele>
        <time>2013-03-23T14:08:55Z</time>
      </trkpt>
      <trkpt lat="42.58827" lon="1.79889">
        <ele>1432.5</ele>
        <time>2013-03-23T14:09:28Z</time>
      </trkpt>
      <trkpt lat="42.58828" lon="1.79891">
        <ele>1431.06</ele>
        <time>2013-03-23T14:09:56Z</time>
      </trkpt>
      <trkpt lat="42.58827" lon="1.79888">
        <ele>1426.25</ele>
        <time>2013-03-23T14:10:24Z</time>
      </trkpt>
      <trkpt lat="42.58828" lon="1.79889">
        <ele>1424.33</ele>
        <time>2013-03-23T14:11:05Z</time>
      </trkpt>
      <trkpt lat="42.58829" lon="1.79888">
        <ele>1424.33</ele>
        <time>2013-03-23T14:11:21Z</time>
      </trkpt>
    </trkseg>
  </trk>
</gpx>